# Wetter Temperatur Luftdruck Luftfeuchtigkeit Sichtweite Windgeschwindigkeit Windrichtung Zeit
1 Clear 33 1010 12 10000 1.55 63 09:27 02.10.2022
2 Clear 28 1010 13 10000 0.95 15 07:41 02.10.2022
3 Clear 23 1009 19 10000 0.78 314 02:55 02.10.2022
4 Clear 25 1009 18 10000 2.22 12 00:46 02.10.2022
5 Clear 25 1009 18 10000 1.69 356 00:21 02.10.2022
6 Clear 27 1009 18 10000 0.88 43 22:43 01.10.2022
7 Clear 29 1009 15 10000 2.81 85 20:36 01.10.2022
8 Clear 32 1009 12 10000 4.03 60 18:50 01.10.2022
9 Clear 35 1008 10 10000 2.48 55 16:36 01.10.2022
10 Clear 36 1007 8 10000 1.62 49 14:41 01.10.2022
11 Clear 36 1007 9 10000 1.81 73 13:31 01.10.2022
12 Clear 36 1008 9 10000 1.6 64 12:33 01.10.2022
13 Clear 34 1010 10 10000 2.01 65 11:21 01.10.2022
14 Clear 33 1010 10 10000 2.01 65 10:32 01.10.2022
15 Clear 32 1012 11 10000 2.63 70 09:28 01.10.2022
16 Clear 33 1012 11 10000 2.63 70 08:58 01.10.2022
17 Clear 22 1012 17 10000 1.39 43 05:28 01.10.2022
18 Clear 22 1012 17 10000 1.08 32 03:34 01.10.2022
19 Clear 23 1011 15 10000 1.39 58 00:29 01.10.2022
20 Clear 27 1011 14 10000 2.3 62 22:48 30.09.2022
21 Clear 28 1011 13 10000 3.47 66 21:31 30.09.2022
22 Clear 29 1010 13 10000 4.56 63 20:44 30.09.2022
23 Clear 29 1010 13 10000 5.41 60 20:18 30.09.2022
24 Clear 33 1009 12 10000 5.47 60 17:38 30.09.2022
25 Clear 37 1008 10 10000 1.8 50 15:58 30.09.2022
26 Clear 36 1008 10 10000 0.89 111 13:34 30.09.2022
27 Clear 34 1009 10 10000 1.84 113 11:58 30.09.2022
28 Clear 34 1010 10 10000 2.49 109 11:28 30.09.2022
29 Clear 30 1011 12 10000 3.26 116 08:37 30.09.2022
30 Clear 24 1011 18 10000 2.39 120 06:26 30.09.2022
31 Clear 23 1010 17 10000 2.53 141 02:39 30.09.2022
32 Clear 28 1009 15 10000 2.4 51 22:40 29.09.2022
33 Clear 29 1009 13 10000 4.84 63 21:28 29.09.2022
34 Clear 30 1009 13 10000 4.84 63 20:57 29.09.2022
35 Clear 33 1007 12 10000 4.51 49 18:45 29.09.2022
36 Clear 35 1007 11 10000 3.68 19 17:32 29.09.2022
37 Clear 36 1006 9 10000 3.49 4 16:28 29.09.2022
38 Clear 37 1006 9 10000 3.49 4 15:36 29.09.2022
39 Clear 37 1006 8 10000 3.3 344 14:31 29.09.2022
40 Clear 34 1009 10 10000 1.33 351 10:29 29.09.2022
41 Clear 24 1009 14 10000 0.37 129 06:58 29.09.2022
42 Clear 24 1008 18 10000 1.55 115 02:51 29.09.2022
43 Clear 27 1008 17 10000 3.24 11 23:56 28.09.2022
44 Clear 28 1008 16 10000 2.7 331 22:44 28.09.2022
45 Clear 29 1009 15 10000 3.32 340 21:29 28.09.2022
46 Clear 30 1009 14 10000 3.77 355 20:24 28.09.2022
47 Clear 33 1008 14 10000 4.15 0 18:41 28.09.2022
48 Clear 37 1006 9 10000 5.25 354 15:26 28.09.2022
49 Clear 39 1007 9 10000 5.01 348 13:26 28.09.2022
50 Clear 37 1009 10 10000 4.81 349 11:18 28.09.2022
51 Clear 35 1011 11 10000 2.89 0 09:18 28.09.2022
52 Clear 28 1012 10 10000 0.87 213 07:20 28.09.2022
53 Clear 22 1012 13 10000 1.62 320 03:18 28.09.2022
54 Clear 24 1011 12 10000 1.71 334 01:35 28.09.2022
55 Clear 26 1011 10 10000 2.7 24 23:27 27.09.2022
56 Clear 29 1012 10 10000 3.3 34 21:47 27.09.2022
57 Clear 29 1012 10 10000 3.87 38 20:39 27.09.2022
58 Clear 31 1012 9 10000 4.11 36 19:48 27.09.2022
59 Clear 33 1011 8 10000 4.66 32 18:45 27.09.2022
60 Clear 34 1010 8 10000 4.85 25 17:45 27.09.2022
61 Clear 36 1009 5 10000 5.48 20 15:40 27.09.2022
62 Clear 37 1009 5 10000 5.41 11 14:55 27.09.2022
63 Clear 37 1009 5 10000 4.77 360 12:50 27.09.2022
64 Clear 36 1011 7 10000 4.86 354 11:34 27.09.2022
65 Clear 31 1013 11 10000 5.3 352 08:50 27.09.2022
66 Clear 24 1014 17 10000 4.86 339 06:56 27.09.2022
67 Clear 25 1012 25 10000 3.01 333 02:41 27.09.2022
68 Clear 26 1012 25 10000 2.88 339 01:29 27.09.2022
69 Clear 28 1012 23 10000 2.98 359 23:26 26.09.2022
70 Clear 29 1012 23 10000 2.98 359 22:38 26.09.2022
71 Clear 31 1012 19 10000 4.52 12 20:46 26.09.2022
72 Clear 32 1011 16 10000 4.75 19 19:31 26.09.2022
73 Clear 33 1010 15 10000 4.83 23 18:32 26.09.2022
74 Clear 35 1009 14 10000 5.23 21 16:36 26.09.2022
75 Clear 35 1008 12 10000 7.48 22 14:37 26.09.2022
76 Clouds 35 1009 12 10000 7.17 18 11:30 26.09.2022
77 Clear 33 1010 13 10000 7.11 15 10:39 26.09.2022
78 Clear 33 1012 15 10000 7.23 13 10:20 26.09.2022
79 Clear 32 1012 15 10000 7.23 13 09:55 26.09.2022
80 Clear 32 1012 19 10000 7.25 7 09:24 26.09.2022
81 Clear 28 1013 22 10000 8.62 6 07:56 26.09.2022
82 Clear 28 1010 28 10000 7.61 347 02:57 26.09.2022
83 Clouds 32 1010 25 10000 7.23 350 23:57 25.09.2022
84 Clouds 33 1010 23 10000 6.93 349 22:45 25.09.2022
85 Clouds 33 1010 20 10000 6.32 349 21:35 25.09.2022
86 Clouds 34 1010 19 10000 5.31 350 20:48 25.09.2022
87 Clouds 34 1009 16 10000 4.52 7 19:43 25.09.2022
88 Clouds 34 1008 15 10000 4.49 13 18:43 25.09.2022
89 Clouds 34 1008 14 10000 4.63 15 18:20 25.09.2022
90 Clouds 35 1007 12 10000 5.04 19 16:45 25.09.2022
91 Clear 36 1006 11 10000 6.59 22 15:45 25.09.2022
92 Clear 36 1006 10 10000 6.56 20 14:22 25.09.2022
93 Clear 35 1006 11 10000 6.71 13 12:57 25.09.2022
94 Clear 33 1008 13 10000 7.93 5 10:36 25.09.2022
95 Clear 31 1011 21 10000 8.44 357 08:25 25.09.2022
96 Clear 25 1011 27 10000 6.12 347 06:23 25.09.2022
97 Clear 25 1011 27 10000 6.12 347 06:23 25.09.2022
98 Clear 26 1009 23 10000 4.83 336 02:57 25.09.2022
99 Clear 29 1010 17 10000 5.8 346 22:50 24.09.2022
100 Clear 30 1010 15 10000 6.09 358 21:19 24.09.2022
101 Clear 33 1010 13 10000 5.64 1 19:23 24.09.2022
102 Clear 36 1009 13 10000 5.86 2 17:50 24.09.2022
103 Clear 37 1008 10 10000 8.12 358 16:27 24.09.2022
104 Clear 38 1008 9 10000 7.75 357 15:22 24.09.2022
105 Clear 39 1008 9 10000 5.6 357 13:35 24.09.2022
106 Clear 39 1008 9 10000 4.87 4 12:51 24.09.2022
107 Clear 38 1010 11 10000 5.31 33 11:21 24.09.2022
108 Clear 34 1011 12 10000 5.77 34 09:46 24.09.2022
109 Clear 32 1012 14 10000 5.97 31 08:45 24.09.2022
110 Clear 32 1013 17 10000 6.8 18 07:38 24.09.2022
111 Clear 28 1012 26 10000 3.74 342 04:46 24.09.2022
112 Clear 29 1011 23 10000 4.14 343 03:42 24.09.2022
113 Clouds 32 1009 17 10000 4.22 6 22:36 23.09.2022
114 Clouds 34 1008 15 10000 5.78 20 21:28 23.09.2022
115 Clouds 35 1008 15 10000 5.78 20 20:56 23.09.2022
116 Clear 35 1008 12 10000 3.8 24 20:20 23.09.2022
117 Clear 35 1007 11 10000 3.11 42 18:50 23.09.2022
118 Clear 41 1006 8 10000 1.69 33 14:33 23.09.2022
119 Clear 39 1008 9 10000 1.88 152 10:55 23.09.2022
120 Clear 36 1009 10 10000 1.85 170 09:32 23.09.2022
121 Clear 26 1009 16 10000 0.87 311 05:20 23.09.2022
122 Clouds 31 1007 15 10000 2.74 193 00:31 23.09.2022
123 Clouds 33 1007 15 10000 3.67 144 23:21 22.09.2022
124 Clouds 33 1007 15 10000 3.9 147 22:26 22.09.2022
125 Clouds 35 1007 15 10000 4.71 133 20:46 22.09.2022
126 Clear 35 1007 13 10000 4.64 134 19:37 22.09.2022
127 Clear 38 1005 11 10000 4.05 125 16:57 22.09.2022
128 Clear 39 1005 10 10000 4.71 151 12:19 22.09.2022
129 Clear 37 1007 10 10000 5.28 161 10:20 22.09.2022
130 Clear 33 1007 12 10000 4.91 164 08:46 22.09.2022
131 Clear 28 1008 17 10000 3.68 152 06:45 22.09.2022
132 Clear 29 1006 25 10000 2.41 158 02:52 22.09.2022
133 Clear 31 1006 23 10000 3.76 138 23:25 21.09.2022
134 Clear 32 1006 23 10000 4.21 131 21:41 21.09.2022
135 Clear 34 1005 21 10000 5.09 101 19:55 21.09.2022
136 Clear 36 1004 20 10000 2.94 133 17:48 21.09.2022
137 -273 0 0 0 0 0 16:30 21.09.2022
138 Clear 39 1004 17 10000 2.1 112 14:31 21.09.2022
139 Clouds 36 1004 17 10000 2.81 123 12:42 21.09.2022
140 Clouds 35 1006 20 10000 4.17 141 11:29 21.09.2022
141 Clouds 34 1007 23 10000 4.16 148 09:50 21.09.2022
142 Clouds 33 1008 26 10000 3.98 162 09:00 21.09.2022
143 Clouds 31 1008 27 10000 3.57 147 07:18 21.09.2022
144 Clear 27 1007 25 10000 3.65 126 02:47 21.09.2022
145 Clear 27 1006 25 10000 3.33 131 02:25 21.09.2022
146 Clear 28 1006 26 10000 2.88 119 00:34 21.09.2022
147 Clear 30 1007 26 10000 2.95 113 22:43 20.09.2022
148 Clear 32 1007 22 10000 4.51 78 20:51 20.09.2022
149 Clouds 33 1006 17 10000 6.1 72 19:32 20.09.2022
150 Clouds 38 1004 8 10000 5.81 26 16:25 20.09.2022
151 Clear 40 1004 8 10000 4.46 7 14:45 20.09.2022
152 Clear 40 1004 8 10000 2.09 9 12:58 20.09.2022
153 Clear 36 1007 13 10000 1.64 105 09:34 20.09.2022
154 Clear 33 1008 17 10000 2.66 139 08:26 20.09.2022
155 Clear 26 1008 22 10000 2.21 147 04:50 20.09.2022
156 Clear 27 1008 21 10000 2.53 146 03:48 20.09.2022
157 Clear 31 1007 12 10000 2.9 77 22:55 19.09.2022
158 Clear 32 1007 11 10000 3.33 68 21:46 19.09.2022
159 Clear 34 1007 11 10000 4.3 69 20:51 19.09.2022
160 Clear 34 1007 11 10000 4.29 69 20:30 19.09.2022
161 Clear 38 1006 10 10000 5.25 58 17:44 19.09.2022
162 Clear 40 1004 7 10000 3.21 358 14:54 19.09.2022
163 Clear 40 1004 8 10000 2.4 348 13:32 19.09.2022
164 Clear 40 1006 10 10000 1.87 130 11:25 19.09.2022
165 Clear 36 1008 12 10000 4 144 08:51 19.09.2022
166 Clear 28 1008 14 10000 3.13 151 06:42 19.09.2022
167 Clear 29 1006 17 10000 3.09 117 01:55 19.09.2022
168 Clear 31 1006 15 10000 2.56 100 23:22 18.09.2022
169 Clear 32 1007 14 10000 3.11 97 21:44 18.09.2022
170 Clear 32 1007 13 10000 4.12 82 20:25 18.09.2022
171 Clear 36 1005 11 10000 4.07 57 18:18 18.09.2022
172 Clear 38 1005 11 10000 4.07 57 17:37 18.09.2022
173 Clear 40 1004 9 10000 4.89 42 15:46 18.09.2022
174 Clear 40 1003 9 10000 4.6 58 13:51 18.09.2022
175 Clear 40 1005 10 10000 2.33 105 12:35 18.09.2022
176 Clear 39 1006 11 10000 2.98 159 11:24 18.09.2022
177 Clear 26 1007 20 10000 2.18 106 04:26 18.09.2022
178 Clear 28 1005 18 10000 2.52 131 01:25 18.09.2022
179 Clear 29 1006 17 10000 2.6 128 00:23 18.09.2022
180 Clear 32 1005 16 10000 2.41 105 21:40 17.09.2022
181 Clear 35 1005 14 10000 4.73 68 19:44 17.09.2022
182 Clear 36 1005 13 10000 4.46 59 18:57 17.09.2022
183 Clear 36 1005 13 10000 4.46 59 18:57 17.09.2022
184 Clear 40 1003 10 10000 3.96 27 16:22 17.09.2022
185 Clear 40 1003 10 10000 1.75 18 13:56 17.09.2022
186 Clear 37 1004 11 10000 0.31 261 11:31 17.09.2022
187 Clear 34 1007 14 10000 1.35 127 09:27 17.09.2022
188 Clear 28 1007 20 10000 1.66 41 06:25 17.09.2022
189 Clear 30 1006 20 10000 2.21 82 00:20 17.09.2022
190 Clear 31 1007 19 10000 2.51 62 22:54 16.09.2022
191 Clear 32 1007 17 10000 3.91 48 21:23 16.09.2022
192 Clear 35 1006 15 10000 4.48 50 19:51 16.09.2022
193 Clear 38 1004 10 10000 4.06 45 16:56 16.09.2022
194 Clear 39 1004 9 10000 2.43 12 15:26 16.09.2022
195 Clear 38 1004 9 10000 1.09 29 13:57 16.09.2022
196 Clear 38 1006 10 10000 1.03 112 11:42 16.09.2022
197 Clear 34 1009 13 10000 3.7 73 08:26 16.09.2022
198 Clouds 32 1009 19 10000 2.61 87 07:19 16.09.2022
199 Clouds 29 1009 19 10000 2.61 87 06:47 16.09.2022
200 Clear 29 1008 27 10000 3.17 9 02:40 16.09.2022
201 Clouds 31 1008 15 10000 2.36 61 22:52 15.09.2022
202 Clear 33 1008 13 10000 4.19 78 21:18 15.09.2022
203 Clear 36 1007 12 10000 4.5 85 19:49 15.09.2022
204 Clear 37 1006 9 10000 5.19 82 18:29 15.09.2022
205 Clear 39 1006 9 10000 5.19 82 17:32 15.09.2022
206 Clear 40 1005 8 10000 5.67 65 16:43 15.09.2022
207 Clear 41 1005 7 10000 7.95 44 14:36 15.09.2022
208 Clear 41 1006 7 10000 6.61 44 12:21 15.09.2022
209 Clear 38 1007 8 10000 4.84 33 09:54 15.09.2022
210 Clear 32 1008 11 10000 1.29 339 07:50 15.09.2022
211 Clear 27 1007 17 10000 0.28 37 03:53 15.09.2022
212 Clear 33 1006 15 10000 0.51 169 23:44 14.09.2022
213 Clear 35 1006 13 10000 2.89 131 21:39 14.09.2022
214 Clear 37 1006 11 10000 4.99 96 19:34 14.09.2022
215 Clear 39 1005 10 10000 4.34 80 18:32 14.09.2022
216 Clear 42 1003 8 10000 4.1 63 16:46 14.09.2022
217 Clear 43 1003 7 10000 3.73 40 15:34 14.09.2022
218 Clear 42 1003 6 10000 1.74 352 13:54 14.09.2022
219 Clear 42 1004 7 10000 1.4 84 11:30 14.09.2022
220 Clear 40 1006 8 10000 3.39 146 09:48 14.09.2022
221 Clear 32 1007 11 10000 3.46 170 06:53 14.09.2022
222 Clear 32 1007 11 10000 3.46 170 06:34 14.09.2022
223 Clear 32 1007 11 10000 3.46 170 06:34 14.09.2022
224 Clear 32 1007 11 10000 3.46 170 06:34 14.09.2022
225 Clear 27 1006 16 10000 2.67 172 04:24 14.09.2022
226 Clear 32 1005 14 10000 3.33 138 01:46 14.09.2022
227 Clear 32 1005 13 10000 3.39 124 01:27 14.09.2022
228 Clear 34 1005 11 10000 4.01 100 23:55 13.09.2022
229 Clear 34 1005 11 10000 4.01 100 23:37 13.09.2022
230 Clear 34 1004 10 10000 2.47 125 23:19 13.09.2022
231 Clear 34 1004 10 10000 2.47 125 22:44 13.09.2022
232 Clear 34 1004 10 10000 2.32 199 21:44 13.09.2022
233 Clear 36 1004 9 10000 2.25 152 19:32 13.09.2022
234 Clear 41 1003 8 10000 2.74 106 17:41 13.09.2022
235 Clear 43 1002 6 10000 3.13 59 15:54 13.09.2022
236 Clear 43 1002 6 10000 3.13 59 15:54 13.09.2022
237 Clear 44 1002 6 10000 2.61 66 14:31 13.09.2022
238 Clear 42 1002 6 10000 2.31 83 12:30 13.09.2022
239 Clear 37 1005 7 10000 5.16 175 08:34 13.09.2022
240 Clear 29 1004 12 10000 2.22 179 04:32 13.09.2022
241 Clear 31 1004 11 10000 2.61 164 23:32 12.09.2022
242 Clear 31 1003 11 10000 2.4 138 22:49 12.09.2022
243 Clear 32 1003 11 10000 2.45 103 21:36 12.09.2022
244 Clouds 35 1003 10 10000 2.84 55 20:25 12.09.2022
245 Clouds 38 1002 9 10000 3.19 55 18:43 12.09.2022
246 Clouds 41 1001 7 10000 3.27 28 16:23 12.09.2022
247 Clouds 42 1001 7 10000 3.31 24 13:41 12.09.2022
248 Clear 41 1003 7 10000 1.68 15 11:22 12.09.2022
249 Clear 40 1004 8 10000 1.29 274 09:45 12.09.2022
250 Clear 28 1005 13 10000 2.75 185 04:49 12.09.2022
251 Clear 27 1004 13 10000 2.41 154 03:33 12.09.2022
252 Clear 33 1004 12 10000 2.97 185 23:22 11.09.2022
253 Clear 33 1005 13 10000 1.45 102 21:58 11.09.2022
254 Clear 35 1005 11 10000 3.07 70 20:46 11.09.2022
255 Clouds 37 1005 10 10000 3.72 62 19:52 11.09.2022
256 Clouds 37 1004 10 10000 3.68 51 19:22 11.09.2022
257 Clouds 38 1004 9 10000 3.58 35 18:20 11.09.2022
258 Clouds 41 1003 8 10000 5.25 35 16:28 11.09.2022
259 Clear 42 1003 7 10000 5.61 44 14:18 11.09.2022
260 Clear 42 1003 8 10000 5.81 54 12:33 11.09.2022
261 Clear 36 1007 11 10000 2.09 51 08:39 11.09.2022
262 Clear 30 1007 16 10000 0.7 265 06:44 11.09.2022
263 Clear 32 1006 19 10000 1.56 4 00:49 11.09.2022
264 Clear 33 1007 18 10000 0.7 130 22:54 10.09.2022
265 Clear 37 1007 15 10000 3.52 107 20:55 10.09.2022
266 Clear 37 1006 13 10000 3.35 108 19:46 10.09.2022
267 Clear 37 1005 12 10000 3.08 124 19:27 10.09.2022
268 Clear 40 1005 11 10000 2.71 132 17:59 10.09.2022
269 Clear 44 1003 9 10000 1.82 123 15:45 10.09.2022
270 Clear 42 1003 9 10000 1.29 139 14:37 10.09.2022
271 Clear 42 1004 9 10000 1.36 105 12:52 10.09.2022
272 Clear 41 1006 11 10000 2.78 109 10:35 10.09.2022
273 Clear 39 1008 14 10000 2.11 177 09:24 10.09.2022
274 Clear 37 1008 15 10000 1.82 176 08:27 10.09.2022
275 Clear 28 1008 18 10000 0.71 264 05:50 10.09.2022
276 Clear 34 1007 18 10000 0.54 331 23:56 09.09.2022
277 Clear 34 1007 17 10000 0.91 328 23:29 09.09.2022
278 Clear 35 1007 14 10000 3.63 138 21:24 09.09.2022
279 Clear 34 1007 13 10000 4.1 104 20:28 09.09.2022
280 Clear 38 1006 12 10000 3.75 92 19:23 09.09.2022
281 Clear 39 1006 12 10000 3.76 92 18:33 09.09.2022
282 Clear 41 1005 9 10000 5.3 91 16:18 09.09.2022
283 Clear 42 1005 8 10000 3.32 87 13:47 09.09.2022
284 Clear 41 1006 9 10000 2.06 68 11:51 09.09.2022
285 Clear 37 1009 11 10000 1.86 140 08:19 09.09.2022
286 Clear 30 1008 15 10000 2.09 221 03:43 09.09.2022
287 Clear 32 1007 14 10000 2.09 148 00:39 09.09.2022
288 Clear 32 1008 12 10000 2.28 185 21:52 08.09.2022
289 Clear 34 1008 12 10000 2.39 199 20:50 08.09.2022
290 Clear 34 1007 11 10000 3.37 170 20:29 08.09.2022
291 Clear 35 1007 11 10000 2.63 178 19:28 08.09.2022
292 Clear 39 1006 10 10000 2.05 211 17:35 08.09.2022
293 Clear 41 1005 8 10000 2.64 189 16:19 08.09.2022
294 Clear 42 1005 8 10000 4.08 165 13:56 08.09.2022
295 Clear 42 1005 8 10000 4.65 145 12:50 08.09.2022
296 Clear 41 1006 8 10000 5.12 132 11:32 08.09.2022
297 Clear 39 1007 9 10000 5.89 160 09:58 08.09.2022
298 Clear 35 1008 10 10000 6.01 177 07:45 08.09.2022
299 Clear 33 1008 14 10000 2.88 208 05:30 08.09.2022
300 Clear 34 1006 16 10000 4.63 176 02:36 08.09.2022
301 Clear 34 1005 16 10000 4.31 164 02:18 08.09.2022
302 Clear 35 1005 15 10000 4.1 164 00:21 08.09.2022
303 Clear 36 1005 14 10000 4.73 164 21:58 07.09.2022
304 Clear 36 1005 14 10000 4.73 164 21:38 07.09.2022
305 Clear 36 1005 12 10000 4.77 154 20:30 07.09.2022
306 Clear 37 1004 10 10000 3.52 148 19:23 07.09.2022
307 Clear 41 1003 9 10000 3.61 121 16:30 07.09.2022
308 Clear 41 1003 8 10000 4.86 120 11:32 07.09.2022
309 Clear 40 1003 8 10000 4.31 126 10:36 07.09.2022
310 Clear 36 1004 8 10000 2.32 134 08:33 07.09.2022
311 Clear 29 1005 10 10000 1.43 96 06:31 07.09.2022
312 Clear 31 1003 12 10000 3.88 342 00:49 07.09.2022
313 Clear 34 1003 10 10000 3.04 346 21:58 06.09.2022
314 Clear 34 1003 10 10000 3.04 346 21:36 06.09.2022
315 Clear 38 1003 10 10000 2.37 22 19:40 06.09.2022
316 Clear 36 1002 9 10000 2.37 38 18:40 06.09.2022
317 Clear 39 1002 8 10000 2.84 45 17:50 06.09.2022
318 Clear 42 1001 7 10000 3.34 44 16:53 06.09.2022
319 Clear 42 1000 6 10000 4.07 35 16:25 06.09.2022
320 Clear 43 1000 6 10000 3.3 20 14:49 06.09.2022
321 Clear 44 1001 6 10000 3.06 339 13:44 06.09.2022
322 Clear 44 1001 6 10000 3.5 334 13:19 06.09.2022
323 Clear 42 1003 6 10000 3.01 3 10:56 06.09.2022
324 Clear 39 1004 6 10000 2.68 359 09:49 06.09.2022
325 Clear 36 1005 8 10000 3.97 342 08:18 06.09.2022
326 Clear 29 1005 10 10000 2.38 307 06:20 06.09.2022
327 Clear 30 1003 12 10000 0.91 6 01:20 06.09.2022
328 Clear 34 1004 10 10000 2.3 38 22:57 05.09.2022
329 Clear 37 1004 10 10000 2.93 33 21:38 05.09.2022
330 Clear 36 1004 9 10000 3.1 32 20:30 05.09.2022
331 Clear 39 1003 9 10000 2.5 5 18:53 05.09.2022
332 Clear 39 1002 8 10000 1.39 18 18:26 05.09.2022
333 Clear 41 1002 8 10000 1.39 18 17:53 05.09.2022
334 Clear 43 1001 7 10000 2.13 348 15:54 05.09.2022
335 Clear 42 1001 7 10000 2.61 334 14:40 05.09.2022
336 Clear 42 1002 7 10000 1.64 352 12:51 05.09.2022
337 Clear 43 1004 7 10000 1.39 294 11:21 05.09.2022
338 Clear 35 1005 9 10000 3.2 245 08:52 05.09.2022
339 Clear 27 1005 15 10000 2.06 172 03:57 05.09.2022
340 Clear 28 1005 13 10000 2.55 166 01:19 05.09.2022
341 Clear 32 1005 11 10000 1.88 109 22:29 04.09.2022
342 Clear 35 1005 11 10000 1.88 109 21:57 04.09.2022
343 Clear 36 1005 10 10000 3.37 70 20:26 04.09.2022
344 Clear 38 1004 9 10000 3.86 72 18:35 04.09.2022
345 Clear 40 1004 9 10000 4.22 62 17:31 04.09.2022
346 Clear 42 1003 7 10000 5.27 42 15:43 04.09.2022
347 Clear 41 1003 7 10000 2.94 68 14:25 04.09.2022
348 Clear 42 1003 8 10000 2.41 79 12:40 04.09.2022
349 Clear 42 1005 9 10000 2.47 76 10:59 04.09.2022
350 Clear 39 1006 12 10000 0.36 148 09:34 04.09.2022
351 Clear 29 1007 14 10000 1.79 161 06:34 04.09.2022
352 Clear 28 1006 19 10000 1.08 181 03:18 04.09.2022
353 Clear 33 1006 15 10000 2.07 132 22:53 03.09.2022
354 Clear 34 1006 14 10000 2.87 116 21:42 03.09.2022
355 Clear 34 1006 13 10000 3.54 89 21:22 03.09.2022
356 Clear 38 1006 10 10000 4.24 74 18:41 03.09.2022
357 Clear 40 1004 8 10000 4.8 65 17:19 03.09.2022
358 Clear 42 1004 7 10000 5.22 58 15:49 03.09.2022
359 Clear 42 1004 7 10000 4.19 47 14:42 03.09.2022
360 Clear 42 1004 6 10000 4.14 50 13:50 03.09.2022
361 Clear 41 1005 7 10000 3.09 43 11:32 03.09.2022
362 Clouds 39 1007 8 10000 2.72 27 09:32 03.09.2022
363 Clouds 33 1008 10 10000 1.51 279 07:48 03.09.2022
364 Clouds 28 1008 15 10000 0.79 244 04:51 03.09.2022
365 Clouds 29 1008 16 10000 0.95 155 02:40 03.09.2022
366 Clouds 30 1007 13 10000 1.86 132 23:44 02.09.2022
367 Clouds 32 1007 12 10000 2.43 148 22:21 02.09.2022
368 Clear 35 1007 12 10000 1.73 119 20:42 02.09.2022
369 Clouds 35 1007 11 10000 2.09 173 20:18 02.09.2022
370 Clouds 38 1007 10 10000 2.63 148 18:50 02.09.2022
371 Clouds 38 1006 9 10000 2.95 126 18:25 02.09.2022
372 Clear 39 1005 8 10000 3.03 123 17:24 02.09.2022
373 Clear 40 1005 8 10000 3.03 123 16:31 02.09.2022
374 Clear 40 1005 7 10000 2.46 129 13:32 02.09.2022
375 Clear 40 1007 8 10000 2.55 109 10:57 02.09.2022
376 Clear 38 1008 10 10000 1.85 117 09:45 02.09.2022
377 Clear 36 1009 11 10000 1.72 189 08:46 02.09.2022
378 Clear 28 1009 14 10000 2.05 210 06:46 02.09.2022
379 Clear 28 1009 16 10000 1.88 199 06:22 02.09.2022
380 Clouds 32 1007 16 10000 2.48 175 00:26 02.09.2022
381 Clouds 32 1007 16 10000 3.25 162 22:21 01.09.2022
382 Clouds 34 1007 16 10000 3.25 162 21:38 01.09.2022
383 Clouds 34 1007 15 10000 3.49 148 21:19 01.09.2022
384 Clouds 34 1007 13 10000 3.7 144 20:23 01.09.2022
385 Clouds 36 1005 11 10000 2.95 134 18:20 01.09.2022
386 Clouds 39 1005 10 10000 2.98 145 16:55 01.09.2022
387 Clear 40 1004 9 10000 3.11 143 15:22 01.09.2022
388 Clouds 40 1005 10 10000 4.17 141 13:27 01.09.2022
389 Clouds 40 1005 10 10000 4.17 141 12:55 01.09.2022
390 Clouds 40 1006 10 10000 3.95 133 11:51 01.09.2022
391 Clouds 40 1006 11 10000 3.32 135 11:19 01.09.2022
392 Clouds 38 1007 12 10000 3.23 147 09:31 01.09.2022
393 Clouds 29 1008 17 10000 3.06 161 06:41 01.09.2022
394 Clouds 27 1007 20 10000 2.39 155 02:39 01.09.2022
395 Clouds 28 1007 19 10000 3.06 125 01:30 01.09.2022
396 Clouds 28 1007 19 10000 3.06 125 01:30 01.09.2022
397 Clouds 28 1007 19 10000 3.06 125 01:30 01.09.2022
398 Clouds 28 1007 19 10000 3.06 125 01:30 01.09.2022
399 Clouds 28 1007 20 10000 2.74 144 01:30 01.09.2022
400 Clouds 33 1007 18 10000 3.57 120 22:43 31.08.2022
401 Clouds 35 1007 16 10000 4.44 114 20:43 31.08.2022
402 Clouds 37 1006 13 10000 5.54 110 18:46 31.08.2022
403 Clouds 39 1005 10 10000 3.76 122 16:41 31.08.2022
404 Clouds 40 1004 10 10000 3.1 152 15:21 31.08.2022
405 Clouds 39 1005 10 10000 3.33 135 12:58 31.08.2022
406 Clouds 38 1006 10 10000 3.2 128 11:54 31.08.2022
407 Clouds 37 1008 12 10000 3.3 132 09:35 31.08.2022
408 Clouds 33 1009 12 10000 3.55 131 07:31 31.08.2022
409 Clear 29 1007 16 10000 1.77 192 02:47 31.08.2022
410 Clear 33 1008 15 10000 4.64 118 22:21 30.08.2022
411 Clear 34 1008 14 10000 4.76 116 21:27 30.08.2022
412 Clear 36 1007 11 10000 4.75 104 19:51 30.08.2022
413 Clear 40 1005 8 10000 4.82 71 16:47 30.08.2022
414 Clear 40 1005 8 10000 4.82 71 16:47 30.08.2022
415 Clear 41 1004 6 10000 5.97 62 13:37 30.08.2022
416 Clear 40 1006 8 10000 2.97 55 11:23 30.08.2022
417 Clear 40 1006 8 10000 2.97 55 10:57 30.08.2022
418 Clear 37 1008 9 10000 0.71 337 08:51 30.08.2022
419 Clear 27 1007 16 10000 2.49 195 03:57 30.08.2022
420 Clear 29 1007 12 10000 3.66 155 00:30 30.08.2022
421 Clear 32 1007 11 10000 3.83 124 22:36 29.08.2022
422 Clear 34 1007 11 10000 4.07 86 21:48 29.08.2022
423 Clear 35 1006 10 10000 5.37 77 20:34 29.08.2022
424 Clear 37 1005 9 10000 5.36 61 18:58 29.08.2022
425 Clear 39 1004 9 10000 4.34 53 17:32 29.08.2022
426 Clear 40 1004 8 10000 4.04 26 16:57 29.08.2022
427 Clear 41 1003 7 10000 5.29 6 15:18 29.08.2022
428 Clear 41 1004 7 10000 5.44 9 13:42 29.08.2022
429 Clear 41 1005 8 10000 2.48 36 12:20 29.08.2022
430 Clear 40 1006 8 10000 2.01 57 10:42 29.08.2022
431 Clear 37 1007 8 10000 1.75 3 08:53 29.08.2022
432 Clear 28 1008 9 10000 0.9 297 06:52 29.08.2022
433 Clear 27 1006 11 10000 1.11 219 02:25 29.08.2022
434 Clear 31 1006 11 10000 0.71 113 23:33 28.08.2022
435 Clear 34 1006 10 10000 1.99 135 21:47 28.08.2022
436 Clear 34 1006 9 10000 3.73 124 21:25 28.08.2022
437 Clouds 36 1006 9 10000 4.23 97 19:59 28.08.2022
438 Clouds 38 1004 10 10000 4.11 23 18:22 28.08.2022
439 Clouds 39 1004 10 10000 4.11 23 17:50 28.08.2022
440 Clouds 40 1003 9 10000 4.95 341 16:42 28.08.2022
441 Clouds 41 1002 9 10000 4.94 354 14:46 28.08.2022
442 Clear 41 1003 10 10000 2.29 332 12:57 28.08.2022
443 Clouds 41 1005 11 10000 1.46 112 11:24 28.08.2022
444 Clouds 39 1006 12 10000 1.69 119 10:19 28.08.2022
445 Clouds 36 1006 14 10000 1.49 89 08:42 28.08.2022
446 Clouds 33 1007 15 10000 1.02 65 07:51 28.08.2022
447 Clouds 28 1006 20 10000 0.76 64 04:55 28.08.2022
448 Clear 30 1006 18 10000 0.62 336 00:34 28.08.2022
449 Clear 32 1006 16 10000 1.98 94 22:50 27.08.2022
450 Clear 32 1006 15 10000 3.05 71 22:19 27.08.2022
451 Clouds 35 1006 13 10000 3.68 68 20:27 27.08.2022
452 Clouds 38 1005 12 10000 4.04 65 18:42 27.08.2022
453 Clouds 40 1003 9 10000 6.85 39 16:25 27.08.2022
454 Clouds 40 1003 9 10000 6.27 34 15:30 27.08.2022
455 Clouds 40 1004 10 10000 5.78 49 12:41 27.08.2022
456 Clouds 39 1004 10 10000 5.42 56 11:53 27.08.2022
457 Clouds 38 1005 11 10000 5.64 73 09:52 27.08.2022
458 Clouds 36 1006 13 10000 5.05 73 08:53 27.08.2022
459 Clouds 28 1005 20 10000 2.65 7 04:39 27.08.2022
460 Clouds 32 1004 16 10000 1.32 66 00:25 27.08.2022
461 Clouds 33 1004 15 10000 3.03 70 23:24 26.08.2022
462 Clouds 34 1004 14 10000 3.71 65 21:43 26.08.2022
463 Clouds 36 1003 12 10000 4.07 83 19:40 26.08.2022
464 Clouds 39 1002 11 10000 1.33 117 17:29 26.08.2022
465 Clouds 41 1001 10 10000 1.04 130 15:37 26.08.2022
466 Clouds 41 1001 10 10000 1.16 120 14:56 26.08.2022
467 Clouds 41 1003 11 10000 1.17 138 12:54 26.08.2022
468 Clouds 40 1003 11 10000 2.2 159 11:42 26.08.2022
469 Clouds 40 1004 12 10000 2.39 160 11:21 26.08.2022
470 Clouds 35 1005 17 10000 3.62 121 07:37 26.08.2022
471 Clouds 31 1003 25 10000 3.48 112 02:43 26.08.2022
472 Clouds 34 1003 17 10000 4.92 79 23:45 25.08.2022
473 Clouds 35 1003 17 10000 1.61 115 21:46 25.08.2022
474 Clouds 36 1003 16 10000 1.59 138 20:51 25.08.2022
475 Clouds 37 1002 13 10000 2.76 71 19:25 25.08.2022
476 Clouds 37 1002 12 10000 2.54 45 18:28 25.08.2022
477 Clouds 39 1002 12 10000 2.54 45 17:31 25.08.2022
478 Clouds 40 1002 10 10000 2.56 355 16:25 25.08.2022
479 Clouds 40 1002 10 10000 1.46 3 15:27 25.08.2022
480 Clouds 40 1002 11 10000 2.16 34 12:47 25.08.2022
481 Clouds 40 1004 11 10000 3.02 43 10:49 25.08.2022
482 Clouds 38 1005 12 10000 3.5 26 09:21 25.08.2022
483 Clouds 30 1006 13 10000 3.42 343 06:45 25.08.2022
484 Clouds 31 1005 17 10000 1.77 300 01:57 25.08.2022
485 Clouds 33 1005 15 10000 3.03 45 23:28 24.08.2022
486 Clouds 33 1005 15 10000 3.03 45 22:43 24.08.2022
487 Clouds 35 1005 14 10000 4.25 53 21:37 24.08.2022
488 Clouds 36 1005 14 10000 4.46 58 20:56 24.08.2022
489 Clouds 37 1004 12 10000 5.54 58 19:24 24.08.2022
490 Clouds 42 1003 10 10000 4.15 30 16:47 24.08.2022
491 Clouds 41 1003 9 10000 3.52 19 15:52 24.08.2022
492 Clouds 42 1003 10 10000 0.84 33 13:48 24.08.2022
493 Clouds 40 1004 10 10000 1.64 98 11:58 24.08.2022
494 Clouds 40 1005 11 10000 2.79 98 11:18 24.08.2022
495 Clear 37 1006 13 10000 3.45 71 08:26 24.08.2022
496 Clouds 30 1005 21 10000 1.87 62 03:32 24.08.2022
497 Clouds 35 1005 17 10000 2.71 77 23:35 23.08.2022
498 Clouds 36 1005 15 10000 3 57 22:33 23.08.2022
499 Clouds 36 1004 14 10000 2.6 60 21:39 23.08.2022
500 Clouds 37 1003 13 10000 2.19 41 20:31 23.08.2022
501 Clouds 39 1003 12 10000 3.02 6 18:50 23.08.2022
502 Clouds 41 1003 13 10000 6.46 307 17:50 23.08.2022
503 Clouds 41 1002 10 10000 4.65 26 17:18 23.08.2022
504 Clouds 44 1001 10 10000 5.57 51 15:39 23.08.2022
505 Clouds 43 1001 10 10000 2.41 59 13:36 23.08.2022
506 Clouds 41 1002 11 10000 1.98 77 12:30 23.08.2022
507 Clouds 40 1003 12 10000 2.68 96 10:51 23.08.2022
508 Clouds 40 1003 12 10000 2.68 96 10:32 23.08.2022
509 Clouds 37 1004 14 10000 2.77 75 08:54 23.08.2022
510 Clouds 37 1005 16 10000 3.02 80 08:22 23.08.2022
511 Clouds 35 1005 16 10000 3.02 80 07:43 23.08.2022
512 Clouds 32 1005 16 10000 2.73 56 06:34 23.08.2022
513 Clouds 30 1004 16 10000 2.09 34 05:52 23.08.2022
514 Clouds 33 1002 15 10000 0.84 354 00:52 23.08.2022
515 Clouds 33 1003 14 10000 2.08 77 00:24 23.08.2022
516 Clouds 35 1003 13 10000 2.61 53 23:29 22.08.2022
517 Clouds 37 1003 12 10000 3.46 15 21:51 22.08.2022
518 Clouds 39 1002 11 10000 4.81 26 19:49 22.08.2022
519 Clouds 39 1002 10 10000 4.77 28 19:27 22.08.2022
520 Clouds 40 1001 9 10000 5.04 36 17:59 22.08.2022
521 Clouds 44 1000 8 10000 5.03 13 15:40 22.08.2022
522 Clouds 45 1000 8 10000 4.92 3 14:32 22.08.2022
523 Clouds 44 1002 9 10000 4.19 7 11:19 22.08.2022
524 Clouds 39 1003 12 10000 1.66 256 08:22 22.08.2022
525 Clouds 32 1002 18 10000 1.34 136 04:42 22.08.2022
526 Clouds 35 1000 14 10000 2.97 75 00:53 22.08.2022
527 Clouds 35 1000 14 10000 2.97 75 00:34 22.08.2022
528 Clouds 37 1001 13 10000 2.69 79 22:54 21.08.2022
529 Clouds 37 1001 12 10000 3.27 113 21:36 21.08.2022
530 Clouds 38 1001 12 10000 7.03 86 20:57 21.08.2022
531 Clouds 40 1000 10 10000 3.32 32 19:28 21.08.2022
532 Clouds 43 999 9 10000 3.53 50 17:59 21.08.2022
533 Clouds 45 998 8 10000 5.87 24 15:59 21.08.2022
534 Clouds 45 998 8 10000 6.29 22 15:28 21.08.2022
535 Clouds 44 998 7 10000 6.45 26 13:58 21.08.2022
536 Clouds 44 998 7 10000 6.45 26 13:40 21.08.2022
537 Clouds 44 999 7 10000 5.79 24 11:56 21.08.2022
538 Clouds 42 1001 8 10000 4.12 16 09:32 21.08.2022
539 Clouds 39 1001 8 10000 4.12 15 08:56 21.08.2022
540 Clear 39 1001 8 10000 3.78 354 08:38 21.08.2022
541 Clear 35 1002 10 10000 2.85 334 07:28 21.08.2022
542 Clear 30 1002 14 10000 3.28 335 04:18 21.08.2022
543 Clear 33 1000 17 10000 2.06 74 00:31 21.08.2022
544 Clear 35 1001 10 10000 3.83 48 22:59 20.08.2022
545 Clear 36 1001 9 10000 3.68 36 21:39 20.08.2022
546 Clear 38 1001 9 10000 3.96 40 20:44 20.08.2022
547 Clear 39 1001 8 10000 4.37 38 19:41 20.08.2022
548 Clear 41 1000 8 10000 4.69 30 18:33 20.08.2022
549 Clear 42 1000 8 10000 5.17 22 17:52 20.08.2022
550 Clear 42 999 7 10000 6.67 17 17:18 20.08.2022
551 Clear 44 999 6 10000 8.41 14 15:50 20.08.2022
552 Clear 44 998 7 10000 8.19 9 13:36 20.08.2022
553 Clear 44 999 7 10000 7.9 18 11:53 20.08.2022
554 Clear 41 1000 8 10000 6.01 24 09:43 20.08.2022
555 Clear 40 1001 10 10000 4.79 23 08:50 20.08.2022
556 Clear 30 1002 18 10000 3.1 348 05:58 20.08.2022
557 Clear 31 1001 13 10000 3.89 343 03:28 20.08.2022
558 Clear 33 1001 11 10000 4.29 343 00:51 20.08.2022
559 Clear 34 1000 11 10000 3.52 335 23:19 19.08.2022
560 Clear 37 1000 11 10000 3.38 347 22:35 19.08.2022
561 Clear 38 1000 9 10000 4.21 7 20:28 19.08.2022
562 Clear 41 999 8 10000 4.39 20 18:46 19.08.2022
563 Clear 45 998 6 10000 6.79 13 15:51 19.08.2022
564 Clear 44 998 6 10000 6.8 4 13:36 19.08.2022
565 Clear 43 999 6 10000 5.48 8 11:33 19.08.2022
566 Clear 42 1000 6 10000 5.6 10 10:29 19.08.2022
567 Clouds 35 1001 9 10000 6.32 353 07:21 19.08.2022
568 Clouds 32 999 12 10000 4.43 343 01:24 19.08.2022
569 Clouds 33 999 11 10000 3.74 348 00:31 19.08.2022
570 Clouds 34 999 11 10000 3.74 348 23:48 18.08.2022
571 Clouds 36 999 10 10000 3.93 341 22:51 18.08.2022
572 Clouds 36 999 10 10000 3.96 344 21:57 18.08.2022
573 Clouds 36 999 9 10000 3.59 2 21:35 18.08.2022
574 Clouds 38 999 9 10000 3.66 1 20:27 18.08.2022
575 Clouds 39 998 10 10000 3.21 14 19:30 18.08.2022
576 Clouds 42 998 10 10000 3.34 8 17:55 18.08.2022
577 Clear 42 997 9 10000 3.7 9 17:18 18.08.2022
578 Clear 44 997 7 10000 4.01 359 14:57 18.08.2022
579 Clear 44 997 8 10000 4.2 353 14:19 18.08.2022
580 Clear 43 997 8 10000 4.2 353 13:34 18.08.2022
581 Clear 43 998 8 10000 4.44 350 11:51 18.08.2022
582 Clear 39 1000 9 10000 5.6 353 09:43 18.08.2022
583 Clear 38 1001 9 10000 6.41 349 08:42 18.08.2022
584 Clouds 34 1001 10 10000 6.9 344 07:19 18.08.2022
585 Clouds 31 1001 13 10000 5.22 331 04:37 18.08.2022
586 Clouds 33 1000 11 10000 3.96 325 23:37 17.08.2022
587 Clouds 35 1000 11 10000 3.27 328 21:53 17.08.2022
588 Clouds 37 1000 10 10000 2.59 11 20:20 17.08.2022
589 Clouds 38 999 9 10000 3.51 44 19:31 17.08.2022
590 Clouds 41 999 8 10000 4.2 17 17:37 17.08.2022
591 Clouds 42 998 7 10000 5.73 8 16:39 17.08.2022
592 Clouds 43 997 6 10000 7.54 5 15:28 17.08.2022
593 Clouds 44 998 6 10000 7.29 0 13:31 17.08.2022
594 Clouds 41 999 7 10000 6.9 9 11:39 17.08.2022
595 Clouds 38 1001 8 10000 7.76 7 09:31 17.08.2022
596 Clouds 37 1002 12 10000 8.26 357 08:24 17.08.2022
597 Clouds 32 1002 14 10000 5.12 328 03:39 17.08.2022
598 Clear 32 1001 14 10000 4.88 330 00:24 17.08.2022
599 Clear 35 1001 13 10000 4.77 334 22:41 16.08.2022
600 Clear 37 1002 10 10000 3.76 16 20:58 16.08.2022
601 Clouds 39 1002 10 10000 3.9 15 19:54 16.08.2022
602 Clouds 40 1001 9 10000 3.9 15 18:44 16.08.2022
603 Clouds 42 1000 9 10000 4.01 16 17:43 16.08.2022
604 Clouds 43 999 7 10000 5.81 16 15:59 16.08.2022
605 Clouds 44 999 7 10000 5.87 16 14:55 16.08.2022
606 Clouds 44 999 7 10000 6.22 26 14:37 16.08.2022
607 Clouds 43 999 7 10000 6.19 25 13:40 16.08.2022
608 Clouds 42 1000 8 10000 5.44 6 11:30 16.08.2022
609 Clear 38 1002 10 10000 5.12 11 09:51 16.08.2022
610 Clear 36 1003 10 10000 5.54 16 08:47 16.08.2022
611 Clear 36 1003 13 10000 4.87 356 08:18 16.08.2022
612 Clear 30 1002 15 10000 2.9 337 04:25 16.08.2022
613 Clear 36 1001 13 10000 2.24 82 22:55 15.08.2022
614 Clear 37 1001 12 10000 2.8 59 21:56 15.08.2022
615 Clear 37 1001 12 10000 2.8 59 21:35 15.08.2022
616 Clear 38 1001 12 10000 3.85 44 20:20 15.08.2022
617 Clear 40 1000 12 10000 4.13 12 18:43 15.08.2022
618 Clear 41 1000 11 10000 4.07 1 17:46 15.08.2022
619 Clear 42 998 10 10000 6.91 12 16:22 15.08.2022
620 Clouds 42 999 10 10000 6.41 5 13:58 15.08.2022
621 Clouds 42 999 10 10000 5.6 3 12:38 15.08.2022
622 Clouds 41 1001 11 10000 4.66 343 10:18 15.08.2022
623 Clear 37 1002 10 10000 2.87 313 08:51 15.08.2022
624 Clouds 32 1002 12 10000 3.12 312 06:33 15.08.2022
625 Clouds 31 1000 16 10000 1.77 325 02:57 15.08.2022
626 Clouds 34 1000 15 10000 2.18 178 23:22 14.08.2022
627 Clouds 36 1000 14 10000 2.34 140 21:42 14.08.2022
628 Clouds 38 1000 13 10000 2.98 103 20:33 14.08.2022
629 Clouds 39 1000 11 10000 3.94 87 19:36 14.08.2022
630 Clouds 40 998 9 10000 3.6 49 18:20 14.08.2022
631 Clouds 42 998 8 10000 4.23 50 17:22 14.08.2022
632 Clouds 42 997 7 10000 4.77 48 16:21 14.08.2022
633 Clouds 43 997 7 10000 4.67 46 14:39 14.08.2022
634 Clouds 42 997 6 10000 5.18 49 13:50 14.08.2022
635 Clouds 42 998 6 10000 5.3 49 13:26 14.08.2022
636 Clouds 42 998 6 10000 5.29 49 12:34 14.08.2022
637 Clouds 41 999 8 10000 5.98 38 11:20 14.08.2022
638 Clouds 36 1000 13 10000 7.71 31 08:56 14.08.2022
639 Clouds 34 1001 16 10000 6.17 357 06:27 14.08.2022
640 Clouds 32 1000 17 10000 4.84 346 04:21 14.08.2022
641 Clouds 34 999 18 10000 3.67 341 01:35 14.08.2022
642 Clouds 38 999 14 10000 4.16 359 22:56 13.08.2022
643 Clouds 38 999 13 10000 4.89 12 21:59 13.08.2022
644 Clouds 39 999 13 10000 4.6 359 20:49 13.08.2022
645 Clouds 40 999 10 10000 4.51 23 19:47 13.08.2022
646 Clouds 41 998 10 10000 5.11 30 18:47 13.08.2022
647 Clouds 42 997 9 10000 7.97 19 17:21 13.08.2022
648 Clouds 43 996 8 10000 9.95 9 14:42 13.08.2022
649 Clouds 43 996 7 10000 10.01 5 13:49 13.08.2022
650 Clouds 43 997 7 10000 10.22 7 13:25 13.08.2022
651 Clouds 42 998 8 10000 10.14 6 11:27 13.08.2022
652 Clouds 39 1000 11 10000 10.34 8 09:23 13.08.2022
653 Clouds 34 1000 17 10000 9.59 8 06:44 13.08.2022
654 Clouds 36 999 18 10000 6.81 345 01:37 13.08.2022
655 Clouds 39 999 15 10000 6.99 358 23:25 12.08.2022
656 Clouds 40 999 12 10000 7.33 352 21:37 12.08.2022
657 Clouds 41 999 12 10000 7.02 5 19:48 12.08.2022
658 Clouds 41 998 12 10000 6.39 19 19:23 12.08.2022
659 Clouds 42 998 11 10000 6.6 23 18:21 12.08.2022
660 Clouds 43 997 10 10000 9.81 21 16:26 12.08.2022
661 Clouds 43 996 10 10000 10.08 17 14:50 12.08.2022
662 Clouds 43 997 10 10000 10.35 12 13:43 12.08.2022
663 Clouds 43 998 10 10000 11.33 5 12:25 12.08.2022
664 Clouds 38 1000 14 10000 11.66 356 08:52 12.08.2022
665 Clouds 36 1000 17 10000 11.65 352 07:45 12.08.2022
666 Clouds 34 1001 24 10000 9.31 345 06:21 12.08.2022
667 Clouds 37 1000 19 10000 5.99 347 00:32 12.08.2022
668 Clear 38 1000 17 10000 5.9 349 23:55 11.08.2022
669 Clouds 39 1000 17 10000 5.65 348 22:45 11.08.2022
670 Clouds 39 1000 16 10000 5.6 348 21:53 11.08.2022
671 Clouds 39 1000 15 10000 5.64 351 21:28 11.08.2022
672 Clouds 40 1000 15 10000 5.64 351 20:30 11.08.2022
673 Clouds 41 1000 14 10000 5.02 0 19:33 11.08.2022
674 Clouds 42 999 13 10000 5.39 3 18:53 11.08.2022
675 Clouds 43 998 10 10000 7.28 12 16:46 11.08.2022
676 Clouds 44 997 9 10000 7.99 11 15:42 11.08.2022
677 Clouds 44 997 9 10000 7.98 11 14:32 11.08.2022
678 Clouds 43 999 11 10000 8.73 11 11:56 11.08.2022
679 Clouds 39 1001 14 10000 9.53 5 08:57 11.08.2022
680 Clouds 35 1001 20 10000 6.99 354 05:58 11.08.2022
681 Clouds 36 1000 17 10000 4.99 356 02:33 11.08.2022
682 Clouds 40 999 14 10000 5.88 14 22:59 10.08.2022
683 Clouds 40 999 13 10000 5.39 0 21:47 10.08.2022
684 Clouds 41 999 12 10000 5.21 8 20:56 10.08.2022
685 Clouds 41 999 11 10000 5.15 13 20:27 10.08.2022
686 Clouds 42 998 10 10000 4.79 22 18:48 10.08.2022
687 Clouds 43 997 8 10000 6.64 23 17:27 10.08.2022
688 Clouds 45 996 8 10000 8.79 17 14:36 10.08.2022
689 Clouds 45 996 8 10000 8.79 11 13:32 10.08.2022
690 Clouds 42 998 10 10000 8.93 15 10:50 10.08.2022
691 Clouds 39 1000 15 10000 8.68 3 08:39 10.08.2022
692 Clouds 36 1000 14 10000 8.76 4 07:35 10.08.2022
693 Clouds 35 1001 18 10000 5.86 345 04:50 10.08.2022
694 Clouds 38 999 16 10000 6.01 337 01:33 10.08.2022
695 Clouds 40 999 15 10000 5.45 354 23:31 09.08.2022
696 Clouds 41 1000 14 10000 5.66 355 21:58 09.08.2022
697 Clouds 41 1000 13 10000 5.26 356 21:23 09.08.2022
698 Clouds 42 998 10 10000 4.49 26 19:28 09.08.2022
699 Clouds 43 998 9 10000 5.24 18 17:39 09.08.2022
700 Clouds 43 997 8 10000 7.35 15 17:21 09.08.2022
701 Clouds 44 997 7 10000 8.72 12 16:23 09.08.2022
702 Clouds 45 997 8 10000 9.03 7 15:26 09.08.2022
703 Clouds 43 998 11 10000 8.31 18 11:49 09.08.2022
704 Clouds 39 1001 16 10000 7.39 29 08:53 09.08.2022
705 Clouds 38 1001 18 10000 7.53 28 07:58 09.08.2022
706 Clear 33 1001 29 10000 4.61 355 05:25 09.08.2022
707 Clouds 35 999 24 10000 3.61 50 01:57 09.08.2022
708 Clouds 37 999 19 10000 3.89 0 23:26 08.08.2022
709 Clouds 39 999 19 10000 3.89 0 22:45 08.08.2022
710 Clouds 39 999 18 10000 3.7 339 21:47 08.08.2022
711 Clouds 40 999 18 10000 4.26 318 20:43 08.08.2022
712 Clouds 41 999 23 10000 6.32 324 19:41 08.08.2022
713 Clouds 42 999 23 10000 13.86 317 18:19 08.08.2022
714 Clouds 45 996 12 10000 5.29 60 15:55 08.08.2022
715 Clouds 45 996 12 10000 5.29 60 15:37 08.08.2022
716 Clouds 44 997 11 10000 5.74 59 12:31 08.08.2022
717 Clouds 43 998 13 10000 4.41 45 10:38 08.08.2022
718 Clear 40 1000 17 10000 3.74 11 08:20 08.08.2022
719 Clear 32 1000 26 10000 1.56 151 04:45 08.08.2022
720 Clear 35 998 23 10000 3.11 95 01:29 08.08.2022
721 Clear 39 998 19 10000 4.85 84 21:42 07.08.2022
722 Clear 39 998 18 10000 5.58 80 21:24 07.08.2022
723 Clear 40 997 17 10000 5.55 70 20:24 07.08.2022
724 Clear 41 997 17 10000 5.55 70 19:52 07.08.2022
725 Clear 41 997 16 10000 5.89 63 19:22 07.08.2022
726 Clear 44 996 14 10000 6.29 54 17:58 07.08.2022
727 Clear 45 995 12 10000 7.42 50 16:53 07.08.2022
728 Clear 45 995 11 10000 8.19 47 15:40 07.08.2022
729 Clear 46 995 10 10000 8.02 45 14:27 07.08.2022
730 Clear 45 995 12 10000 7.11 43 12:41 07.08.2022
731 Clear 44 996 13 10000 7.57 32 10:53 07.08.2022
732 Clear 44 997 14 10000 7.08 26 10:21 07.08.2022
733 Clear 35 997 19 10000 4.02 355 04:38 07.08.2022
734 Clear 36 996 18 10000 3.72 325 02:25 07.08.2022
735 Clear 40 996 14 10000 3.6 316 22:40 06.08.2022
736 Clear 40 996 14 10000 2.2 315 22:18 06.08.2022
737 Clouds 42 996 12 10000 2.12 17 19:46 06.08.2022
738 Clouds 43 996 11 10000 1.9 354 18:50 06.08.2022
739 Clouds 44 996 11 10000 1.59 10 17:48 06.08.2022
740 Clouds 45 996 9 10000 4.62 14 16:29 06.08.2022
741 Clouds 45 996 9 10000 6.28 4 13:51 06.08.2022
742 Clouds 45 997 9 10000 6.66 19 12:38 06.08.2022
743 Clouds 44 998 10 10000 6.8 24 11:21 06.08.2022
744 Clouds 41 999 10 10000 6.7 21 09:41 06.08.2022
745 Clear 36 1000 16 10000 5.01 335 07:28 06.08.2022
746 Clouds 34 999 20 10000 2.53 293 01:59 06.08.2022
747 Clouds 35 999 17 10000 2.45 331 22:37 05.08.2022
748 Clouds 38 999 16 10000 2.45 331 21:34 05.08.2022
749 Clouds 38 999 15 10000 3.04 115 19:20 05.08.2022
750 Clouds 41 999 15 10000 3.04 115 18:44 05.08.2022
751 Rain 43 998 12 10000 4.41 86 16:53 05.08.2022
752 Clouds 44 998 11 10000 4.84 65 15:55 05.08.2022
753 Clouds 43 999 11 10000 6.8 55 14:54 05.08.2022
754 Clouds 45 999 12 10000 6.84 56 13:39 05.08.2022
755 Clouds 45 999 12 10000 5.74 54 13:19 05.08.2022
756 Rain 44 1000 12 10000 4.18 51 11:58 05.08.2022
757 Clouds 42 1002 17 10000 3.89 348 10:24 05.08.2022
758 Clouds 37 1002 24 10000 4.58 307 07:58 05.08.2022
759 Clouds 35 1003 36 10000 4.18 274 05:20 05.08.2022
760 Clear 36 1003 35 10000 4.66 271 23:50 04.08.2022
761 Clouds 38 1002 23 10000 1.84 271 21:39 04.08.2022
762 Clear 38 1003 22 10000 1.66 289 21:21 04.08.2022
763 Clear 39 1003 22 10000 1.66 289 20:40 04.08.2022
764 Clouds 40 1002 21 10000 0.37 252 19:21 04.08.2022
765 Clouds 41 1002 21 10000 0.39 252 18:34 04.08.2022
766 Clouds 43 1001 18 10000 4.43 25 16:54 04.08.2022
767 Clouds 43 1000 15 10000 4.7 80 13:34 04.08.2022
768 Clouds 42 1002 19 10000 3.94 83 11:42 04.08.2022
769 Clouds 41 1003 22 10000 1.87 70 10:24 04.08.2022
770 Clear 38 1003 27 10000 1.98 115 07:49 04.08.2022
771 Clear 34 1002 31 10000 2.05 163 03:29 04.08.2022
772 Clouds 36 1001 30 10000 2.93 163 00:52 04.08.2022
773 Clouds 37 1001 29 10000 3.8 156 23:41 03.08.2022
774 Clouds 38 1001 27 10000 5.29 133 21:34 03.08.2022
775 Clouds 39 1001 25 10000 6.32 123 20:21 03.08.2022
776 Clouds 39 1001 25 10000 6.32 123 20:21 03.08.2022
777 Clouds 39 1001 22 10000 7.42 126 19:27 03.08.2022
778 Clouds 42 999 20 10000 6.13 135 16:53 03.08.2022
779 Clouds 42 999 20 10000 4.59 135 16:23 03.08.2022
780 Clouds 41 1000 21 10000 4.03 122 13:53 03.08.2022
781 Clouds 41 1001 23 10000 4.02 134 11:46 03.08.2022
782 Clear 36 1002 30 10000 4.06 153 07:45 03.08.2022
783 Clear 32 1001 40 10000 3.24 133 04:22 03.08.2022
784 Clear 34 1000 39 10000 2.79 132 03:24 03.08.2022
785 Clouds 36 1000 36 10000 2.59 149 00:58 03.08.2022
786 Clouds 37 1000 34 10000 2.53 175 22:49 02.08.2022
787 Clouds 37 1000 33 10000 2.76 193 21:52 02.08.2022
788 Clouds 38 1000 32 10000 3.02 199 20:37 02.08.2022
789 Clouds 39 999 30 10000 3.99 243 18:39 02.08.2022
790 Clouds 40 999 27 10000 3.69 233 15:27 02.08.2022
791 Clouds 40 1000 30 10000 4.28 215 11:30 02.08.2022
792 Clouds 37 1002 37 10000 3.71 237 08:59 02.08.2022
793 Clouds 35 1001 37 10000 3.21 248 07:52 02.08.2022
794 Clouds 33 1001 40 10000 3.43 243 06:41 02.08.2022
795 Clouds 33 1001 43 10000 2.56 222 04:31 02.08.2022
796 Clouds 35 1000 41 10000 1.47 177 23:35 01.08.2022
797 Clouds 36 1001 40 10000 1.14 274 22:23 01.08.2022
798 Clouds 36 1001 38 10000 2.54 283 20:51 01.08.2022
799 Clouds 37 1001 41 10000 2.35 4 19:23 01.08.2022
800 Clouds 38 1000 34 10000 3.28 288 17:57 01.08.2022
801 Clouds 39 1000 30 10000 4.73 233 16:52 01.08.2022
802 Clouds 39 1000 29 10000 2.78 251 15:52 01.08.2022
803 Clouds 39 1000 29 10000 2.78 251 15:52 01.08.2022
804 Clouds 39 1000 29 10000 2.78 251 15:30 01.08.2022
805 Clouds 37 999 28 10000 2.78 121 13:48 01.08.2022
806 Clouds 36 1000 31 10000 2.7 107 11:50 01.08.2022
807 Clouds 36 1000 31 10000 2.7 107 11:50 01.08.2022
808 Clouds 34 1001 37 10000 1.24 133 09:39 01.08.2022
809 Clouds 32 1002 57 10000 1.75 309 08:22 01.08.2022
810 Clouds 30 1003 68 10000 5.1 261 04:47 01.08.2022
811 Clouds 31 1003 74 10000 6.1 275 02:32 01.08.2022
812 Clouds 32 1002 67 10000 10.44 246 23:54 31.07.2022
813 Clouds 32 1002 70 10000 10.06 252 22:36 31.07.2022
814 Clouds 32 1002 70 10000 10.07 252 22:36 31.07.2022
815 Clouds 31 1002 61 10000 7.76 261 20:50 31.07.2022
816 Rain 32 1003 74 10000 8.9 298 19:40 31.07.2022
817 Rain 33 1001 71 10000 6.71 212 17:44 31.07.2022
818 Clouds 38 999 69 5013 9.16 116 15:35 31.07.2022
819 Clouds 40 998 32 10000 3.09 108 13:41 31.07.2022
820 Clouds 38 1000 34 10000 3.7 96 11:52 31.07.2022
821 Clouds 36 1001 42 10000 3.69 107 09:28 31.07.2022
822 Clouds 33 1002 46 10000 4.01 108 06:43 31.07.2022
823 Clouds 33 1001 46 10000 3.51 104 02:57 31.07.2022
824 Clouds 36 1000 45 10000 3.85 110 23:35 30.07.2022
825 Clouds 36 1001 37 10000 6.45 104 22:19 30.07.2022
826 Clouds 37 1001 37 10000 6.45 104 21:47 30.07.2022
827 Clouds 38 1001 31 10000 5.89 73 20:56 30.07.2022
828 Clouds 38 1000 28 10000 5.04 78 19:58 30.07.2022
829 Clouds 39 1000 29 10000 3.87 94 18:51 30.07.2022
830 Clouds 39 1000 27 10000 3.48 87 17:41 30.07.2022
831 Clouds 41 999 24 10000 3.19 73 15:38 30.07.2022
832 Clouds 41 999 23 10000 2.1 88 14:53 30.07.2022
833 Clouds 40 1000 24 10000 2.53 146 12:47 30.07.2022
834 Clouds 39 1001 25 10000 3.29 144 11:55 30.07.2022
835 Clouds 38 1002 30 10000 4.16 131 10:25 30.07.2022
836 Clouds 36 1002 30 10000 4.16 131 09:46 30.07.2022
837 Clouds 33 1003 29 10000 2.38 132 07:47 30.07.2022
838 Clouds 32 1002 25 10000 0.25 119 02:34 30.07.2022
839 Clouds 33 1002 24 10000 0.38 323 01:43 30.07.2022
840 Clouds 35 1003 16 10000 4.73 323 21:39 29.07.2022
841 Clouds 36 1003 16 10000 4.73 322 20:58 29.07.2022
842 Clouds 38 1003 11 10000 4.32 338 19:48 29.07.2022
843 Clouds 41 1001 9 10000 4.36 11 17:52 29.07.2022
844 Clouds 41 1000 7 10000 7.98 355 15:19 29.07.2022
845 Clouds 39 1001 9 10000 6.26 352 12:59 29.07.2022
846 Clouds 36 1003 13 10000 3.65 351 10:35 29.07.2022
847 Clouds 36 1004 19 10000 0.67 33 08:49 29.07.2022
848 Clouds 34 1004 34 10000 2.8 162 07:40 29.07.2022
849 Clouds 32 1003 36 10000 2.15 196 01:47 29.07.2022
850 Clouds 34 1004 35 10000 1.46 186 22:41 28.07.2022
851 Clouds 36 1005 36 10000 4.16 109 20:59 28.07.2022
852 Clouds 36 1005 30 10000 4.63 70 20:27 28.07.2022
853 Clouds 36 1005 35 10000 5.2 92 19:42 28.07.2022
854 Clouds 37 1004 16 10000 4.53 26 18:48 28.07.2022
855 Clouds 38 1003 15 10000 5.69 351 17:43 28.07.2022
856 Clouds 39 1003 15 10000 7.04 354 16:42 28.07.2022
857 Clouds 39 1003 13 10000 9.12 30 15:24 28.07.2022
858 Rain 38 1004 13 10000 5.93 39 12:51 28.07.2022
859 Clouds 37 1004 18 10000 2.95 130 09:45 28.07.2022
860 Clouds 34 1004 27 10000 6.66 121 06:24 28.07.2022
861 Rain 34 1003 14 10000 4.4 115 05:26 28.07.2022
862 Clouds 35 1001 16 10000 2.88 137 00:45 28.07.2022
863 Clouds 36 1001 13 10000 7.62 88 22:34 27.07.2022
864 Clouds 38 1001 11 10000 7.31 95 20:56 27.07.2022
865 Clouds 39 1001 10 10000 7.21 109 19:34 27.07.2022
866 Clouds 41 999 8 10000 2.81 189 17:23 27.07.2022
867 Clouds 43 999 7 10000 2.69 186 15:52 27.07.2022
868 Clouds 42 999 7 10000 1.68 203 14:55 27.07.2022
869 Clouds 42 999 7 10000 1.68 203 14:33 27.07.2022
870 Rain 42 999 7 10000 1.32 138 12:49 27.07.2022
871 Clouds 35 1001 11 10000 3.26 127 07:53 27.07.2022
872 Clouds 35 1002 11 10000 3.36 137 07:53 27.07.2022
873 Clouds 31 1002 14 10000 3.29 165 06:19 27.07.2022
874 Clouds 32 1000 14 10000 2.98 107 00:48 27.07.2022
875 Clouds 35 1000 13 10000 4.34 88 22:25 26.07.2022
876 Clouds 36 1000 12 10000 4.5 82 21:20 26.07.2022
877 Clouds 36 1000 12 10000 4.5 82 21:20 26.07.2022
878 Clouds 37 1000 12 10000 3.42 75 20:25 26.07.2022
879 Clouds 40 999 11 10000 2.58 176 18:42 26.07.2022
880 Clouds 41 998 11 10000 3.38 192 17:57 26.07.2022
881 Clouds 42 998 9 10000 2.23 171 15:58 26.07.2022
882 Clouds 42 998 9 10000 2.22 160 14:57 26.07.2022
883 Clouds 41 999 9 10000 3.88 133 12:59 26.07.2022
884 Clouds 40 1001 9 10000 4.55 131 10:59 26.07.2022
885 Clouds 38 1001 11 10000 4.73 107 08:46 26.07.2022
886 Clouds 33 1002 18 10000 2.41 135 05:49 26.07.2022
887 Clouds 35 1000 16 10000 3.36 111 00:28 26.07.2022
888 Clouds 37 1000 14 10000 4.54 101 22:53 25.07.2022
889 Clouds 37 999 13 10000 6.39 92 22:22 25.07.2022
890 Clouds 38 999 13 10000 6.39 92 21:38 25.07.2022
891 Clouds 39 998 12 10000 6.6 91 20:40 25.07.2022
892 Clouds 40 997 12 10000 5.69 106 19:27 25.07.2022
893 Clouds 41 996 11 10000 4.46 110 18:18 25.07.2022
894 Clouds 42 995 10 10000 5.1 91 17:27 25.07.2022
895 Clouds 43 995 11 10000 4.82 92 14:32 25.07.2022
896 Clouds 42 997 10 10000 4.26 123 11:50 25.07.2022
897 Clouds 39 999 12 10000 6.78 165 08:32 25.07.2022
898 Clouds 34 999 19 10000 4.31 137 03:23 25.07.2022
899 Clouds 36 998 15 10000 5.42 127 23:53 24.07.2022
900 Clouds 37 998 15 10000 5.69 120 22:56 24.07.2022
901 Clouds 37 997 13 10000 3.6 149 22:26 24.07.2022
902 Clouds 38 997 13 10000 4.03 164 21:19 24.07.2022
903 Clouds 39 997 13 10000 4.03 164 20:47 24.07.2022
904 Clouds 41 997 11 10000 2.94 144 19:54 24.07.2022
905 Clouds 42 996 10 10000 2.99 145 18:30 24.07.2022
906 Clouds 44 996 8 10000 2.65 76 16:28 24.07.2022
907 Clouds 45 996 8 10000 2.65 76 15:45 24.07.2022
908 Clouds 45 997 9 10000 3.42 88 14:19 24.07.2022
909 Clouds 44 997 9 10000 2.53 112 12:52 24.07.2022
910 Clouds 44 998 9 10000 3.44 139 11:38 24.07.2022
911 Clouds 43 999 10 10000 4.05 146 10:59 24.07.2022
912 Clouds 40 1000 14 10000 4.18 149 08:31 24.07.2022
913 Clouds 37 1000 14 10000 4.17 149 07:47 24.07.2022
914 Clouds 34 1000 19 10000 3.11 156 04:45 24.07.2022
915 Clouds 36 1000 15 10000 3.49 120 23:51 23.07.2022
916 Clouds 37 1000 11 10000 3.91 70 21:28 23.07.2022
917 Clouds 40 1000 11 10000 4.14 70 19:59 23.07.2022
918 Clouds 42 999 10 10000 4.89 65 18:50 23.07.2022
919 Clouds 44 998 8 10000 6.6 49 17:28 23.07.2022
920 Clouds 44 998 8 10000 6.6 49 16:33 23.07.2022
921 Clouds 45 998 7 10000 6.99 40 15:22 23.07.2022
922 Clouds 45 998 7 10000 6.99 40 14:58 23.07.2022
923 Clouds 45 999 7 10000 6.29 36 14:27 23.07.2022
924 Clouds 45 999 7 10000 6.08 36 12:44 23.07.2022
925 Clouds 43 1000 8 10000 3.1 51 10:45 23.07.2022
926 Clouds 42 1001 9 10000 2.51 65 09:56 23.07.2022
927 Clouds 40 1002 10 10000 2.27 72 08:31 23.07.2022
928 Clouds 32 1002 19 10000 1.46 90 03:39 23.07.2022
929 Clouds 33 1001 18 10000 2.78 54 00:49 23.07.2022
930 Clouds 35 1001 18 10000 3.74 76 22:32 22.07.2022
931 Clouds 38 1002 13 10000 6.24 52 20:51 22.07.2022
932 Clouds 40 1001 11 10000 6.53 49 19:34 22.07.2022
933 Clouds 41 999 10 10000 7.5 45 18:28 22.07.2022
934 Clouds 43 999 9 10000 7.23 53 16:48 22.07.2022
935 Clouds 44 998 7 10000 7.68 55 14:40 22.07.2022
936 Clouds 42 1000 9 10000 7.88 41 10:59 22.07.2022
937 Clouds 41 1000 12 10000 8.3 35 09:25 22.07.2022
938 Clouds 39 1001 12 10000 7.95 25 08:29 22.07.2022
939 Clouds 32 1001 12 10000 3.15 342 05:18 22.07.2022
940 Clouds 35 1000 10 10000 4.41 342 00:40 22.07.2022
941 Clouds 37 1000 8 10000 2.79 10 22:25 21.07.2022
942 Clouds 38 1000 8 10000 3.72 27 20:48 21.07.2022
943 Clouds 40 999 7 10000 5.37 31 19:23 21.07.2022
944 Clouds 43 998 6 10000 6.24 30 17:39 21.07.2022
945 Clouds 43 997 5 10000 7.23 27 17:19 21.07.2022
946 Clouds 45 997 5 10000 7.83 19 14:52 21.07.2022
947 Clouds 45 997 5 10000 7.93 16 14:24 21.07.2022
948 Clouds 44 998 5 10000 8.27 11 12:27 21.07.2022
949 Clouds 43 999 5 10000 7.58 12 10:48 21.07.2022
950 Clouds 42 1000 6 10000 6.41 16 09:18 21.07.2022
951 Clouds 39 1000 6 10000 6.41 16 08:45 21.07.2022
952 Clouds 37 1001 9 10000 4.66 0 07:23 21.07.2022
953 Clouds 31 1000 12 10000 2.48 355 03:55 21.07.2022
954 Clouds 34 1000 10 10000 3.79 359 00:24 21.07.2022
955 Clouds 36 999 9 10000 4.37 5 22:21 20.07.2022
956 Clouds 38 1000 9 10000 4.85 2 20:51 20.07.2022
957 Clouds 40 999 9 10000 4.95 20 19:49 20.07.2022
958 Clouds 40 999 9 10000 5.04 18 19:20 20.07.2022
959 Clouds 42 999 9 10000 5.04 18 18:33 20.07.2022
960 Clouds 43 998 8 10000 5.34 27 17:54 20.07.2022
961 Clouds 44 997 7 10000 7.14 31 16:19 20.07.2022
962 Clouds 44 997 6 10000 7 29 14:57 20.07.2022
963 Clouds 44 997 6 10000 6.89 27 13:57 20.07.2022
964 Clouds 44 998 6 10000 7.85 33 11:32 20.07.2022
965 Clouds 38 1001 9 10000 7.77 41 07:50 20.07.2022
966 Clear 33 1000 14 10000 4.68 340 03:25 20.07.2022
967 Clouds 35 1000 13 10000 4.45 336 00:48 20.07.2022
968 Clear 36 1001 12 10000 4.32 336 23:41 19.07.2022
969 Clear 36 1001 11 10000 4.74 5 22:22 19.07.2022
970 Clear 38 1001 10 10000 4.69 345 21:23 19.07.2022
971 Clouds 38 1001 10 10000 4.59 344 20:27 19.07.2022
972 Clouds 42 999 10 10000 4.3 48 18:43 19.07.2022
973 Clouds 43 999 9 10000 4.9 45 17:57 19.07.2022
974 Clouds 43 998 8 10000 6.21 38 16:31 19.07.2022
975 Clouds 44 999 7 10000 7.4 26 14:36 19.07.2022
976 Clouds 43 1001 7 10000 8.3 31 11:38 19.07.2022
977 Clouds 42 1001 7 10000 8.3 31 10:47 19.07.2022
978 Clouds 41 1002 8 10000 8.35 36 09:21 19.07.2022
979 Clouds 39 1002 8 10000 8.35 36 08:32 19.07.2022
980 Clouds 37 1002 10 10000 4.62 25 07:19 19.07.2022
981 Clouds 32 1002 14 10000 3.29 342 05:27 19.07.2022
982 Clouds 31 1002 14 10000 3.29 342 04:48 19.07.2022
983 Clouds 33 1000 13 10000 2.98 324 00:35 19.07.2022
984 Clouds 35 1000 13 10000 1.78 33 23:31 18.07.2022
985 Clouds 36 1000 12 10000 2.93 21 22:58 18.07.2022
986 Clouds 37 1000 11 10000 3.54 19 21:58 18.07.2022
987 Clouds 39 1001 11 10000 3.86 19 20:50 18.07.2022
988 Clouds 40 1000 9 10000 4.83 23 19:26 18.07.2022
989 Clouds 42 998 7 10000 6.18 20 17:24 18.07.2022
990 Clouds 44 998 7 10000 5.29 19 15:51 18.07.2022
991 Clear 44 998 7 10000 5.06 31 14:30 18.07.2022
992 Clear 43 998 7 10000 2.28 32 12:45 18.07.2022
993 Clear 43 1000 8 10000 1.9 34 11:29 18.07.2022
994 Clear 38 1001 9 10000 1.51 16 08:54 18.07.2022
995 Clear 33 1001 11 10000 3.9 2 07:28 18.07.2022
996 Clouds 33 1000 12 10000 4.11 324 00:42 18.07.2022
997 Clouds 34 1000 10 10000 2.4 345 22:37 17.07.2022
998 Clouds 35 1000 11 10000 0.98 42 21:49 17.07.2022
999 Clouds 35 1000 10 10000 1.61 57 21:18 17.07.2022
1000 Clouds 37 1000 10 10000 1.61 57 20:37 17.07.2022
1001 Clouds 38 999 11 10000 3.15 84 19:29 17.07.2022
1002 Clouds 40 998 10 10000 3.8 91 18:27 17.07.2022
1003 Clouds 41 998 10 10000 3.8 91 17:38 17.07.2022
1004 Clouds 41 998 8 10000 3.44 80 16:51 17.07.2022
1005 Clouds 41 997 8 10000 2.31 64 16:26 17.07.2022
1006 Clouds 43 997 7 10000 1.3 40 14:44 17.07.2022
1007 Clouds 42 997 7 10000 3.96 28 13:31 17.07.2022
1008 Clouds 41 999 8 10000 6.39 13 11:35 17.07.2022
1009 Clouds 37 1000 11 10000 6.72 5 08:57 17.07.2022
1010 Clouds 31 1000 12 10000 5.43 339 03:44 17.07.2022
1011 Clouds 31 1000 11 10000 5.11 340 02:32 17.07.2022
1012 Clouds 32 1000 10 10000 5.41 334 23:20 16.07.2022
1013 Clouds 35 1000 9 10000 5.3 334 21:30 16.07.2022
1014 Clouds 38 999 9 10000 3.58 1 19:30 16.07.2022
1015 Clouds 39 998 9 10000 3.68 17 18:32 16.07.2022
1016 Clouds 43 997 7 10000 4.16 20 16:34 16.07.2022
1017 Clouds 43 997 6 10000 5.22 9 13:49 16.07.2022
1018 Clouds 41 999 6 10000 6.83 20 10:53 16.07.2022
1019 Clouds 40 1000 7 10000 8.48 15 09:33 16.07.2022
1020 Clouds 38 1000 7 10000 8.48 15 08:43 16.07.2022
1021 Clouds 38 1000 7 10000 8.4 7 08:19 16.07.2022
1022 Clear 33 1000 13 10000 4.73 346 03:58 16.07.2022
1023 Clear 32 1000 13 10000 4.62 345 02:40 16.07.2022
1024 Clouds 34 1000 11 10000 4.31 338 23:29 15.07.2022
1025 Clouds 35 1000 11 10000 4.31 338 22:40 15.07.2022
1026 Clouds 35 1000 10 10000 4.59 345 21:28 15.07.2022
1027 Clouds 36 1000 9 10000 4.67 2 20:26 15.07.2022
1028 Clouds 40 999 7 10000 5.07 16 18:40 15.07.2022
1029 Clouds 41 998 7 10000 6.06 20 17:37 15.07.2022
1030 Clouds 43 997 6 10000 9.93 10 14:53 15.07.2022
1031 Clouds 43 998 7 10000 9.58 3 12:57 15.07.2022
1032 Clouds 42 999 7 10000 9.09 3 11:20 15.07.2022
1033 Clouds 40 1000 7 10000 8.63 4 09:44 15.07.2022
1034 Clouds 33 1000 13 10000 4.24 344 06:24 15.07.2022
1035 Clouds 33 998 11 10000 3.69 324 00:53 15.07.2022
1036 Clouds 33 998 11 10000 3.7 331 00:21 15.07.2022
1037 Clouds 35 998 10 10000 3.86 339 22:50 14.07.2022
1038 Clouds 36 998 9 10000 3.91 344 21:46 14.07.2022
1039 Clouds 36 998 9 10000 4.09 346 21:28 14.07.2022
1040 Clouds 37 998 9 10000 4.09 346 20:44 14.07.2022
1041 Clouds 37 998 8 10000 4.39 350 20:20 14.07.2022
1042 Clouds 40 997 7 10000 4.82 2 18:52 14.07.2022
1043 Clouds 42 996 5 10000 8.78 359 16:22 14.07.2022
1044 Clouds 43 996 5 10000 8.78 359 15:32 14.07.2022
1045 Clouds 43 996 7 10000 7.56 355 13:53 14.07.2022
1046 Clouds 42 996 8 10000 7.14 360 12:58 14.07.2022
1047 Clouds 41 997 8 10000 6.98 6 11:47 14.07.2022
1048 Clouds 41 998 9 10000 7.24 12 11:23 14.07.2022
1049 Clouds 39 999 10 10000 7.63 16 09:54 14.07.2022
1050 Clouds 35 1000 12 10000 7.38 9 07:47 14.07.2022
1051 Clouds 33 1000 12 10000 4.45 325 01:25 14.07.2022
1052 Clouds 33 1000 12 10000 4.45 325 00:53 14.07.2022
1053 Clouds 36 1000 10 10000 3.84 326 22:33 13.07.2022
1054 Clouds 36 1001 10 10000 3.3 344 21:57 13.07.2022
1055 Clouds 36 1001 9 10000 3.56 357 21:18 13.07.2022
1056 Clouds 38 999 8 10000 4.19 14 19:34 13.07.2022
1057 Clouds 40 999 7 10000 4.92 19 17:51 13.07.2022
1058 Clouds 40 998 6 10000 7.12 15 16:43 13.07.2022
1059 Clouds 41 998 5 10000 8.01 3 15:24 13.07.2022
1060 Clouds 41 999 5 10000 7.2 352 12:56 13.07.2022
1061 Clouds 41 999 5 10000 7.2 352 12:56 13.07.2022
1062 Clouds 40 1001 7 10000 7.1 349 10:46 13.07.2022
1063 Clouds 40 1002 7 10000 6.63 350 10:24 13.07.2022
1064 Clouds 38 1002 8 10000 5.64 353 09:25 13.07.2022
1065 Clouds 31 1003 10 10000 5.94 351 06:46 13.07.2022
1066 Clouds 31 1003 12 10000 4.71 339 02:38 13.07.2022
1067 Clouds 33 1002 10 10000 3.74 327 23:52 12.07.2022
1068 Clouds 35 1003 10 10000 3.08 360 22:18 12.07.2022
1069 Clouds 36 1003 10 10000 3.08 360 21:34 12.07.2022
1070 Clouds 37 1003 10 10000 3.27 6 20:42 12.07.2022
1071 Clouds 37 1003 10 10000 3.85 9 19:36 12.07.2022
1072 Rain 39 1002 9 10000 7.05 27 17:54 12.07.2022
1073 Clouds 40 1001 9 10000 9.01 25 16:20 12.07.2022
1074 Clouds 40 1001 9 10000 9.01 25 16:20 12.07.2022
1075 Clouds 39 1001 9 10000 9.45 20 14:31 12.07.2022
1076 Clouds 39 1002 8 10000 8.45 25 13:20 12.07.2022
1077 Clouds 38 1002 8 10000 8.78 25 11:37 12.07.2022
1078 Clouds 38 1003 8 10000 8.47 22 10:18 12.07.2022
1079 Clouds 38 1003 8 10000 8.47 22 10:18 12.07.2022
1080 Clouds 36 1004 10 10000 9.1 17 08:24 12.07.2022
1081 Clouds 32 1004 11 10000 7.5 8 06:59 12.07.2022
1082 Clouds 31 1004 12 10000 6.68 6 05:42 12.07.2022
1083 Clouds 33 1003 11 10000 6.37 5 03:29 12.07.2022
1084 Clouds 35 1002 13 10000 4.27 355 23:42 11.07.2022
1085 Clouds 34 1002 11 10000 3.72 17 22:31 11.07.2022
1086 Clouds 36 1002 9 10000 4.25 24 20:41 11.07.2022
1087 Clouds 38 1002 8 10000 4.56 27 19:50 11.07.2022
1088 Clouds 39 1001 7 10000 5.58 37 18:38 11.07.2022
1089 Clouds 40 1000 6 10000 6.41 35 17:53 11.07.2022
1090 Clouds 41 999 6 10000 8.92 25 16:22 11.07.2022
1091 Clouds 41 998 6 10000 8.14 22 14:49 11.07.2022
1092 Clouds 41 999 6 10000 7.66 19 12:18 11.07.2022
1093 Clouds 39 1000 7 10000 8.07 16 10:42 11.07.2022
1094 Rain 38 1000 7 10000 8.84 18 09:54 11.07.2022
1095 Clear 36 1001 8 10000 8.56 23 08:35 11.07.2022
1096 Clouds 35 1001 9 10000 7.31 7 07:24 11.07.2022
1097 Clouds 32 999 9 10000 3.76 328 00:24 11.07.2022
1098 Clouds 33 999 9 10000 3.76 328 23:32 10.07.2022
1099 Clouds 35 1000 8 10000 3.61 359 22:21 10.07.2022
1100 Clouds 37 999 8 10000 3.89 2 20:55 10.07.2022
1101 Clouds 38 998 7 10000 4.48 5 19:55 10.07.2022
1102 Clouds 38 997 7 10000 4.45 6 19:20 10.07.2022
1103 Clouds 40 997 6 10000 4.93 5 17:50 10.07.2022
1104 Clouds 42 996 5 10000 6.95 355 16:59 10.07.2022
1105 Clouds 42 995 5 10000 8.34 349 16:20 10.07.2022
1106 Clouds 42 995 5 10000 8.57 343 14:35 10.07.2022
1107 Clouds 43 997 6 10000 6.71 342 12:42 10.07.2022
1108 Clouds 42 997 6 10000 6.22 341 11:36 10.07.2022
1109 Clouds 40 999 7 10000 5.12 1 09:30 10.07.2022
1110 Clouds 37 999 8 10000 4.77 16 08:42 10.07.2022
1111 Clouds 31 1000 10 10000 4.16 4 06:32 10.07.2022
1112 Clouds 33 998 13 10000 3.99 343 23:35 09.07.2022
1113 Clouds 34 999 11 10000 4 346 22:26 09.07.2022
1114 Clouds 35 999 11 10000 4 346 21:40 09.07.2022
1115 Clouds 38 998 10 10000 4.04 8 19:37 09.07.2022
1116 Clouds 39 997 9 10000 4.71 19 18:25 09.07.2022
1117 Clouds 41 996 8 10000 6.97 20 17:18 09.07.2022
1118 Clouds 42 996 7 10000 8.29 19 15:58 09.07.2022
1119 Clouds 42 996 7 10000 8.29 19 15:38 09.07.2022
1120 Clouds 42 996 7 10000 8.25 18 14:21 09.07.2022
1121 Clouds 42 997 7 10000 8.19 20 13:28 09.07.2022
1122 Clouds 41 998 7 10000 8.26 22 11:40 09.07.2022
1123 Clouds 40 999 7 10000 8.26 23 10:25 09.07.2022
1124 Clouds 39 1000 8 10000 8.17 25 09:23 09.07.2022
1125 Clouds 36 1000 9 10000 7.56 20 07:43 09.07.2022
1126 Clouds 30 1001 12 10000 4.13 348 04:38 09.07.2022
1127 Clouds 33 1000 11 10000 4.27 345 23:33 08.07.2022
1128 Clouds 34 1000 10 10000 4.5 1 22:18 08.07.2022
1129 Clouds 35 1000 10 10000 4.69 1 21:21 08.07.2022
1130 Clouds 37 1000 10 10000 4.69 1 20:35 08.07.2022
1131 Clouds 40 1000 9 10000 4.21 16 18:45 08.07.2022
1132 Clouds 41 999 9 10000 4.6 26 17:45 08.07.2022
1133 Clouds 41 999 9 10000 4.6 26 17:45 08.07.2022
1134 Clouds 42 998 7 10000 7.35 26 16:24 08.07.2022
1135 Clouds 42 998 6 10000 7 19 14:50 08.07.2022
1136 Clouds 41 999 8 10000 5.56 7 12:31 08.07.2022
1137 Clouds 40 1001 7 10000 6.21 20 10:46 08.07.2022
1138 Clouds 39 1001 8 10000 6.58 26 09:58 08.07.2022
1139 Clouds 34 1003 10 10000 7.31 22 06:59 08.07.2022
1140 Clouds 31 1003 11 10000 6.13 13 05:33 08.07.2022
1141 Clouds 34 1002 12 10000 4.73 346 00:30 08.07.2022
1142 Clouds 37 1002 12 10000 3.33 0 22:50 07.07.2022
1143 Rain 37 1002 12 10000 3.15 357 21:46 07.07.2022
1144 Rain 39 1001 10 10000 3.43 70 19:34 07.07.2022
1145 Clouds 40 1000 9 10000 5.65 59 17:43 07.07.2022
1146 Clouds 40 999 7 10000 5.87 45 16:21 07.07.2022
1147 Clouds 41 1000 7 10000 5.5 50 13:40 07.07.2022
1148 Clouds 41 1000 7 10000 5.62 36 12:41 07.07.2022
1149 Clouds 41 1000 7 10000 5.67 26 12:22 07.07.2022
1150 Clouds 40 1000 7 10000 5.67 26 11:32 07.07.2022
1151 Clouds 39 1001 7 10000 5.93 18 10:45 07.07.2022
1152 Clouds 39 1002 8 10000 6.39 15 10:27 07.07.2022
1153 Clouds 36 1002 9 10000 7.22 4 08:40 07.07.2022
1154 Clouds 30 1003 14 10000 6.47 344 05:44 07.07.2022
1155 Clouds 32 1001 14 10000 5.01 337 23:54 06.07.2022
1156 Clouds 32 1001 14 10000 5.01 337 23:36 06.07.2022
1157 Clouds 32 1002 13 10000 5.23 335 23:18 06.07.2022
1158 Clouds 35 1002 13 10000 5.23 335 22:46 06.07.2022
1159 Clouds 35 1002 13 10000 5.26 341 22:28 06.07.2022
1160 Clouds 37 1001 12 10000 4.88 342 19:46 06.07.2022
1161 Clouds 39 1000 11 10000 5.03 342 18:45 06.07.2022
1162 Clouds 41 999 9 10000 6.61 348 16:45 06.07.2022
1163 Clouds 42 999 8 10000 7.76 347 15:44 06.07.2022
1164 Clouds 41 999 7 10000 7.92 344 12:44 06.07.2022
1165 Clouds 41 999 8 10000 7.87 342 11:49 06.07.2022
1166 Clouds 39 1001 8 10000 7.27 348 10:33 06.07.2022
1167 Clouds 35 1001 9 10000 7.6 348 08:43 06.07.2022
1168 Clouds 33 1002 10 10000 6.12 2 07:41 06.07.2022
1169 Clouds 30 1002 11 10000 5.12 358 06:40 06.07.2022
1170 Clouds 33 1000 11 10000 5.05 329 22:49 05.07.2022
1171 Clouds 33 1000 10 10000 4.97 327 22:28 05.07.2022
1172 Clouds 36 1001 10 10000 4.76 330 20:42 05.07.2022
1173 Clear 38 999 9 10000 4.63 331 19:44 05.07.2022
1174 Clear 38 999 9 10000 4.66 341 19:26 05.07.2022
1175 Clear 41 998 8 10000 5.13 352 17:48 05.07.2022
1176 Clear 42 997 7 10000 6.46 348 16:57 05.07.2022
1177 Clear 42 997 6 10000 7.78 342 15:39 05.07.2022
1178 Clear 42 998 6 10000 7.87 342 14:39 05.07.2022
1179 Clouds 42 999 7 10000 7.73 340 12:52 05.07.2022
1180 Clouds 42 999 7 10000 6.95 338 12:19 05.07.2022
1181 Clouds 41 1000 8 10000 6.58 334 10:44 05.07.2022
1182 Clouds 39 1001 9 10000 5.98 344 09:28 05.07.2022
1183 Clear 38 1001 12 10000 6.32 342 08:19 05.07.2022
1184 Clear 32 1002 16 10000 5.15 347 06:22 05.07.2022
1185 Clear 30 1001 18 10000 4.16 323 04:26 05.07.2022
1186 Clouds 32 1000 15 10000 4.44 327 00:38 05.07.2022
1187 Clouds 33 1000 14 10000 4.15 323 23:34 04.07.2022
1188 Clouds 35 1000 13 10000 4.35 321 22:50 04.07.2022
1189 Clouds 35 1000 11 10000 4.68 313 21:48 04.07.2022
1190 Clouds 36 1000 10 10000 5.05 307 20:54 04.07.2022
1191 Clouds 36 1000 10 10000 5.05 307 20:34 04.07.2022
1192 Clouds 37 1000 10 10000 5.09 308 19:55 04.07.2022
1193 Clouds 37 1000 10 10000 5.09 308 19:36 04.07.2022
1194 Clouds 39 998 9 10000 5.5 328 18:26 04.07.2022
1195 Clouds 42 997 8 10000 7.12 328 16:34 04.07.2022
1196 Clear 42 997 8 10000 7.16 328 15:34 04.07.2022
1197 Clear 42 998 8 10000 7.11 327 13:33 04.07.2022
1198 Clear 41 999 9 10000 6.22 325 12:33 04.07.2022
1199 Clear 40 1000 10 10000 5.79 326 10:34 04.07.2022
1200 Clear 39 1001 10 10000 5.65 329 09:53 04.07.2022
1201 Clouds 37 1001 12 10000 5.41 341 08:31 04.07.2022
1202 Clouds 30 1001 17 10000 4 339 05:18 04.07.2022
1203 Clouds 32 999 16 10000 4.05 340 00:42 04.07.2022
1204 Clouds 34 999 14 10000 3.95 335 22:59 03.07.2022
1205 Clouds 37 1000 12 10000 4.76 318 20:59 03.07.2022
1206 Clouds 37 1000 12 10000 4.76 318 20:41 03.07.2022
1207 Clouds 38 999 11 10000 4.76 322 19:41 03.07.2022
1208 Clouds 38 998 11 10000 4.98 323 19:23 03.07.2022
1209 Clouds 40 998 10 10000 4.24 329 17:45 03.07.2022
1210 Clouds 42 997 9 10000 5.97 327 15:55 03.07.2022
1211 Clouds 41 997 9 10000 5.41 332 14:59 03.07.2022
1212 Clouds 41 997 9 10000 5.41 332 14:32 03.07.2022
1213 Clouds 41 997 9 10000 4.54 336 13:48 03.07.2022
1214 Clouds 40 998 9 10000 4.38 333 12:35 03.07.2022
1215 Clouds 40 999 10 10000 4.48 339 11:29 03.07.2022
1216 Clouds 40 999 10 10000 4.48 339 10:39 03.07.2022
1217 Clouds 39 1000 11 10000 4.43 349 09:55 03.07.2022
1218 Clouds 35 1001 11 10000 3.89 356 07:36 03.07.2022
1219 Clouds 29 1001 15 10000 2.63 319 05:18 03.07.2022
1220 Clouds 32 999 13 10000 3.87 353 00:23 03.07.2022
1221 Clouds 34 1000 12 10000 3.99 356 22:35 02.07.2022
1222 Clouds 36 1000 12 10000 4.5 348 21:38 02.07.2022
1223 Clouds 39 999 10 10000 4.6 338 19:52 02.07.2022
1224 Clouds 39 999 9 10000 4.55 348 19:23 02.07.2022
1225 Clouds 42 998 8 10000 4.98 354 17:51 02.07.2022
1226 Clouds 42 998 8 10000 4.98 354 17:33 02.07.2022
1227 Clouds 44 997 6 10000 6.92 346 14:52 02.07.2022
1228 Clouds 43 999 6 10000 5.28 341 12:22 02.07.2022
1229 Clouds 42 1000 6 10000 4.8 351 11:27 02.07.2022
1230 Clouds 41 1000 6 10000 4.8 351 10:46 02.07.2022
1231 Clouds 39 1001 7 10000 4.49 359 09:37 02.07.2022
1232 Clouds 38 1001 7 10000 4.29 5 08:36 02.07.2022
1233 Clouds 38 1002 9 10000 4.83 354 08:18 02.07.2022
1234 Clouds 30 1000 13 10000 4.06 348 02:52 02.07.2022
1235 Clouds 33 1000 11 10000 4.46 334 00:26 02.07.2022
1236 Clouds 35 1000 11 10000 4.33 326 22:59 01.07.2022
1237 Clouds 36 1001 11 10000 4.4 334 21:56 01.07.2022
1238 Clouds 36 1001 11 10000 4.4 334 21:37 01.07.2022
1239 Clouds 38 1001 10 10000 4.28 342 20:56 01.07.2022
1240 Clouds 40 1000 10 10000 4.24 355 19:47 01.07.2022
1241 Clouds 43 999 8 10000 4.59 360 17:58 01.07.2022
1242 Clouds 44 998 6 10000 6.31 348 16:24 01.07.2022
1243 Clouds 44 998 6 10000 5.16 342 13:55 01.07.2022
1244 Clouds 44 998 6 10000 5.38 336 12:59 01.07.2022
1245 Clouds 42 1000 7 10000 4.24 335 10:46 01.07.2022
1246 Clouds 42 1001 7 10000 3.72 338 10:18 01.07.2022
1247 Clear 30 1002 11 10000 3.96 340 05:58 01.07.2022
1248 Clouds 31 1000 12 10000 3.68 336 01:30 01.07.2022
1249 Clouds 33 1000 11 10000 3.93 337 23:28 30.06.2022
1250 Clouds 34 1000 11 10000 3.93 337 22:45 30.06.2022
1251 Clouds 34 1000 11 10000 4.41 340 22:27 30.06.2022
1252 Clouds 35 1000 11 10000 4.41 340 21:50 30.06.2022
1253 Clear 36 1001 10 10000 4.61 352 20:31 30.06.2022
1254 Clear 39 1000 9 10000 4.07 358 19:55 30.06.2022
1255 Clear 39 1000 9 10000 4.07 358 19:32 30.06.2022
1256 Clear 40 1000 8 10000 4.17 5 18:43 30.06.2022
1257 Clear 42 999 7 10000 4.67 1 17:49 30.06.2022
1258 Clear 43 998 6 10000 6.47 356 16:55 30.06.2022
1259 Clear 44 998 6 10000 7.55 354 15:50 30.06.2022
1260 Clear 44 998 5 10000 7.81 359 13:50 30.06.2022
1261 Clear 42 998 5 10000 8.08 1 12:36 30.06.2022
1262 Clear 42 999 6 10000 8.36 3 11:59 30.06.2022
1263 Clear 40 1001 6 10000 8.16 5 09:55 30.06.2022
1264 Clear 40 1001 6 10000 8.16 5 09:37 30.06.2022
1265 Clear 38 1002 8 10000 7.07 3 08:22 30.06.2022
1266 Clear 35 1002 8 10000 6.78 2 07:40 30.06.2022
1267 Clear 30 1001 14 10000 4.57 356 02:49 30.06.2022
1268 Clear 33 1001 12 10000 4.76 328 23:38 29.06.2022
1269 Clear 33 1001 12 10000 4.63 326 22:41 29.06.2022
1270 Clear 35 1002 11 10000 4.51 327 21:59 29.06.2022
1271 Clear 36 1002 11 10000 4.27 332 20:35 29.06.2022
1272 Clear 37 1002 10 10000 4.66 340 19:56 29.06.2022
1273 Clear 40 1001 7 10000 5.83 1 17:55 29.06.2022
1274 Clear 40 1001 7 10000 5.83 1 17:55 29.06.2022
1275 Clear 41 1000 6 10000 7.72 357 16:55 29.06.2022
1276 Clear 42 999 5 10000 8.95 352 15:44 29.06.2022
1277 Clear 42 1000 4 10000 7.85 352 13:43 29.06.2022
1278 Clear 42 1001 4 10000 7.29 348 12:36 29.06.2022
1279 Clouds 37 1004 7 10000 4.88 344 09:46 29.06.2022
1280 Clouds 37 1004 9 10000 4.91 343 09:22 29.06.2022
1281 Clouds 30 1005 15 10000 3.59 349 06:29 29.06.2022
1282 Clouds 27 1004 17 10000 2.98 327 04:42 29.06.2022
1283 Clouds 31 1002 14 10000 5.34 16 00:53 29.06.2022
1284 Clouds 31 1002 14 10000 5.34 16 00:33 29.06.2022
1285 Clouds 33 1003 14 10000 5.51 19 22:50 28.06.2022
1286 Clouds 35 1004 14 10000 5.31 15 21:58 28.06.2022
1287 Clouds 35 1004 13 10000 5.06 8 21:39 28.06.2022
1288 Clouds 35 1004 13 10000 5.06 8 21:19 28.06.2022
1289 Clouds 37 1003 10 10000 4.82 4 19:54 28.06.2022
1290 Clouds 37 1003 9 10000 5.14 9 19:28 28.06.2022
1291 Clouds 39 1003 9 10000 5.14 9 18:38 28.06.2022
1292 Clouds 42 1001 7 10000 7.17 360 16:47 28.06.2022
1293 Clouds 42 1001 7 10000 8.22 354 15:54 28.06.2022
1294 Clouds 43 1001 7 10000 8.06 351 14:48 28.06.2022
1295 Clouds 43 1001 7 10000 7.52 347 14:18 28.06.2022
1296 Clouds 41 1001 7 10000 7.09 348 13:45 28.06.2022
1297 Clouds 41 1003 8 10000 5.96 346 12:28 28.06.2022
1298 Clouds 38 1005 9 10000 4.9 351 09:53 28.06.2022
1299 Clouds 36 1005 10 10000 4.63 356 08:55 28.06.2022
1300 Clouds 36 1005 11 10000 3.88 353 08:26 28.06.2022
1301 Clouds 34 1005 12 10000 3.85 6 07:20 28.06.2022
1302 Clear 28 1004 16 10000 3.37 352 02:42 28.06.2022
1303 Clear 32 1003 13 10000 4.35 18 23:51 27.06.2022
1304 Clear 32 1003 13 10000 4.65 16 23:25 27.06.2022
1305 Clear 34 1004 12 10000 4.93 10 21:53 27.06.2022
1306 Clear 34 1004 11 10000 5.24 9 21:21 27.06.2022
1307 Clouds 35 1004 11 10000 5.53 17 20:21 27.06.2022
1308 Clouds 38 1003 10 10000 5.65 16 18:50 27.06.2022
1309 Clouds 40 1002 9 10000 6.44 8 17:33 27.06.2022
1310 Clouds 41 1001 8 10000 8.13 354 15:44 27.06.2022
1311 Clouds 41 1002 9 10000 7.53 347 14:18 27.06.2022
1312 Clouds 41 1002 9 10000 6.94 345 12:58 27.06.2022
1313 Clouds 39 1003 10 10000 6.25 349 11:40 27.06.2022
1314 Clouds 37 1005 12 10000 6.03 8 09:45 27.06.2022
1315 Clouds 35 1005 14 10000 6.33 16 08:43 27.06.2022
1316 Clouds 34 1005 16 10000 6.76 16 07:39 27.06.2022
1317 Clouds 31 1005 21 10000 5.01 359 05:22 27.06.2022
1318 Clouds 34 1003 15 10000 5.87 7 01:24 27.06.2022
1319 Clouds 35 1004 13 10000 6.06 359 22:59 26.06.2022
1320 Clouds 37 1003 10 10000 5.84 7 21:38 26.06.2022
1321 Clouds 38 1002 9 10000 5.08 359 20:28 26.06.2022
1322 Clouds 41 1002 8 10000 4.83 355 18:33 26.06.2022
1323 Clouds 43 1001 7 10000 4.76 351 17:40 26.06.2022
1324 Clouds 45 1000 6 10000 6.53 343 15:36 26.06.2022
1325 Clouds 45 1000 5 10000 7.07 341 14:23 26.06.2022
1326 Clouds 44 1000 6 10000 6.99 344 13:24 26.06.2022
1327 Clouds 44 1001 6 10000 7.02 348 11:41 26.06.2022
1328 Clouds 42 1001 6 10000 7.02 354 10:42 26.06.2022
1329 Clouds 40 1002 6 10000 7.06 357 09:58 26.06.2022
1330 Clouds 39 1003 7 10000 6.72 351 08:27 26.06.2022
1331 Clouds 35 1003 10 10000 4.27 330 06:19 26.06.2022
1332 Clouds 34 1001 13 10000 0.95 277 00:37 26.06.2022
1333 Clouds 34 1001 11 10000 1.88 45 00:18 26.06.2022
1334 Clouds 38 1001 11 10000 1.88 45 23:31 25.06.2022
1335 Clouds 39 1001 11 10000 2.83 331 22:46 25.06.2022
1336 Clouds 39 1002 10 10000 3.6 299 22:24 25.06.2022
1337 Clouds 40 1002 10 10000 2.84 282 21:21 25.06.2022
1338 Clouds 41 1002 10 10000 2.84 282 20:39 25.06.2022
1339 Clouds 40 1002 9 10000 2.83 288 19:59 25.06.2022
1340 Clouds 42 1000 9 10000 2.37 184 18:23 25.06.2022
1341 Clouds 44 1000 7 10000 2.1 169 17:26 25.06.2022
1342 Clouds 45 999 7 10000 1.29 148 16:27 25.06.2022
1343 Clouds 45 999 7 10000 1.05 107 14:31 25.06.2022
1344 Clouds 44 1001 7 10000 0.7 64 12:46 25.06.2022
1345 Clouds 44 1001 7 10000 0.35 213 12:27 25.06.2022
1346 Clouds 41 1004 11 10000 3.58 209 09:24 25.06.2022
1347 Clouds 41 1004 11 10000 3.58 209 09:24 25.06.2022
1348 Clouds 39 1004 11 10000 3.58 209 08:49 25.06.2022
1349 Clouds 39 1004 14 10000 3.64 193 08:20 25.06.2022
1350 Clouds 32 1004 16 10000 2.85 187 06:35 25.06.2022
1351 Clear 34 1003 19 10000 2.99 166 00:45 25.06.2022
1352 Clear 34 1003 18 10000 4.05 143 23:54 24.06.2022
1353 Clear 36 1004 16 10000 4.85 116 22:26 24.06.2022
1354 Clear 37 1004 15 10000 5.22 112 21:25 24.06.2022
1355 Clear 37 1003 12 10000 4.45 130 20:23 24.06.2022
1356 Clear 39 1002 11 10000 3.67 156 19:24 24.06.2022
1357 Clear 40 1002 11 10000 3.67 156 18:51 24.06.2022
1358 Clear 40 1002 11 10000 3.67 156 18:31 24.06.2022
1359 Clear 41 1002 10 10000 2.46 160 17:49 24.06.2022
1360 Clear 42 1002 8 10000 2.26 157 16:45 24.06.2022
1361 Clear 42 1002 8 10000 2.26 157 16:45 24.06.2022
1362 Clear 43 1002 8 10000 3.45 146 14:30 24.06.2022
1363 Clouds 43 1002 8 10000 4.37 147 13:58 24.06.2022
1364 Clouds 43 1003 9 10000 5.05 150 12:49 24.06.2022
1365 Clouds 41 1003 10 10000 5.43 150 11:40 24.06.2022
1366 Clouds 41 1004 12 10000 5.96 141 10:34 24.06.2022
1367 Clouds 39 1005 14 10000 6.91 129 09:41 24.06.2022
1368 Clouds 38 1005 15 10000 5.79 116 08:53 24.06.2022
1369 Clouds 38 1005 15 10000 5.79 116 08:53 24.06.2022
1370 Clouds 34 1006 19 10000 4.97 96 07:39 24.06.2022
1371 Clouds 32 1006 24 10000 4.02 83 06:42 24.06.2022
1372 Clouds 32 1006 28 10000 3.57 74 06:18 24.06.2022
1373 Clouds 28 1005 31 10000 3.28 73 03:47 24.06.2022
1374 Clear 35 1003 12 10000 4.77 132 22:59 23.06.2022
1375 Clear 35 1003 12 10000 4.77 132 22:40 23.06.2022
1376 Clear 38 1003 10 10000 5.23 125 20:58 23.06.2022
1377 Clear 38 1003 10 10000 5.23 125 20:35 23.06.2022
1378 Clouds 40 1002 8 10000 4.57 121 19:40 23.06.2022
1379 Clouds 43 1001 7 10000 4.05 138 17:53 23.06.2022
1380 Clouds 43 1000 6 10000 5.37 134 17:23 23.06.2022
1381 Clouds 44 1000 6 10000 6.22 140 15:50 23.06.2022
1382 Clouds 44 1000 5 10000 6.77 137 15:24 23.06.2022
1383 Clouds 44 1000 5 10000 6.94 137 13:45 23.06.2022
1384 Clouds 41 1002 5 10000 4.48 153 11:27 23.06.2022
1385 Clouds 41 1003 6 10000 4.06 172 10:37 23.06.2022
1386 Clouds 38 1003 6 10000 3.96 178 09:18 23.06.2022
1387 Rain 32 1002 11 10000 2.6 91 03:39 23.06.2022
1388 Clouds 36 1000 10 10000 1.07 176 00:26 23.06.2022
1389 Rain 36 1000 10 10000 1.08 176 23:41 22.06.2022
1390 Clouds 39 1000 10 10000 0.36 124 22:41 22.06.2022
1391 Clear 37 999 7 10000 3.4 173 21:22 22.06.2022
1392 Clear 39 999 7 10000 3.4 173 20:43 22.06.2022
1393 Clouds 37 998 7 10000 3.37 154 19:56 22.06.2022
1394 Clouds 41 998 7 10000 3.61 160 18:47 22.06.2022
1395 Clear 43 997 6 10000 3.88 149 17:28 22.06.2022
1396 Clear 44 997 6 10000 2.75 136 16:29 22.06.2022
1397 Clear 45 997 6 10000 1.94 127 15:26 22.06.2022
1398 Clear 44 997 6 10000 1.42 113 14:20 22.06.2022
1399 Clear 45 997 6 10000 1.25 149 13:39 22.06.2022
1400 Clear 45 998 6 10000 1.23 136 13:21 22.06.2022
1401 Clear 44 998 6 10000 2.06 139 11:49 22.06.2022
1402 Clear 44 999 6 10000 3.32 148 10:55 22.06.2022
1403 Clear 44 999 6 10000 4.67 156 10:19 22.06.2022
1404 Clear 41 999 8 10000 4.29 154 08:28 22.06.2022
1405 Clear 30 999 12 10000 2.4 183 04:50 22.06.2022
1406 Clear 32 999 12 10000 4.32 338 01:23 22.06.2022
1407 Clear 33 999 11 10000 4.69 345 00:24 22.06.2022
1408 Clear 34 1000 10 10000 5.24 332 22:18 21.06.2022
1409 Rain 39 998 8 10000 4.73 338 19:56 21.06.2022
1410 Clear 42 998 8 10000 4.23 341 18:35 21.06.2022
1411 Clear 43 997 7 10000 4.18 6 17:39 21.06.2022
1412 Clear 44 997 5 10000 7.08 8 13:54 21.06.2022
1413 Clear 44 998 6 10000 7.49 28 11:49 21.06.2022
1414 Clear 43 1000 6 10000 8.28 28 10:18 21.06.2022
1415 Clear 39 1000 7 10000 8.88 24 08:48 21.06.2022
1416 Clear 37 1001 7 10000 6.64 339 07:23 21.06.2022
1417 Clear 32 1001 7 10000 2.62 351 01:43 21.06.2022
1418 Clear 36 1001 7 10000 2.59 351 23:25 20.06.2022
1419 Clear 36 1002 6 10000 2.84 332 21:55 20.06.2022
1420 Clear 38 1001 6 10000 3.03 332 20:53 20.06.2022
1421 Clear 41 1001 5 10000 3.76 320 19:44 20.06.2022
1422 Clear 42 1000 5 10000 3.74 319 18:48 20.06.2022
1423 Clear 42 1000 5 10000 4.23 312 18:20 20.06.2022
1424 Clear 44 1000 5 10000 4.23 312 17:35 20.06.2022
1425 Clear 45 999 4 10000 4.74 283 15:57 20.06.2022
1426 Clear 45 999 4 10000 2.19 268 13:34 20.06.2022
1427 Clear 45 1002 5 10000 1.54 209 11:25 20.06.2022
1428 Clear 42 1002 5 10000 1.38 234 09:47 20.06.2022
1429 Clear 41 1003 5 10000 1.54 250 08:44 20.06.2022
1430 Clear 33 1003 6 10000 1.41 303 06:37 20.06.2022
1431 Clear 31 1002 9 10000 0.72 102 02:56 20.06.2022
1432 Clear 31 1001 8 10000 1.11 272 00:37 20.06.2022
1433 Clear 35 1002 7 10000 1.5 250 23:24 19.06.2022
1434 Clear 39 1002 7 10000 1.44 231 22:00 19.06.2022
1435 Clear 39 1002 7 10000 1.44 231 21:40 19.06.2022
1436 Clear 38 1002 6 10000 1.65 210 20:46 19.06.2022
1437 Clear 39 1001 6 10000 1.67 256 19:48 19.06.2022
1438 Clear 39 1001 6 10000 1.99 225 19:23 19.06.2022
1439 Clear 40 1001 6 10000 2 225 18:31 19.06.2022
1440 Clear 44 1001 5 10000 2.38 201 17:34 19.06.2022
1441 Clear 45 1000 5 10000 2.3 192 16:38 19.06.2022
1442 Clear 44 1000 4 10000 2.32 183 15:44 19.06.2022
1443 Clear 44 1000 4 10000 2.91 172 15:25 19.06.2022
1444 Clear 45 1000 4 10000 2.82 160 14:20 19.06.2022
1445 Clear 44 1000 4 10000 2.82 160 13:37 19.06.2022
1446 Clear 43 1001 4 10000 1.93 114 11:52 19.06.2022
1447 Clear 42 1002 4 10000 2.06 70 10:49 19.06.2022
1448 Clear 39 1003 6 10000 3.07 15 08:54 19.06.2022
1449 Clear 39 1003 7 10000 2.43 9 08:30 19.06.2022
1450 Clear 32 1004 9 10000 3.96 338 05:59 19.06.2022
1451 Clear 33 1002 9 10000 4.03 325 02:59 19.06.2022
1452 Clear 35 1002 7 10000 3.03 320 00:26 19.06.2022
1453 Clear 36 1002 7 10000 3.03 320 23:36 18.06.2022
1454 Clear 37 1002 7 10000 2.55 323 22:55 18.06.2022
1455 Clear 38 1002 6 10000 2.08 328 21:52 18.06.2022
1456 Clear 39 1002 7 10000 1.29 360 20:50 18.06.2022
1457 Clear 39 1001 6 10000 2.1 44 19:48 18.06.2022
1458 Clear 40 1001 5 10000 3.4 53 18:54 18.06.2022
1459 Clear 42 1000 4 10000 4.55 38 17:54 18.06.2022
1460 Clear 42 999 3 10000 6.59 16 17:23 18.06.2022
1461 Clear 43 999 3 10000 8.93 7 15:38 18.06.2022
1462 Clear 44 999 4 10000 9.53 2 14:49 18.06.2022
1463 Clear 43 1000 4 10000 9.56 358 13:54 18.06.2022
1464 Clear 42 1001 6 10000 8.74 351 11:58 18.06.2022
1465 Clear 41 1002 6 10000 7.93 350 10:59 18.06.2022
1466 Clear 38 1003 8 10000 6.51 358 09:29 18.06.2022
1467 Clear 37 1004 10 10000 6.17 7 08:33 18.06.2022
1468 Clear 35 1004 10 10000 5.77 1 07:32 18.06.2022
1469 Clear 31 1004 16 10000 3.89 331 04:20 18.06.2022
1470 Clear 33 1004 15 10000 4.75 326 01:27 18.06.2022
1471 Clear 33 1004 15 10000 4.75 326 01:27 18.06.2022
1472 Clear 35 1004 15 10000 4.75 326 00:55 18.06.2022
1473 Clear 35 1004 14 10000 4.77 322 00:22 18.06.2022
1474 Clear 36 1004 14 10000 4.73 324 23:29 17.06.2022
1475 Clear 37 1004 13 10000 4.79 330 21:57 17.06.2022
1476 Clear 38 1004 12 10000 4.87 339 20:29 17.06.2022
1477 Clear 39 1003 10 10000 5.47 350 19:19 17.06.2022
1478 Clear 41 1003 9 10000 6.3 355 17:47 17.06.2022
1479 Clear 42 1002 7 10000 7.46 354 16:44 17.06.2022
1480 Clear 42 1002 7 10000 8.18 351 16:19 17.06.2022
1481 Clear 43 1002 7 10000 8.18 351 15:37 17.06.2022
1482 Clear 43 1002 7 10000 8.18 351 15:37 17.06.2022
1483 Clear 43 1002 7 10000 7.59 356 14:23 17.06.2022
1484 Clouds 42 1002 7 10000 7.52 1 13:57 17.06.2022
1485 Clouds 42 1002 7 10000 7.52 1 13:37 17.06.2022
1486 Clouds 41 1004 7 10000 6.31 7 12:20 17.06.2022
1487 Clouds 41 1004 7 10000 6.31 7 11:49 17.06.2022
1488 Clouds 41 1004 7 10000 6.31 7 11:30 17.06.2022
1489 Clouds 36 1006 11 10000 3.1 2 08:45 17.06.2022
1490 Clouds 36 1006 13 10000 2.74 12 08:24 17.06.2022
1491 Clouds 32 1007 15 10000 3.17 2 06:35 17.06.2022
1492 Clear 30 1006 18 10000 2.47 325 03:25 17.06.2022
1493 Clear 31 1006 17 10000 2.02 328 01:55 17.06.2022
1494 Clear 33 1006 17 10000 1.74 70 23:34 16.06.2022
1495 Clear 35 1006 15 10000 3.16 57 22:40 16.06.2022
1496 Clear 36 1006 12 10000 5.38 36 21:21 16.06.2022
1497 Clear 37 1006 12 10000 5.38 36 20:50 16.06.2022
1498 Clear 37 1006 10 10000 4.74 39 20:21 16.06.2022
1499 Clouds 39 1005 9 10000 4.71 48 18:51 16.06.2022
1500 Clouds 41 1004 8 10000 5.07 48 17:54 16.06.2022
1501 Clear 41 1003 7 10000 6.35 47 17:27 16.06.2022
1502 Clear 42 1002 6 10000 6.63 46 16:20 16.06.2022
1503 Clear 42 1002 6 10000 5.71 49 15:21 16.06.2022
1504 Clear 42 1003 6 10000 4.9 57 14:27 16.06.2022
1505 Clear 42 1003 7 10000 5.55 59 12:56 16.06.2022
1506 Clear 42 1003 7 10000 5.55 59 12:34 16.06.2022
1507 Clear 42 1004 7 10000 5.47 60 11:48 16.06.2022
1508 Clear 41 1005 8 10000 3.83 75 10:42 16.06.2022
1509 Clear 39 1005 9 10000 3.87 110 09:43 16.06.2022
1510 Clear 39 1006 10 10000 4.89 117 09:19 16.06.2022
1511 Clear 36 1006 10 10000 3.54 118 07:42 16.06.2022
1512 Clear 32 1006 12 10000 2.29 133 06:49 16.06.2022
1513 Clear 27 1005 18 10000 0.81 229 04:27 16.06.2022
1514 Clear 31 1005 19 10000 0.41 330 01:53 16.06.2022
1515 Clear 31 1005 17 10000 1.42 49 01:29 16.06.2022
1516 Clear 31 1005 16 10000 2.52 71 00:29 16.06.2022
1517 Clear 33 1005 13 10000 3.57 74 22:54 15.06.2022
1518 Clear 35 1005 12 10000 3.33 72 21:55 15.06.2022
1519 Clear 35 1006 11 10000 3.58 89 21:20 15.06.2022
1520 Clear 36 1006 11 10000 3.58 89 20:37 15.06.2022
1521 Clear 36 1005 11 10000 4.36 88 20:18 15.06.2022
1522 Clear 39 1004 10 10000 4.8 86 18:47 15.06.2022
1523 Clear 40 1003 9 10000 5.57 81 17:54 15.06.2022
1524 Clear 41 1003 7 10000 6.96 70 16:35 15.06.2022
1525 Clear 42 1002 6 10000 7.17 55 15:22 15.06.2022
1526 Clear 42 1002 7 10000 5.92 56 13:37 15.06.2022
1527 Clear 42 1003 7 10000 4.71 67 12:51 15.06.2022
1528 Clear 40 1004 7 10000 4.47 81 11:37 15.06.2022
1529 Clear 39 1005 9 10000 4.55 90 10:22 15.06.2022
1530 Clear 38 1005 9 10000 4.55 90 09:34 15.06.2022
1531 Clear 34 1006 14 10000 1.95 115 07:58 15.06.2022
1532 Clear 32 1006 18 10000 2.44 133 06:33 15.06.2022
1533 Clear 30 1005 20 10000 3.32 129 03:28 15.06.2022
1534 Clear 32 1004 18 10000 3.7 117 01:37 15.06.2022
1535 Clear 32 1004 17 10000 3.06 110 00:41 15.06.2022
1536 Clear 32 1004 15 10000 3.35 98 23:38 14.06.2022
1537 Clear 34 1004 14 10000 3.69 86 22:51 14.06.2022
1538 Clear 35 1005 13 10000 3.95 85 21:47 14.06.2022
1539 Clear 35 1005 13 10000 5 86 21:26 14.06.2022
1540 Clear 36 1005 13 10000 5 86 20:48 14.06.2022
1541 Clear 37 1004 10 10000 6.73 86 19:59 14.06.2022
1542 Clear 38 1004 9 10000 6.6 85 18:45 14.06.2022
1543 Clear 40 1003 7 10000 6.33 68 17:29 14.06.2022
1544 Clear 41 1003 7 10000 6.33 68 16:43 14.06.2022
1545 Clear 42 1002 7 10000 6.33 56 15:49 14.06.2022
1546 Clear 42 1002 6 10000 6 53 14:57 14.06.2022
1547 Clear 42 1003 6 10000 5.31 55 14:19 14.06.2022
1548 Clear 41 1003 6 10000 5.7 57 13:32 14.06.2022
1549 Clear 42 1004 7 10000 6.11 65 12:25 14.06.2022
1550 Clear 40 1005 7 10000 5.83 66 10:59 14.06.2022
1551 Clear 40 1005 7 10000 5.83 66 10:59 14.06.2022
1552 Clear 40 1005 7 10000 5.83 66 10:33 14.06.2022
1553 Clear 40 1006 8 10000 2.91 74 09:28 14.06.2022
1554 Clear 40 1006 8 10000 2.91 74 09:28 14.06.2022
1555 Clear 38 1006 8 10000 2.91 74 08:41 14.06.2022
1556 Clear 32 1006 11 10000 1.08 226 06:54 14.06.2022
1557 Clear 31 1004 14 10000 1.64 97 04:28 14.06.2022
1558 Clear 31 1004 13 10000 2.15 106 02:43 14.06.2022
1559 Clear 33 1003 11 10000 4.39 78 00:27 14.06.2022
1560 Clear 34 1003 10 10000 5.35 70 23:18 13.06.2022
1561 Clear 34 1004 10 10000 5.88 65 22:24 13.06.2022
1562 Clear 35 1004 10 10000 5.88 65 21:41 13.06.2022
1563 Clear 37 1004 9 10000 4.51 41 19:59 13.06.2022
1564 Clear 37 1003 8 10000 3.45 34 19:25 13.06.2022
1565 Clear 41 1002 8 10000 2.74 27 17:57 13.06.2022
1566 Clear 41 1001 7 10000 2.73 6 17:27 13.06.2022
1567 Clear 42 1001 7 10000 2.73 6 16:32 13.06.2022
1568 Clear 42 1001 6 10000 2.4 358 14:53 13.06.2022
1569 Clear 42 1001 6 10000 2.49 15 14:33 13.06.2022
1570 Clear 42 1002 6 10000 1.73 30 13:39 13.06.2022
1571 Clear 42 1003 6 10000 2.25 67 12:25 13.06.2022
1572 Clear 40 1004 7 10000 2.74 74 11:18 13.06.2022
1573 Clear 40 1004 7 10000 3.17 74 10:26 13.06.2022
1574 Clear 39 1005 7 10000 2.99 54 09:22 13.06.2022
1575 Clear 31 1005 10 10000 2.7 13 06:55 13.06.2022
1576 Clear 29 1005 11 10000 2.23 22 05:39 13.06.2022
1577 Clear 31 1003 13 10000 2.21 112 02:47 13.06.2022
1578 Clear 30 1002 14 10000 1 60 01:36 13.06.2022
1579 Clear 32 1003 13 10000 1.78 53 23:52 12.06.2022
1580 Clear 33 1003 12 10000 2.6 24 22:50 12.06.2022
1581 Clear 33 1003 11 10000 3.18 28 22:22 12.06.2022
1582 Clear 36 1002 10 10000 3.93 47 20:58 12.06.2022
1583 Clear 36 1001 9 10000 3.73 37 20:27 12.06.2022
1584 Clear 38 1001 9 10000 3.73 37 19:30 12.06.2022
1585 Clear 42 1000 8 10000 3.98 19 17:47 12.06.2022
1586 Clear 43 999 6 10000 2.96 8 15:58 12.06.2022
1587 Clear 44 1000 6 10000 2.87 5 14:56 12.06.2022
1588 Clear 44 1000 6 10000 2.6 354 14:20 12.06.2022
1589 Clear 43 1000 7 10000 2.95 355 13:49 12.06.2022
1590 Clear 42 1001 7 10000 2.37 337 12:37 12.06.2022
1591 Clear 42 1003 7 10000 1.69 321 11:37 12.06.2022
1592 Clear 40 1004 8 10000 1.86 349 10:22 12.06.2022
1593 Clear 37 1004 8 10000 2.31 4 08:54 12.06.2022
1594 Clear 37 1004 8 10000 2.31 4 08:35 12.06.2022
1595 Clear 35 1005 9 10000 2.29 5 07:32 12.06.2022
1596 Clear 29 1005 15 10000 1.27 342 04:35 12.06.2022
1597 Clear 29 1004 15 10000 1.43 350 02:38 12.06.2022
1598 Clear 31 1004 14 10000 2.42 338 01:37 12.06.2022
1599 Clear 31 1004 14 10000 2.76 320 00:58 12.06.2022
1600 Clear 31 1004 13 10000 3.27 23 00:20 12.06.2022
1601 Clear 33 1004 13 10000 3.27 23 23:40 11.06.2022
1602 Clear 34 1004 13 10000 5.4 21 22:38 11.06.2022
1603 Clear 34 1004 13 10000 5.4 21 22:38 11.06.2022
1604 Clear 35 1005 12 10000 5.27 12 21:42 11.06.2022
1605 Clear 36 1005 11 10000 5.19 12 20:34 11.06.2022
1606 Clear 38 1004 10 10000 5.31 17 19:46 11.06.2022
1607 Clear 38 1004 9 10000 5.3 11 19:19 11.06.2022
1608 Clear 40 1004 9 10000 5.3 11 18:33 11.06.2022
1609 Clear 41 1003 8 10000 5.42 3 17:50 11.06.2022
1610 Clear 41 1003 7 10000 6.83 358 17:26 11.06.2022
1611 Clear 43 1003 7 10000 6.83 358 16:52 11.06.2022
1612 Clear 43 1003 6 10000 7.24 353 16:26 11.06.2022
1613 Clear 43 1003 6 10000 5.97 348 15:28 11.06.2022
1614 Clear 42 1003 6 10000 4.8 335 13:53 11.06.2022
1615 Clear 42 1004 6 10000 4.32 331 12:37 11.06.2022
1616 Clear 39 1006 7 10000 3.48 355 10:46 11.06.2022
1617 Clear 38 1007 8 10000 3.7 8 09:48 11.06.2022
1618 Clear 37 1007 8 10000 3.82 14 08:51 11.06.2022
1619 Clear 32 1008 11 10000 4.5 18 06:47 11.06.2022
1620 Clear 32 1008 13 10000 3.38 20 06:24 11.06.2022
1621 Clear 30 1006 17 10000 1.08 31 03:46 11.06.2022
1622 Clear 31 1006 17 10000 2.83 13 01:52 11.06.2022
1623 Clear 31 1006 16 10000 2.93 20 01:26 11.06.2022
1624 Clear 34 1006 14 10000 3.56 60 23:29 10.06.2022
1625 Clear 35 1006 14 10000 3.56 60 22:31 10.06.2022
1626 Clear 36 1006 11 10000 5.73 70 21:50 10.06.2022
1627 Clear 38 1006 8 10000 5.54 39 20:39 10.06.2022
1628 Clear 38 1005 7 10000 2.06 11 20:21 10.06.2022
1629 Clear 39 1004 7 10000 0.46 214 19:19 10.06.2022
1630 Clear 39 1004 7 10000 0.46 214 19:19 10.06.2022
1631 Clear 39 1004 7 10000 0.46 214 18:55 10.06.2022
1632 Clear 43 1003 6 10000 1.82 233 17:55 10.06.2022
1633 Clear 43 1003 6 10000 1.82 233 17:32 10.06.2022
1634 Clear 45 1003 5 10000 2.05 239 16:36 10.06.2022
1635 Clear 44 1003 4 10000 2.03 238 15:40 10.06.2022
1636 Clear 45 1003 4 10000 1.7 227 14:34 10.06.2022
1637 Clear 45 1004 4 10000 1.31 180 13:23 10.06.2022
1638 Clear 43 1004 4 10000 1.97 155 11:59 10.06.2022
1639 Clear 42 1005 5 10000 2.83 139 10:59 10.06.2022
1640 Clear 42 1005 5 10000 2.83 139 10:35 10.06.2022
1641 Clear 41 1006 5 10000 2.87 96 09:21 10.06.2022
1642 Clear 35 1007 6 10000 1.88 66 07:51 10.06.2022
1643 Clear 31 1007 7 10000 3.24 43 06:47 10.06.2022
1644 Clear 31 1007 8 10000 2.86 26 06:28 10.06.2022
1645 Clear 28 1006 11 10000 1.06 309 05:31 10.06.2022
1646 Clear 31 1005 10 10000 2.21 138 02:46 10.06.2022
1647 Clear 30 1004 9 10000 2.63 133 01:37 10.06.2022
1648 Clear 34 1004 9 10000 1.68 128 23:58 09.06.2022
1649 Clear 35 1004 8 10000 2.56 135 22:43 09.06.2022
1650 Clear 35 1005 7 10000 2.5 122 21:43 09.06.2022
1651 Clear 35 1005 7 10000 1.63 110 21:24 09.06.2022
1652 Clear 37 1005 7 10000 1.63 110 20:38 09.06.2022
1653 Clear 39 1004 6 10000 3.62 102 19:46 09.06.2022
1654 Clear 41 1003 6 10000 3.9 75 18:41 09.06.2022
1655 Clear 43 1002 5 10000 2.56 71 17:33 09.06.2022
1656 Clear 44 1002 4 10000 2.53 85 16:28 09.06.2022
1657 Clear 45 1002 4 10000 2.04 104 15:22 09.06.2022
1658 Clear 45 1002 4 10000 2.04 104 14:30 09.06.2022
1659 Clear 45 1002 5 10000 2.51 107 13:44 09.06.2022
1660 Clear 45 1003 5 10000 2.29 113 13:19 09.06.2022
1661 Clear 44 1004 5 10000 3.53 98 11:35 09.06.2022
1662 Clear 42 1004 5 10000 3.11 102 09:55 09.06.2022
1663 Clear 42 1004 5 10000 3.11 102 09:55 09.06.2022
1664 Clear 42 1004 5 10000 3.11 102 09:37 09.06.2022
1665 Clear 41 1005 6 10000 2.4 154 08:38 09.06.2022
1666 Clear 38 1005 7 10000 3 213 07:29 09.06.2022
1667 Clear 28 1006 12 10000 0.89 115 04:30 09.06.2022
1668 Clear 33 1004 9 10000 1.76 131 00:35 09.06.2022
1669 Clear 35 1004 8 10000 2.91 74 23:18 08.06.2022
1670 Clear 36 1004 8 10000 2.91 74 22:43 08.06.2022
1671 Clear 36 1004 7 10000 1.66 80 22:23 08.06.2022
1672 Clear 37 1004 7 10000 1.66 80 21:33 08.06.2022
1673 Clear 36 1004 7 10000 1.89 235 20:25 08.06.2022
1674 Clear 39 1004 7 10000 1.54 246 19:41 08.06.2022
1675 Clear 41 1004 6 10000 2.97 241 18:48 08.06.2022
1676 Clear 43 1003 6 10000 2.16 211 17:41 08.06.2022
1677 Clear 44 1002 5 10000 1.84 179 15:54 08.06.2022
1678 Clear 45 1002 5 10000 1.85 191 14:38 08.06.2022
1679 Clear 45 1003 5 10000 1.97 129 12:55 08.06.2022
1680 Clear 45 1003 5 10000 1.96 129 12:55 08.06.2022
1681 Clear 45 1003 5 10000 1.97 129 12:55 08.06.2022
1682 Clear 45 1003 5 10000 1.97 129 12:55 08.06.2022
1683 Clear 43 1003 5 10000 2.72 108 11:36 08.06.2022
1684 Clear 42 1004 5 10000 2.09 108 10:51 08.06.2022
1685 Clear 41 1005 5 10000 2.62 198 09:28 08.06.2022
1686 Clear 40 1005 5 10000 2.62 198 08:54 08.06.2022
1687 Clear 32 1005 7 10000 2.55 176 06:56 08.06.2022
1688 Clear 27 1005 9 10000 2.44 188 04:47 08.06.2022
1689 Clear 31 1003 8 10000 3.4 127 01:25 08.06.2022
1690 Clear 33 1003 7 10000 3.02 136 23:32 07.06.2022
1691 Clear 32 1003 7 10000 2.14 150 22:54 07.06.2022
1692 Clear 32 1003 7 10000 2.14 150 22:34 07.06.2022
1693 Clear 34 1003 7 10000 1.5 169 21:39 07.06.2022
1694 Clear 34 1003 7 10000 1.64 178 21:20 07.06.2022
1695 Clear 37 1003 7 10000 1.64 178 20:40 07.06.2022
1696 Clear 36 1003 6 10000 1.6 207 19:57 07.06.2022
1697 Clear 38 1002 6 10000 2.1 127 18:26 07.06.2022
1698 Clear 43 1002 6 10000 2.1 127 17:33 07.06.2022
1699 Clear 44 1001 5 10000 1.76 132 16:44 07.06.2022
1700 Clear 44 1001 4 10000 1.79 127 15:58 07.06.2022
1701 Clear 44 1001 4 10000 1.79 127 15:36 07.06.2022
1702 Clear 44 1001 4 10000 2.11 123 15:18 07.06.2022
1703 Clear 45 1001 4 10000 2.11 123 14:42 07.06.2022
1704 Clear 44 1001 4 10000 2.04 131 13:38 07.06.2022
1705 Clear 44 1002 4 10000 2.68 121 13:20 07.06.2022
1706 Clear 44 1002 5 10000 3.08 124 11:55 07.06.2022
1707 Clear 43 1003 5 10000 3.32 137 10:48 07.06.2022
1708 Clear 39 1004 6 10000 3.29 165 08:58 07.06.2022
1709 Clear 36 1004 6 10000 2.89 184 07:54 07.06.2022
1710 Clear 31 1004 7 10000 2.63 181 06:41 07.06.2022
1711 Clear 27 1004 9 10000 3.06 166 04:47 07.06.2022
1712 Clouds 31 1003 9 10000 2.68 150 01:27 07.06.2022
1713 Clouds 32 1003 8 10000 3.07 140 23:58 06.06.2022
1714 Clouds 32 1003 7 10000 3.63 111 22:54 06.06.2022
1715 Clouds 32 1003 7 10000 3.63 111 22:30 06.06.2022
1716 Clouds 36 1003 6 10000 2.67 197 20:54 06.06.2022
1717 Clouds 36 1002 5 10000 3.57 144 19:29 06.06.2022
1718 Clouds 38 1002 5 10000 3.57 144 18:53 06.06.2022
1719 Clouds 38 1002 5 10000 3.65 128 18:26 06.06.2022
1720 Clear 43 1001 5 10000 3.3 112 17:26 06.06.2022
1721 Clear 44 1001 4 10000 2.53 106 16:18 06.06.2022
1722 Clear 44 1001 4 10000 2.53 106 15:33 06.06.2022
1723 Clear 45 1001 4 10000 2.08 101 14:32 06.06.2022
1724 Clear 45 1002 4 10000 0.53 118 13:25 06.06.2022
1725 Clear 43 1002 4 10000 0.53 118 12:36 06.06.2022
1726 Clear 43 1003 4 10000 0.47 263 11:53 06.06.2022
1727 Clear 42 1004 4 10000 1.71 267 10:40 06.06.2022
1728 Clear 41 1004 5 10000 3.29 258 09:33 06.06.2022
1729 Clear 40 1005 5 10000 3.9 262 08:32 06.06.2022
1730 Clear 35 1005 6 10000 3.56 232 07:28 06.06.2022
1731 Clear 26 1005 9 10000 2.66 228 05:27 06.06.2022
1732 Clear 27 1004 10 10000 1.34 209 02:55 06.06.2022
1733 Clear 29 1004 8 10000 2.17 212 01:18 06.06.2022
1734 Clear 30 1004 8 10000 2.17 212 00:38 06.06.2022
1735 Clear 31 1005 8 10000 2.42 205 23:34 05.06.2022
1736 Clear 31 1005 8 10000 2.86 182 22:45 05.06.2022
1737 Clear 35 1005 7 10000 1.69 132 20:47 05.06.2022
1738 Clear 38 1004 7 10000 2.43 113 19:41 05.06.2022
1739 Clear 39 1004 6 10000 3.23 104 18:30 05.06.2022
1740 Clear 42 1004 6 10000 3.49 100 17:54 05.06.2022
1741 Clear 42 1003 5 10000 3.12 91 17:25 05.06.2022
1742 Clear 43 1003 5 10000 3.12 91 16:51 05.06.2022
1743 Clear 43 1003 5 10000 3.12 91 16:32 05.06.2022
1744 Clear 45 1003 4 10000 3.06 100 14:25 05.06.2022
1745 Clear 43 1004 4 10000 3.53 96 12:55 05.06.2022
1746 Clear 43 1004 4 10000 3.53 96 12:55 05.06.2022
1747 Clear 42 1004 4 10000 3.97 99 11:45 05.06.2022
1748 Clear 44 1005 5 10000 3.89 94 10:34 05.06.2022
1749 Clear 40 1006 5 10000 3.33 80 09:59 05.06.2022
1750 Clear 39 1007 6 10000 2.08 49 08:32 05.06.2022
1751 Clear 36 1007 6 10000 2.88 304 07:44 05.06.2022
1752 Clear 27 1007 10 10000 2.62 294 05:22 05.06.2022
1753 Clear 25 1007 11 10000 2.39 321 04:19 05.06.2022
1754 Clear 29 1006 12 10000 0.69 323 01:32 05.06.2022
1755 Clear 29 1006 12 10000 0.69 323 01:32 05.06.2022
1756 Clear 29 1006 11 10000 0.55 108 00:33 05.06.2022
1757 Clear 31 1007 10 10000 0.9 156 22:36 04.06.2022
1758 Clear 35 1007 9 10000 1.57 114 20:33 04.06.2022
1759 Clear 39 1006 8 10000 3.85 95 18:45 04.06.2022
1760 Clear 41 1005 6 10000 4.89 80 16:47 04.06.2022
1761 Clear 41 1005 5 10000 4.98 67 16:18 04.06.2022
1762 Clear 42 1005 5 10000 4.4 63 14:53 04.06.2022
1763 Clear 41 1006 5 10000 4.02 75 12:38 04.06.2022
1764 Clear 41 1007 5 10000 2.78 88 11:19 04.06.2022
1765 Clear 42 1007 5 10000 2.77 88 10:44 04.06.2022
1766 Clear 40 1008 6 10000 2.42 98 09:44 04.06.2022
1767 Clear 37 1009 7 10000 2.28 120 08:43 04.06.2022
1768 Clear 33 1009 7 10000 2.67 99 07:41 04.06.2022
1769 Clear 26 1008 10 10000 2.31 301 05:29 04.06.2022
1770 Clear 27 1007 11 10000 1.23 276 01:42 04.06.2022
1771 Clear 30 1008 10 10000 1.6 263 23:59 03.06.2022
1772 Clear 31 1008 10 10000 1.61 204 22:40 03.06.2022
1773 Clear 33 1009 9 10000 2.01 177 21:30 03.06.2022
1774 Clear 32 1009 9 10000 2.54 121 20:37 03.06.2022
1775 Clear 32 1009 9 10000 2.54 121 20:37 03.06.2022
1776 Clear 32 1009 8 10000 3.73 87 20:37 03.06.2022
1777 Clear 37 1008 7 10000 3.86 91 18:41 03.06.2022
1778 Clear 40 1006 6 10000 3.35 96 16:49 03.06.2022
1779 Clear 40 1006 5 10000 2.73 101 15:37 03.06.2022
1780 Clear 40 1007 6 10000 3.7 120 13:28 03.06.2022
1781 Clear 39 1008 6 10000 3.83 125 11:40 03.06.2022
1782 Clear 38 1009 8 10000 4.24 119 09:50 03.06.2022
1783 Clear 38 1009 8 10000 4.24 119 09:50 03.06.2022
1784 Clear 38 1009 10 10000 4.18 145 09:24 03.06.2022
1785 Clear 34 1010 13 10000 2.44 176 07:27 03.06.2022
1786 Clear 30 1010 13 10000 2.44 176 06:39 03.06.2022
1787 Clear 30 1010 15 10000 2.14 158 06:20 03.06.2022
1788 Clear 30 1008 14 10000 4.01 131 00:41 03.06.2022
1789 Clear 30 1008 11 10000 3.87 129 22:48 02.06.2022
1790 Clear 33 1008 10 10000 3.58 119 21:57 02.06.2022
1791 Clear 34 1008 10 10000 4.96 107 20:22 02.06.2022
1792 Clear 36 1008 10 10000 4.96 107 19:50 02.06.2022
1793 Clear 36 1008 9 10000 4.8 98 19:32 02.06.2022
1794 Clear 39 1006 8 10000 5.54 99 17:58 02.06.2022
1795 Clear 40 1005 6 10000 6.38 96 16:28 02.06.2022
1796 Clear 41 1005 6 10000 6.15 98 14:34 02.06.2022
1797 Clear 41 1005 5 10000 6.41 103 13:30 02.06.2022
1798 Clear 40 1005 5 10000 6.03 105 12:40 02.06.2022
1799 Clear 38 1007 6 10000 5.12 119 10:20 02.06.2022
1800 Clear 38 1008 7 10000 4.11 116 09:28 02.06.2022
1801 Clear 35 1009 8 10000 3.3 127 08:28 02.06.2022
1802 Clear 33 1008 7 10000 5.35 116 07:34 02.06.2022
1803 Clear 25 1008 11 10000 3.55 107 05:29 02.06.2022
1804 Clear 27 1007 10 10000 2.89 107 03:45 02.06.2022
1805 Clear 28 1007 10 10000 0.84 136 23:52 01.06.2022
1806 Clear 30 1007 9 10000 1.44 155 22:54 01.06.2022
1807 Clear 32 1007 9 10000 2.21 125 21:39 01.06.2022
1808 Clear 32 1007 8 10000 3.37 108 21:20 01.06.2022
1809 Clear 33 1007 8 10000 3.37 108 20:37 01.06.2022
1810 Clear 36 1006 8 10000 4.13 56 19:31 01.06.2022
1811 Clear 39 1005 7 10000 5.47 24 17:46 01.06.2022
1812 Clear 40 1004 6 10000 6.63 11 16:41 01.06.2022
1813 Clear 40 1003 5 10000 6.49 12 15:18 01.06.2022
1814 Clear 40 1004 5 10000 6.51 8 13:57 01.06.2022
1815 Clear 40 1005 5 10000 7.18 20 12:29 01.06.2022
1816 Clear 38 1006 6 10000 7.3 29 10:25 01.06.2022
1817 Clear 38 1007 6 10000 7.19 34 09:24 01.06.2022
1818 Clear 34 1008 8 10000 4.77 18 07:25 01.06.2022
1819 Clear 33 1008 8 10000 4.77 18 06:40 01.06.2022
1820 Clear 29 1005 11 10000 3.13 359 01:29 01.06.2022
1821 Clear 31 1005 11 10000 3.41 14 23:41 31.05.2022
1822 Clear 33 1006 10 10000 3.88 18 22:37 31.05.2022
1823 Clear 33 1006 10 10000 4.28 20 21:46 31.05.2022
1824 Clear 35 1006 10 10000 4.81 10 20:46 31.05.2022
1825 Clear 35 1006 9 10000 4.62 355 20:23 31.05.2022
1826 Clear 37 1005 8 10000 4.58 9 18:53 31.05.2022
1827 Clear 39 1004 8 10000 4.71 16 17:51 31.05.2022
1828 Clear 39 1004 7 10000 4.53 11 17:18 31.05.2022
1829 Clear 41 1004 6 10000 3.87 357 15:41 31.05.2022
1830 Clear 41 1004 6 10000 3.87 357 15:41 31.05.2022
1831 Clear 42 1004 6 10000 3.55 345 14:18 31.05.2022
1832 Clear 39 1005 7 10000 2.4 24 12:21 31.05.2022
1833 Clear 38 1006 7 10000 3.16 45 10:55 31.05.2022
1834 Clear 37 1007 7 10000 4.07 58 09:31 31.05.2022
1835 Clear 33 1009 9 10000 3.1 55 07:28 31.05.2022
1836 Clear 28 1008 12 10000 2 31 05:23 31.05.2022
1837 Clear 26 1007 12 10000 1.53 54 01:41 31.05.2022
1838 Clear 30 1007 11 10000 3.28 25 23:29 30.05.2022
1839 Clear 31 1007 11 10000 3.28 25 22:57 30.05.2022
1840 Clear 31 1007 10 10000 3.46 31 22:21 30.05.2022
1841 Clear 33 1007 10 10000 3.46 31 21:34 30.05.2022
1842 Clear 34 1007 10 10000 4.13 43 20:20 30.05.2022
1843 Clear 37 1005 9 10000 3.95 57 18:41 30.05.2022
1844 Clear 38 1005 9 10000 2.92 47 17:38 30.05.2022
1845 Clear 40 1004 8 10000 3.08 38 16:44 30.05.2022
1846 Clear 40 1005 7 10000 1.39 61 14:51 30.05.2022
1847 Clear 40 1007 7 10000 3.88 149 12:29 30.05.2022
1848 Clear 38 1007 7 10000 4.26 144 10:46 30.05.2022
1849 Clear 37 1008 8 10000 3.69 128 09:39 30.05.2022
1850 Clear 32 1009 11 10000 3.32 124 07:23 30.05.2022
1851 Clear 26 1009 12 10000 3.03 128 05:49 30.05.2022
1852 Clear 28 1008 14 10000 3.35 140 02:24 30.05.2022
1853 Clear 31 1008 12 10000 2.52 92 23:21 29.05.2022
1854 Clear 32 1008 12 10000 2.52 92 22:38 29.05.2022
1855 Clear 34 1008 10 10000 4.07 81 20:57 29.05.2022
1856 Clear 36 1007 10 10000 4.83 70 19:34 29.05.2022
1857 Clear 37 1006 9 10000 4.87 73 18:59 29.05.2022
1858 Clear 38 1005 8 10000 3.61 102 17:31 29.05.2022
1859 Clear 40 1005 7 10000 3.34 95 15:48 29.05.2022
1860 Clear 40 1005 7 10000 3.51 85 15:23 29.05.2022
1861 Clear 40 1006 7 10000 2.44 102 13:59 29.05.2022
1862 Clear 38 1008 8 10000 3.24 147 11:42 29.05.2022
1863 Clear 37 1008 8 10000 3.64 146 10:39 29.05.2022
1864 Clear 35 1010 9 10000 4.11 114 09:31 29.05.2022
1865 Clear 30 1010 13 10000 3.92 112 06:24 29.05.2022
1866 Clear 25 1009 15 10000 3.24 116 04:45 29.05.2022
1867 Clear 27 1009 16 10000 3.15 102 03:53 29.05.2022
1868 Clouds 31 1007 13 10000 4.67 92 23:50 28.05.2022
1869 Clouds 31 1007 12 10000 5.89 96 23:26 28.05.2022
1870 Clouds 32 1007 12 10000 5.88 96 22:40 28.05.2022
1871 Clouds 33 1007 11 10000 7.62 80 21:38 28.05.2022
1872 Clouds 36 1006 10 10000 5.93 78 19:51 28.05.2022
1873 Clouds 37 1004 9 10000 3.64 149 18:58 28.05.2022
1874 Clouds 38 1003 8 10000 4.29 157 17:38 28.05.2022
1875 Clouds 39 1003 7 10000 4.94 166 16:50 28.05.2022
1876 Clear 40 1002 6 10000 5.52 179 15:43 28.05.2022
1877 Clear 39 1003 6 10000 4.56 165 14:28 28.05.2022
1878 Clear 39 1004 7 10000 4.99 140 12:57 28.05.2022
1879 Clear 39 1004 7 10000 4.99 140 12:35 28.05.2022
1880 Clear 37 1006 8 10000 5.51 130 11:22 28.05.2022
1881 Clear 35 1007 9 10000 5.83 152 09:59 28.05.2022
1882 Clear 35 1008 11 10000 6.49 151 09:22 28.05.2022
1883 Clear 32 1009 15 10000 3.8 137 07:23 28.05.2022
1884 Clear 27 1009 17 10000 3.22 127 05:48 28.05.2022
1885 Clear 28 1008 19 10000 2.83 87 02:52 28.05.2022
1886 Clear 30 1007 19 10000 3.37 93 00:33 28.05.2022
1887 Clear 30 1007 16 10000 5.02 86 23:20 27.05.2022
1888 Clear 33 1007 14 10000 5.58 88 21:46 27.05.2022
1889 Clear 34 1007 13 10000 4.69 115 20:56 27.05.2022
1890 Clear 34 1006 13 10000 4.72 137 20:25 27.05.2022
1891 Clear 35 1005 11 10000 5.43 154 19:48 27.05.2022
1892 Clear 35 1005 11 10000 6.52 145 19:29 27.05.2022
1893 Clear 38 1005 10 10000 7.49 137 17:58 27.05.2022
1894 Clear 39 1004 9 10000 7.29 130 16:39 27.05.2022
1895 Clear 39 1004 8 10000 6.12 127 15:33 27.05.2022
1896 Clear 39 1005 8 10000 4.72 126 14:26 27.05.2022
1897 Clear 38 1006 8 10000 5 125 13:18 27.05.2022
1898 Clear 36 1007 8 10000 5.04 145 11:34 27.05.2022
1899 Clear 36 1009 9 10000 5.56 163 10:56 27.05.2022
1900 Clear 36 1009 9 10000 5.56 163 10:31 27.05.2022
1901 Clear 34 1009 10 10000 5.9 157 09:35 27.05.2022
1902 Clear 31 1011 14 10000 5.26 138 07:52 27.05.2022
1903 Clear 26 1011 18 10000 2.35 139 05:44 27.05.2022
1904 Clouds 28 1009 18 10000 4.97 114 02:26 27.05.2022
1905 Clouds 29 1008 16 10000 4.78 116 00:29 27.05.2022
1906 Clouds 32 1008 15 10000 5.03 112 22:39 26.05.2022
1907 Clouds 34 1009 14 10000 4.74 118 21:39 26.05.2022
1908 Clouds 34 1009 13 10000 4.73 154 20:53 26.05.2022
1909 Clear 35 1006 10 10000 7.03 149 19:19 26.05.2022
1910 Clear 36 1006 10 10000 7.11 139 18:18 26.05.2022
1911 Clear 38 1005 8 10000 6.64 133 16:42 26.05.2022
1912 Clear 39 1006 7 10000 5.06 144 15:45 26.05.2022
1913 Clear 39 1006 7 10000 3.84 154 14:28 26.05.2022
1914 Clear 38 1007 8 10000 5.14 131 12:37 26.05.2022
1915 Clear 37 1010 10 10000 4.98 152 11:23 26.05.2022
1916 Clear 37 1010 10 10000 4.98 152 11:23 26.05.2022
1917 Clear 34 1011 11 10000 5.28 161 09:44 26.05.2022
1918 Clear 34 1011 13 10000 5.29 150 09:26 26.05.2022
1919 Clouds 33 1012 15 10000 4.55 140 08:30 26.05.2022
1920 Clear 27 1012 21 10000 3.5 117 04:41 26.05.2022
1921 Clear 29 1010 19 10000 3.6 135 00:38 26.05.2022
1922 Clear 30 1010 18 10000 2.85 125 23:40 25.05.2022
1923 Clear 31 1011 17 10000 4.49 105 21:59 25.05.2022
1924 Clear 31 1011 17 10000 4.49 105 21:32 25.05.2022
1925 Clear 32 1011 16 10000 5.89 104 20:35 25.05.2022
1926 Clear 34 1009 12 10000 5.86 98 19:24 25.05.2022
1927 Clear 36 1009 11 10000 4.36 97 17:43 25.05.2022
1928 Clear 37 1008 9 10000 3.48 112 16:38 25.05.2022
1929 Clear 37 1008 8 10000 3.17 115 15:54 25.05.2022
1930 Clear 37 1008 8 10000 3.16 111 14:51 25.05.2022
1931 Clear 37 1008 8 10000 3.07 105 14:33 25.05.2022
1932 Clear 37 1008 8 10000 3.12 99 13:45 25.05.2022
1933 Clear 36 1009 9 10000 3.14 91 12:38 25.05.2022
1934 Clear 33 1010 10 10000 4.57 76 10:43 25.05.2022
1935 Clear 33 1011 10 10000 4.77 71 10:18 25.05.2022
1936 Clear 33 1011 11 10000 4.81 71 08:37 25.05.2022
1937 Clear 30 1012 14 10000 4.64 62 07:23 25.05.2022
1938 Clear 24 1010 19 10000 3.36 46 04:22 25.05.2022
1939 Clear 28 1010 17 10000 4.02 44 00:19 25.05.2022
1940 Clear 27 1010 17 10000 4.02 44 23:43 24.05.2022
1941 Clear 29 1010 16 10000 4.19 41 22:32 24.05.2022
1942 Clear 30 1010 15 10000 4.32 36 21:40 24.05.2022
1943 Clear 30 1010 14 10000 4.15 41 21:21 24.05.2022
1944 Clear 32 1010 13 10000 4.12 37 19:48 24.05.2022
1945 Clear 33 1008 11 10000 4.41 60 18:56 24.05.2022
1946 Clear 35 1006 9 10000 4.55 54 16:53 24.05.2022
1947 Clear 35 1006 8 10000 3.92 50 16:23 24.05.2022
1948 Clear 36 1006 8 10000 3.32 50 14:58 24.05.2022
1949 Clear 36 1006 8 10000 3.1 50 14:21 24.05.2022
1950 Clear 34 1006 8 10000 3.94 46 12:50 24.05.2022
1951 Clear 34 1006 8 10000 3.94 46 12:50 24.05.2022
1952 Clear 33 1007 8 10000 4.14 41 11:33 24.05.2022
1953 Clear 31 1008 9 10000 5.55 27 09:45 24.05.2022
1954 Clear 30 1009 10 10000 6.01 26 08:50 24.05.2022
1955 Clear 28 1009 12 10000 7.64 27 06:57 24.05.2022
1956 Clear 27 1008 15 10000 5.66 5 04:30 24.05.2022
1957 Clear 29 1006 14 10000 5.5 6 02:37 24.05.2022
1958 Clear 29 1005 15 10000 5.79 6 01:42 24.05.2022
1959 Clear 31 1005 14 10000 7.07 16 23:33 23.05.2022
1960 Clear 33 1004 14 10000 7.58 19 21:57 23.05.2022
1961 Clear 33 1004 14 10000 7.58 19 21:39 23.05.2022
1962 Clear 35 1004 14 10000 7.84 11 20:41 23.05.2022
1963 Clear 36 1003 10 10000 6.5 355 19:33 23.05.2022
1964 Clear 38 1002 8 10000 5.54 326 18:59 23.05.2022
1965 Clear 38 1002 8 10000 5.54 326 18:31 23.05.2022
1966 Clear 40 1000 5 10000 6.1 289 17:24 23.05.2022
1967 Clear 44 999 4 10000 5.63 296 15:37 23.05.2022
1968 Clear 43 1000 4 10000 5.23 283 13:32 23.05.2022
1969 Clear 42 1001 5 10000 5.93 243 11:34 23.05.2022
1970 Clear 41 1002 5 10000 7.59 238 10:42 23.05.2022
1971 Clear 40 1004 6 10000 7.31 214 09:39 23.05.2022
1972 Clear 38 1004 6 10000 8.38 218 08:38 23.05.2022
1973 Clear 30 1005 6 10000 6.07 220 06:47 23.05.2022
1974 Clear 30 1004 8 10000 4.03 192 06:22 23.05.2022
1975 Clear 29 1004 9 10000 3.09 169 02:35 23.05.2022
1976 Clear 31 1004 9 10000 2.86 182 01:42 23.05.2022
1977 Clear 30 1004 9 10000 2.84 174 00:38 23.05.2022
1978 Clear 32 1005 9 10000 2.67 101 22:42 22.05.2022
1979 Clear 34 1005 9 10000 3.38 77 21:55 22.05.2022
1980 Clear 34 1005 9 10000 3.38 77 21:36 22.05.2022
1981 Clear 35 1005 9 10000 4.09 68 20:32 22.05.2022
1982 Clear 37 1005 8 10000 4.99 61 19:57 22.05.2022
1983 Clear 38 1005 7 10000 5.14 45 18:57 22.05.2022
1984 Clear 38 1004 7 10000 4.99 45 18:28 22.05.2022
1985 Clear 40 1004 7 10000 4.99 45 17:39 22.05.2022
1986 Clear 41 1004 6 10000 4.63 37 16:50 22.05.2022
1987 Clear 42 1004 5 10000 3.68 28 14:53 22.05.2022
1988 Clear 43 1004 6 10000 2.42 10 13:56 22.05.2022
1989 Clear 41 1005 6 10000 1.88 360 12:53 22.05.2022
1990 Clear 40 1006 7 10000 0.65 348 11:52 22.05.2022
1991 Clear 37 1008 8 10000 0.91 62 10:27 22.05.2022
1992 Clear 35 1009 9 10000 1.44 57 09:19 22.05.2022
1993 Clear 32 1009 11 10000 3.2 33 07:22 22.05.2022
1994 Clear 30 1009 13 10000 3.17 19 06:27 22.05.2022
1995 Clear 28 1009 16 10000 1.33 8 03:20 22.05.2022
1996 Clear 31 1009 16 10000 2.28 1 00:44 22.05.2022
1997 Clear 31 1009 15 10000 3.03 39 23:56 21.05.2022
1998 Clear 31 1009 14 10000 4.32 44 23:22 21.05.2022
1999 Clear 34 1009 12 10000 5.83 51 21:55 21.05.2022
2000 Clear 34 1009 11 10000 5.43 45 21:26 21.05.2022
2001 Clear 36 1009 9 10000 4.98 48 20:27 21.05.2022
2002 Clear 37 1009 9 10000 4.98 48 19:43 21.05.2022
2003 Clear 40 1007 8 10000 5.26 48 18:31 21.05.2022
2004 Clear 44 1005 6 10000 2.85 35 16:57 21.05.2022
2005 Clear 44 1005 5 10000 2.31 314 14:38 21.05.2022
2006 Clear 43 1005 5 10000 2.22 322 13:54 21.05.2022
2007 Clear 43 1006 5 10000 2.03 317 13:18 21.05.2022
2008 Clear 44 1006 5 10000 2.03 317 12:38 21.05.2022
2009 Clear 41 1007 5 10000 2.07 263 10:53 21.05.2022
2010 Clear 40 1008 6 10000 2.44 240 09:53 21.05.2022
2011 Clear 38 1008 6 10000 2.58 225 08:58 21.05.2022
2012 Clear 38 1008 6 10000 2.58 225 08:35 21.05.2022
2013 Clear 31 1009 12 10000 2.73 183 05:29 21.05.2022
2014 Clear 32 1007 12 10000 2.68 135 01:24 21.05.2022
2015 Clear 33 1008 11 10000 1.52 54 23:29 20.05.2022
2016 Clear 33 1008 10 10000 2.59 234 22:26 20.05.2022
2017 Clear 36 1008 10 10000 2.59 234 21:55 20.05.2022
2018 Clear 36 1008 10 10000 2.75 195 20:58 20.05.2022
2019 Clear 36 1008 10 10000 2.75 195 20:58 20.05.2022
2020 Clear 36 1007 9 10000 2.76 167 20:29 20.05.2022
2021 Clear 37 1006 8 10000 2.94 132 19:30 20.05.2022
2022 Clear 38 1006 8 10000 2.94 132 18:48 20.05.2022
2023 Clear 41 1006 7 10000 3.01 120 17:47 20.05.2022
2024 Clear 42 1006 6 10000 3.06 76 16:21 20.05.2022
2025 Clear 42 1006 6 10000 3.06 76 15:53 20.05.2022
2026 Clear 43 1006 6 10000 2.78 66 14:31 20.05.2022
2027 Clear 43 1006 6 10000 2.34 77 13:56 20.05.2022
2028 Clear 41 1008 7 10000 2.22 129 11:49 20.05.2022
2029 Clear 39 1009 9 10000 2.74 145 10:24 20.05.2022
2030 Clear 35 1010 10 10000 3.02 140 08:58 20.05.2022
2031 Clear 33 1010 11 10000 3.33 135 07:40 20.05.2022
2032 Clear 30 1011 12 10000 3.02 137 06:38 20.05.2022
2033 Clear 26 1010 16 10000 2.39 127 05:28 20.05.2022
2034 Clear 30 1009 15 10000 3.35 87 00:54 20.05.2022
2035 Clear 32 1009 12 10000 3.89 92 23:25 19.05.2022
2036 Clear 33 1009 10 10000 3.49 85 22:26 19.05.2022
2037 Clear 34 1009 10 10000 3.48 85 21:49 19.05.2022
2038 Clear 34 1009 10 10000 0.98 78 21:23 19.05.2022
2039 Clear 35 1009 10 10000 0.98 78 20:40 19.05.2022
2040 Clear 37 1008 9 10000 2.07 166 19:53 19.05.2022
2041 Clear 38 1007 8 10000 3.19 116 18:45 19.05.2022
2042 Clear 40 1007 7 10000 2.98 84 17:31 19.05.2022
2043 Clear 43 1007 6 10000 3.29 28 15:33 19.05.2022
2044 Clear 42 1007 6 10000 2.88 23 14:29 19.05.2022
2045 Clear 42 1007 6 10000 2.73 29 13:50 19.05.2022
2046 Clear 42 1009 7 10000 1.87 29 11:46 19.05.2022
2047 Clear 38 1010 8 10000 0.81 46 09:46 19.05.2022
2048 Clear 36 1011 10 10000 0.52 260 08:27 19.05.2022
2049 Clear 28 1011 11 10000 1.68 171 06:31 19.05.2022
2050 Clear 27 1009 15 10000 3.25 163 02:57 19.05.2022
2051 Clear 30 1009 15 10000 4.54 157 00:47 19.05.2022
2052 Clear 30 1009 13 10000 3.82 107 22:53 18.05.2022
2053 Clear 30 1009 13 10000 3.82 107 22:35 18.05.2022
2054 Clear 32 1010 12 10000 3.86 102 21:31 18.05.2022
2055 Clear 33 1010 11 10000 3.54 89 20:54 18.05.2022
2056 Clear 33 1010 11 10000 3.59 72 20:19 18.05.2022
2057 Clear 36 1008 10 10000 4.18 73 18:43 18.05.2022
2058 Clear 38 1007 9 10000 3.95 68 17:41 18.05.2022
2059 Clear 38 1007 7 10000 2.57 52 17:23 18.05.2022
2060 Clear 39 1007 7 10000 2.2 32 16:35 18.05.2022
2061 Clear 39 1007 7 10000 2.19 32 15:42 18.05.2022
2062 Clear 40 1007 7 10000 1.92 29 14:54 18.05.2022
2063 Clear 40 1007 7 10000 1.35 43 13:47 18.05.2022
2064 Clear 38 1008 7 10000 1.21 58 12:51 18.05.2022
2065 Clear 37 1008 8 10000 0.94 92 11:37 18.05.2022
2066 Clear 37 1009 9 10000 1.15 127 11:19 18.05.2022
2067 Clear 33 1010 9 10000 1.6 121 09:57 18.05.2022
2068 Clear 30 1011 12 10000 1.82 110 07:55 18.05.2022
2069 Clear 27 1011 13 10000 1.73 96 06:49 18.05.2022
2070 Clear 24 1010 17 10000 1.93 25 02:23 18.05.2022
2071 Clear 27 1010 16 10000 2.59 24 00:26 18.05.2022
2072 Clear 28 1010 16 10000 2.84 31 22:47 17.05.2022
2073 Clear 30 1011 15 10000 3.81 34 21:20 17.05.2022
2074 Clear 32 1010 14 10000 4.26 29 20:29 17.05.2022
2075 Clear 33 1009 12 10000 4.96 36 19:28 17.05.2022
2076 Clear 36 1008 11 10000 5.32 33 17:52 17.05.2022
2077 Clear 36 1007 10 10000 6.48 29 17:18 17.05.2022
2078 Clear 37 1007 10 10000 6.48 29 16:34 17.05.2022
2079 Clear 37 1007 10 10000 6.54 27 15:32 17.05.2022
2080 Clear 38 1007 9 10000 5.85 26 14:31 17.05.2022
2081 Clear 37 1008 9 10000 3.58 34 13:38 17.05.2022
2082 Clear 36 1009 9 10000 3 44 12:23 17.05.2022
2083 Clear 31 1010 10 10000 3.26 71 09:53 17.05.2022
2084 Clear 30 1011 10 10000 3.76 72 08:43 17.05.2022
2085 Clear 28 1012 14 10000 4.92 31 06:52 17.05.2022
2086 Clear 27 1010 16 10000 4.21 345 04:24 17.05.2022
2087 Clear 29 1009 8 10000 3.56 323 00:46 17.05.2022
2088 Clear 29 1010 7 10000 2.31 169 22:44 16.05.2022
2089 Clear 29 1010 7 10000 2.04 129 22:18 16.05.2022
2090 Clear 32 1010 7 10000 2.12 98 20:49 16.05.2022
2091 Clear 34 1010 6 10000 2.84 98 19:57 16.05.2022
2092 Clear 36 1008 6 10000 4.15 78 18:21 16.05.2022
2093 Clear 39 1007 5 10000 6.82 48 16:28 16.05.2022
2094 Clear 40 1007 4 10000 6.78 46 14:42 16.05.2022
2095 Clear 40 1008 5 10000 6.76 48 13:25 16.05.2022
2096 Clear 38 1008 5 10000 6.78 50 11:33 16.05.2022
2097 Clear 35 1010 6 10000 6.5 47 09:58 16.05.2022
2098 Clear 29 1012 8 10000 3.69 358 07:21 16.05.2022
2099 Clear 20 1012 10 10000 2.9 335 05:23 16.05.2022
2100 Clear 26 1011 9 10000 2.95 333 23:56 15.05.2022
2101 Clear 26 1011 8 10000 2.7 349 22:34 15.05.2022
2102 Clear 28 1012 8 10000 2.73 0 21:48 15.05.2022
2103 Clear 28 1012 7 10000 3.04 8 21:19 15.05.2022
2104 Clear 31 1011 6 10000 3.66 16 19:56 15.05.2022
2105 Clear 36 1010 5 10000 4.44 16 17:52 15.05.2022
2106 Clear 36 1009 4 10000 5.05 19 16:35 15.05.2022
2107 Clear 37 1009 4 10000 6.79 14 14:18 15.05.2022
2108 Clear 36 1010 4 10000 7.03 14 13:27 15.05.2022
2109 Clear 35 1010 4 10000 7.23 10 11:55 15.05.2022
2110 Clear 33 1011 5 10000 7.47 12 10:35 15.05.2022
2111 Clear 30 1012 7 10000 8.42 7 08:52 15.05.2022
2112 Clear 24 1013 11 10000 8.46 354 06:59 15.05.2022
2113 Clear 24 1013 11 10000 8.46 354 06:38 15.05.2022
2114 Clear 24 1012 12 10000 6.72 334 01:43 15.05.2022
2115 Clear 25 1012 11 10000 6.3 335 23:52 14.05.2022
2116 Clear 25 1012 10 10000 6.21 332 23:33 14.05.2022
2117 Clear 27 1012 9 10000 6.04 332 21:43 14.05.2022
2118 Clear 27 1012 8 10000 5.86 338 21:18 14.05.2022
2119 Clear 30 1012 7 10000 5.89 345 19:40 14.05.2022
2120 Clear 30 1011 6 10000 5.79 351 19:20 14.05.2022
2121 Clear 31 1011 6 10000 5.79 351 18:47 14.05.2022
2122 Clear 32 1010 5 10000 9.37 350 17:28 14.05.2022
2123 Clear 34 1009 7 10000 11.47 343 15:34 14.05.2022
2124 Clear 35 1009 7 10000 11.47 343 14:34 14.05.2022
2125 Clear 35 1010 8 10000 11.35 340 12:49 14.05.2022
2126 Clear 33 1011 9 10000 11.45 338 11:37 14.05.2022
2127 Clear 32 1012 11 10000 11.16 335 10:22 14.05.2022
2128 Clear 31 1012 11 10000 11.16 335 09:54 14.05.2022
2129 Clear 29 1013 12 10000 10.45 333 08:49 14.05.2022
2130 Clear 24 1014 15 10000 7.2 334 06:52 14.05.2022
2131 Clear 23 1013 17 10000 5.22 344 03:27 14.05.2022
2132 Clear 26 1012 17 10000 4.93 344 23:45 13.05.2022
2133 Clear 26 1013 16 10000 4.42 345 23:18 13.05.2022
2134 Clear 28 1013 16 10000 4.42 345 22:43 13.05.2022
2135 Clear 28 1013 15 10000 4.56 348 22:18 13.05.2022
2136 Clear 30 1013 14 10000 5.02 350 20:49 13.05.2022
2137 Clear 30 1013 13 10000 5.9 356 20:27 13.05.2022
2138 Clear 31 1013 13 10000 5.9 356 19:34 13.05.2022
2139 Clear 34 1011 11 10000 7.29 357 17:53 13.05.2022
2140 Clear 34 1010 9 10000 7.99 353 17:29 13.05.2022
2141 Clear 36 1010 8 10000 8.92 347 16:21 13.05.2022
2142 Clear 37 1010 8 10000 8.92 347 15:39 13.05.2022
2143 Clear 37 1010 8 10000 9.1 344 13:54 13.05.2022
2144 Clear 37 1011 7 10000 8.67 341 12:32 13.05.2022
2145 Clear 37 1011 7 10000 8.67 341 12:32 13.05.2022
2146 Clear 35 1013 8 10000 7.51 342 11:23 13.05.2022
2147 Clear 32 1014 8 10000 7.17 350 09:35 13.05.2022
2148 Clear 31 1014 9 10000 7.18 357 08:49 13.05.2022
2149 Clear 28 1015 9 10000 7.71 2 07:48 13.05.2022
2150 Clear 26 1015 10 10000 7.26 4 06:33 13.05.2022
2151 Clear 26 1015 10 10000 7.26 4 06:33 13.05.2022
2152 Clear 26 1015 10 10000 7.26 4 06:33 13.05.2022
2153 Clear 26 1014 14 10000 4.38 2 03:34 13.05.2022
2154 Clear 28 1012 14 10000 4.6 355 00:39 13.05.2022
2155 Clear 29 1012 13 10000 3.78 354 22:45 12.05.2022
2156 Clear 30 1013 12 10000 3.83 6 21:56 12.05.2022
2157 Clear 32 1012 11 10000 4.95 36 20:29 12.05.2022
2158 Clear 34 1011 10 10000 4.87 28 18:59 12.05.2022
2159 Clear 36 1010 8 10000 4.79 18 17:24 12.05.2022
2160 Clear 38 1010 7 10000 4.7 13 16:18 12.05.2022
2161 Clear 37 1010 7 10000 4.38 15 14:41 12.05.2022
2162 Clear 37 1010 7 10000 3.58 23 13:46 12.05.2022
2163 Clear 35 1012 9 10000 3.06 76 10:52 12.05.2022
2164 Clear 34 1012 9 10000 3.45 81 09:30 12.05.2022
2165 Clear 32 1013 10 10000 3.8 92 08:51 12.05.2022
2166 Clear 30 1014 10 10000 4.44 81 07:40 12.05.2022
2167 Clear 27 1014 15 10000 3.44 64 06:19 12.05.2022
2168 Clear 26 1012 19 10000 2.8 44 02:58 12.05.2022
2169 Clear 28 1012 17 10000 5.91 38 00:36 12.05.2022
2170 Clear 32 1011 14 10000 7.8 32 22:36 11.05.2022
2171 Clear 33 1010 13 10000 8.77 36 21:50 11.05.2022
2172 Clear 33 1010 13 10000 9.04 19 21:24 11.05.2022
2173 Clear 37 1008 11 10000 3.71 19 18:49 11.05.2022
2174 Clear 40 1007 8 10000 3.04 338 16:55 11.05.2022
2175 Clear 41 1006 8 10000 1.05 317 15:38 11.05.2022
2176 Clear 40 1006 8 10000 1.07 187 14:39 11.05.2022
2177 Clear 40 1007 9 10000 2.02 233 14:18 11.05.2022
2178 Clear 37 1008 10 10000 4.93 243 11:54 11.05.2022
2179 Clear 37 1009 11 10000 4.02 215 11:19 11.05.2022
2180 Clear 33 1011 12 10000 5.5 174 08:40 11.05.2022
2181 Clear 25 1012 15 10000 4.85 160 05:31 11.05.2022
2182 Clear 28 1010 14 10000 2.92 116 00:45 11.05.2022
2183 Clear 30 1010 14 10000 4.43 115 22:32 10.05.2022
2184 Clear 31 1010 14 10000 4.43 115 21:57 10.05.2022
2185 Clear 32 1010 14 10000 3.88 104 20:58 10.05.2022
2186 Clear 32 1009 13 10000 3.96 113 19:47 10.05.2022
2187 Clear 35 1009 12 10000 4.39 92 17:59 10.05.2022
2188 Clear 35 1009 12 10000 4.39 92 17:34 10.05.2022
2189 Clear 36 1009 10 10000 2.49 90 15:41 10.05.2022
2190 Clear 35 1010 10 10000 2.87 166 12:47 10.05.2022
2191 Clear 34 1011 10 10000 3.57 164 11:51 10.05.2022
2192 Clear 34 1011 10 10000 3.96 150 11:21 10.05.2022
2193 Clear 33 1011 10 10000 3.96 150 10:54 10.05.2022
2194 Clear 31 1013 10 10000 3.76 129 09:26 10.05.2022
2195 Clear 29 1013 11 10000 3.38 83 07:26 10.05.2022
2196 Clear 22 1014 17 10000 3.21 51 04:34 10.05.2022
2197 Clear 24 1013 17 10000 3.23 49 01:34 10.05.2022
2198 Clear 27 1012 15 10000 4.14 51 23:26 09.05.2022
2199 Clear 28 1012 15 10000 4.13 56 21:58 09.05.2022
2200 Clear 28 1012 14 10000 3.79 71 21:21 09.05.2022
2201 Clear 31 1011 13 10000 4.89 68 19:37 09.05.2022
2202 Clear 33 1010 12 10000 2.8 53 17:56 09.05.2022
2203 Clear 34 1010 11 10000 2.28 29 16:49 09.05.2022
2204 Clear 35 1010 10 10000 1.57 4 15:53 09.05.2022
2205 Clear 35 1010 10 10000 1.57 4 15:31 09.05.2022
2206 Clear 34 1010 10 10000 1.38 12 14:32 09.05.2022
2207 Clear 34 1010 10 10000 1.43 41 13:50 09.05.2022
2208 Clear 33 1011 10 10000 1.77 46 12:30 09.05.2022
2209 Clear 32 1011 10 10000 1.95 51 11:43 09.05.2022
2210 Clear 30 1012 11 10000 2.33 64 10:44 09.05.2022
2211 Clear 29 1013 12 10000 2.54 63 09:38 09.05.2022
2212 Clear 25 1014 15 10000 2.95 85 07:55 09.05.2022
2213 Clear 20 1013 25 10000 2.05 77 04:33 09.05.2022
2214 Clear 20 1013 25 10000 2.05 77 04:33 09.05.2022
2215 Clear 20 1013 25 10000 2.05 77 04:33 09.05.2022
2216 Clear 25 1012 23 10000 4.2 55 00:21 09.05.2022
2217 Clear 26 1012 22 10000 4.94 65 22:57 08.05.2022
2218 Clear 26 1012 17 10000 6.27 64 22:22 08.05.2022
2219 Clear 29 1012 14 10000 6.74 53 20:37 08.05.2022
2220 Clear 30 1011 13 10000 7.04 54 19:53 08.05.2022
2221 Clear 31 1011 12 10000 6.38 52 18:57 08.05.2022
2222 Clear 31 1010 11 10000 5.03 41 18:24 08.05.2022
2223 Clear 33 1009 9 10000 4.28 29 16:59 08.05.2022
2224 Clear 34 1009 8 10000 3.62 19 15:41 08.05.2022
2225 Clear 34 1009 8 10000 3.6 19 15:20 08.05.2022
2226 Clear 34 1009 8 10000 3.6 19 15:20 08.05.2022
2227 Clear 33 1009 9 10000 3.34 22 12:41 08.05.2022
2228 Clear 30 1011 11 10000 3.61 45 10:34 08.05.2022
2229 Clear 29 1012 12 10000 3.85 52 09:59 08.05.2022
2230 Clear 29 1012 12 10000 3.85 52 09:33 08.05.2022
2231 Clear 25 1013 16 10000 5.07 62 07:33 08.05.2022
2232 Clear 22 1011 23 10000 3.75 26 04:20 08.05.2022
2233 Clear 23 1011 22 10000 4.55 29 03:19 08.05.2022
2234 Clear 24 1010 23 10000 6.81 27 00:28 08.05.2022
2235 Clear 25 1010 23 10000 6.81 27 23:53 07.05.2022
2236 Clear 26 1010 21 10000 7.4 24 22:51 07.05.2022
2237 Clear 26 1010 21 10000 7.4 24 22:33 07.05.2022
2238 Clear 27 1010 19 10000 7.86 23 21:34 07.05.2022
2239 Clear 29 1010 18 10000 7.04 23 20:42 07.05.2022
2240 Clear 30 1008 17 10000 7.19 17 19:58 07.05.2022
2241 Clear 33 1007 16 10000 6.5 17 17:43 07.05.2022
2242 Clear 35 1005 14 10000 6.95 19 15:51 07.05.2022
2243 Clear 35 1005 14 10000 4.46 10 14:19 07.05.2022
2244 Clouds 32 1007 15 10000 4.11 28 10:56 07.05.2022
2245 Clouds 30 1008 19 10000 5.07 23 09:22 07.05.2022
2246 Clouds 28 1008 24 10000 5.27 359 07:52 07.05.2022
2247 Clouds 27 1008 27 10000 5.06 349 06:43 07.05.2022
2248 Clouds 26 1007 32 10000 2.36 336 04:59 07.05.2022
2249 Clouds 27 1005 28 10000 3.05 341 01:46 07.05.2022
2250 Clouds 29 1006 23 10000 2.33 344 23:38 06.05.2022
2251 Clouds 30 1006 22 10000 1.47 357 22:31 06.05.2022
2252 Clear 31 1005 19 10000 4 335 21:43 06.05.2022
2253 Clear 34 1005 17 10000 5.22 333 20:35 06.05.2022
2254 Clouds 35 1004 14 10000 4.93 311 19:31 06.05.2022
2255 Clouds 37 1003 14 10000 2.83 282 19:00 06.05.2022
2256 Clouds 37 1003 12 10000 3.58 152 18:19 06.05.2022
2257 Clouds 36 1003 12 10000 3.62 152 16:44 06.05.2022
2258 Clouds 38 1003 12 10000 3.07 172 15:41 06.05.2022
2259 Clouds 39 1003 11 10000 3.52 268 14:50 06.05.2022
2260 Clouds 38 1002 7 10000 3.41 192 12:56 06.05.2022
2261 Clouds 40 1002 7 10000 3.41 192 12:37 06.05.2022
2262 Clouds 39 1003 8 10000 3.11 136 11:42 06.05.2022
2263 Clouds 39 1006 10 10000 2.49 159 10:30 06.05.2022
2264 Clouds 36 1006 10 10000 2.49 159 09:45 06.05.2022
2265 Clouds 35 1006 11 10000 1.54 158 08:27 06.05.2022
2266 Clouds 30 1006 15 10000 4.87 140 06:46 06.05.2022
2267 Clouds 29 1006 18 10000 2.04 80 04:53 06.05.2022
2268 Clouds 30 1006 17 10000 2.69 48 02:45 06.05.2022
2269 Clouds 31 1007 16 10000 5.4 341 00:19 06.05.2022
2270 Clouds 35 1006 13 10000 3.07 352 21:56 05.05.2022
2271 Clouds 35 1006 13 10000 2.17 228 21:19 05.05.2022
2272 Clouds 38 1006 11 10000 5.49 229 19:53 05.05.2022
2273 Clouds 39 1004 8 10000 2.05 315 18:26 05.05.2022
2274 Clear 40 1003 6 10000 6.76 292 16:20 05.05.2022
2275 Clouds 41 1003 6 10000 6.9 285 14:49 05.05.2022
2276 Clear 41 1004 7 10000 6.07 247 13:22 05.05.2022
2277 Clear 41 1005 7 10000 6.51 228 12:25 05.05.2022
2278 Clear 39 1007 8 10000 7.5 241 10:37 05.05.2022
2279 Clear 38 1008 9 10000 8.91 247 09:39 05.05.2022
2280 Clouds 35 1009 12 10000 10.06 249 07:34 05.05.2022
2281 Clear 29 1008 16 10000 3.5 234 04:28 05.05.2022
2282 Clear 29 1007 14 10000 2.13 216 01:50 05.05.2022
2283 Clear 29 1007 14 10000 3.91 252 01:24 05.05.2022
2284 Clear 32 1007 13 10000 4.15 266 23:47 04.05.2022
2285 Clouds 32 1008 13 10000 4.11 265 22:30 04.05.2022
2286 Clouds 33 1008 12 10000 3.27 231 21:49 04.05.2022
2287 Clouds 33 1009 12 10000 1.69 211 21:26 04.05.2022
2288 Clouds 34 1008 11 10000 0.67 11 20:22 04.05.2022
2289 Clouds 36 1008 11 10000 0.67 11 19:51 04.05.2022
2290 Clouds 38 1007 10 10000 0.64 305 18:54 04.05.2022
2291 Clouds 38 1007 10 10000 0.87 273 18:22 04.05.2022
2292 Clouds 39 1007 10 10000 0.87 273 17:30 04.05.2022
2293 Clear 40 1006 7 10000 2.96 276 15:38 04.05.2022
2294 Clear 40 1006 7 10000 2.95 264 15:20 04.05.2022
2295 Clear 40 1007 7 10000 3.95 261 14:20 04.05.2022
2296 Clear 39 1007 7 10000 6.58 258 13:20 04.05.2022
2297 Clear 39 1008 8 10000 7.14 248 12:29 04.05.2022
2298 Clear 36 1009 8 10000 5.87 226 10:40 04.05.2022
2299 Clear 34 1010 9 10000 5.5 199 09:40 04.05.2022
2300 Clear 32 1012 13 10000 7.33 175 08:34 04.05.2022
2301 Clear 25 1012 17 10000 4.65 178 05:53 04.05.2022
2302 Clear 25 1011 18 10000 3.69 154 02:49 04.05.2022
2303 Clear 27 1011 16 10000 2.72 93 23:58 03.05.2022
2304 Clear 28 1011 16 10000 2.84 70 22:30 03.05.2022
2305 Clear 29 1012 16 10000 3.35 59 21:36 03.05.2022
2306 Clear 31 1011 15 10000 4.19 53 20:53 03.05.2022
2307 Clear 32 1011 13 10000 4.32 31 19:45 03.05.2022
2308 Clear 33 1010 11 10000 3.66 4 18:50 03.05.2022
2309 Clear 33 1010 11 10000 3.66 4 18:50 03.05.2022
2310 Clear 35 1009 11 10000 3.81 358 17:45 03.05.2022
2311 Clear 36 1008 9 10000 4.23 346 16:37 03.05.2022
2312 Clear 37 1008 8 10000 4.29 336 15:32 03.05.2022
2313 Clear 36 1009 9 10000 2.39 332 12:47 03.05.2022
2314 Clear 36 1010 10 10000 1.69 312 12:27 03.05.2022
2315 Clear 35 1011 10 10000 0.96 267 10:57 03.05.2022
2316 Clear 32 1012 12 10000 1.45 171 09:21 03.05.2022
2317 Clear 25 1012 16 10000 1.7 135 06:46 03.05.2022
2318 Clear 21 1012 17 10000 1.24 114 05:56 03.05.2022
2319 Clear 26 1009 17 10000 4.19 4 00:19 03.05.2022
2320 Clear 27 1009 15 10000 3.95 0 22:36 02.05.2022
2321 Clear 28 1010 14 10000 4.1 10 21:51 02.05.2022
2322 Clear 29 1010 13 10000 3.9 25 20:51 02.05.2022
2323 Clear 31 1009 12 10000 4.2 12 18:37 02.05.2022
2324 Clear 33 1008 11 10000 4.04 9 17:57 02.05.2022
2325 Clear 33 1008 11 10000 4.04 9 17:34 02.05.2022
2326 Clear 34 1007 9 10000 3.77 4 16:21 02.05.2022
2327 Clear 35 1007 8 10000 3.33 1 15:29 02.05.2022
2328 Clear 35 1007 8 10000 3.37 2 13:50 02.05.2022
2329 Clear 35 1008 8 10000 3.8 13 12:19 02.05.2022
2330 Clear 32 1009 8 10000 4.23 15 10:38 02.05.2022
2331 Clear 28 1010 9 10000 4.18 17 08:49 02.05.2022
2332 Clear 27 1010 9 10000 4.75 35 07:40 02.05.2022
2333 Clear 25 1009 18 10000 3.25 23 03:48 02.05.2022
2334 Clouds 28 1007 16 10000 2.23 0 00:24 02.05.2022
2335 Clouds 28 1007 16 10000 2.23 0 23:47 01.05.2022
2336 Clouds 29 1006 14 10000 3.63 66 22:20 01.05.2022
2337 Clear 31 1007 13 10000 4.05 47 21:19 01.05.2022
2338 Clear 33 1007 12 10000 5.5 21 19:51 01.05.2022
2339 Clear 35 1006 12 10000 4.96 352 18:57 01.05.2022
2340 Clear 35 1006 11 10000 5.3 340 18:27 01.05.2022
2341 Clear 36 1005 9 10000 6.76 324 17:26 01.05.2022
2342 Clear 38 1005 9 10000 8.41 308 16:23 01.05.2022
2343 Clear 39 1005 9 10000 8.76 299 15:24 01.05.2022
2344 Clear 38 1005 9 10000 9.17 299 13:42 01.05.2022
2345 Clear 37 1007 11 10000 8.43 264 11:18 01.05.2022
2346 Clear 30 1009 14 10000 6.05 217 08:53 01.05.2022
2347 Clear 28 1010 17 10000 5.32 191 07:55 01.05.2022
2348 Clear 23 1009 28 10000 2.47 185 03:31 01.05.2022
2349 Clear 24 1010 27 10000 1.7 18 23:49 30.04.2022
2350 Clear 26 1011 24 10000 3.4 24 21:47 30.04.2022
2351 Clear 28 1011 23 10000 4.52 19 20:45 30.04.2022
2352 Clear 30 1011 20 10000 5.11 6 19:41 30.04.2022
2353 Clear 33 1010 16 10000 4.97 347 17:45 30.04.2022
2354 Clear 35 1009 13 10000 6.23 335 16:42 30.04.2022
2355 Clear 36 1009 13 10000 6.53 325 15:46 30.04.2022
2356 Clear 35 1009 13 10000 7.22 320 14:43 30.04.2022
2357 Clear 33 1009 12 10000 8.03 303 12:42 30.04.2022
2358 Clear 32 1010 13 10000 7.08 296 11:33 30.04.2022
2359 Clear 30 1011 17 10000 6.3 271 10:43 30.04.2022
2360 Clear 28 1013 27 10000 2.98 260 09:25 30.04.2022
2361 Clear 21 1013 35 10000 2.87 221 06:43 30.04.2022
2362 Clouds 21 1012 49 10000 3.34 156 01:53 30.04.2022
2363 Clouds 21 1012 48 10000 3.57 155 23:37 29.04.2022
2364 Clouds 21 1013 47 10000 4.15 157 22:31 29.04.2022
2365 Clouds 21 1013 46 10000 6.51 125 21:34 29.04.2022
2366 Clouds 21 1013 46 10000 6.5 125 20:40 29.04.2022
2367 Clouds 22 1013 35 10000 3.08 72 19:45 29.04.2022
2368 Clouds 26 1010 26 10000 3.97 117 17:55 29.04.2022
2369 Clouds 26 1010 24 10000 4.88 105 17:21 29.04.2022
2370 Clear 27 1010 23 10000 3.01 110 15:23 29.04.2022
2371 Clouds 28 1010 24 10000 1.68 134 14:22 29.04.2022
2372 Clouds 27 1011 24 10000 2.78 149 12:52 29.04.2022
2373 Clouds 26 1012 25 10000 3.62 149 11:40 29.04.2022
2374 Clouds 22 1014 31 10000 5.44 134 08:46 29.04.2022
2375 Clouds 20 1013 41 10000 4.53 164 07:27 29.04.2022
2376 Clouds 21 1013 41 10000 4.53 164 06:38 29.04.2022
2377 Clouds 21 1013 59 10000 4.35 95 04:43 29.04.2022
2378 Clouds 21 1014 50 10000 1.63 17 00:19 29.04.2022
2379 Clouds 21 1013 49 10000 5.1 324 23:27 28.04.2022
2380 Clouds 21 1013 49 10000 5.1 324 22:41 28.04.2022
2381 Clouds 21 1012 49 10000 2.2 290 21:47 28.04.2022
2382 Clouds 20 1013 48 10000 1.08 252 20:57 28.04.2022
2383 Clouds 20 1012 50 10000 2.54 21 20:24 28.04.2022
2384 Clouds 20 1011 53 10000 6.88 55 19:41 28.04.2022
2385 Clouds 20 1012 56 10000 7.07 24 19:21 28.04.2022
2386 Clouds 20 1012 56 10000 7.07 24 18:35 28.04.2022
2387 Rain 20 1013 66 10000 9.98 338 17:20 28.04.2022
2388 Rain 24 1013 66 10000 9.98 338 16:40 28.04.2022
2389 Rain 24 1012 69 8196 12.4 331 16:18 28.04.2022
2390 Clouds 23 1008 34 10000 7.83 314 15:27 28.04.2022
2391 Clouds 23 1008 34 10000 7.83 314 15:27 28.04.2022
2392 Clouds 28 1006 16 10000 9.67 158 13:44 28.04.2022
2393 Clouds 29 1007 16 10000 9.66 165 12:44 28.04.2022
2394 Clouds 30 1008 17 10000 6.88 168 11:56 28.04.2022
2395 Clouds 29 1008 19 10000 6.86 168 10:44 28.04.2022
2396 Clouds 27 1009 23 10000 2.44 136 09:52 28.04.2022
2397 Clouds 25 1009 28 10000 2.9 64 08:31 28.04.2022
2398 Clouds 22 1010 36 10000 4.73 26 06:59 28.04.2022
2399 Clouds 23 1011 45 10000 8.23 356 05:55 28.04.2022
2400 Clouds 23 1011 45 10000 8.23 356 05:37 28.04.2022
2401 Clouds 23 1011 49 10000 9.17 329 04:38 28.04.2022
2402 Clouds 28 1007 22 10000 2.67 172 00:22 28.04.2022
2403 Clouds 30 1007 20 10000 3.91 170 22:38 27.04.2022
2404 Clouds 31 1007 20 10000 4.38 154 21:52 27.04.2022
2405 Clouds 31 1008 20 10000 6.38 162 20:59 27.04.2022
2406 Clouds 31 1008 20 10000 6.38 162 20:35 27.04.2022
2407 Clouds 31 1008 22 10000 9.6 158 19:37 27.04.2022
2408 Clouds 32 1008 24 10000 10.02 167 18:56 27.04.2022
2409 Clouds 32 1007 25 10000 9.62 188 18:22 27.04.2022
2410 Clouds 35 1005 14 10000 7.02 127 16:29 27.04.2022
2411 Clouds 35 1005 13 10000 5.73 119 14:31 27.04.2022
2412 Clouds 33 1006 12 10000 4.33 185 11:45 27.04.2022
2413 Clear 33 1008 13 10000 5.12 168 11:20 27.04.2022
2414 Clear 28 1010 20 10000 7.35 169 08:58 27.04.2022
2415 Clear 25 1011 30 10000 6.38 153 07:18 27.04.2022
2416 Clear 22 1010 43 10000 4.23 125 04:21 27.04.2022
2417 Clouds 23 1009 42 10000 3.61 125 01:32 27.04.2022
2418 Clouds 23 1009 41 10000 3.39 108 00:36 27.04.2022
2419 Clouds 23 1010 38 10000 4.01 73 23:25 26.04.2022
2420 Clouds 23 1010 38 10000 4.01 73 22:58 26.04.2022
2421 Clouds 23 1010 38 10000 4.01 73 22:39 26.04.2022
2422 Clouds 24 1009 29 10000 3.86 113 21:26 26.04.2022
2423 Clouds 24 1009 29 10000 3.86 113 21:26 26.04.2022
2424 Clouds 24 1009 29 10000 3.86 113 21:26 26.04.2022
2425 Clouds 25 1009 29 10000 3.86 113 20:41 26.04.2022
2426 Clouds 28 1009 29 10000 3.78 108 19:49 26.04.2022
2427 Clouds 28 1007 28 10000 4.15 85 19:30 26.04.2022
2428 Clouds 31 1007 28 10000 4.15 85 18:44 26.04.2022
2429 Clouds 32 1006 24 10000 5.72 108 17:54 26.04.2022
2430 Clouds 33 1005 15 10000 5.22 244 16:28 26.04.2022
2431 Clouds 33 1005 16 10000 4.59 224 13:59 26.04.2022
2432 Clouds 33 1005 16 10000 4.59 224 13:31 26.04.2022
2433 Clear 31 1008 21 10000 5.51 233 11:48 26.04.2022
2434 Clear 30 1009 24 10000 5.55 227 10:31 26.04.2022
2435 Clear 26 1011 27 10000 4.94 228 08:47 26.04.2022
2436 Clouds 22 1011 38 10000 5.49 181 06:57 26.04.2022
2437 Clouds 21 1011 46 10000 3.98 202 04:23 26.04.2022
2438 Clouds 23 1010 45 10000 4.21 219 00:57 26.04.2022
2439 Clouds 23 1010 46 10000 5.85 203 00:20 26.04.2022
2440 Clouds 21 1011 42 10000 9.51 204 22:19 25.04.2022
2441 Clouds 23 1011 34 10000 9.63 182 21:33 25.04.2022
2442 Clouds 22 1011 34 10000 9.63 182 20:34 25.04.2022
2443 Clouds 24 1010 40 10000 10.36 188 18:54 25.04.2022
2444 Clouds 25 1009 30 10000 5.85 185 17:43 25.04.2022
2445 Clouds 24 1008 28 10000 4.59 173 16:51 25.04.2022
2446 Clouds 25 1009 32 10000 8.07 189 15:23 25.04.2022
2447 Clouds 23 1009 32 10000 8.13 190 14:34 25.04.2022
2448 Clouds 20 1010 38 10000 12.11 208 13:30 25.04.2022
2449 Rain 23 1010 41 10000 9.06 212 11:37 25.04.2022
2450 Clouds 24 1010 32 10000 4.31 218 09:55 25.04.2022
2451 Clouds 22 1011 37 10000 4.04 215 08:33 25.04.2022
2452 Clouds 20 1012 49 10000 3.67 304 06:27 25.04.2022
2453 Clouds 23 1011 45 10000 5.28 286 02:20 25.04.2022
2454 Clouds 24 1011 44 10000 8.58 321 23:58 24.04.2022
2455 Clouds 24 1011 44 10000 8.58 321 23:30 24.04.2022
2456 Clouds 24 1011 36 10000 8.17 324 22:40 24.04.2022
2457 Clouds 29 1010 19 10000 8.73 295 21:58 24.04.2022
2458 Clouds 29 1008 17 10000 4.84 53 21:23 24.04.2022
2459 Clouds 28 1008 17 10000 4.84 53 20:47 24.04.2022
2460 Clouds 28 1008 17 10000 4.84 53 20:47 24.04.2022
2461 Clouds 28 1007 16 10000 8.56 65 20:21 24.04.2022
2462 Clouds 29 1005 13 10000 6.75 116 18:58 24.04.2022
2463 Clouds 30 1004 13 10000 5.41 120 17:55 24.04.2022
2464 Clouds 30 1004 12 10000 5.4 128 17:22 24.04.2022
2465 Clouds 30 1004 12 10000 5.4 128 16:56 24.04.2022
2466 Clouds 30 1004 12 10000 6.16 140 16:29 24.04.2022
2467 Clouds 30 1004 12 10000 6.16 140 16:29 24.04.2022
2468 Clouds 31 1004 12 10000 6.16 140 15:52 24.04.2022
2469 Clouds 32 1005 11 10000 6.49 151 14:40 24.04.2022
2470 Clouds 32 1005 11 10000 7.56 154 13:38 24.04.2022
2471 Clouds 32 1006 12 10000 6.72 153 13:18 24.04.2022
2472 Clouds 32 1007 12 10000 4.96 153 11:50 24.04.2022
2473 Clouds 33 1008 14 10000 6.47 151 10:59 24.04.2022
2474 Clouds 31 1009 14 10000 7.41 149 09:47 24.04.2022
2475 Clouds 30 1010 17 10000 5.64 129 08:18 24.04.2022
2476 Clouds 27 1010 22 10000 2.75 49 05:46 24.04.2022
2477 Clouds 26 1008 23 10000 4.78 152 02:48 24.04.2022
2478 Clouds 28 1007 23 10000 6.1 147 00:47 24.04.2022
2479 Clouds 30 1008 22 10000 5.94 143 23:55 23.04.2022
2480 Clouds 30 1008 20 10000 6.84 146 23:25 23.04.2022
2481 Clouds 30 1008 20 10000 6.84 146 22:39 23.04.2022
2482 Clouds 30 1008 19 10000 7.06 141 21:41 23.04.2022
2483 Clouds 30 1008 18 10000 6.31 149 21:22 23.04.2022
2484 Clouds 32 1008 16 10000 6.05 134 19:56 23.04.2022
2485 Clear 32 1007 14 10000 6.01 139 19:20 23.04.2022
2486 Clear 33 1007 14 10000 6.01 139 18:54 23.04.2022
2487 Clear 33 1007 14 10000 6.01 139 18:32 23.04.2022
2488 Clear 34 1007 13 10000 6.54 140 17:46 23.04.2022
2489 Clear 35 1006 12 10000 7.12 136 16:45 23.04.2022
2490 Clear 36 1006 11 10000 6.44 146 15:43 23.04.2022
2491 Clouds 35 1008 11 10000 7.91 135 13:24 23.04.2022
2492 Clouds 32 1009 13 10000 8.27 119 11:29 23.04.2022
2493 Clouds 30 1011 16 10000 5.61 98 09:41 23.04.2022
2494 Clouds 25 1013 14 10000 2.48 17 07:52 23.04.2022
2495 Clouds 24 1011 16 10000 3.12 21 03:57 23.04.2022
2496 Clouds 24 1011 15 10000 3.42 316 02:36 23.04.2022
2497 Clouds 25 1011 13 10000 2.51 70 23:34 22.04.2022
2498 Clouds 25 1011 13 10000 2.51 70 22:43 22.04.2022
2499 Clouds 26 1011 13 10000 2.91 59 21:56 22.04.2022
2500 Clouds 26 1011 13 10000 2.91 59 21:56 22.04.2022
2501 Clouds 26 1011 13 10000 2.91 59 21:38 22.04.2022
2502 Clouds 27 1012 13 10000 4 67 20:30 22.04.2022
2503 Clouds 28 1009 15 10000 6.47 76 19:24 22.04.2022
2504 Clouds 29 1009 15 10000 6.47 76 18:56 22.04.2022
2505 Clear 29 1008 15 10000 6.25 66 18:24 22.04.2022
2506 Clear 31 1008 13 10000 5.82 53 16:53 22.04.2022
2507 Clear 32 1008 12 10000 5.25 65 15:58 22.04.2022
2508 Clear 32 1008 12 10000 4.55 74 15:23 22.04.2022
2509 Clear 32 1008 12 10000 4.55 74 14:37 22.04.2022
2510 Clouds 32 1008 11 10000 3.31 115 13:41 22.04.2022
2511 Clouds 32 1010 13 10000 4.07 50 12:35 22.04.2022
2512 Clouds 31 1011 14 10000 2.83 50 11:23 22.04.2022
2513 Clouds 31 1011 14 10000 2.83 50 10:56 22.04.2022
2514 Clouds 31 1011 14 10000 2.82 50 10:32 22.04.2022
2515 Clouds 30 1012 15 10000 3.14 34 09:54 22.04.2022
2516 Clouds 28 1013 16 10000 4.66 354 08:56 22.04.2022
2517 Clouds 28 1012 18 10000 7.71 15 08:29 22.04.2022
2518 Clouds 26 1012 23 10000 4.68 339 06:21 22.04.2022
2519 Clouds 27 1009 20 10000 6.37 352 00:53 22.04.2022
2520 Clouds 28 1008 16 10000 5.58 35 23:29 21.04.2022
2521 Clouds 29 1008 13 10000 4.33 68 22:34 21.04.2022
2522 Clouds 30 1008 14 10000 4.26 138 21:25 21.04.2022
2523 Clouds 32 1009 13 10000 5.9 267 20:29 21.04.2022
2524 Clouds 34 1007 19 10000 11.47 286 18:49 21.04.2022
2525 Clouds 34 1007 20 10000 10.99 285 18:19 21.04.2022
2526 Clouds 38 1004 13 10000 5.05 33 16:56 21.04.2022
2527 Clouds 37 1004 7 10000 4.28 201 15:24 21.04.2022
2528 Clouds 40 1004 7 10000 4.28 201 14:51 21.04.2022
2529 Clouds 39 1005 9 10000 4.36 185 13:56 21.04.2022
2530 Clouds 39 1006 9 10000 5.53 210 13:20 21.04.2022
2531 Clouds 38 1007 9 10000 7.57 232 11:37 21.04.2022
2532 Clouds 33 1009 9 10000 6.01 224 09:24 21.04.2022
2533 Clouds 32 1009 9 10000 4.83 199 08:29 21.04.2022
2534 Clouds 28 1009 13 10000 3.36 172 06:26 21.04.2022
2535 Clouds 28 1008 15 10000 4.16 174 03:37 21.04.2022
2536 Clouds 28 1008 15 10000 4.39 169 03:18 21.04.2022
2537 Clouds 29 1008 15 10000 4.39 169 02:43 21.04.2022
2538 Clouds 29 1008 14 10000 5.35 165 00:25 21.04.2022
2539 Clouds 31 1008 14 10000 5.12 162 23:24 20.04.2022
2540 Clouds 32 1008 14 10000 5.08 163 22:52 20.04.2022
2541 Clouds 32 1008 14 10000 5.12 162 22:32 20.04.2022
2542 Clouds 32 1008 14 10000 5.12 162 22:32 20.04.2022
2543 Clouds 33 1008 13 10000 5.36 168 21:35 20.04.2022
2544 Clouds 33 1008 12 10000 6.44 168 20:43 20.04.2022
2545 Clouds 33 1007 14 10000 6.35 126 19:55 20.04.2022
2546 Clouds 33 1006 10 10000 8.37 136 19:29 20.04.2022
2547 Clouds 34 1006 10 10000 8.37 136 18:33 20.04.2022
2548 Clouds 37 1004 9 10000 6.98 135 16:58 20.04.2022
2549 Clouds 37 1004 9 10000 6.98 135 16:38 20.04.2022
2550 Clouds 38 1004 8 10000 4.37 180 14:52 20.04.2022
2551 Clouds 35 1007 8 10000 2.61 174 11:57 20.04.2022
2552 Clouds 35 1007 8 10000 2.61 174 11:33 20.04.2022
2553 Clouds 33 1009 8 10000 1.82 196 10:29 20.04.2022
2554 Clouds 33 1010 9 10000 2.42 187 09:27 20.04.2022
2555 Clouds 31 1011 10 10000 3.35 163 08:25 20.04.2022
2556 Clouds 27 1011 10 10000 3.35 163 07:43 20.04.2022
2557 Clouds 23 1010 15 10000 3.58 165 04:49 20.04.2022
2558 Clouds 24 1009 13 10000 3.67 149 01:20 20.04.2022
2559 Clouds 25 1009 12 10000 3.99 153 00:20 20.04.2022
2560 Clouds 27 1010 12 10000 4.11 142 22:44 19.04.2022
2561 Clouds 27 1010 11 10000 3.48 143 22:22 19.04.2022
2562 Clouds 28 1010 11 10000 3.48 142 21:38 19.04.2022
2563 Clouds 29 1011 11 10000 3.89 145 20:56 19.04.2022
2564 Clouds 29 1011 11 10000 3.89 145 20:36 19.04.2022
2565 Clouds 30 1010 9 10000 3.52 104 19:31 19.04.2022
2566 Clouds 32 1009 9 10000 3.16 102 18:18 19.04.2022
2567 Clouds 35 1009 9 10000 1.4 78 16:46 19.04.2022
2568 Clouds 35 1009 7 10000 1.3 346 16:24 19.04.2022
2569 Clouds 35 1009 7 10000 1.41 345 15:20 19.04.2022
2570 Clouds 34 1009 7 10000 1.41 345 14:32 19.04.2022
2571 Clouds 35 1010 8 10000 1.2 137 12:52 19.04.2022
2572 Clouds 35 1011 7 10000 1.76 160 12:26 19.04.2022
2573 Clouds 32 1012 7 10000 2.14 174 11:23 19.04.2022
2574 Clouds 30 1014 6 10000 2.06 159 09:26 19.04.2022
2575 Clouds 25 1014 7 10000 1.73 148 07:26 19.04.2022
2576 Clouds 17 1013 10 10000 0.93 117 04:19 19.04.2022
2577 Clouds 22 1012 11 10000 1.04 14 00:56 19.04.2022
2578 Clouds 23 1013 11 10000 1.16 36 23:40 18.04.2022
2579 Clouds 25 1013 10 10000 2.42 23 21:56 18.04.2022
2580 Clouds 25 1013 10 10000 3.45 26 21:24 18.04.2022
2581 Clouds 27 1013 10 10000 3.45 26 20:38 18.04.2022
2582 Clouds 28 1012 9 10000 4.65 30 19:59 18.04.2022
2583 Clouds 28 1012 9 10000 4.9 21 19:29 18.04.2022
2584 Clouds 30 1012 9 10000 4.9 21 18:34 18.04.2022
2585 Clouds 32 1011 9 10000 4.97 18 17:39 18.04.2022
2586 Clouds 32 1011 9 10000 4.97 18 17:39 18.04.2022
2587 Clouds 32 1010 8 10000 5.09 12 17:19 18.04.2022
2588 Clouds 33 1010 8 10000 5.09 12 16:36 18.04.2022
2589 Clear 34 1009 7 10000 4.42 351 15:28 18.04.2022
2590 Clouds 33 1010 8 10000 3.89 336 13:55 18.04.2022
2591 Clouds 32 1010 8 10000 3.83 337 12:41 18.04.2022
2592 Clouds 30 1011 9 10000 3.55 351 11:48 18.04.2022
2593 Clear 30 1012 10 10000 3.74 4 10:46 18.04.2022
2594 Clear 28 1013 11 10000 3.59 14 09:31 18.04.2022
2595 Clear 26 1014 13 10000 3.11 43 08:37 18.04.2022
2596 Clear 21 1014 21 10000 3.78 39 06:25 18.04.2022
2597 Clear 20 1012 21 10000 2.12 97 02:22 18.04.2022
2598 Clear 24 1012 19 10000 4.47 57 22:53 17.04.2022
2599 Clear 24 1012 19 10000 4.47 57 22:31 17.04.2022
2600 Clear 25 1012 17 10000 4.67 54 21:32 17.04.2022
2601 Clear 26 1012 16 10000 4.36 59 20:50 17.04.2022
2602 Clear 28 1011 13 10000 5.07 62 19:55 17.04.2022
2603 Clear 29 1010 13 10000 5.92 60 18:34 17.04.2022
2604 Clear 32 1008 12 10000 6.12 55 16:44 17.04.2022
2605 Clear 33 1007 12 10000 5.03 59 15:33 17.04.2022
2606 Clear 33 1007 12 10000 4.01 67 14:38 17.04.2022
2607 Clear 32 1007 13 10000 3.53 94 13:23 17.04.2022
2608 Clear 32 1007 13 10000 3.53 94 12:30 17.04.2022
2609 Clear 30 1009 13 10000 4.38 89 10:48 17.04.2022
2610 Clear 30 1010 13 10000 4.96 79 10:29 17.04.2022
2611 Clear 28 1010 13 10000 4.96 79 09:50 17.04.2022
2612 Clear 27 1011 13 10000 4.82 77 08:59 17.04.2022
2613 Clear 27 1011 13 10000 4.27 82 08:27 17.04.2022
2614 Clear 21 1011 18 10000 3.8 60 05:33 17.04.2022
2615 Clear 22 1008 33 10000 4.06 13 01:47 17.04.2022
2616 Clouds 24 1007 29 10000 2.92 1 23:59 16.04.2022
2617 Clouds 25 1007 25 10000 2.11 264 22:56 16.04.2022
2618 Clouds 26 1007 23 10000 3.6 200 21:44 16.04.2022
2619 Clouds 28 1008 23 10000 4.3 195 20:54 16.04.2022
2620 Clouds 29 1008 28 10000 7.65 204 19:21 16.04.2022
2621 Clouds 29 1008 28 10000 7.65 204 18:35 16.04.2022
2622 Clouds 30 1006 29 10000 6.65 157 16:44 16.04.2022
2623 Clouds 33 1006 30 10000 7.7 168 15:46 16.04.2022
2624 Rain 34 1007 39 10000 8.71 163 14:57 16.04.2022
2625 Rain 37 1007 39 10000 8.71 163 14:30 16.04.2022
2626 Rain 36 1009 60 10000 14.75 182 13:48 16.04.2022
2627 Clear 36 1005 16 10000 2.2 103 12:35 16.04.2022
2628 Clear 36 1008 18 10000 1.91 123 11:26 16.04.2022
2629 Clear 34 1010 19 10000 1.39 138 10:25 16.04.2022
2630 Clear 33 1010 19 10000 1.39 138 09:32 16.04.2022
2631 Clear 32 1010 20 10000 1.99 64 08:41 16.04.2022
2632 Clouds 29 1010 25 10000 1.59 167 07:21 16.04.2022
2633 Clouds 26 1009 32 10000 2.02 231 04:54 16.04.2022
2634 Clouds 27 1009 28 10000 3.56 251 00:40 16.04.2022
2635 Clouds 28 1009 27 10000 1.71 7 23:40 15.04.2022
2636 Clouds 28 1009 26 10000 3.88 334 22:45 15.04.2022
2637 Clouds 28 1009 23 10000 1.38 1 22:27 15.04.2022
2638 Clouds 29 1009 25 10000 1.85 34 21:20 15.04.2022
2639 Clouds 30 1009 25 10000 1.85 34 20:36 15.04.2022
2640 Rain 31 1010 30 10000 3.67 347 19:43 15.04.2022
2641 Rain 31 1010 30 10000 3.67 347 19:43 15.04.2022
2642 Clouds 32 1010 29 10000 10.88 311 18:58 15.04.2022
2643 Clouds 32 1007 21 10000 3.69 29 18:26 15.04.2022
2644 Clouds 33 1007 21 10000 3.69 29 17:57 15.04.2022
2645 Clouds 33 1006 17 10000 2.32 82 17:24 15.04.2022
2646 Clouds 34 1006 16 10000 3.28 101 16:24 15.04.2022
2647 Clouds 34 1006 16 10000 3.28 101 15:41 15.04.2022
2648 Clouds 34 1006 16 10000 3.28 101 15:41 15.04.2022
2649 Clouds 33 1007 14 10000 4.84 86 13:55 15.04.2022
2650 Clouds 32 1007 15 10000 6.99 123 12:50 15.04.2022
2651 Clouds 32 1008 15 10000 6.77 127 12:21 15.04.2022
2652 Clouds 32 1008 15 10000 6.77 127 11:42 15.04.2022
2653 Clouds 31 1009 16 10000 5.17 127 10:46 15.04.2022
2654 Clouds 30 1010 17 10000 4.61 110 09:59 15.04.2022
2655 Clouds 30 1010 19 10000 2.78 64 09:22 15.04.2022
2656 Clouds 29 1010 19 10000 2.78 64 08:37 15.04.2022
2657 Clouds 25 1011 28 10000 4.96 5 06:47 15.04.2022
2658 Clouds 26 1011 35 10000 4.86 345 04:42 15.04.2022
2659 Clouds 26 1010 34 10000 5.32 349 00:32 15.04.2022
2660 Clouds 28 1009 21 10000 6.18 52 23:20 14.04.2022
2661 Clouds 29 1009 21 10000 6.18 52 22:44 14.04.2022
2662 Clouds 29 1009 20 10000 6.49 42 22:25 14.04.2022
2663 Clouds 31 1009 24 10000 4.24 36 21:39 14.04.2022
2664 Clouds 32 1008 24 10000 8.48 2 19:24 14.04.2022
2665 Clouds 32 1008 24 10000 8.48 2 18:38 14.04.2022
2666 Clouds 33 1007 25 10000 10.19 350 17:45 14.04.2022
2667 Clouds 34 1005 16 10000 3.74 9 16:49 14.04.2022
2668 Clouds 34 1005 12 10000 4.14 135 15:50 14.04.2022
2669 Clouds 34 1005 13 10000 6.33 115 13:52 14.04.2022
2670 Clouds 34 1006 15 10000 2.28 60 13:19 14.04.2022
2671 Clouds 34 1006 15 10000 2.28 59 12:32 14.04.2022
2672 Clouds 29 1007 14 10000 4.98 82 11:36 14.04.2022
2673 Clouds 29 1008 15 10000 5.95 75 10:57 14.04.2022
2674 Clouds 29 1008 16 10000 6.31 56 10:29 14.04.2022
2675 Clouds 30 1009 17 10000 6.58 18 09:26 14.04.2022
2676 Clouds 27 1010 21 10000 5.35 25 07:54 14.04.2022
2677 Clouds 26 1010 28 10000 5.08 357 05:35 14.04.2022
2678 Clouds 28 1009 31 10000 3.59 33 00:22 14.04.2022
2679 Clouds 31 1008 26 10000 5.21 33 22:37 13.04.2022
2680 Clouds 32 1008 23 10000 5.75 44 21:42 13.04.2022
2681 Clouds 33 1008 21 10000 6.37 41 20:35 13.04.2022
2682 Clouds 33 1006 16 10000 7.33 50 19:46 13.04.2022
2683 Clouds 34 1005 14 10000 5.49 36 18:36 13.04.2022
2684 Clouds 36 1004 11 10000 2.29 67 17:24 13.04.2022
2685 Clouds 37 1004 11 10000 2.29 67 16:49 13.04.2022
2686 Clouds 37 1004 9 10000 2.03 63 15:44 13.04.2022
2687 Clouds 37 1004 9 10000 2.22 73 15:21 13.04.2022
2688 Clouds 37 1004 9 10000 2.22 73 14:34 13.04.2022
2689 Clouds 37 1004 9 10000 1.76 21 13:37 13.04.2022
2690 Clouds 36 1004 9 10000 1.9 23 12:41 13.04.2022
2691 Clouds 34 1006 11 10000 0.22 87 11:25 13.04.2022
2692 Clouds 30 1007 12 10000 0.6 70 09:53 13.04.2022
2693 Clouds 28 1008 13 10000 2.92 14 08:44 13.04.2022
2694 Clouds 26 1008 17 10000 4.42 346 07:38 13.04.2022
2695 Clouds 25 1008 19 10000 5.26 341 06:46 13.04.2022
2696 Clouds 25 1007 21 10000 4.74 325 06:23 13.04.2022
2697 Clouds 29 1005 15 10000 1.67 177 00:28 13.04.2022
2698 Clouds 31 1005 15 10000 1.66 177 23:55 12.04.2022
2699 Clouds 32 1005 15 10000 3.56 181 22:31 12.04.2022
2700 Clouds 36 1005 15 10000 3.1 172 21:42 12.04.2022
2701 Clouds 35 1006 14 10000 4.89 287 20:44 12.04.2022
2702 Clouds 35 1005 14 10000 7.67 261 19:54 12.04.2022
2703 Clouds 35 1006 13 10000 8.22 260 19:54 12.04.2022
2704 Clouds 35 1005 14 10000 7.69 261 19:35 12.04.2022
2705 Clouds 37 1004 12 10000 6.51 234 18:52 12.04.2022
2706 Clouds 38 1004 11 10000 4.75 211 17:36 12.04.2022
2707 Clouds 38 1003 10 10000 4.36 227 16:34 12.04.2022
2708 Clouds 39 1003 8 10000 6.05 223 15:33 12.04.2022
2709 Clouds 38 1003 8 10000 6.87 230 14:33 12.04.2022
2710 Clouds 37 1003 8 10000 7.58 242 13:40 12.04.2022
2711 Clouds 37 1004 8 10000 6.64 244 13:20 12.04.2022
2712 Clouds 35 1005 9 10000 5.17 209 11:47 12.04.2022
2713 Clouds 35 1007 10 10000 5.2 191 11:24 12.04.2022
2714 Clouds 32 1008 10 10000 4.99 193 09:32 12.04.2022
2715 Clouds 30 1010 12 10000 4.7 193 08:26 12.04.2022
2716 Clouds 25 1010 15 10000 3.21 169 06:33 12.04.2022
2717 Clouds 25 1010 16 10000 2.68 115 05:38 12.04.2022
2718 Clouds 28 1008 20 10000 2.33 98 01:47 12.04.2022
2719 Clouds 30 1008 16 10000 3.41 145 23:20 11.04.2022
2720 Clouds 32 1008 15 10000 4.8 183 21:50 11.04.2022
2721 Clouds 32 1009 15 10000 5.29 189 21:18 11.04.2022
2722 Clouds 34 1009 15 10000 5.29 189 20:30 11.04.2022
2723 Clouds 34 1009 15 10000 5.29 189 20:30 11.04.2022
2724 Clouds 34 1008 13 10000 3.03 103 19:58 11.04.2022
2725 Clouds 34 1008 12 10000 2.37 160 19:25 11.04.2022
2726 Clouds 35 1008 12 10000 2.37 160 18:52 11.04.2022
2727 Clouds 36 1007 12 10000 3.07 153 17:57 11.04.2022
2728 Clouds 36 1006 10 10000 4.75 128 17:30 11.04.2022
2729 Clouds 37 1005 9 10000 6.32 117 16:25 11.04.2022
2730 Clouds 38 1006 9 10000 5.15 129 14:40 11.04.2022
2731 Clear 38 1006 9 10000 7.18 154 13:19 11.04.2022
2732 Clear 37 1006 9 10000 7.17 154 12:36 11.04.2022
2733 Clear 36 1007 9 10000 7.6 155 11:42 11.04.2022
2734 Clear 33 1009 10 10000 7.58 162 10:34 11.04.2022
2735 Clear 32 1010 11 10000 7.37 165 09:30 11.04.2022
2736 Clear 27 1012 19 10000 5.18 136 07:19 11.04.2022
2737 Clear 22 1011 24 10000 2.82 112 02:36 11.04.2022
2738 Clear 26 1012 19 10000 3.25 96 22:58 10.04.2022
2739 Clear 26 1012 17 10000 4.16 85 22:26 10.04.2022
2740 Clear 26 1012 17 10000 4.16 85 21:35 10.04.2022
2741 Clear 28 1012 16 10000 4.78 73 20:39 10.04.2022
2742 Clear 29 1012 13 10000 5.91 71 19:46 10.04.2022
2743 Clear 29 1011 12 10000 5.85 62 19:25 10.04.2022
2744 Clear 30 1011 12 10000 5.85 62 18:45 10.04.2022
2745 Clear 32 1010 11 10000 5.49 58 17:56 10.04.2022
2746 Clear 32 1010 11 10000 5.49 58 17:56 10.04.2022
2747 Clear 32 1010 11 10000 5.49 58 17:37 10.04.2022
2748 Clear 33 1009 9 10000 3.96 57 16:33 10.04.2022
2749 Clear 34 1009 8 10000 2.4 58 15:37 10.04.2022
2750 Clouds 34 1009 8 10000 1.84 66 14:25 10.04.2022
2751 Clouds 32 1009 9 10000 3.02 81 12:35 10.04.2022
2752 Clouds 32 1009 9 10000 3.02 81 12:35 10.04.2022
2753 Clouds 31 1011 9 10000 3.42 75 11:56 10.04.2022
2754 Clouds 31 1012 11 10000 4 61 11:29 10.04.2022
2755 Clouds 29 1012 11 10000 4 61 10:56 10.04.2022
2756 Clouds 27 1012 12 10000 4.5 44 09:58 10.04.2022
2757 Clouds 27 1012 12 10000 4.5 44 09:37 10.04.2022
2758 Clouds 25 1014 17 10000 5.23 20 08:22 10.04.2022
2759 Clouds 24 1013 16 10000 5.05 25 07:35 10.04.2022
2760 Clouds 22 1013 20 10000 4.66 1 05:50 10.04.2022
2761 Clear 24 1011 14 10000 4.51 3 02:25 10.04.2022
2762 Clouds 26 1010 11 10000 5.3 22 00:29 10.04.2022
2763 Clouds 28 1010 11 10000 5.31 22 23:49 09.04.2022
2764 Clouds 31 1010 10 10000 4.03 7 22:48 09.04.2022
2765 Clouds 28 1009 10 10000 2.81 159 21:35 09.04.2022
2766 Clouds 30 1009 9 10000 4.06 174 20:49 09.04.2022
2767 Clouds 30 1009 8 10000 4.19 183 20:26 09.04.2022
2768 Clouds 32 1009 7 10000 3.89 165 19:42 09.04.2022
2769 Clouds 33 1008 6 10000 4.11 143 18:59 09.04.2022
2770 Clouds 33 1008 7 10000 1.69 152 18:20 09.04.2022
2771 Clouds 36 1008 7 10000 1.69 152 17:39 09.04.2022
2772 Clouds 37 1007 6 10000 1.32 275 16:52 09.04.2022
2773 Clouds 38 1007 5 10000 3.25 292 15:55 09.04.2022
2774 Clouds 38 1007 5 10000 3.25 292 15:30 09.04.2022
2775 Clouds 38 1007 4 10000 4.13 288 14:44 09.04.2022
2776 Clouds 38 1007 4 10000 4.06 277 14:23 09.04.2022
2777 Clouds 38 1007 4 10000 3.74 240 13:18 09.04.2022
2778 Clouds 38 1007 4 10000 3.74 240 12:41 09.04.2022
2779 Clouds 37 1009 5 10000 5.64 207 11:22 09.04.2022
2780 Clouds 35 1010 5 10000 6.02 203 10:21 09.04.2022
2781 Clouds 33 1010 5 10000 6.02 203 09:38 09.04.2022
2782 Clouds 31 1011 6 10000 6.96 195 08:53 09.04.2022
2783 Clouds 25 1011 8 10000 4.87 177 06:56 09.04.2022
2784 Clouds 23 1011 14 10000 2.92 146 02:20 09.04.2022
2785 Clouds 26 1012 11 10000 3.36 134 23:45 08.04.2022
2786 Clear 28 1012 10 10000 4.41 120 21:58 08.04.2022
2787 Clear 28 1013 9 10000 4.23 104 21:29 08.04.2022
2788 Clear 29 1013 9 10000 4.23 104 20:38 08.04.2022
2789 Clear 30 1011 7 10000 2.07 104 19:20 08.04.2022
2790 Clear 32 1011 7 10000 2.07 104 18:30 08.04.2022
2791 Clear 34 1011 8 10000 1.52 144 17:49 08.04.2022
2792 Clear 34 1010 6 10000 1.99 148 17:25 08.04.2022
2793 Clear 36 1010 6 10000 1.99 148 16:47 08.04.2022
2794 Clear 37 1010 5 10000 1.82 138 15:57 08.04.2022
2795 Clear 37 1010 5 10000 1.7 134 15:26 08.04.2022
2796 Clear 37 1010 5 10000 1.55 133 14:27 08.04.2022
2797 Clear 35 1010 5 10000 1.9 140 13:46 08.04.2022
2798 Clear 35 1011 5 10000 1.85 129 13:27 08.04.2022
2799 Clear 33 1012 5 10000 1.88 111 11:56 08.04.2022
2800 Clear 32 1013 6 10000 2.34 94 10:33 08.04.2022
2801 Clear 30 1014 6 10000 2.91 78 09:38 08.04.2022
2802 Clear 28 1015 7 10000 3.46 68 08:44 08.04.2022
2803 Clouds 24 1016 10 10000 3.63 29 06:55 08.04.2022
2804 Clouds 22 1015 13 10000 3.52 353 05:18 08.04.2022
2805 Clear 25 1013 9 10000 2.79 335 01:27 08.04.2022
2806 Clear 25 1012 8 10000 3.6 184 00:25 08.04.2022
2807 Clear 25 1012 8 10000 3.61 184 00:25 08.04.2022
2808 Clear 29 1012 8 10000 4.63 174 22:59 07.04.2022
2809 Clear 29 1012 8 10000 4.63 174 22:39 07.04.2022
2810 Clear 29 1013 8 10000 4.67 167 22:21 07.04.2022
2811 Clear 31 1013 8 10000 4.67 167 21:51 07.04.2022
2812 Clear 31 1013 8 10000 4.51 157 21:19 07.04.2022
2813 Clear 31 1013 8 10000 4.51 157 20:37 07.04.2022
2814 Clear 33 1012 7 10000 4.81 154 18:35 07.04.2022
2815 Clear 36 1011 7 10000 4.07 136 17:27 07.04.2022
2816 Clear 38 1011 7 10000 4.07 136 16:44 07.04.2022
2817 Clear 38 1010 5 10000 2.8 141 16:22 07.04.2022
2818 Clear 38 1010 5 10000 2.8 141 16:22 07.04.2022
2819 Clear 38 1010 5 10000 2.22 157 14:50 07.04.2022
2820 Clear 37 1010 5 10000 2.27 172 13:43 07.04.2022
2821 Clear 37 1011 5 10000 2.53 188 12:46 07.04.2022
2822 Clear 36 1013 6 10000 3.87 205 11:30 07.04.2022
2823 Clouds 33 1014 6 10000 4.87 202 09:37 07.04.2022
2824 Clouds 32 1014 6 10000 5.35 198 08:38 07.04.2022
2825 Clouds 25 1014 9 10000 4.8 195 06:42 07.04.2022
2826 Clouds 28 1012 12 10000 4.9 163 02:51 07.04.2022
2827 Clouds 28 1012 11 10000 4.51 161 02:25 07.04.2022
2828 Clouds 28 1013 11 10000 4.28 168 00:27 07.04.2022
2829 Clouds 29 1013 12 10000 4.65 162 22:51 06.04.2022
2830 Clouds 29 1013 12 10000 5.64 151 22:27 06.04.2022
2831 Clouds 29 1013 12 10000 5.64 151 21:44 06.04.2022
2832 Clouds 29 1014 11 10000 5.39 151 20:36 06.04.2022
2833 Clouds 31 1013 10 10000 5.57 139 19:53 06.04.2022
2834 Clouds 31 1013 9 10000 5.12 132 18:51 06.04.2022
2835 Clear 31 1012 8 10000 4.41 129 18:25 06.04.2022
2836 Clear 34 1012 8 10000 4.41 129 17:35 06.04.2022
2837 Clear 35 1011 7 10000 3.42 135 16:38 06.04.2022
2838 Clear 36 1011 6 10000 3.53 138 15:48 06.04.2022
2839 Clear 36 1011 6 10000 3.82 141 15:21 06.04.2022
2840 Clear 36 1012 6 10000 4.35 144 13:24 06.04.2022
2841 Clear 35 1013 6 10000 4.86 144 12:26 06.04.2022
2842 Clear 33 1014 7 10000 5.1 146 10:47 06.04.2022
2843 Clear 33 1015 7 10000 4.78 149 10:25 06.04.2022
2844 Clear 32 1015 7 10000 4.78 149 09:40 06.04.2022
2845 Clear 32 1015 7 10000 4.78 149 09:40 06.04.2022
2846 Clear 30 1015 8 10000 4.43 149 08:32 06.04.2022
2847 Clear 27 1016 9 10000 3.97 145 07:50 06.04.2022
2848 Clear 23 1014 12 10000 2.37 144 03:54 06.04.2022
2849 Clear 26 1014 11 10000 3.64 117 23:53 05.04.2022
2850 Clear 27 1014 10 10000 4.06 112 22:58 05.04.2022
2851 Clear 28 1015 9 10000 4.83 110 21:23 05.04.2022
2852 Clear 29 1015 9 10000 5.39 101 20:26 05.04.2022
2853 Clear 30 1014 9 10000 5.94 106 19:47 05.04.2022
2854 Clear 32 1012 8 10000 6.58 88 18:18 05.04.2022
2855 Clear 36 1011 7 10000 5.34 76 16:54 05.04.2022
2856 Clear 37 1011 6 10000 4.39 70 15:57 05.04.2022
2857 Clear 37 1010 6 10000 2.67 68 15:35 05.04.2022
2858 Clear 37 1010 6 10000 2.67 68 14:36 05.04.2022
2859 Clear 37 1010 6 10000 2.22 74 13:35 05.04.2022
2860 Clear 36 1012 6 10000 1.92 83 11:51 05.04.2022
2861 Clear 36 1012 6 10000 1.92 83 11:51 05.04.2022
2862 Clear 36 1013 6 10000 2.03 88 11:32 05.04.2022
2863 Clear 35 1013 6 10000 2.03 88 10:41 05.04.2022
2864 Clear 32 1014 7 10000 1.83 114 08:55 05.04.2022
2865 Clear 28 1015 9 10000 1.68 139 07:22 05.04.2022
2866 Clear 26 1012 11 10000 2.06 114 01:58 05.04.2022
2867 Clear 27 1013 11 10000 2.93 157 22:44 04.04.2022
2868 Clear 27 1013 10 10000 3.1 133 22:26 04.04.2022
2869 Clear 28 1012 10 10000 3.77 102 21:21 04.04.2022
2870 Clear 30 1012 10 10000 3.77 102 20:50 04.04.2022
2871 Clouds 31 1012 9 10000 4.11 80 19:58 04.04.2022
2872 Clouds 31 1011 9 10000 4.38 75 19:26 04.04.2022
2873 Clouds 33 1011 9 10000 4.39 75 18:37 04.04.2022
2874 Clouds 37 1009 6 10000 4.95 22 16:37 04.04.2022
2875 Clouds 37 1009 6 10000 4.94 22 15:58 04.04.2022
2876 Clouds 37 1009 6 10000 4.65 13 15:33 04.04.2022
2877 Clouds 38 1009 6 10000 4.65 13 14:46 04.04.2022
2878 Clouds 38 1009 6 10000 4.02 13 13:33 04.04.2022
2879 Clouds 38 1011 6 10000 2.96 1 12:23 04.04.2022
2880 Clouds 37 1012 7 10000 1.85 346 11:29 04.04.2022
2881 Clear 34 1013 8 10000 1.38 260 09:20 04.04.2022
2882 Clouds 19 1012 14 10000 1.42 202 05:27 04.04.2022
2883 Clouds 24 1012 13 10000 2.4 194 02:41 04.04.2022
2884 Clouds 25 1013 12 10000 2.22 90 22:47 03.04.2022
2885 Clouds 27 1013 12 10000 3.54 70 21:48 03.04.2022
2886 Clouds 27 1013 11 10000 3.46 53 21:19 03.04.2022
2887 Clouds 30 1012 11 10000 4.05 43 19:52 03.04.2022
2888 Clouds 32 1011 10 10000 4.38 39 18:33 03.04.2022
2889 Clouds 34 1010 9 10000 4.24 33 17:49 03.04.2022
2890 Clouds 34 1009 8 10000 4.31 18 17:27 03.04.2022
2891 Clouds 36 1009 8 10000 4.31 18 16:48 03.04.2022
2892 Clouds 36 1009 7 10000 5.44 9 15:32 03.04.2022
2893 Clouds 37 1010 7 10000 3.37 1 13:58 03.04.2022
2894 Clouds 36 1011 7 10000 2.69 1 12:56 03.04.2022
2895 Clear 36 1012 7 10000 1.73 354 11:33 03.04.2022
2896 Clear 32 1014 8 10000 0.78 261 09:40 03.04.2022
2897 Clear 31 1015 9 10000 0.94 226 08:50 03.04.2022
2898 Clouds 19 1015 13 10000 1.92 231 05:44 03.04.2022
2899 Clear 21 1014 16 10000 1 43 02:55 03.04.2022
2900 Clouds 23 1014 13 10000 0.78 7 23:22 02.04.2022
2901 Clouds 23 1014 13 10000 0.78 7 23:22 02.04.2022
2902 Clouds 25 1014 13 10000 0.78 7 22:40 02.04.2022
2903 Clouds 25 1015 12 10000 1.61 34 21:54 02.04.2022
2904 Clouds 25 1015 11 10000 2.98 43 21:19 02.04.2022
2905 Clouds 28 1015 11 10000 2.98 43 20:35 02.04.2022
2906 Clear 30 1014 10 10000 4.18 42 18:47 02.04.2022
2907 Clear 30 1013 10 10000 3.15 41 18:19 02.04.2022
2908 Clear 35 1012 9 10000 2.25 16 16:45 02.04.2022
2909 Clear 35 1012 8 10000 1.63 1 15:27 02.04.2022
2910 Clear 35 1012 8 10000 1.63 1 14:52 02.04.2022
2911 Clouds 35 1013 8 10000 1.21 12 14:26 02.04.2022
2912 Clouds 34 1012 8 10000 1.08 15 13:31 02.04.2022
2913 Clouds 36 1014 8 10000 0.84 133 12:20 02.04.2022
2914 Clouds 31 1017 8 10000 0.97 122 10:22 02.04.2022
2915 Clouds 25 1018 9 10000 1.21 47 07:48 02.04.2022
2916 Clear 19 1017 16 10000 2.77 9 04:34 02.04.2022
2917 Clear 22 1016 15 10000 2.62 9 01:21 02.04.2022
2918 Clear 24 1016 15 10000 1.87 0 23:54 01.04.2022
2919 Clear 25 1016 14 10000 1.93 19 22:46 01.04.2022
2920 Clear 28 1016 12 10000 3.1 62 20:55 01.04.2022
2921 Clear 28 1016 12 10000 3.1 62 20:35 01.04.2022
2922 Clear 29 1016 11 10000 3.52 67 19:45 01.04.2022
2923 Clear 29 1015 10 10000 3.92 69 19:26 01.04.2022
2924 Clear 31 1015 10 10000 3.92 69 18:37 01.04.2022
2925 Clear 33 1014 10 10000 4.12 70 17:38 01.04.2022
2926 Clear 35 1013 7 10000 3.84 57 15:46 01.04.2022
2927 Clear 35 1013 7 10000 3.15 63 14:53 01.04.2022
2928 Clear 35 1013 7 10000 2.88 61 13:40 01.04.2022
2929 Clear 35 1013 7 10000 2.56 58 13:20 01.04.2022
2930 Clear 35 1014 8 10000 2.45 55 12:24 01.04.2022
2931 Clear 34 1015 8 10000 2.74 55 10:50 01.04.2022
2932 Clear 32 1016 8 10000 2.23 50 09:41 01.04.2022
2933 Clear 25 1017 8 10000 1.36 188 07:41 01.04.2022
2934 Clear 17 1017 11 10000 1.36 176 05:38 01.04.2022
2935 Clear 17 1016 14 10000 1.49 164 04:41 01.04.2022
2936 Clear 18 1015 14 10000 2.32 167 03:18 01.04.2022
2937 Clear 23 1015 14 10000 3.04 165 01:35 01.04.2022
2938 Clear 25 1016 12 10000 3.73 106 22:34 31.03.2022
2939 Clear 26 1016 12 10000 3.73 106 21:44 31.03.2022
2940 Clear 28 1016 10 10000 3.13 99 20:51 31.03.2022
2941 Clear 28 1015 10 10000 2.32 118 20:28 31.03.2022
2942 Clear 29 1015 10 10000 2.91 106 19:43 31.03.2022
2943 Clear 31 1015 9 10000 2.33 126 18:34 31.03.2022
2944 Clear 35 1013 9 10000 1.67 104 16:53 31.03.2022
2945 Clear 34 1013 7 10000 2.17 65 15:56 31.03.2022
2946 Clear 34 1013 7 10000 2.25 63 15:29 31.03.2022
2947 Clear 35 1013 7 10000 2.25 63 14:48 31.03.2022
2948 Clear 34 1013 7 10000 1.87 70 13:42 31.03.2022
2949 Clear 32 1014 7 10000 1.68 136 11:31 31.03.2022
2950 Clear 31 1016 8 10000 3.36 169 10:26 31.03.2022
2951 Clear 29 1016 8 10000 3.36 169 09:40 31.03.2022
2952 Clouds 22 1017 9 10000 3.17 178 07:49 31.03.2022
2953 Clouds 17 1015 12 10000 3.17 167 03:30 31.03.2022
2954 Clouds 21 1016 11 10000 3.19 129 23:25 30.03.2022
2955 Clouds 21 1017 11 10000 3.33 112 22:19 30.03.2022
2956 Clouds 23 1017 11 10000 3.33 112 21:31 30.03.2022
2957 Clouds 24 1017 11 10000 3.34 95 20:44 30.03.2022
2958 Clouds 25 1017 11 10000 3.48 94 19:48 30.03.2022
2959 Clouds 26 1016 11 10000 2.82 103 18:44 30.03.2022
2960 Clouds 28 1015 10 10000 2.2 136 17:51 30.03.2022
2961 Clouds 28 1015 9 10000 1.69 155 17:20 30.03.2022
2962 Clouds 30 1014 8 10000 1.19 132 16:40 30.03.2022
2963 Clouds 30 1014 8 10000 1.19 132 15:55 30.03.2022
2964 Clouds 30 1014 8 10000 1.13 120 14:36 30.03.2022
2965 Clouds 29 1015 8 10000 0.94 90 13:22 30.03.2022
2966 Clouds 31 1016 8 10000 0.77 63 12:22 30.03.2022
2967 Clouds 26 1018 8 10000 0.79 47 10:48 30.03.2022
2968 Clouds 26 1019 7 10000 1.14 36 09:43 30.03.2022
2969 Clouds 22 1020 7 10000 1.27 28 08:21 30.03.2022
2970 Clouds 15 1020 8 10000 1.04 30 06:50 30.03.2022
2971 Clouds 11 1019 10 10000 1.16 355 05:40 30.03.2022
2972 Clear 14 1018 11 10000 1.41 16 01:48 30.03.2022
2973 Clear 17 1019 10 10000 2.57 23 22:39 29.03.2022
2974 Clear 17 1020 9 10000 2.92 20 21:48 29.03.2022
2975 Clear 17 1020 9 10000 3.33 21 21:20 29.03.2022
2976 Clear 20 1020 8 10000 4.06 22 20:25 29.03.2022
2977 Clear 21 1020 9 10000 4.49 28 19:27 29.03.2022
2978 Clear 22 1020 9 10000 4.49 28 18:53 29.03.2022
2979 Clear 24 1019 9 10000 4.83 27 17:48 29.03.2022
2980 Clear 25 1018 9 10000 4.9 20 16:59 29.03.2022
2981 Clear 25 1018 9 10000 5.44 10 16:25 29.03.2022
2982 Clear 26 1018 9 10000 5.26 2 14:58 29.03.2022
2983 Clear 26 1018 9 10000 5.26 2 14:39 29.03.2022
2984 Clear 25 1018 10 10000 5.26 358 13:30 29.03.2022
2985 Clear 23 1019 11 10000 5.18 353 11:46 29.03.2022
2986 Clear 21 1021 12 10000 5.15 354 10:59 29.03.2022
2987 Clear 19 1022 14 10000 5.24 357 09:50 29.03.2022
2988 Clear 17 1023 20 10000 6.08 4 08:20 29.03.2022
2989 Clear 13 1023 27 10000 5.29 5 05:44 29.03.2022
2990 Clear 16 1022 23 10000 4.34 9 01:31 29.03.2022
2991 Clear 16 1023 18 10000 3.72 24 23:26 28.03.2022
2992 Clear 17 1023 18 10000 3.72 24 22:55 28.03.2022
2993 Clear 17 1023 18 10000 3.72 24 22:30 28.03.2022
2994 Clear 18 1024 16 10000 4.08 27 21:18 28.03.2022
2995 Clear 19 1023 13 10000 5.17 32 20:32 28.03.2022
2996 Clear 20 1023 13 10000 5.17 32 19:46 28.03.2022
2997 Clear 20 1022 12 10000 5.68 29 19:28 28.03.2022
2998 Clear 21 1022 12 10000 5.68 29 18:40 28.03.2022
2999 Clear 22 1021 12 10000 5.94 26 17:39 28.03.2022
3000 Clear 23 1021 11 10000 6.04 26 16:38 28.03.2022
3001 Clear 24 1020 11 10000 6.61 21 14:49 28.03.2022
3002 Clear 24 1019 11 10000 6.66 17 14:22 28.03.2022
3003 Clear 23 1020 11 10000 6.35 17 12:41 28.03.2022
3004 Clear 22 1021 12 10000 5.99 19 11:32 28.03.2022
3005 Clear 20 1023 14 10000 5.95 20 09:43 28.03.2022
3006 Clear 20 1024 15 10000 6.01 21 09:19 28.03.2022
3007 Clear 19 1025 17 10000 5.77 22 08:22 28.03.2022
3008 Clear 17 1025 17 10000 5.78 22 07:40 28.03.2022
3009 Clear 13 1023 28 10000 3.45 20 04:18 28.03.2022
3010 Clear 16 1023 25 10000 4.52 23 23:33 27.03.2022
3011 Clear 17 1023 23 10000 4.38 23 22:25 27.03.2022
3012 Clear 18 1023 23 10000 4.38 23 21:42 27.03.2022
3013 Clear 18 1023 22 10000 4.16 21 20:58 27.03.2022
3014 Clear 19 1023 19 10000 4.62 33 19:49 27.03.2022
3015 Clear 19 1022 18 10000 4.49 35 19:26 27.03.2022
3016 Clear 20 1021 17 10000 4.75 32 18:28 27.03.2022
3017 Clear 21 1021 17 10000 4.75 32 17:40 27.03.2022
3018 Clear 22 1020 15 10000 5.45 28 16:31 27.03.2022
3019 Clear 23 1019 13 10000 5.47 26 15:25 27.03.2022
3020 Clear 22 1019 13 10000 5.15 21 13:56 27.03.2022
3021 Clear 23 1020 13 10000 5.02 22 12:37 27.03.2022
3022 Clear 21 1022 15 10000 5.42 23 11:20 27.03.2022
3023 Clear 16 1024 18 10000 6.01 24 08:53 27.03.2022
3024 Clear 12 1023 26 10000 5.35 23 05:54 27.03.2022
3025 Clear 13 1021 26 10000 4.73 22 00:48 27.03.2022
3026 Clear 15 1021 25 10000 4.49 28 23:42 26.03.2022
3027 Clear 15 1021 23 10000 4.41 28 22:38 26.03.2022
3028 Clear 16 1022 22 10000 4.41 27 21:38 26.03.2022
3029 Clear 17 1022 21 10000 4.43 31 20:57 26.03.2022
3030 Clear 18 1022 19 10000 4.45 30 19:21 26.03.2022
3031 Clear 20 1020 17 10000 5.35 41 17:54 26.03.2022
3032 Clear 20 1020 17 10000 5.35 41 17:33 26.03.2022
3033 Clear 21 1018 13 10000 5.51 41 16:27 26.03.2022
3034 Clear 23 1017 11 10000 5.89 40 14:57 26.03.2022
3035 Clear 23 1017 11 10000 5.56 38 13:53 26.03.2022
3036 Clear 23 1017 10 10000 5.24 38 12:51 26.03.2022
3037 Clear 22 1017 10 10000 5.03 40 11:41 26.03.2022
3038 Clear 22 1019 11 10000 5.67 43 10:22 26.03.2022
3039 Clear 19 1020 12 10000 6.57 44 08:34 26.03.2022
3040 Clear 15 1021 16 10000 7.69 30 05:54 26.03.2022
3041 Clear 14 1019 21 10000 4.23 18 04:23 26.03.2022
3042 Clear 16 1015 21 10000 3.56 48 00:22 26.03.2022
3043 Clear 19 1014 19 10000 3.14 85 21:41 25.03.2022
3044 Clear 20 1014 19 10000 3.94 108 20:46 25.03.2022
3045 Clear 21 1014 18 10000 4.55 101 19:36 25.03.2022
3046 Clear 22 1013 16 10000 5.07 78 18:47 25.03.2022
3047 Clear 24 1012 15 10000 3.11 91 17:37 25.03.2022
3048 Clear 25 1012 15 10000 3.11 90 16:50 25.03.2022
3049 Clear 25 1011 14 10000 2.84 91 16:18 25.03.2022
3050 Clear 27 1011 12 10000 0.87 129 14:22 25.03.2022
3051 Clear 26 1010 12 10000 1.45 167 12:33 25.03.2022
3052 Clear 21 1013 15 10000 1.41 78 09:55 25.03.2022
3053 Clear 21 1014 16 10000 2.47 67 09:26 25.03.2022
3054 Clear 18 1015 18 10000 3.21 48 07:53 25.03.2022
3055 Clear 18 1015 20 10000 3.61 43 07:26 25.03.2022
3056 Clear 15 1015 31 10000 5.5 22 05:23 25.03.2022
3057 Clear 19 1013 30 10000 5.58 1 00:33 25.03.2022
3058 Clear 21 1012 23 10000 5.87 18 22:30 24.03.2022
3059 Clear 23 1012 19 10000 5.99 29 21:34 24.03.2022
3060 Clear 26 1011 13 10000 7.56 2 19:50 24.03.2022
3061 Clear 28 1009 11 10000 2.78 0 18:58 24.03.2022
3062 Clear 30 1009 11 10000 2.61 359 17:45 24.03.2022
3063 Clear 33 1008 10 10000 2.88 337 16:54 24.03.2022
3064 Clear 34 1007 7 10000 5.71 275 15:19 24.03.2022
3065 Clear 35 1007 7 10000 5.71 275 14:42 24.03.2022
3066 Clear 35 1007 7 10000 6.49 268 13:59 24.03.2022
3067 Clear 36 1007 7 10000 6.74 260 12:42 24.03.2022
3068 Clear 34 1007 7 10000 5.9 246 11:33 24.03.2022
3069 Clear 33 1009 7 10000 3.46 230 09:48 24.03.2022
3070 Clear 31 1010 8 10000 2.74 224 08:40 24.03.2022
3071 Clear 26 1011 10 10000 2.48 262 06:44 24.03.2022
3072 Clear 21 1010 15 10000 0.7 77 01:43 24.03.2022
3073 Clouds 24 1010 13 10000 2.2 18 22:37 23.03.2022
3074 Clouds 23 1011 12 10000 3.29 19 21:25 23.03.2022
3075 Clouds 23 1011 12 10000 3.29 19 21:25 23.03.2022
3076 Clouds 23 1011 12 10000 3.29 19 21:25 23.03.2022
3077 Clouds 24 1011 12 10000 3.29 19 20:47 23.03.2022
3078 Clouds 25 1011 11 10000 2.91 359 19:45 23.03.2022
3079 Clouds 28 1010 10 10000 3.77 338 18:30 23.03.2022
3080 Clouds 30 1009 10 10000 3.03 300 17:36 23.03.2022
3081 Clouds 33 1008 9 10000 4.4 280 16:20 23.03.2022
3082 Clouds 34 1008 8 10000 5.48 265 14:50 23.03.2022
3083 Clouds 34 1008 8 10000 4.82 247 14:21 23.03.2022
3084 Clouds 33 1008 7 10000 3.83 225 12:24 23.03.2022
3085 Clear 31 1011 6 10000 4.82 195 09:38 23.03.2022
3086 Clouds 24 1012 9 10000 3.6 182 06:40 23.03.2022
3087 Clouds 19 1011 16 10000 1.99 210 03:58 23.03.2022
3088 Clear 21 1009 16 10000 1.79 241 00:29 23.03.2022
3089 Clear 22 1010 14 10000 1.71 215 22:26 22.03.2022
3090 Clear 24 1010 13 10000 2.65 215 21:29 22.03.2022
3091 Clear 25 1010 13 10000 2.65 215 20:39 22.03.2022
3092 Clear 27 1009 12 10000 3.25 226 19:39 22.03.2022
3093 Clear 27 1009 11 10000 3.58 193 19:18 22.03.2022
3094 Clear 31 1009 11 10000 4.27 175 17:58 22.03.2022
3095 Clear 31 1008 10 10000 4.42 188 17:25 22.03.2022
3096 Clear 34 1007 9 10000 4.74 212 15:54 22.03.2022
3097 Clear 34 1007 8 10000 6.76 231 15:22 22.03.2022
3098 Clear 33 1007 8 10000 6.76 231 14:46 22.03.2022
3099 Clear 33 1006 8 10000 7.46 234 14:25 22.03.2022
3100 Clear 34 1006 8 10000 7.61 226 12:46 22.03.2022
3101 Clear 32 1008 7 10000 7.53 216 11:36 22.03.2022
3102 Clear 31 1008 7 10000 7.53 216 10:35 22.03.2022
3103 Clear 26 1011 6 10000 5.6 191 07:57 22.03.2022
3104 Clear 20 1011 11 10000 2.77 177 05:20 22.03.2022
3105 Clear 19 1011 13 10000 3.19 171 03:41 22.03.2022
3106 Clouds 22 1009 13 10000 4.11 152 23:49 21.03.2022
3107 Clouds 23 1010 14 10000 3.78 158 21:58 21.03.2022
3108 Clouds 24 1010 13 10000 4.2 138 20:47 21.03.2022
3109 Clouds 24 1010 13 10000 5.74 133 20:27 21.03.2022
3110 Clouds 25 1010 13 10000 5.74 133 19:57 21.03.2022
3111 Clouds 25 1010 13 10000 6.23 125 19:24 21.03.2022
3112 Clear 27 1009 13 10000 5.7 120 17:53 21.03.2022
3113 Clear 27 1008 13 10000 5.72 136 17:18 21.03.2022
3114 Clear 29 1008 13 10000 5.72 136 16:39 21.03.2022
3115 Clear 30 1007 12 10000 6.1 136 15:47 21.03.2022
3116 Clear 30 1007 11 10000 4.74 154 14:51 21.03.2022
3117 Clear 30 1007 10 10000 5.5 149 13:43 21.03.2022
3118 Clouds 29 1007 10 10000 5.73 139 12:33 21.03.2022
3119 Clouds 29 1008 10 10000 5.31 147 11:44 21.03.2022
3120 Clouds 27 1009 10 10000 5.44 154 10:34 21.03.2022
3121 Clouds 26 1012 8 10000 4.86 159 08:29 21.03.2022
3122 Clouds 23 1012 7 10000 4.32 162 06:36 21.03.2022
3123 Clouds 21 1011 10 10000 3.59 156 02:40 21.03.2022
3124 Clouds 21 1010 10 10000 4.88 154 23:40 20.03.2022
3125 Clouds 21 1011 10 10000 4.61 144 22:43 20.03.2022
3126 Clear 21 1011 10 10000 4.89 153 21:49 20.03.2022
3127 Clear 21 1011 9 10000 4.91 149 21:20 20.03.2022
3128 Clear 23 1011 9 10000 4.91 149 20:42 20.03.2022
3129 Clear 22 1011 9 10000 4.84 144 19:57 20.03.2022
3130 Clear 22 1011 9 10000 4.73 130 19:26 20.03.2022
3131 Clear 26 1011 9 10000 4.55 119 17:51 20.03.2022
3132 Clear 26 1010 9 10000 3.67 132 17:29 20.03.2022
3133 Clear 28 1010 9 10000 3.67 132 16:46 20.03.2022
3134 Clear 30 1010 7 10000 5.02 127 14:54 20.03.2022
3135 Clear 30 1010 6 10000 5.01 131 13:49 20.03.2022
3136 Clear 30 1010 7 10000 4.64 136 12:22 20.03.2022
3137 Clear 28 1012 7 10000 4.28 145 10:42 20.03.2022
3138 Clear 24 1014 8 10000 4.28 166 08:37 20.03.2022
3139 Clear 18 1015 10 10000 4.54 167 06:55 20.03.2022
3140 Clear 16 1015 16 10000 3.79 159 03:59 20.03.2022
3141 Clear 16 1014 13 10000 4.25 147 01:29 20.03.2022
3142 Clear 16 1014 13 10000 4.34 151 00:36 20.03.2022
3143 Clear 17 1015 12 10000 4.61 146 22:56 19.03.2022
3144 Clear 19 1016 12 10000 4.18 136 21:27 19.03.2022
3145 Clear 19 1016 12 10000 4.09 133 20:19 19.03.2022
3146 Clear 22 1016 11 10000 4.28 114 18:44 19.03.2022
3147 Clear 22 1015 11 10000 3.86 121 18:23 19.03.2022
3148 Clear 23 1015 11 10000 3.86 121 17:34 19.03.2022
3149 Clear 27 1014 10 10000 3.17 109 15:43 19.03.2022
3150 Clear 27 1014 9 10000 3.26 97 14:30 19.03.2022
3151 Clear 28 1014 9 10000 2.3 89 12:56 19.03.2022
3152 Clear 28 1014 9 10000 2.3 89 12:38 19.03.2022
3153 Clear 26 1014 9 10000 1.6 94 11:49 19.03.2022
3154 Clear 24 1015 9 10000 1.31 136 10:41 19.03.2022
3155 Clear 15 1020 7 10000 2.57 170 06:27 19.03.2022
3156 Clear 9 1019 9 10000 2.28 147 02:48 19.03.2022
3157 Clear 10 1018 9 10000 2.07 138 01:32 19.03.2022
3158 Clear 11 1019 9 10000 1.94 101 23:26 18.03.2022
3159 Clear 12 1019 8 10000 2.31 96 22:25 18.03.2022
3160 Clear 14 1020 8 10000 2.59 83 20:56 18.03.2022
3161 Clear 15 1020 8 10000 2.82 69 19:49 18.03.2022
3162 Clear 15 1020 8 10000 3.15 53 19:19 18.03.2022
3163 Clear 19 1019 8 10000 3.72 39 17:39 18.03.2022
3164 Clear 21 1018 8 10000 3.44 26 16:46 18.03.2022
3165 Clear 23 1017 8 10000 3.18 7 14:37 18.03.2022
3166 Clear 23 1017 8 10000 2.95 354 14:18 18.03.2022
3167 Clear 22 1017 9 10000 2.86 339 12:19 18.03.2022
3168 Clear 20 1019 8 10000 2.67 337 10:39 18.03.2022
3169 Clear 17 1021 8 10000 3.02 346 09:23 18.03.2022
3170 Clear 13 1022 9 10000 3.03 344 07:45 18.03.2022
3171 Clear 8 1023 12 10000 4.19 350 05:46 18.03.2022
3172 Clear 8 1022 15 10000 3.42 350 02:50 18.03.2022
3173 Clear 9 1021 14 10000 3.45 339 00:21 18.03.2022
3174 Clear 11 1021 13 10000 3.18 336 22:56 17.03.2022
3175 Clear 11 1022 13 10000 3.08 337 22:22 17.03.2022
3176 Clear 11 1022 13 10000 3.08 337 21:47 17.03.2022
3177 Clear 11 1022 12 10000 3.37 345 21:19 17.03.2022
3178 Clear 12 1023 11 10000 3.61 353 20:32 17.03.2022
3179 Clear 13 1023 11 10000 3.61 353 19:41 17.03.2022
3180 Clouds 14 1022 11 10000 3.85 2 18:57 17.03.2022
3181 Clear 15 1021 9 10000 4.2 20 17:55 17.03.2022
3182 Clear 16 1020 7 10000 4.7 14 16:34 17.03.2022
3183 Clear 17 1020 7 10000 4.7 14 15:44 17.03.2022
3184 Clear 17 1020 6 10000 5.14 7 15:22 17.03.2022
3185 Clear 17 1019 6 10000 4.99 5 13:49 17.03.2022
3186 Clear 16 1019 6 10000 5.39 2 12:49 17.03.2022
3187 Clear 15 1020 6 10000 5.66 3 11:53 17.03.2022
3188 Clear 15 1021 7 10000 6.18 2 11:22 17.03.2022
3189 Clouds 13 1022 8 10000 6.63 4 09:47 17.03.2022
3190 Clouds 12 1023 11 10000 7.61 4 08:31 17.03.2022
3191 Clouds 9 1024 24 10000 9.06 2 06:25 17.03.2022
3192 Clouds 8 1024 24 10000 9.06 2 05:39 17.03.2022
3193 Clouds 8 1024 24 10000 9.06 2 05:39 17.03.2022
3194 Clouds 12 1019 27 10000 9.72 4 00:42 17.03.2022
3195 Clouds 13 1019 28 10000 8.9 358 22:59 16.03.2022
3196 Clouds 13 1019 28 10000 8.9 358 22:39 16.03.2022
3197 Clouds 13 1019 34 10000 8.9 356 22:19 16.03.2022
3198 Clouds 13 1019 36 10000 9.23 352 21:18 16.03.2022
3199 Clouds 13 1020 30 10000 9.26 355 19:26 16.03.2022
3200 Clouds 14 1020 30 10000 9.26 355 18:55 16.03.2022
3201 Clouds 14 1018 25 10000 9.24 2 18:20 16.03.2022
3202 Clear 16 1016 23 10000 8.14 4 17:37 16.03.2022
3203 Clear 17 1016 23 10000 8.14 4 16:49 16.03.2022
3204 Clear 19 1015 22 10000 7.52 6 15:35 16.03.2022
3205 Clear 20 1013 19 10000 6.6 7 13:41 16.03.2022
3206 Clear 20 1012 18 10000 5.92 16 12:59 16.03.2022
3207 Clear 20 1013 18 10000 5.99 17 11:44 16.03.2022
3208 Clear 20 1013 19 10000 6.18 20 11:18 16.03.2022
3209 Clear 18 1014 20 10000 6.65 21 09:58 16.03.2022
3210 Clear 16 1015 22 10000 7.41 17 08:37 16.03.2022
3211 Clear 16 1012 33 10000 5.83 14 03:30 16.03.2022
3212 Clear 20 1011 25 10000 5.98 14 23:37 15.03.2022
3213 Clear 21 1011 24 10000 6.89 15 22:37 15.03.2022
3214 Clear 22 1012 24 10000 7.53 14 21:27 15.03.2022
3215 Clear 24 1011 22 10000 7.75 7 19:47 15.03.2022
3216 Clear 26 1010 20 10000 7.57 7 18:38 15.03.2022
3217 Clear 33 1007 13 10000 1.78 173 16:45 15.03.2022
3218 Clear 36 1006 10 10000 6.43 152 15:44 15.03.2022
3219 Clear 36 1006 7 10000 5.87 183 14:55 15.03.2022
3220 Clear 36 1006 7 10000 5.87 183 14:30 15.03.2022
3221 Clear 35 1006 7 10000 6.08 208 13:24 15.03.2022
3222 Clear 33 1007 7 10000 7 214 11:34 15.03.2022
3223 Clear 32 1007 7 10000 7 214 10:55 15.03.2022
3224 Clear 30 1010 8 10000 7.1 201 09:29 15.03.2022
3225 Clear 26 1010 8 10000 7.1 201 08:32 15.03.2022
3226 Clear 26 1011 9 10000 6.92 196 07:39 15.03.2022
3227 Clear 22 1012 12 10000 4.24 199 06:32 15.03.2022
3228 Clear 21 1011 15 10000 3.05 183 01:57 15.03.2022
3229 Clear 23 1011 15 10000 3.18 187 23:31 14.03.2022
3230 Clear 25 1011 15 10000 3.84 177 22:54 14.03.2022
3231 Clear 26 1012 14 10000 4.65 165 21:56 14.03.2022
3232 Clear 26 1012 12 10000 5.44 161 21:18 14.03.2022
3233 Clear 26 1012 12 10000 5.44 161 20:30 14.03.2022
3234 Clear 27 1012 11 10000 7 148 19:33 14.03.2022
3235 Clear 28 1011 9 10000 6.82 145 17:59 14.03.2022
3236 Clear 28 1011 9 10000 6.82 145 17:41 14.03.2022
3237 Clear 29 1010 9 10000 5.57 145 16:33 14.03.2022
3238 Clear 30 1009 7 10000 6.59 153 14:58 14.03.2022
3239 Clear 30 1009 7 10000 7.25 156 13:58 14.03.2022
3240 Clouds 28 1011 8 10000 8.09 156 11:27 14.03.2022
3241 Clouds 22 1012 11 10000 8.17 155 09:58 14.03.2022
3242 Clouds 22 1012 11 10000 8.17 155 09:38 14.03.2022
3243 Clouds 20 1014 15 10000 7.33 159 08:58 14.03.2022
3244 Clouds 20 1014 15 10000 7.33 159 08:30 14.03.2022
3245 Clouds 15 1015 33 10000 5.8 141 06:47 14.03.2022
3246 Clear 14 1014 44 10000 3.31 79 03:27 14.03.2022
3247 Clear 15 1014 41 10000 2.78 66 01:42 14.03.2022
3248 Clear 16 1013 34 10000 2.38 64 00:29 14.03.2022
3249 Clear 21 1012 28 10000 6.49 134 21:51 13.03.2022
3250 Clear 21 1012 25 10000 7.39 128 21:22 13.03.2022
3251 Clear 22 1012 25 10000 7.39 128 20:46 13.03.2022
3252 Clear 22 1012 21 10000 7.4 115 20:22 13.03.2022
3253 Clear 23 1012 21 10000 7.41 115 19:42 13.03.2022
3254 Clear 23 1012 17 10000 6.61 123 19:22 13.03.2022
3255 Clear 26 1012 17 10000 6.61 123 18:45 13.03.2022
3256 Clear 26 1011 14 10000 6.33 130 18:26 13.03.2022
3257 Clear 27 1011 14 10000 6.33 130 17:38 13.03.2022
3258 Clear 28 1010 13 10000 5.31 122 16:45 13.03.2022
3259 Clear 28 1010 12 10000 4.02 120 16:23 13.03.2022
3260 Clear 29 1010 12 10000 4.02 120 15:42 13.03.2022
3261 Clear 30 1009 11 10000 3.47 129 14:37 13.03.2022
3262 Clear 29 1009 14 10000 5.67 154 13:28 13.03.2022
3263 Clear 30 1010 15 10000 6.38 152 12:23 13.03.2022
3264 Clear 26 1010 15 10000 6.38 152 11:39 13.03.2022
3265 Clear 24 1011 16 10000 6.06 154 10:50 13.03.2022
3266 Clear 24 1012 17 10000 6 153 10:28 13.03.2022
3267 Clear 22 1012 17 10000 6 153 09:42 13.03.2022
3268 Clear 20 1014 19 10000 5.16 141 08:49 13.03.2022
3269 Clear 20 1014 19 10000 5.16 141 08:49 13.03.2022
3270 Clear 20 1015 21 10000 4.85 126 08:29 13.03.2022
3271 Clear 16 1015 22 10000 4.64 113 06:40 13.03.2022
3272 Clear 14 1015 24 10000 3.82 83 04:51 13.03.2022
3273 Clear 15 1013 29 10000 4.26 48 01:46 13.03.2022
3274 Clear 18 1012 35 10000 3.47 67 22:51 12.03.2022
3275 Clear 19 1011 33 10000 4.6 109 21:32 12.03.2022
3276 Clear 21 1011 29 10000 6.81 101 20:19 12.03.2022
3277 Clear 23 1011 29 10000 6.81 101 19:44 12.03.2022
3278 Clear 24 1011 26 10000 6.72 90 18:38 12.03.2022
3279 Clear 26 1009 20 10000 6.84 85 17:48 12.03.2022
3280 Clear 27 1009 16 10000 3.91 82 16:28 12.03.2022
3281 Clear 28 1009 16 10000 3.91 82 15:40 12.03.2022
3282 Clear 28 1008 14 10000 3.64 136 15:18 12.03.2022
3283 Clear 28 1009 15 10000 5.09 145 13:53 12.03.2022
3284 Clear 26 1010 16 10000 5.84 139 12:27 12.03.2022
3285 Clear 25 1010 16 10000 5.84 139 11:52 12.03.2022
3286 Clear 25 1010 18 10000 5.86 125 11:21 12.03.2022
3287 Clear 23 1012 20 10000 5.94 108 09:59 12.03.2022
3288 Clear 23 1012 20 10000 5.94 108 09:40 12.03.2022
3289 Clear 19 1015 27 10000 6.01 85 07:51 12.03.2022
3290 Clear 17 1015 38 10000 6.16 70 05:46 12.03.2022
3291 Clouds 20 1012 30 10000 6.09 40 00:27 12.03.2022
3292 Clouds 21 1012 30 10000 6.09 40 23:37 11.03.2022
3293 Clouds 22 1012 27 10000 7.49 29 21:55 11.03.2022
3294 Clouds 24 1012 25 10000 7.72 20 20:59 11.03.2022
3295 Clouds 24 1012 25 10000 7.72 20 20:40 11.03.2022
3296 Clouds 24 1012 24 10000 8.17 17 20:19 11.03.2022
3297 Clouds 27 1011 22 10000 8.47 22 19:28 11.03.2022
3298 Clouds 31 1009 17 10000 3.9 345 17:38 11.03.2022
3299 Clouds 31 1008 15 10000 3.61 327 17:19 11.03.2022
3300 Clouds 33 1007 14 10000 2.57 314 15:57 11.03.2022
3301 Clouds 33 1006 12 10000 2.91 274 15:29 11.03.2022
3302 Clouds 37 1006 11 10000 4.69 259 13:27 11.03.2022
3303 Clouds 37 1006 10 10000 5.63 249 12:23 11.03.2022
3304 Clouds 35 1006 10 10000 5.63 249 11:56 11.03.2022
3305 Clouds 35 1008 10 10000 6.61 244 10:24 11.03.2022
3306 Clouds 34 1008 10 10000 6.61 244 09:32 11.03.2022
3307 Clouds 32 1010 10 10000 8.14 236 08:25 11.03.2022
3308 Clouds 31 1010 10 10000 8.14 236 07:46 11.03.2022
3309 Clouds 29 1010 12 10000 5.81 238 06:22 11.03.2022
3310 Clouds 26 1009 15 10000 5.12 211 04:24 11.03.2022
3311 Clouds 29 1007 14 10000 6.68 177 00:21 11.03.2022
3312 Clouds 30 1007 14 10000 7.75 174 22:31 10.03.2022
3313 Clouds 30 1007 13 10000 8.96 166 21:50 10.03.2022
3314 Clouds 30 1007 13 10000 8.85 166 21:23 10.03.2022
3315 Clear 33 1007 12 10000 8.28 173 19:51 10.03.2022
3316 Clouds 33 1008 12 10000 7.68 178 18:56 10.03.2022
3317 Clouds 33 1007 11 10000 7.98 171 17:36 10.03.2022
3318 Clouds 36 1006 10 10000 7.14 168 16:37 10.03.2022
3319 Clouds 38 1004 8 10000 7.86 168 15:26 10.03.2022
3320 Clouds 38 1004 7 10000 8.26 177 13:30 10.03.2022
3321 Clear 37 1004 7 10000 6.38 192 12:34 10.03.2022
3322 Clear 36 1006 8 10000 6.31 199 11:20 10.03.2022
3323 Clear 33 1009 10 10000 6.05 199 09:22 10.03.2022
3324 Clear 30 1011 11 10000 6.44 195 07:43 10.03.2022
3325 Clear 21 1010 21 10000 5.42 167 04:47 10.03.2022
3326 Clear 21 1008 21 10000 5.09 160 01:50 10.03.2022
3327 Clouds 25 1009 20 10000 6.11 164 23:28 09.03.2022
3328 Clouds 25 1010 20 10000 6.48 164 21:51 09.03.2022
3329 Clouds 25 1010 20 10000 6.48 164 21:32 09.03.2022
3330 Clouds 27 1010 18 10000 5.85 162 19:55 09.03.2022
3331 Clouds 26 1010 15 10000 4.98 141 18:34 09.03.2022
3332 Clouds 27 1009 15 10000 5.11 142 17:27 09.03.2022
3333 Clouds 29 1009 15 10000 5.11 142 16:31 09.03.2022
3334 Clouds 30 1008 12 10000 6.16 145 15:28 09.03.2022
3335 Clouds 30 1008 11 10000 6 156 13:53 09.03.2022
3336 Clouds 30 1008 11 10000 6.59 166 12:47 09.03.2022
3337 Clouds 29 1009 12 10000 6.99 168 11:54 09.03.2022
3338 Clear 29 1010 13 10000 7.22 163 11:35 09.03.2022
3339 Clear 27 1011 14 10000 7.48 155 10:26 09.03.2022
3340 Clear 24 1013 16 10000 6.92 145 08:54 09.03.2022
3341 Clear 22 1013 17 10000 6.1 132 07:38 09.03.2022
3342 Clouds 18 1011 23 10000 3.26 128 02:46 09.03.2022
3343 Clouds 19 1011 23 10000 2.62 127 00:41 09.03.2022
3344 Clouds 20 1011 22 10000 3.24 96 22:47 08.03.2022
3345 Clouds 21 1012 20 10000 3.7 77 21:59 08.03.2022
3346 Clouds 21 1012 19 10000 4.3 55 21:23 08.03.2022
3347 Clouds 22 1012 18 10000 4.57 49 20:29 08.03.2022
3348 Clouds 23 1012 18 10000 4.57 49 19:31 08.03.2022
3349 Clouds 24 1011 16 10000 5.84 47 18:44 08.03.2022
3350 Clear 25 1009 14 10000 4.61 57 17:26 08.03.2022
3351 Clear 28 1007 11 10000 2.7 85 15:19 08.03.2022
3352 Clear 28 1007 11 10000 2.39 82 14:19 08.03.2022
3353 Clouds 28 1007 11 10000 2.99 91 12:43 08.03.2022
3354 Clouds 28 1008 11 10000 3.3 103 11:45 08.03.2022
3355 Clouds 26 1009 11 10000 3.45 103 10:41 08.03.2022
3356 Clouds 25 1010 12 10000 3.79 94 09:37 08.03.2022
3357 Clouds 20 1012 15 10000 4.73 49 06:43 08.03.2022
3358 Clouds 19 1011 23 10000 3.44 17 04:47 08.03.2022
3359 Clouds 23 1008 20 10000 4.13 20 23:36 07.03.2022
3360 Clouds 24 1008 17 10000 2.43 62 21:50 07.03.2022
3361 Clouds 25 1008 17 10000 2.44 62 21:31 07.03.2022
3362 Clouds 26 1008 15 10000 1.31 319 20:39 07.03.2022
3363 Clouds 27 1008 14 10000 3.51 238 19:55 07.03.2022
3364 Clouds 27 1008 14 10000 4.37 210 19:29 07.03.2022
3365 Clouds 28 1007 13 10000 4.22 212 18:38 07.03.2022
3366 Clouds 30 1007 13 10000 4.35 205 17:41 07.03.2022
3367 Clouds 31 1006 13 10000 4.16 212 16:55 07.03.2022
3368 Clouds 33 1005 10 10000 7.36 221 15:27 07.03.2022
3369 Clouds 32 1005 10 10000 9.22 237 12:48 07.03.2022
3370 Clouds 32 1006 10 10000 9.43 238 12:20 07.03.2022
3371 Clouds 29 1006 10 10000 9.7 235 10:35 07.03.2022
3372 Clouds 27 1009 12 10000 7.84 219 08:39 07.03.2022
3373 Clouds 23 1010 30 10000 5.32 178 02:58 07.03.2022
3374 Clouds 23 1010 31 10000 4.97 173 00:21 07.03.2022
3375 Clouds 23 1011 30 10000 5.4 167 23:28 06.03.2022
3376 Clouds 23 1011 30 10000 5.4 167 22:32 06.03.2022
3377 Clouds 24 1011 29 10000 5.77 163 21:45 06.03.2022
3378 Clouds 24 1011 27 10000 6.04 157 20:30 06.03.2022
3379 Clouds 24 1012 26 10000 6.64 159 19:48 06.03.2022
3380 Clouds 25 1012 24 10000 6.45 154 18:51 06.03.2022
3381 Clouds 26 1011 21 10000 6.39 142 17:49 06.03.2022
3382 Clouds 26 1011 20 10000 5.57 139 17:20 06.03.2022
3383 Clouds 26 1011 20 10000 5.57 139 16:40 06.03.2022
3384 Clouds 27 1010 18 10000 6.13 133 15:37 06.03.2022
3385 Clouds 28 1010 18 10000 6.13 133 14:48 06.03.2022
3386 Clouds 28 1010 17 10000 5.86 131 14:26 06.03.2022
3387 Clouds 28 1010 17 10000 5.52 139 12:40 06.03.2022
3388 Clouds 27 1011 17 10000 5.61 148 11:46 06.03.2022
3389 Clouds 25 1012 18 10000 5.45 146 10:43 06.03.2022
3390 Clouds 23 1015 22 10000 4.59 154 09:25 06.03.2022
3391 Clouds 21 1016 26 10000 4.52 156 08:28 06.03.2022
3392 Clouds 19 1016 26 10000 4.52 156 07:33 06.03.2022
3393 Clouds 14 1015 42 10000 2.16 138 03:18 06.03.2022
3394 Clouds 16 1015 40 10000 2.61 113 00:41 06.03.2022
3395 Clouds 16 1015 40 10000 2.42 120 00:22 06.03.2022
3396 Clouds 15 1015 39 10000 2.45 128 23:19 05.03.2022
3397 Clouds 16 1015 39 10000 2.45 128 22:35 05.03.2022
3398 Clouds 17 1016 38 10000 2.62 120 21:31 05.03.2022
3399 Clouds 18 1016 35 10000 3.81 87 20:38 05.03.2022
3400 Clouds 19 1016 33 10000 5.15 77 19:23 05.03.2022
3401 Clouds 20 1016 33 10000 5.15 77 18:48 05.03.2022
3402 Clouds 21 1015 24 10000 4.1 90 17:35 05.03.2022
3403 Clouds 23 1014 19 10000 2.62 134 16:19 05.03.2022
3404 Clear 24 1014 17 10000 2.94 134 15:20 05.03.2022
3405 Clear 24 1014 17 10000 2.94 134 15:20 05.03.2022
3406 Clear 24 1014 17 10000 2.94 134 14:36 05.03.2022
3407 Clear 24 1014 16 10000 3.1 147 13:44 05.03.2022
3408 Clouds 24 1014 17 10000 4.09 155 12:45 05.03.2022
3409 Clouds 22 1015 17 10000 4.54 134 11:21 05.03.2022
3410 Clouds 21 1015 17 10000 4.54 134 10:52 05.03.2022
3411 Clouds 19 1016 19 10000 4.19 122 09:37 05.03.2022
3412 Clouds 17 1018 21 10000 3.79 108 08:31 05.03.2022
3413 Clouds 16 1019 24 10000 3.86 75 07:22 05.03.2022
3414 Clouds 15 1019 28 10000 4.11 70 05:39 05.03.2022
3415 Clouds 16 1016 30 10000 4.73 27 00:49 05.03.2022
3416 Clouds 17 1016 31 10000 4.96 37 22:58 04.03.2022
3417 Clouds 17 1016 31 10000 4.96 37 22:38 04.03.2022
3418 Clouds 17 1017 31 10000 5.87 32 21:43 04.03.2022
3419 Clouds 18 1016 30 10000 6.12 31 20:42 04.03.2022
3420 Clouds 18 1016 29 10000 6.89 30 19:37 04.03.2022
3421 Clouds 19 1016 30 10000 7.24 28 18:58 04.03.2022
3422 Clouds 19 1015 31 10000 7.26 32 18:35 04.03.2022
3423 Clouds 20 1013 28 10000 7.46 31 17:29 04.03.2022
3424 Clouds 21 1012 27 10000 7.8 26 15:58 04.03.2022
3425 Clouds 21 1012 25 10000 7.6 24 15:25 04.03.2022
3426 Clouds 23 1011 23 10000 7.02 20 13:36 04.03.2022
3427 Clouds 23 1011 21 10000 6.26 13 12:47 04.03.2022
3428 Clouds 23 1011 22 10000 6.12 4 11:37 04.03.2022
3429 Clouds 23 1011 22 10000 6.12 4 11:37 04.03.2022
3430 Clouds 23 1013 15 10000 5.63 318 10:26 04.03.2022
3431 Clouds 24 1014 12 10000 6.3 291 09:28 04.03.2022
3432 Clouds 26 1015 10 10000 7.27 256 07:49 04.03.2022
3433 Clouds 23 1014 12 10000 6.25 226 06:26 04.03.2022
3434 Clouds 22 1012 13 10000 4.96 185 02:26 04.03.2022
3435 Clouds 26 1012 13 10000 7.43 176 23:41 03.03.2022
3436 Clouds 26 1012 13 10000 9.24 168 22:18 03.03.2022
3437 Clouds 27 1014 14 10000 7.9 174 21:36 03.03.2022
3438 Clouds 27 1014 14 10000 7.9 174 20:50 03.03.2022
3439 Clouds 28 1014 15 10000 7.08 173 19:34 03.03.2022
3440 Clouds 28 1013 15 10000 6.71 173 18:33 03.03.2022
3441 Clouds 29 1013 14 10000 6.43 173 17:43 03.03.2022
3442 Clouds 29 1012 13 10000 5.84 170 17:24 03.03.2022
3443 Clouds 31 1012 12 10000 5.4 172 15:47 03.03.2022
3444 Clouds 33 1011 10 10000 6.14 186 14:51 03.03.2022
3445 Clouds 33 1011 10 10000 6.14 186 14:32 03.03.2022
3446 Clouds 32 1010 10 10000 6.4 192 12:43 03.03.2022
3447 Clouds 31 1012 11 10000 6.62 184 11:32 03.03.2022
3448 Clouds 30 1012 11 10000 6.62 184 10:39 03.03.2022
3449 Clouds 26 1015 14 10000 7.56 183 08:44 03.03.2022
3450 Clouds 22 1016 20 10000 7.72 177 06:58 03.03.2022
3451 Clouds 22 1017 24 10000 6.02 172 06:23 03.03.2022
3452 Clouds 21 1015 27 10000 4.94 170 00:43 03.03.2022
3453 Clouds 21 1016 26 10000 4.83 168 23:28 02.03.2022
3454 Clouds 21 1016 26 10000 4.83 168 22:48 02.03.2022
3455 Clouds 22 1017 25 10000 4.6 164 21:23 02.03.2022
3456 Clouds 26 1017 25 10000 4.6 164 20:30 02.03.2022
3457 Clear 26 1017 24 10000 4.19 167 19:49 02.03.2022
3458 Clear 26 1017 24 10000 4.19 167 19:30 02.03.2022
3459 Clear 27 1016 21 10000 4.13 165 18:39 02.03.2022
3460 Clear 27 1016 21 10000 4.13 165 18:39 02.03.2022
3461 Clear 27 1016 21 10000 4.13 165 18:39 02.03.2022
3462 Clear 27 1016 19 10000 4.32 158 17:45 02.03.2022
3463 Clear 29 1015 18 10000 4.94 142 16:56 02.03.2022
3464 Clear 29 1015 18 10000 4.94 142 16:36 02.03.2022
3465 Clear 32 1013 14 10000 6.29 140 14:42 02.03.2022
3466 Clear 32 1013 12 10000 5.91 156 13:24 02.03.2022
3467 Clear 31 1013 12 10000 6.26 152 12:41 02.03.2022
3468 Clear 30 1013 13 10000 5.92 160 11:39 02.03.2022
3469 Clear 30 1015 13 10000 5.72 170 11:18 02.03.2022
3470 Clear 26 1016 15 10000 6.1 175 09:41 02.03.2022
3471 Clear 24 1018 17 10000 6.68 175 08:52 02.03.2022
3472 Clear 23 1020 23 10000 6.54 167 07:28 02.03.2022
3473 Clear 17 1019 27 10000 5.56 162 05:44 02.03.2022
3474 Clear 17 1019 27 10000 5.56 162 05:44 02.03.2022
3475 Clear 17 1019 32 10000 4 155 00:58 02.03.2022
3476 Clear 17 1019 31 10000 4.17 145 23:46 01.03.2022
3477 Clear 18 1019 30 10000 4.31 138 22:45 01.03.2022
3478 Clear 19 1020 29 10000 3.92 133 21:56 01.03.2022
3479 Clear 19 1020 28 10000 4.06 124 21:21 01.03.2022
3480 Clear 19 1020 27 10000 4.11 115 20:24 01.03.2022
3481 Clear 21 1019 24 10000 4.69 110 19:23 01.03.2022
3482 Clear 22 1019 24 10000 4.69 110 18:37 01.03.2022
3483 Clear 22 1018 23 10000 4.72 105 18:18 01.03.2022
3484 Clear 25 1018 22 10000 3.86 122 16:54 01.03.2022
3485 Clear 25 1018 22 10000 3.86 122 16:30 01.03.2022
3486 Clear 26 1017 18 10000 3.25 131 15:23 01.03.2022
3487 Clear 26 1017 18 10000 3.25 131 14:34 01.03.2022
3488 Clear 27 1017 18 10000 2.62 128 13:45 01.03.2022
3489 Clouds 27 1017 17 10000 2.66 132 13:22 01.03.2022
3490 Clouds 27 1017 18 10000 2.75 139 12:27 01.03.2022
3491 Clouds 24 1019 18 10000 2.86 134 10:32 01.03.2022
3492 Clear 21 1022 23 10000 2.46 128 08:41 01.03.2022
3493 Clear 19 1022 23 10000 2.46 128 07:40 01.03.2022
3494 Clear 12 1021 33 10000 2.23 109 04:50 01.03.2022
3495 Clear 14 1020 33 10000 1.68 83 01:48 01.03.2022
3496 Clear 15 1020 31 10000 2.77 81 00:24 01.03.2022
3497 Clear 16 1020 30 10000 3.25 73 23:19 28.02.2022
3498 Clear 18 1020 28 10000 3.59 75 21:59 28.02.2022
3499 Clear 18 1020 26 10000 3.92 75 21:24 28.02.2022
3500 Clear 20 1020 25 10000 4.27 66 19:53 28.02.2022
3501 Clear 20 1020 25 10000 4.21 61 19:27 28.02.2022
3502 Clear 21 1020 24 10000 4.77 61 18:38 28.02.2022
3503 Clear 22 1018 22 10000 4.31 59 17:24 28.02.2022
3504 Clear 23 1018 22 10000 4.31 59 16:33 28.02.2022
3505 Clear 24 1017 19 10000 2.64 68 15:23 28.02.2022
3506 Clear 25 1017 19 10000 2.64 68 14:31 28.02.2022
3507 Clear 25 1016 19 10000 2.32 72 13:34 28.02.2022
3508 Clear 24 1016 19 10000 1.94 86 12:41 28.02.2022
3509 Clear 23 1017 19 10000 2.27 73 11:44 28.02.2022
3510 Clear 22 1018 20 10000 2.36 77 10:48 28.02.2022
3511 Clear 22 1019 21 10000 2.58 65 10:20 28.02.2022
3512 Clear 21 1020 23 10000 3.12 51 09:32 28.02.2022
3513 Clear 19 1023 26 10000 5.14 30 08:29 28.02.2022
3514 Clear 18 1023 27 10000 2.57 50 07:28 28.02.2022
3515 Clear 12 1021 35 10000 2.61 17 04:44 28.02.2022
3516 Clear 12 1020 36 10000 3.18 15 04:23 28.02.2022
3517 Clear 15 1019 28 10000 3.72 38 23:27 27.02.2022
3518 Clear 16 1019 28 10000 3.72 38 22:33 27.02.2022
3519 Clear 17 1020 27 10000 3.66 29 21:51 27.02.2022
3520 Clear 18 1020 26 10000 3.74 26 20:59 27.02.2022
3521 Clear 18 1020 25 10000 3.67 31 20:27 27.02.2022
3522 Clear 19 1020 25 10000 3.67 31 19:57 27.02.2022
3523 Clear 19 1020 24 10000 3.9 35 19:26 27.02.2022
3524 Clear 20 1020 24 10000 3.9 35 18:47 27.02.2022
3525 Clear 21 1019 22 10000 4.51 36 17:55 27.02.2022
3526 Clear 23 1018 21 10000 4.46 37 16:45 27.02.2022
3527 Clear 23 1017 20 10000 4.54 31 16:21 27.02.2022
3528 Clouds 24 1016 19 10000 4.69 22 13:25 27.02.2022
3529 Clear 24 1020 17 10000 2.57 40 12:32 27.02.2022
3530 Clear 22 1022 21 10000 6.69 360 10:56 27.02.2022
3531 Clear 22 1022 21 10000 6.69 360 10:19 27.02.2022
3532 Clear 21 1022 23 10000 6.69 20 09:49 27.02.2022
3533 Clear 21 1022 23 10000 6.69 20 09:20 27.02.2022
3534 Clouds 18 1023 27 10000 5.14 100 07:37 27.02.2022
3535 Clouds 14 1019 33 10000 3.6 320 05:38 27.02.2022
3536 Clouds 17 1017 27 10000 6.68 13 01:53 27.02.2022
3537 Clear 19 1016 31 10000 6.71 8 23:23 26.02.2022
3538 Clear 21 1016 36 10000 7.16 7 21:58 26.02.2022
3539 Clear 22 1016 38 10000 6.7 7 20:59 26.02.2022
3540 Clear 22 1015 36 10000 6.52 11 20:20 26.02.2022
3541 Clear 23 1015 36 10000 6.52 11 19:49 26.02.2022
3542 Clear 23 1015 32 10000 5.48 9 19:26 26.02.2022
3543 Clear 26 1014 30 10000 4.85 26 17:52 26.02.2022
3544 Clear 26 1013 27 10000 4.19 19 17:28 26.02.2022
3545 Clear 29 1012 25 10000 3.86 12 15:57 26.02.2022
3546 Clear 29 1011 22 10000 3.85 358 15:25 26.02.2022
3547 Clear 30 1011 22 10000 3.85 358 14:55 26.02.2022
3548 Clear 30 1011 22 10000 3.85 358 14:36 26.02.2022
3549 Clear 31 1011 22 10000 3.57 352 13:24 26.02.2022
3550 Clear 30 1015 19 10000 3.09 30 12:51 26.02.2022
3551 Clear 30 1015 20 10000 3.09 310 11:29 26.02.2022
3552 Clear 30 1015 17 10000 1.54 320 10:55 26.02.2022
3553 Clear 29 1015 18 10000 2.57 310 09:18 26.02.2022
3554 Clear 25 1016 18 10000 2.57 210 07:57 26.02.2022
3555 Clouds 19 1011 19 10000 3.58 192 02:53 26.02.2022
3556 Clouds 22 1011 17 10000 3.72 164 23:31 25.02.2022
3557 Clouds 24 1012 16 10000 4.16 174 21:48 25.02.2022
3558 Clouds 24 1012 15 10000 5.8 152 21:29 25.02.2022
3559 Clouds 25 1012 15 10000 5.8 152 20:33 25.02.2022
3560 Clouds 24 1012 14 10000 5.74 147 19:39 25.02.2022
3561 Clouds 27 1012 13 10000 4.27 160 17:33 25.02.2022
3562 Clouds 28 1012 12 10000 3.98 167 16:44 25.02.2022
3563 Clouds 29 1010 11 10000 6.23 141 15:48 25.02.2022
3564 Clouds 29 1010 9 10000 6.12 137 15:23 25.02.2022
3565 Clouds 30 1010 9 10000 6.12 137 14:42 25.02.2022
3566 Clouds 30 1010 7 10000 4.29 145 13:58 25.02.2022
3567 Clouds 30 1010 7 10000 3.3 165 13:20 25.02.2022
3568 Clouds 29 1017 10 10000 4.12 170 11:28 25.02.2022
3569 Clear 27 1017 11 10000 4.12 180 10:54 25.02.2022
3570 Clear 27 1017 11 10000 4.12 180 10:23 25.02.2022
3571 Clear 26 1017 11 10000 4.12 170 09:35 25.02.2022
3572 Clear 21 1018 14 10000 2.57 140 07:44 25.02.2022
3573 Clear 16 1017 33 10000 2.06 130 06:19 25.02.2022
3574 Clear 12 1017 37 10000 1.54 140 05:36 25.02.2022
3575 Clouds 18 1014 19 10000 4.52 173 00:30 25.02.2022
3576 Clear 20 1015 17 10000 5.49 158 22:20 24.02.2022
3577 Clear 20 1015 17 10000 5.49 158 21:42 24.02.2022
3578 Clear 20 1015 16 10000 5.49 157 21:20 24.02.2022
3579 Clear 20 1015 16 10000 5.49 157 20:30 24.02.2022
3580 Clear 23 1015 13 10000 6.5 148 18:52 24.02.2022
3581 Clear 23 1015 11 10000 5.88 143 18:19 24.02.2022
3582 Clear 25 1015 11 10000 5.88 143 17:42 24.02.2022
3583 Clear 26 1014 10 10000 5.27 143 16:56 24.02.2022
3584 Clear 26 1014 10 10000 5.37 141 16:25 24.02.2022
3585 Clear 26 1014 10 10000 5.37 141 16:25 24.02.2022
3586 Clear 27 1014 10 10000 5.36 141 15:30 24.02.2022
3587 Clear 28 1013 8 10000 6.27 142 14:37 24.02.2022
3588 Clear 28 1016 9 10000 4.63 140 13:42 24.02.2022
3589 Clear 28 1016 9 10000 4.63 140 13:24 24.02.2022
3590 Clear 25 1018 12 10000 5.14 130 10:48 24.02.2022
3591 Clear 23 1019 14 10000 4.63 160 09:41 24.02.2022
3592 Clear 22 1020 16 10000 7.2 150 08:42 24.02.2022
3593 Clear 18 1019 20 10000 4.12 170 06:25 24.02.2022
3594 Clear 13 1019 35 10000 2.06 0 05:36 24.02.2022
3595 Clear 15 1017 20 10000 4.33 148 00:30 24.02.2022
3596 Clear 17 1018 19 10000 3.92 146 21:55 23.02.2022
3597 Clear 17 1018 18 10000 4.33 145 20:32 23.02.2022
3598 Clear 19 1018 17 10000 4.09 144 19:56 23.02.2022
3599 Clear 20 1017 16 10000 4.29 132 18:59 23.02.2022
3600 Clear 21 1017 16 10000 4.29 125 17:46 23.02.2022
3601 Clear 25 1016 14 10000 3.52 124 15:47 23.02.2022
3602 Clear 26 1015 12 10000 3.37 132 13:34 23.02.2022
3603 Clear 25 1017 14 10000 4.63 160 12:28 23.02.2022
3604 Clear 23 1019 14 10000 3.6 160 10:55 23.02.2022
3605 Clear 21 1020 16 10000 4.12 170 09:31 23.02.2022
3606 Clear 20 1021 15 10000 6.17 130 08:28 23.02.2022
3607 Clear 18 1021 45 10000 4.63 160 07:19 23.02.2022
3608 Clear 11 1017 27 10000 2.33 156 02:22 23.02.2022
3609 Clear 11 1017 25 10000 2.89 146 23:46 22.02.2022
3610 Clear 11 1017 24 10000 2.69 142 23:28 22.02.2022
3611 Clear 12 1018 24 10000 2.61 127 22:28 22.02.2022
3612 Clear 14 1018 24 10000 2.61 127 21:40 22.02.2022
3613 Clear 14 1018 22 10000 2.71 103 21:19 22.02.2022
3614 Clear 16 1018 22 10000 2.71 103 20:31 22.02.2022
3615 Clear 17 1018 21 10000 2.65 87 19:54 22.02.2022
3616 Clear 17 1018 20 10000 2.64 87 19:33 22.02.2022
3617 Clear 18 1017 19 10000 3.02 75 18:35 22.02.2022
3618 Clear 19 1017 17 10000 1.38 41 17:27 22.02.2022
3619 Clear 21 1017 17 10000 1.38 41 16:55 22.02.2022
3620 Clear 21 1016 16 10000 1.36 38 16:19 22.02.2022
3621 Clear 23 1016 13 10000 1.65 27 15:18 22.02.2022
3622 Clear 24 1015 13 10000 1.22 18 13:37 22.02.2022
3623 Clear 21 1021 24 10000 5.14 50 11:18 22.02.2022
3624 Clear 21 1021 17 10000 3.09 0 09:22 22.02.2022
3625 Clear 20 1021 19 10000 0.51 0 07:29 22.02.2022
3626 Clear 16 1021 27 10000 0.51 0 06:54 22.02.2022
3627 Clear 10 1019 31 10000 2.95 330 02:49 22.02.2022
3628 Clear 13 1019 29 10000 3.16 324 23:18 21.02.2022
3629 Clear 15 1020 28 10000 3.2 322 21:56 21.02.2022
3630 Clear 16 1020 27 10000 3.41 327 20:38 21.02.2022
3631 Clear 18 1019 23 10000 4.44 349 18:47 21.02.2022
3632 Clear 18 1019 22 10000 4.82 351 18:19 21.02.2022
3633 Clear 21 1017 18 10000 6.24 344 15:49 21.02.2022
3634 Clear 22 1016 14 10000 7.75 338 14:22 21.02.2022
3635 Clear 23 1016 14 10000 7.75 338 13:31 21.02.2022
3636 Clear 21 1019 14 10000 7.2 330 12:41 21.02.2022
3637 Clear 22 1016 16 10000 8.52 335 12:20 21.02.2022
3638 Clear 19 1020 19 10000 7.72 340 10:26 21.02.2022
3639 Clear 14 1021 42 10000 6.69 326 06:25 21.02.2022
3640 Clear 15 1019 44 10000 7.34 336 00:35 21.02.2022
3641 Clouds 17 1018 28 10000 6.29 316 22:32 20.02.2022
3642 Clouds 17 1018 28 10000 4.95 302 21:43 20.02.2022
3643 Clouds 17 1018 26 10000 4.93 304 21:21 20.02.2022
3644 Clouds 18 1018 26 10000 4.93 304 20:43 20.02.2022
3645 Clear 19 1018 25 10000 5.72 310 19:48 20.02.2022
3646 Clear 20 1018 24 10000 5.48 320 18:55 20.02.2022
3647 Clear 20 1018 21 10000 6.93 320 18:34 20.02.2022
3648 Clear 20 1018 21 10000 6.93 320 18:34 20.02.2022
3649 Clear 21 1017 19 10000 6.81 322 17:55 20.02.2022
3650 Clear 23 1015 14 10000 5.9 302 16:18 20.02.2022
3651 Clear 25 1014 13 10000 7.05 294 14:53 20.02.2022
3652 Clear 24 1013 12 10000 7.2 294 13:58 20.02.2022
3653 Clouds 25 1013 13 10000 5.46 292 12:35 20.02.2022
3654 Clouds 24 1013 15 10000 4.88 299 10:52 20.02.2022
3655 Clouds 24 1014 18 10000 4.84 305 10:20 20.02.2022
3656 Clouds 23 1015 20 10000 5.31 314 08:58 20.02.2022
3657 Clouds 21 1013 22 10000 4.21 290 01:19 20.02.2022
3658 Clouds 22 1013 35 10000 5.9 314 00:30 20.02.2022
3659 Clouds 23 1013 19 10000 4.92 221 23:19 19.02.2022
3660 Clouds 23 1013 20 10000 5.77 169 22:23 19.02.2022
3661 Clouds 24 1013 20 10000 5.77 169 21:39 19.02.2022
3662 Clouds 25 1012 18 10000 7.89 158 19:58 19.02.2022
3663 Clouds 25 1012 18 10000 7.89 158 19:33 19.02.2022
3664 Clear 25 1012 17 10000 7.49 149 18:38 19.02.2022
3665 Clear 26 1011 17 10000 7.56 141 17:37 19.02.2022
3666 Clear 27 1011 16 10000 5.98 153 16:34 19.02.2022
3667 Clear 28 1010 13 10000 9.07 166 15:19 19.02.2022
3668 Clear 28 1010 13 10000 9.07 166 14:52 19.02.2022
3669 Clear 28 1009 13 10000 10.43 168 13:45 19.02.2022
3670 Clear 27 1010 13 10000 10.72 171 11:39 19.02.2022
3671 Clear 25 1011 14 10000 10.88 172 10:30 19.02.2022
3672 Clear 20 1014 18 10000 10.7 162 07:55 19.02.2022
3673 Clear 16 1014 28 10000 6.65 152 04:32 19.02.2022
3674 Clear 17 1012 26 10000 6.14 152 23:38 18.02.2022
3675 Clear 17 1012 25 10000 7 149 21:53 18.02.2022
3676 Clear 18 1012 24 10000 7.09 147 20:51 18.02.2022
3677 Clear 20 1013 23 10000 6.94 145 19:54 18.02.2022
3678 Clear 22 1013 23 10000 6.3 145 18:50 18.02.2022
3679 Clear 22 1012 22 10000 6.59 141 18:22 18.02.2022
3680 Clear 23 1012 22 10000 6.59 141 17:51 18.02.2022
3681 Clear 24 1010 18 10000 7.49 159 15:22 18.02.2022
3682 Clear 24 1010 18 10000 8.18 163 13:55 18.02.2022
3683 Clear 23 1010 16 10000 8.62 160 12:53 18.02.2022
3684 Clear 23 1010 16 10000 8.62 160 12:33 18.02.2022
3685 Clear 22 1012 18 10000 8.78 160 11:29 18.02.2022
3686 Clear 20 1013 20 10000 8.84 156 10:23 18.02.2022
3687 Clear 14 1015 30 10000 7.93 145 06:57 18.02.2022
3688 Clear 12 1015 32 10000 6.66 138 05:40 18.02.2022
3689 Clear 15 1013 26 10000 4.66 130 23:31 17.02.2022
3690 Clear 16 1014 24 10000 4.89 122 21:45 17.02.2022
3691 Clear 16 1014 23 10000 5.11 112 21:19 17.02.2022
3692 Clear 17 1014 23 10000 5.11 112 20:37 17.02.2022
3693 Clear 18 1014 22 10000 5.79 103 19:48 17.02.2022
3694 Clouds 19 1013 20 10000 6 94 18:41 17.02.2022
3695 Clouds 20 1013 20 10000 6.01 94 17:50 17.02.2022
3696 Clouds 21 1012 19 10000 4.88 110 16:29 17.02.2022
3697 Clouds 23 1012 19 10000 4.88 110 15:32 17.02.2022
3698 Clouds 23 1011 17 10000 5.1 133 14:26 17.02.2022
3699 Clear 23 1011 17 10000 4.65 135 12:36 17.02.2022
3700 Clear 22 1013 17 10000 5.56 127 11:23 17.02.2022
3701 Clear 22 1013 17 10000 5.56 127 11:23 17.02.2022
3702 Clear 18 1015 20 10000 6.03 114 08:52 17.02.2022
3703 Clear 14 1013 24 10000 4.22 81 01:45 17.02.2022
3704 Clear 15 1013 21 10000 4.33 85 23:19 16.02.2022
3705 Clear 17 1013 20 10000 4.22 83 21:31 16.02.2022
3706 Clear 19 1013 18 10000 3.73 118 19:46 16.02.2022
3707 Clear 20 1012 17 10000 4.19 115 18:38 16.02.2022
3708 Clear 21 1011 16 10000 4.39 126 17:49 16.02.2022
3709 Clear 25 1011 14 10000 4.48 117 15:36 16.02.2022
3710 Clear 26 1010 12 10000 3.69 116 14:57 16.02.2022
3711 Clear 26 1010 11 10000 1.99 135 12:35 16.02.2022
3712 Clear 25 1011 12 10000 1.42 157 11:55 16.02.2022
3713 Clear 25 1012 12 10000 1.18 184 11:24 16.02.2022
3714 Clear 24 1014 13 10000 1.02 212 10:30 16.02.2022
3715 Clear 14 1016 18 10000 2.32 157 06:57 16.02.2022
3716 Clear 9 1016 23 10000 2.45 142 04:43 16.02.2022
3717 Clear 13 1015 20 10000 2.18 123 23:44 15.02.2022
3718 Clear 13 1016 19 10000 1.78 142 22:19 15.02.2022
3719 Clear 14 1016 19 10000 1.78 142 21:45 15.02.2022
3720 Clear 14 1016 18 10000 2.06 145 21:27 15.02.2022
3721 Clear 14 1016 18 10000 2.06 145 20:55 15.02.2022
3722 Clear 17 1016 18 10000 2.16 145 19:57 15.02.2022
3723 Clear 19 1017 17 10000 2.25 132 18:52 15.02.2022
3724 Clear 19 1016 17 10000 2.63 122 18:20 15.02.2022
3725 Clear 19 1016 17 10000 2.63 122 17:48 15.02.2022
3726 Clear 22 1016 16 10000 3.05 113 16:32 15.02.2022
3727 Clear 24 1015 12 10000 2.03 105 15:22 15.02.2022
3728 Clear 24 1014 12 10000 0.76 140 13:26 15.02.2022
3729 Clear 23 1015 12 10000 1.04 184 11:57 15.02.2022
3730 Clear 22 1016 13 10000 1.52 180 10:59 15.02.2022
3731 Clear 21 1018 15 10000 2.76 165 09:28 15.02.2022
3732 Clear 13 1020 17 10000 2.06 150 06:50 15.02.2022
3733 Clear 9 1018 22 10000 1.65 108 02:36 15.02.2022
3734 Clear 11 1018 20 10000 1.94 60 22:25 14.02.2022
3735 Clear 13 1019 19 10000 2.11 46 21:27 14.02.2022
3736 Clear 14 1019 19 10000 2.11 46 20:30 14.02.2022
3737 Clear 15 1018 19 10000 2.15 41 19:32 14.02.2022
3738 Clear 17 1018 17 10000 2.76 35 18:30 14.02.2022
3739 Clear 18 1018 17 10000 2.14 21 17:58 14.02.2022
3740 Clear 18 1017 16 10000 2.03 10 17:24 14.02.2022
3741 Clear 22 1017 16 10000 2.05 8 15:59 14.02.2022
3742 Clear 22 1015 14 10000 2.01 359 13:44 14.02.2022
3743 Clear 22 1015 13 10000 2.22 2 13:23 14.02.2022
3744 Clear 22 1015 13 10000 2.22 2 12:32 14.02.2022
3745 Clear 21 1016 14 10000 2.51 354 11:54 14.02.2022
3746 Clear 19 1017 15 10000 2.35 348 10:31 14.02.2022
3747 Clear 16 1019 19 10000 3.02 348 08:43 14.02.2022
3748 Clear 14 1020 22 10000 3.52 343 07:30 14.02.2022
3749 Clear 10 1018 32 10000 3.84 326 23:45 13.02.2022
3750 Clear 11 1018 31 10000 3.85 322 22:42 13.02.2022
3751 Clear 11 1019 31 10000 3.74 317 22:23 13.02.2022
3752 Clear 12 1019 31 10000 3.74 317 21:30 13.02.2022
3753 Clear 13 1019 30 10000 3.41 316 20:33 13.02.2022
3754 Clear 15 1019 28 10000 3.62 334 19:29 13.02.2022
3755 Clear 16 1019 27 10000 3.73 343 18:44 13.02.2022
3756 Clear 17 1019 26 10000 3.9 341 17:57 13.02.2022
3757 Clear 19 1017 23 10000 5.28 341 15:54 13.02.2022
3758 Clear 19 1017 21 10000 6.95 340 15:20 13.02.2022
3759 Clear 20 1016 20 10000 7.44 338 13:59 13.02.2022
3760 Clear 20 1016 20 10000 7.46 337 12:50 13.02.2022
3761 Clear 19 1017 21 10000 7.57 335 11:35 13.02.2022
3762 Clear 18 1018 22 10000 7.55 336 10:32 13.02.2022
3763 Clear 17 1019 24 10000 7.43 336 09:45 13.02.2022
3764 Clear 14 1022 33 10000 8.03 330 07:21 13.02.2022
3765 Clear 10 1021 40 10000 4.41 327 00:35 13.02.2022
3766 Clear 11 1021 40 10000 4.41 327 23:39 12.02.2022
3767 Clear 12 1021 37 10000 4.44 334 22:33 12.02.2022
3768 Clear 13 1021 31 10000 5.85 342 21:20 12.02.2022
3769 Clear 14 1021 29 10000 6.5 344 20:34 12.02.2022
3770 Clear 14 1021 31 10000 6.66 344 19:27 12.02.2022
3771 Clear 15 1021 31 10000 6.66 344 18:53 12.02.2022
3772 Clear 15 1021 29 10000 6.51 346 18:35 12.02.2022
3773 Clear 17 1019 30 10000 7.03 346 16:58 12.02.2022
3774 Clear 17 1019 29 10000 6.87 344 16:25 12.02.2022
3775 Clear 19 1019 29 10000 6.87 344 15:50 12.02.2022
3776 Clear 19 1018 27 10000 7.34 342 14:31 12.02.2022
3777 Clouds 20 1017 26 10000 7.21 342 13:19 12.02.2022
3778 Clouds 17 1018 26 10000 6.97 351 10:41 12.02.2022
3779 Clouds 16 1019 27 10000 7.29 356 09:39 12.02.2022
3780 Clouds 16 1020 29 10000 7.83 357 09:20 12.02.2022
3781 Clouds 16 1020 30 10000 7.77 358 08:18 12.02.2022
3782 Clouds 16 1020 30 10000 7.77 358 08:18 12.02.2022
3783 Clouds 16 1020 30 10000 7.77 358 08:18 12.02.2022
3784 Clouds 13 1020 35 10000 7.33 3 05:33 12.02.2022
3785 Clouds 13 1018 38 10000 5.66 14 04:27 12.02.2022
3786 Clouds 14 1016 43 10000 5.85 8 02:18 12.02.2022
3787 Clear 16 1015 41 10000 4.79 28 22:29 11.02.2022
3788 Clear 17 1015 41 10000 4.79 28 21:55 11.02.2022
3789 Clear 18 1015 37 10000 4.98 39 20:41 11.02.2022
3790 Clear 19 1015 34 10000 5.76 35 19:46 11.02.2022
3791 Clear 19 1015 30 10000 5.01 19 19:26 11.02.2022
3792 Clear 22 1014 22 10000 2.33 16 17:55 11.02.2022
3793 Clear 22 1012 17 10000 2.62 165 17:25 11.02.2022
3794 Clear 23 1012 15 10000 3.68 199 16:22 11.02.2022
3795 Clear 28 1011 13 10000 4.28 215 14:43 11.02.2022
3796 Clear 28 1011 12 10000 5.21 225 14:21 11.02.2022
3797 Clear 28 1011 12 10000 5.21 225 13:57 11.02.2022
3798 Clear 28 1011 12 10000 5.21 225 13:39 11.02.2022
3799 Clear 26 1012 15 10000 6.15 244 11:42 11.02.2022
3800 Clear 24 1014 13 10000 6.1 222 09:58 11.02.2022
3801 Clear 21 1015 13 10000 5.7 217 08:49 11.02.2022
3802 Clear 21 1016 15 10000 4.85 210 08:26 11.02.2022
3803 Clear 19 1016 18 10000 3.6 205 07:18 11.02.2022
3804 Clear 17 1014 24 10000 5.89 167 02:26 11.02.2022
3805 Clear 18 1014 24 10000 6.3 166 00:52 11.02.2022
3806 Clear 19 1014 23 10000 6.16 162 22:51 10.02.2022
3807 Clear 20 1015 22 10000 6.2 160 21:46 10.02.2022
3808 Clear 20 1015 22 10000 6.23 159 20:59 10.02.2022
3809 Clear 20 1015 22 10000 6.23 159 20:35 10.02.2022
3810 Clear 21 1016 21 10000 6.03 157 19:26 10.02.2022
3811 Clear 21 1015 21 10000 6.36 155 18:45 10.02.2022
3812 Clear 22 1014 20 10000 6.36 158 17:26 10.02.2022
3813 Clear 23 1014 20 10000 6.36 158 16:50 10.02.2022
3814 Clear 25 1014 19 10000 6.69 152 15:51 10.02.2022
3815 Clear 25 1014 19 10000 6.69 152 15:30 10.02.2022
3816 Clear 26 1013 18 10000 7.1 153 14:48 10.02.2022
3817 Clear 26 1013 17 10000 7.65 153 14:24 10.02.2022
3818 Clear 25 1013 16 10000 6.52 156 13:29 10.02.2022
3819 Clear 25 1013 16 10000 6.52 156 12:45 10.02.2022
3820 Clear 24 1013 15 10000 5.6 157 11:33 10.02.2022
3821 Clear 23 1014 15 10000 5.63 162 10:44 10.02.2022
3822 Clear 21 1016 16 10000 5.35 165 09:57 10.02.2022
3823 Clear 21 1017 17 10000 5.28 168 09:23 10.02.2022
3824 Clear 18 1018 23 10000 5.38 161 07:19 10.02.2022
3825 Clear 12 1018 32 10000 4.36 155 04:23 10.02.2022
3826 Clear 13 1017 31 10000 4.31 161 01:48 10.02.2022
3827 Clear 14 1017 30 10000 4.47 159 00:44 10.02.2022
3828 Clear 14 1018 30 10000 4.25 153 00:26 10.02.2022
3829 Clear 14 1018 29 10000 4.32 149 23:22 09.02.2022
3830 Clear 15 1018 29 10000 4.32 149 22:35 09.02.2022
3831 Clear 14 1019 28 10000 4.32 144 21:50 09.02.2022
3832 Clear 14 1019 26 10000 4.11 145 21:28 09.02.2022
3833 Clear 15 1019 26 10000 4.11 145 20:47 09.02.2022
3834 Clear 15 1019 25 10000 3.9 141 20:24 09.02.2022
3835 Clear 17 1019 25 10000 3.9 141 19:45 09.02.2022
3836 Clear 17 1019 24 10000 3.86 135 19:22 09.02.2022
3837 Clear 19 1018 23 10000 3.87 132 17:35 09.02.2022
3838 Clear 20 1018 22 10000 4.12 133 16:32 09.02.2022
3839 Clear 22 1017 21 10000 3.82 137 15:33 09.02.2022
3840 Clear 23 1017 18 10000 2.94 134 14:25 09.02.2022
3841 Clear 23 1018 18 10000 2.25 136 12:28 09.02.2022
3842 Clear 21 1019 19 10000 2.31 147 10:47 09.02.2022
3843 Clear 18 1020 21 10000 2.24 151 09:59 09.02.2022
3844 Clear 18 1022 23 10000 2.27 147 09:23 09.02.2022
3845 Clear 17 1022 23 10000 2.27 147 08:58 09.02.2022
3846 Clear 15 1023 25 10000 2.18 144 07:47 09.02.2022
3847 Clear 8 1023 31 10000 1.68 151 05:30 09.02.2022
3848 Clear 8 1023 31 10000 1.68 151 05:30 09.02.2022
3849 Clear 8 1022 37 10000 1.37 124 03:50 09.02.2022
3850 Clear 10 1021 35 10000 1.31 95 00:23 09.02.2022
3851 Clear 11 1021 35 10000 1.31 95 23:30 08.02.2022
3852 Clear 12 1022 33 10000 1.64 74 22:46 08.02.2022
3853 Clear 12 1022 31 10000 2.12 63 22:21 08.02.2022
3854 Clear 13 1022 31 10000 2.12 63 21:38 08.02.2022
3855 Clear 13 1022 30 10000 2.62 54 21:19 08.02.2022
3856 Clear 14 1022 30 10000 2.62 54 20:41 08.02.2022
3857 Clear 15 1022 28 10000 3.1 46 19:45 08.02.2022
3858 Clear 16 1022 27 10000 3.51 41 18:34 08.02.2022
3859 Clear 18 1021 24 10000 3.21 15 17:36 08.02.2022
3860 Clear 21 1021 23 10000 3.04 8 15:55 08.02.2022
3861 Clear 21 1020 20 10000 3.36 359 15:29 08.02.2022
3862 Clear 21 1020 19 10000 3.33 353 13:59 08.02.2022
3863 Clear 21 1020 19 10000 2.83 348 12:40 08.02.2022
3864 Clear 20 1021 22 10000 2.31 340 11:20 08.02.2022
3865 Clear 17 1022 24 10000 1.93 343 09:59 08.02.2022
3866 Clear 17 1024 27 10000 1.85 347 08:56 08.02.2022
3867 Clear 14 1025 34 10000 1.37 345 07:27 08.02.2022
3868 Clear 10 1024 41 10000 2.02 337 04:40 08.02.2022
3869 Clear 10 1024 41 10000 2.02 344 04:22 08.02.2022
3870 Clear 9 1024 41 10000 2.02 344 03:36 08.02.2022
3871 Clear 9 1023 40 10000 2.2 350 03:18 08.02.2022
3872 Clear 9 1023 40 10000 2.2 350 02:59 08.02.2022
3873 Clear 9 1023 40 10000 2.2 350 02:37 08.02.2022
3874 Clear 9 1023 39 10000 2.68 355 02:18 08.02.2022
3875 Clear 10 1023 39 10000 2.68 355 01:45 08.02.2022
3876 Clear 10 1022 38 10000 2.9 360 01:25 08.02.2022
3877 Clear 11 1022 38 10000 3.07 356 00:55 08.02.2022
3878 Clear 11 1022 38 10000 3.07 356 00:36 08.02.2022
3879 Clear 11 1022 37 10000 3.02 357 23:45 07.02.2022
3880 Clear 11 1023 36 10000 2.99 359 23:18 07.02.2022
3881 Clear 12 1023 36 10000 2.99 359 22:59 07.02.2022
3882 Clear 12 1023 35 10000 3.07 3 22:19 07.02.2022
3883 Clear 13 1023 35 10000 3.07 3 21:51 07.02.2022
3884 Clear 13 1023 33 10000 3.3 12 21:28 07.02.2022
3885 Clear 13 1023 33 10000 3.3 12 20:52 07.02.2022
3886 Clear 13 1023 33 10000 3.3 12 20:34 07.02.2022
3887 Clear 15 1023 31 10000 3.67 12 19:47 07.02.2022
3888 Clear 15 1023 29 10000 3.3 7 18:58 07.02.2022
3889 Clear 17 1022 27 10000 3.6 9 17:38 07.02.2022
3890 Clear 18 1021 26 10000 4.01 12 16:52 07.02.2022
3891 Clear 19 1021 24 10000 4.22 6 15:48 07.02.2022
3892 Clear 20 1020 20 10000 4.66 346 14:19 07.02.2022
3893 Clear 21 1020 22 10000 4.36 337 13:27 07.02.2022
3894 Clear 19 1020 23 10000 3.98 334 12:36 07.02.2022
3895 Clear 19 1020 23 10000 3.99 334 11:50 07.02.2022
3896 Clear 19 1021 25 10000 3.45 334 11:24 07.02.2022
3897 Clear 19 1021 25 10000 3.45 334 10:42 07.02.2022
3898 Clear 19 1023 27 10000 2.88 335 10:24 07.02.2022
3899 Clear 18 1025 24 10000 0 0 09:52 07.02.2022
3900 Clear 18 1025 24 10000 0 0 09:18 07.02.2022
3901 Clear 16 1025 29 10000 0 0 07:53 07.02.2022
3902 Clear 14 1025 33 10000 0 0 06:34 07.02.2022
3903 Clear 9 1024 46 10000 1.17 358 04:49 07.02.2022
3904 Clear 9 1023 45 10000 2.54 4 02:38 07.02.2022
3905 Clear 10 1022 41 10000 2.78 13 00:24 07.02.2022
3906 Clear 10 1023 41 10000 3 15 23:20 06.02.2022
3907 Clear 11 1023 41 10000 3 15 22:42 06.02.2022
3908 Clear 11 1023 40 10000 3.33 17 21:47 06.02.2022
3909 Clear 11 1023 39 10000 3.5 20 21:21 06.02.2022
3910 Clear 12 1023 39 10000 3.5 20 20:48 06.02.2022
3911 Clear 12 1023 39 10000 3.68 21 20:24 06.02.2022
3912 Clear 13 1023 37 10000 3.89 17 19:22 06.02.2022
3913 Clear 14 1022 36 10000 4.19 14 18:33 06.02.2022
3914 Clear 15 1021 31 10000 4.31 1 17:37 06.02.2022
3915 Clear 17 1021 31 10000 4.31 1 16:52 06.02.2022
3916 Clear 17 1021 29 10000 4.43 354 16:20 06.02.2022
3917 Clear 19 1021 29 10000 4.43 354 15:47 06.02.2022
3918 Clear 19 1020 26 10000 5.51 351 15:24 06.02.2022
3919 Clear 19 1020 24 10000 5.62 349 14:19 06.02.2022
3920 Clear 19 1019 24 10000 5.57 347 13:21 06.02.2022
3921 Clear 19 1019 24 10000 5.98 343 12:27 06.02.2022
3922 Clear 17 1022 27 10000 5.14 340 10:33 06.02.2022
3923 Clear 16 1023 31 10000 6.17 340 09:48 06.02.2022
3924 Clear 15 1024 33 10000 5.14 350 08:41 06.02.2022
3925 Clear 14 1023 33 10000 3.6 340 07:31 06.02.2022
3926 Clear 11 1022 40 10000 0 0 05:28 06.02.2022
3927 Clear 10 1020 37 10000 3.66 342 02:25 06.02.2022
3928 Clear 11 1020 37 10000 3.95 353 00:33 06.02.2022
3929 Clear 11 1020 35 10000 4.38 355 23:39 05.02.2022
3930 Clear 13 1020 32 10000 4.63 357 21:48 05.02.2022
3931 Clear 13 1020 31 10000 4.62 1 20:47 05.02.2022
3932 Clear 13 1019 30 10000 4.82 3 20:22 05.02.2022
3933 Clear 14 1019 30 10000 4.82 3 19:42 05.02.2022
3934 Clear 15 1018 26 10000 5.44 2 18:37 05.02.2022
3935 Clear 16 1018 26 10000 5.44 2 17:35 05.02.2022
3936 Clear 17 1016 22 10000 5.97 347 16:24 05.02.2022
3937 Clear 19 1016 22 10000 5.97 347 15:31 05.02.2022
3938 Clear 20 1014 20 10000 6.06 346 13:55 05.02.2022
3939 Clear 21 1016 24 8000 7.2 10 12:46 05.02.2022
3940 Clear 20 1018 24 7000 8.23 350 11:47 05.02.2022
3941 Clear 20 1018 26 8000 8.75 10 10:44 05.02.2022
3942 Clear 18 1018 32 10000 8.23 360 09:51 05.02.2022
3943 Clear 17 1018 31 10000 7.72 340 08:47 05.02.2022
3944 Clouds 16 1017 31 8000 7.2 310 07:27 05.02.2022
3945 Clouds 16 1016 33 7000 7.72 290 06:55 05.02.2022
3946 Clouds 20 1012 36 10000 8.82 319 02:43 05.02.2022
3947 Clouds 20 1010 54 10000 6.21 272 01:18 05.02.2022
3948 Clouds 18 1011 48 10000 6.56 282 00:36 05.02.2022
3949 Clouds 19 1010 61 10000 5.2 283 23:33 04.02.2022
3950 Clouds 20 1011 55 10000 5.82 277 22:45 04.02.2022
3951 Clouds 22 1010 35 10000 3.88 282 21:36 04.02.2022
3952 Clear 22 1010 23 10000 2.68 248 21:18 04.02.2022
3953 Clear 21 1010 23 10000 2.68 248 20:36 04.02.2022
3954 Clear 21 1010 20 10000 3.01 213 19:19 04.02.2022
3955 Clear 26 1009 18 10000 3.76 180 16:44 04.02.2022
3956 Clear 28 1009 15 10000 4.42 212 15:19 04.02.2022
3957 Clear 29 1009 15 10000 4.42 212 14:40 04.02.2022
3958 Clear 28 1012 16 10000 4.12 240 12:43 04.02.2022
3959 Clear 27 1013 21 10000 5.66 220 11:45 04.02.2022
3960 Clear 26 1014 21 10000 5.14 240 10:55 04.02.2022
3961 Clear 26 1015 22 10000 5.66 250 09:56 04.02.2022
3962 Clear 17 1017 36 10000 2.57 210 07:56 04.02.2022
3963 Clouds 16 1014 37 10000 2.05 197 03:31 04.02.2022
3964 Clouds 16 1014 37 10000 2.5 193 02:36 04.02.2022
3965 Clear 17 1014 36 10000 4.37 160 23:40 03.02.2022
3966 Clear 18 1015 36 10000 4.49 164 22:50 03.02.2022
3967 Clear 19 1016 35 10000 5.03 167 21:51 03.02.2022
3968 Clear 19 1016 34 10000 5.55 161 21:22 03.02.2022
3969 Clear 19 1017 33 10000 5.62 159 20:22 03.02.2022
3970 Clear 19 1017 33 10000 5.62 159 19:42 03.02.2022
3971 Clear 20 1017 31 10000 4.81 156 18:56 03.02.2022
3972 Clear 21 1017 30 10000 4.39 159 17:55 03.02.2022
3973 Clear 23 1016 29 10000 4.54 157 16:48 03.02.2022
3974 Clear 24 1016 24 10000 6.15 146 14:59 03.02.2022
3975 Clear 25 1016 22 10000 6.4 151 13:45 03.02.2022
3976 Clear 22 1020 20 10000 3.6 120 11:47 03.02.2022
3977 Clear 18 1022 27 10000 2.06 160 08:55 03.02.2022
3978 Clear 16 1022 31 10000 4.12 150 07:41 03.02.2022
3979 Clear 11 1022 38 10000 2.25 146 00:47 03.02.2022
3980 Clear 11 1022 37 10000 2.53 133 00:22 03.02.2022
3981 Clear 12 1022 36 10000 2.56 117 22:38 02.02.2022
3982 Clear 12 1022 36 10000 2.59 100 21:45 02.02.2022
3983 Clear 12 1023 35 10000 2.53 81 21:27 02.02.2022
3984 Clear 13 1023 34 10000 3.03 75 20:20 02.02.2022
3985 Clear 14 1023 34 10000 3.03 75 19:45 02.02.2022
3986 Clear 15 1023 31 10000 3.55 71 18:55 02.02.2022
3987 Clear 15 1023 30 10000 3.87 71 18:23 02.02.2022
3988 Clear 16 1022 28 10000 3.92 66 17:20 02.02.2022
3989 Clear 17 1022 28 10000 3.92 66 16:48 02.02.2022
3990 Clear 19 1021 23 10000 3.76 49 14:42 02.02.2022
3991 Clear 19 1022 22 10000 4.12 30 12:29 02.02.2022
3992 Clear 17 1023 29 10000 5.66 10 11:44 02.02.2022
3993 Clear 17 1023 29 10000 5.66 10 11:24 02.02.2022
3994 Clear 13 1026 50 10000 4.12 350 08:26 02.02.2022
3995 Clear 10 1022 39 10000 4.14 5 01:37 02.02.2022
3996 Clear 13 1022 31 10000 4.79 7 22:29 01.02.2022
3997 Clear 14 1022 29 10000 4.71 6 20:49 01.02.2022
3998 Clear 16 1022 26 10000 5.6 4 18:55 01.02.2022
3999 Clear 18 1020 19 10000 6.5 3 16:46 01.02.2022
4000 Clear 20 1019 17 10000 6.16 357 15:44 01.02.2022
4001 Clouds 20 1018 19 8000 6.17 330 12:49 01.02.2022
4002 Clouds 20 1018 21 8000 6.17 340 11:51 01.02.2022
4003 Clouds 19 1020 27 10000 7.72 340 08:37 01.02.2022
4004 Clouds 17 1013 43 10000 3.32 187 00:28 01.02.2022
4005 Clouds 18 1013 43 10000 3.39 186 23:36 31.01.2022
4006 Clouds 18 1013 43 10000 4.06 196 22:30 31.01.2022
4007 Clouds 19 1012 39 10000 6.65 158 21:34 31.01.2022
4008 Clouds 19 1013 40 10000 6.83 166 20:34 31.01.2022
4009 Clear 19 1012 39 10000 8.36 155 19:46 31.01.2022
4010 Clear 20 1012 37 10000 8.53 150 18:31 31.01.2022
4011 Clear 20 1013 35 10000 6.43 147 17:55 31.01.2022
4012 Clear 21 1012 33 10000 5.69 148 16:58 31.01.2022
4013 Clear 22 1012 31 10000 5.6 151 15:46 31.01.2022
4014 Clear 22 1011 28 10000 6.98 158 14:49 31.01.2022
4015 Clear 22 1014 28 7000 7.2 170 12:57 31.01.2022
4016 Clear 22 1014 28 7000 7.2 170 12:36 31.01.2022
4017 Clear 18 1017 32 10000 7.72 130 10:58 31.01.2022
4018 Clear 18 1017 32 10000 7.72 130 10:37 31.01.2022
4019 Clear 17 1018 34 10000 7.72 150 09:35 31.01.2022
4020 Clear 16 1019 33 10000 6.69 120 08:53 31.01.2022
4021 Clear 16 1019 33 10000 6.69 120 08:20 31.01.2022
4022 Clear 14 1019 38 10000 5.14 130 07:29 31.01.2022
4023 Clear 12 1018 40 10000 3.09 130 05:24 31.01.2022
4024 Clear 13 1017 44 10000 4.42 132 23:37 30.01.2022
4025 Clear 13 1017 43 10000 4.77 131 22:31 30.01.2022
4026 Clear 15 1017 42 10000 5.3 133 21:44 30.01.2022
4027 Clear 15 1017 42 10000 5.3 133 21:44 30.01.2022
4028 Clear 15 1017 38 10000 6.07 126 21:22 30.01.2022
4029 Clear 15 1017 38 10000 6.07 126 20:51 30.01.2022
4030 Clear 15 1017 38 10000 6.07 126 20:30 30.01.2022
4031 Clear 16 1018 38 10000 6.15 121 19:54 30.01.2022
4032 Clear 16 1018 37 10000 5.46 117 18:51 30.01.2022
4033 Clear 16 1018 36 10000 4.55 111 18:21 30.01.2022
4034 Clear 17 1018 36 10000 4.55 111 17:30 30.01.2022
4035 Clear 17 1017 35 10000 4.5 108 16:42 30.01.2022
4036 Clear 17 1017 33 10000 4.29 112 16:22 30.01.2022
4037 Clear 18 1017 33 10000 4.29 112 15:53 30.01.2022
4038 Clear 18 1017 33 10000 4.29 112 15:32 30.01.2022
4039 Clear 18 1016 30 10000 4.1 124 14:47 30.01.2022
4040 Clear 18 1016 28 10000 4.07 138 13:37 30.01.2022
4041 Clear 17 1018 34 6000 4.12 160 12:41 30.01.2022
4042 Clear 16 1020 36 9000 4.63 150 10:38 30.01.2022
4043 Clear 14 1021 44 9000 4.12 130 09:57 30.01.2022
4044 Clear 14 1021 44 9000 4.12 130 09:21 30.01.2022
4045 Clear 11 1022 50 8000 4.63 120 07:56 30.01.2022
4046 Clear 9 1020 42 10000 3.46 101 02:43 30.01.2022
4047 Clear 9 1020 41 10000 3.61 98 01:52 30.01.2022
4048 Clear 11 1020 41 10000 4.16 105 23:45 29.01.2022
4049 Clear 11 1020 39 10000 4.56 107 22:37 29.01.2022
4050 Clear 12 1020 35 10000 5.05 114 21:27 29.01.2022
4051 Clear 12 1020 35 10000 5.05 114 20:48 29.01.2022
4052 Clear 13 1020 33 10000 5.04 116 19:47 29.01.2022
4053 Clear 13 1021 32 10000 4.61 114 19:25 29.01.2022
4054 Clear 14 1020 26 10000 4.34 105 18:32 29.01.2022
4055 Clear 16 1020 26 10000 4.34 105 17:41 29.01.2022
4056 Clear 16 1020 24 10000 4.52 108 16:42 29.01.2022
4057 Clear 18 1018 21 10000 5.32 132 14:52 29.01.2022
4058 Clear 17 1018 20 10000 5.19 140 13:46 29.01.2022
4059 Clear 17 1018 20 10000 5.2 148 13:25 29.01.2022
4060 Clear 17 1020 19 7000 2.57 90 12:40 29.01.2022
4061 Clear 17 1021 19 8000 4.63 130 11:38 29.01.2022
4062 Clear 15 1022 21 7000 3.09 120 10:21 29.01.2022
4063 Clear 12 1024 30 6000 2.06 90 07:24 29.01.2022
4064 Clear 9 1021 35 10000 2.41 88 01:35 29.01.2022
4065 Clear 10 1021 35 10000 2.67 86 00:31 29.01.2022
4066 Clear 11 1022 34 10000 3.17 75 22:53 28.01.2022
4067 Clear 11 1022 34 10000 3.37 67 22:29 28.01.2022
4068 Clear 11 1022 34 10000 3.37 67 21:53 28.01.2022
4069 Clear 11 1023 33 10000 3.26 53 20:31 28.01.2022
4070 Clear 12 1023 32 10000 3.35 51 19:44 28.01.2022
4071 Clear 13 1023 31 10000 3.55 54 18:48 28.01.2022
4072 Clear 13 1023 29 10000 4.16 48 17:43 28.01.2022
4073 Clear 14 1021 24 10000 5.09 32 15:28 28.01.2022
4074 Clear 15 1021 23 10000 4.66 31 14:18 28.01.2022
4075 Dust 16 1023 21 4000 5.66 20 12:33 28.01.2022
4076 Dust 16 1024 23 4000 7.2 10 11:38 28.01.2022
4077 Dust 13 1026 26 4000 6.17 10 09:59 28.01.2022
4078 Dust 12 1026 24 4000 5.66 30 08:41 28.01.2022
4079 Dust 11 1025 25 3000 7.2 360 07:36 28.01.2022
4080 Dust 11 1024 30 4000 5.14 30 05:23 28.01.2022
4081 Clear 10 1023 35 10000 6.02 9 03:45 28.01.2022
4082 Clear 10 1022 33 10000 6.04 16 02:22 28.01.2022
4083 Clear 11 1021 32 10000 6.5 15 01:33 28.01.2022
4084 Clear 12 1020 30 10000 6.23 20 23:30 27.01.2022
4085 Clear 14 1020 30 10000 6.23 16 21:49 27.01.2022
4086 Clear 14 1019 29 10000 6.13 13 21:29 27.01.2022
4087 Clear 14 1019 29 10000 6.13 13 20:44 27.01.2022
4088 Clear 16 1019 25 10000 6.96 2 18:55 27.01.2022
4089 Clear 17 1019 23 10000 7.56 358 17:56 27.01.2022
4090 Clear 21 1016 22 10000 7.31 350 14:42 27.01.2022
4091 Clear 22 1015 21 10000 6.71 340 13:36 27.01.2022
4092 Dust 21 1017 18 4000 8.23 350 12:40 27.01.2022
4093 Clear 25 1017 27 10000 4.63 270 10:23 27.01.2022
4094 Clear 23 1018 12 10000 5.14 220 08:56 27.01.2022
4095 Clear 23 1018 12 10000 5.14 220 08:31 27.01.2022
4096 Clear 14 1017 28 10000 1.03 0 05:59 27.01.2022
4097 Clear 16 1014 31 10000 3.37 199 02:36 27.01.2022
4098 Clear 19 1014 29 10000 7.09 169 23:32 26.01.2022
4099 Clear 21 1014 29 10000 7.14 169 21:57 26.01.2022
4100 Clear 21 1014 29 10000 7.14 169 21:33 26.01.2022
4101 Clear 21 1014 29 10000 6.77 165 20:36 26.01.2022
4102 Clear 21 1014 29 10000 6.78 166 19:55 26.01.2022
4103 Clear 21 1014 29 10000 6.39 163 19:20 26.01.2022
4104 Clear 22 1014 29 10000 6.24 162 18:40 26.01.2022
4105 Clear 23 1014 28 10000 5.78 165 17:49 26.01.2022
4106 Clear 23 1014 26 10000 5.75 167 17:21 26.01.2022
4107 Clear 24 1013 25 10000 6.06 162 16:27 26.01.2022
4108 Clear 25 1013 25 10000 6.06 162 15:47 26.01.2022
4109 Clear 28 1012 18 10000 7.38 169 13:24 26.01.2022
4110 Clear 26 1015 19 10000 7.72 150 11:48 26.01.2022
4111 Clear 25 1017 20 10000 8.23 160 10:20 26.01.2022
4112 Clear 23 1018 21 10000 6.17 160 09:43 26.01.2022
4113 Clear 18 1019 32 10000 5.14 160 07:32 26.01.2022
4114 Clear 14 1017 40 10000 4.77 146 00:48 26.01.2022
4115 Clear 14 1017 40 10000 4.77 146 00:48 26.01.2022
4116 Clear 14 1018 43 10000 4.4 138 23:54 25.01.2022
4117 Clear 15 1018 43 10000 4.2 131 22:50 25.01.2022
4118 Clear 15 1018 43 10000 4.2 131 22:50 25.01.2022
4119 Clear 15 1018 41 10000 4.01 126 22:21 25.01.2022
4120 Clear 15 1018 41 10000 4.01 126 21:41 25.01.2022
4121 Clear 16 1018 39 10000 4.33 126 20:46 25.01.2022
4122 Clear 16 1018 37 10000 4.3 117 20:22 25.01.2022
4123 Clear 17 1018 37 10000 4.3 117 19:44 25.01.2022
4124 Clear 18 1018 35 10000 3.98 116 18:22 25.01.2022
4125 Clear 19 1018 35 10000 3.98 116 17:42 25.01.2022
4126 Clear 21 1018 33 10000 3.64 117 16:35 25.01.2022
4127 Clear 23 1017 32 10000 3.32 120 15:44 25.01.2022
4128 Clear 23 1016 28 10000 3.49 123 15:26 25.01.2022
4129 Clear 24 1016 28 10000 3.49 123 14:57 25.01.2022
4130 Clear 24 1016 28 10000 3.49 123 14:57 25.01.2022
4131 Clear 23 1016 26 10000 3.42 130 13:18 25.01.2022
4132 Clear 20 1018 27 10000 2.4 97 10:00 25.01.2022
4133 Clear 18 1022 22 10000 2.57 20 08:32 25.01.2022
4134 Clear 16 1022 29 10000 1.54 320 07:28 25.01.2022
4135 Clear 14 1022 38 10000 1.03 0 06:22 25.01.2022
4136 Clear 12 1019 54 10000 3.57 18 01:34 25.01.2022
4137 Clear 14 1018 42 10000 3.73 29 23:36 24.01.2022
4138 Clear 14 1018 32 10000 2.65 25 23:18 24.01.2022
4139 Clear 15 1018 32 10000 2.6 25 22:58 24.01.2022
4140 Clear 15 1018 32 10000 2.6 25 22:40 24.01.2022
4141 Clear 17 1018 30 10000 1.62 137 21:43 24.01.2022
4142 Clear 17 1018 29 10000 2.01 152 21:25 24.01.2022
4143 Clear 17 1018 28 10000 2.05 147 20:28 24.01.2022
4144 Clear 18 1018 28 10000 2.05 147 19:39 24.01.2022
4145 Clear 19 1018 27 10000 2.49 144 18:50 24.01.2022
4146 Clear 21 1018 26 10000 3.28 145 17:43 24.01.2022
4147 Clear 21 1017 25 10000 1.89 168 17:23 24.01.2022
4148 Clear 22 1017 25 10000 1.89 168 16:32 24.01.2022
4149 Clear 24 1016 24 10000 1.85 251 15:52 24.01.2022
4150 Clear 24 1015 20 10000 4.21 259 14:27 24.01.2022
4151 Clear 25 1017 14 10000 3.09 240 12:36 24.01.2022
4152 Clear 24 1018 16 10000 2.57 0 11:45 24.01.2022
4153 Clear 23 1019 16 10000 2.06 0 10:23 24.01.2022
4154 Clear 21 1020 16 10000 2.06 210 09:46 24.01.2022
4155 Clear 19 1021 16 10000 1.54 230 08:18 24.01.2022
4156 Clear 11 1017 30 10000 3.48 152 02:29 24.01.2022
4157 Clear 11 1017 29 10000 3.72 151 01:27 24.01.2022
4158 Clear 11 1017 29 10000 3.72 151 01:27 24.01.2022
4159 Clouds 12 1017 29 10000 3.95 148 00:32 24.01.2022
4160 Clouds 11 1017 29 10000 3.81 147 23:46 23.01.2022
4161 Clear 12 1018 30 10000 3.88 150 22:21 23.01.2022
4162 Clear 12 1018 30 10000 3.88 150 21:41 23.01.2022
4163 Clear 12 1018 30 10000 3.92 144 21:23 23.01.2022
4164 Clear 14 1019 29 10000 4.02 145 20:23 23.01.2022
4165 Clear 15 1019 28 10000 4.05 147 18:56 23.01.2022
4166 Clear 15 1018 27 10000 3.96 143 18:24 23.01.2022
4167 Clear 17 1018 25 10000 3.95 137 17:25 23.01.2022
4168 Clear 18 1017 23 10000 4.27 124 16:18 23.01.2022
4169 Clear 20 1017 21 10000 4.13 124 14:52 23.01.2022
4170 Clear 20 1017 20 10000 3.12 144 14:19 23.01.2022
4171 Clear 20 1018 11 10000 4.12 160 12:46 23.01.2022
4172 Clear 20 1018 11 10000 4.12 160 12:21 23.01.2022
4173 Clear 19 1020 12 10000 4.63 150 11:27 23.01.2022
4174 Clear 17 1021 14 10000 3.6 160 10:58 23.01.2022
4175 Clear 17 1021 14 10000 3.6 160 10:25 23.01.2022
4176 Clear 15 1022 15 10000 3.09 160 09:32 23.01.2022
4177 Clear 19 1022 68 10000 4.12 160 08:50 23.01.2022
4178 Clear 8 1021 29 10000 2.96 158 03:59 23.01.2022
4179 Clear 7 1020 28 10000 3.04 152 01:40 23.01.2022
4180 Clear 8 1021 27 10000 2.83 143 00:47 23.01.2022
4181 Clear 8 1021 27 10000 2.92 139 00:18 23.01.2022
4182 Clear 9 1021 27 10000 3.05 131 22:55 22.01.2022
4183 Clear 9 1021 27 10000 3.05 131 22:33 22.01.2022
4184 Clear 10 1022 25 10000 3.33 124 20:47 22.01.2022
4185 Clear 11 1022 24 10000 2.99 107 19:46 22.01.2022
4186 Clear 12 1022 22 10000 3.11 106 18:41 22.01.2022
4187 Clear 12 1022 20 10000 2.88 106 17:49 22.01.2022
4188 Clear 12 1022 20 10000 2.88 106 17:31 22.01.2022
4189 Clear 12 1022 19 10000 2.42 92 16:54 22.01.2022
4190 Clear 13 1021 18 10000 2.06 83 15:45 22.01.2022
4191 Clear 14 1021 15 10000 1.77 74 14:56 22.01.2022
4192 Clear 14 1021 14 10000 1.23 75 13:31 22.01.2022
4193 Clear 13 1021 15 10000 0.61 77 12:40 22.01.2022
4194 Clear 13 1021 15 10000 0.45 106 12:20 22.01.2022
4195 Clear 11 1023 16 10000 0.66 36 10:55 22.01.2022
4196 Clear 11 1025 17 10000 1.25 21 10:26 22.01.2022
4197 Clear 9 1026 20 10000 1.55 10 09:25 22.01.2022
4198 Clear 7 1026 20 10000 1.55 10 08:50 22.01.2022
4199 Clear 4 1027 26 10000 2.2 349 06:56 22.01.2022
4200 Clear 3 1027 35 10000 3.23 339 03:26 22.01.2022
4201 Clear 4 1027 33 10000 3.43 342 00:31 22.01.2022
4202 Clear 4 1027 31 10000 3.18 347 23:21 21.01.2022
4203 Clear 5 1028 30 10000 2.84 342 22:19 21.01.2022
4204 Clear 7 1029 27 10000 3.2 356 19:52 21.01.2022
4205 Clear 7 1028 24 10000 4.84 8 18:21 21.01.2022
4206 Clear 9 1027 22 10000 5.02 10 16:54 21.01.2022
4207 Clear 11 1026 18 10000 5.63 6 15:24 21.01.2022
4208 Clear 11 1025 14 10000 6.17 358 12:53 21.01.2022
4209 Clear 12 1026 15 10000 6.56 356 11:42 21.01.2022
4210 Clear 12 1027 16 10000 6.91 355 11:23 21.01.2022
4211 Clear 9 1030 20 10000 6.89 356 09:26 21.01.2022
4212 Clear 9 1031 23 10000 7.36 357 08:20 21.01.2022
4213 Clear 5 1029 41 10000 6.96 356 04:36 21.01.2022
4214 Clear 9 1026 49 10000 8.96 356 22:53 20.01.2022
4215 Clear 10 1026 46 10000 9.26 355 21:49 20.01.2022
4216 Clear 10 1025 45 10000 9.24 355 21:28 20.01.2022
4217 Clear 11 1025 43 10000 8.91 356 19:56 20.01.2022
4218 Clear 12 1024 40 10000 8.57 357 19:19 20.01.2022
4219 Clear 14 1023 34 10000 8.17 357 17:38 20.01.2022
4220 Clear 15 1020 31 10000 7.64 346 16:32 20.01.2022
4221 Clear 17 1019 30 10000 7.17 342 15:32 20.01.2022
4222 Clear 20 1019 30 10000 7.17 342 14:38 20.01.2022
4223 Clear 20 1018 27 10000 6.23 336 13:18 20.01.2022
4224 Clear 20 1017 25 10000 6.72 318 12:30 20.01.2022
4225 Clear 20 1018 26 10000 5.87 320 11:20 20.01.2022
4226 Clear 19 1019 29 10000 4.52 323 10:19 20.01.2022
4227 Clear 16 1021 35 10000 3.41 322 09:18 20.01.2022
4228 Clouds 13 1022 43 10000 1.05 302 07:24 20.01.2022
4229 Clouds 9 1018 44 10000 2.56 111 00:41 20.01.2022
4230 Clouds 10 1019 42 10000 3.34 118 22:40 19.01.2022
4231 Clouds 11 1019 42 10000 3.44 97 21:40 19.01.2022
4232 Clouds 11 1019 46 10000 3.41 95 21:21 19.01.2022
4233 Clouds 11 1019 46 10000 3.41 95 20:45 19.01.2022
4234 Clouds 12 1019 45 10000 4.53 105 19:18 19.01.2022
4235 Clouds 14 1018 44 10000 5.41 107 17:51 19.01.2022
4236 Clouds 14 1019 45 10000 4.08 107 17:18 19.01.2022
4237 Clouds 16 1018 43 10000 4.02 105 15:36 19.01.2022
4238 Clear 15 1018 42 10000 1.41 130 13:38 19.01.2022
4239 Clouds 14 1019 47 10000 1.14 133 12:20 19.01.2022
4240 Clouds 13 1019 47 10000 1.14 133 11:38 19.01.2022
4241 Clouds 11 1021 47 10000 1.41 128 09:49 19.01.2022
4242 Clouds 11 1023 45 10000 2.09 118 09:22 19.01.2022
4243 Clouds 9 1024 36 10000 2.11 79 06:34 19.01.2022
4244 Clouds 9 1022 37 10000 2.89 46 00:33 19.01.2022
4245 Clouds 9 1022 35 10000 3.43 42 23:18 18.01.2022
4246 Clouds 9 1023 36 10000 3.52 39 21:55 18.01.2022
4247 Clouds 9 1023 35 10000 3.61 44 20:44 18.01.2022
4248 Clouds 9 1023 50 10000 4.76 45 19:52 18.01.2022
4249 Clouds 9 1023 50 10000 4.76 45 19:33 18.01.2022
4250 Clouds 9 1023 54 10000 6.23 38 18:25 18.01.2022
4251 Clouds 10 1023 54 10000 6.23 38 17:33 18.01.2022
4252 Clouds 10 1021 62 10000 6.09 41 16:22 18.01.2022
4253 Clouds 10 1020 66 10000 6.31 38 15:25 18.01.2022
4254 Clouds 10 1020 66 10000 6.31 38 14:34 18.01.2022
4255 Clouds 10 1019 71 10000 6.49 34 11:51 18.01.2022
4256 Clouds 10 1020 68 10000 6.9 32 10:30 18.01.2022
4257 Clouds 10 1021 66 10000 6.91 34 08:36 18.01.2022
4258 Clouds 11 1021 65 10000 6.75 39 07:45 18.01.2022
4259 Clouds 15 1016 83 10000 2.97 43 01:34 18.01.2022
4260 Clouds 16 1015 68 10000 2.78 65 22:47 17.01.2022
4261 Clouds 16 1015 59 10000 2.71 73 21:50 17.01.2022
4262 Clouds 16 1016 53 10000 2.92 93 21:29 17.01.2022
4263 Clouds 17 1016 49 10000 2.37 85 19:42 17.01.2022
4264 Clear 18 1015 41 10000 3.25 85 18:27 17.01.2022
4265 Clear 18 1015 37 10000 3.25 95 17:22 17.01.2022
4266 Clear 19 1014 35 10000 3.1 106 16:22 17.01.2022
4267 Clear 21 1014 31 10000 3.31 102 14:58 17.01.2022
4268 Clear 21 1014 31 10000 3.36 102 14:32 17.01.2022
4269 Clear 22 1013 18 10000 1.49 169 13:19 17.01.2022
4270 Clear 22 1013 18 10000 1.75 187 12:27 17.01.2022
4271 Clear 21 1013 18 10000 1.75 187 11:33 17.01.2022
4272 Clear 20 1015 20 10000 2.75 175 09:53 17.01.2022
4273 Clear 17 1016 21 10000 2.92 158 08:44 17.01.2022
4274 Clear 15 1017 27 10000 1.94 142 07:20 17.01.2022
4275 Clear 12 1014 34 10000 1.94 354 00:59 17.01.2022
4276 Clear 12 1014 30 10000 2.28 327 23:44 16.01.2022
4277 Clear 14 1015 26 10000 2.9 315 21:21 16.01.2022
4278 Clear 15 1015 25 10000 3.6 314 20:18 16.01.2022
4279 Clear 17 1014 25 10000 3.47 320 18:46 16.01.2022
4280 Clear 18 1014 23 10000 3.93 320 17:47 16.01.2022
4281 Clear 19 1013 22 10000 4.18 316 16:53 16.01.2022
4282 Clear 20 1012 20 10000 4.19 301 15:40 16.01.2022
4283 Clear 21 1010 17 10000 7.33 281 14:29 16.01.2022
4284 Clear 21 1010 17 10000 7.18 276 13:23 16.01.2022
4285 Clear 20 1010 18 10000 7.36 275 11:58 16.01.2022
4286 Clear 20 1011 20 10000 6.89 278 11:27 16.01.2022
4287 Clear 20 1012 23 10000 5.86 281 10:27 16.01.2022
4288 Clear 18 1012 23 10000 5.86 281 09:57 16.01.2022
4289 Clear 18 1013 34 10000 3.83 284 09:23 16.01.2022
4290 Clear 17 1013 34 10000 3.82 284 08:53 16.01.2022
4291 Clear 14 1013 65 10000 1.12 26 05:52 16.01.2022
4292 Clouds 14 1010 60 10000 1.71 41 00:19 16.01.2022
4293 Clouds 15 1010 58 10000 1.96 43 22:49 15.01.2022
4294 Clouds 16 1011 59 10000 2.81 74 21:21 15.01.2022
4295 Clouds 16 1011 59 10000 2.81 74 20:44 15.01.2022
4296 Clouds 16 1010 58 10000 3.44 68 20:18 15.01.2022
4297 Clouds 16 1010 51 10000 3.34 46 19:25 15.01.2022
4298 Clouds 16 1010 33 10000 3.92 343 17:52 15.01.2022
4299 Clouds 16 1009 31 10000 4.67 326 16:43 15.01.2022
4300 Clouds 16 1007 30 10000 6.12 272 14:32 15.01.2022
4301 Clouds 16 1008 30 10000 5.38 293 14:32 15.01.2022
4302 Clouds 17 1007 32 10000 6.74 265 12:38 15.01.2022
4303 Clouds 19 1008 39 10000 7.5 255 11:19 15.01.2022
4304 Clouds 19 1009 42 10000 7.68 254 09:35 15.01.2022
4305 Clouds 15 1011 85 10000 3.21 238 01:25 15.01.2022
4306 Clouds 16 1011 71 10000 1.77 163 21:57 14.01.2022
4307 Clouds 15 1012 73 10000 1.05 59 20:52 14.01.2022
4308 Clouds 15 1012 75 10000 3.38 37 20:23 14.01.2022
4309 Clouds 15 1012 75 10000 3.38 37 19:49 14.01.2022
4310 Clouds 15 1013 64 10000 7.21 327 18:33 14.01.2022
4311 Clouds 18 1010 33 10000 4.36 313 16:51 14.01.2022
4312 Clouds 18 1010 33 10000 4.36 313 16:33 14.01.2022
4313 Clouds 27 1008 21 10000 4.33 222 14:49 14.01.2022
4314 Clouds 27 1008 19 10000 5.42 217 13:48 14.01.2022
4315 Clouds 27 1008 20 10000 5.2 203 12:34 14.01.2022
4316 Clouds 26 1010 21 10000 8.63 236 11:29 14.01.2022
4317 Clouds 23 1012 22 10000 6.25 230 09:51 14.01.2022
4318 Clouds 22 1013 27 10000 4.43 205 08:52 14.01.2022
4319 Clouds 20 1014 30 10000 5.01 180 07:27 14.01.2022
4320 Clouds 19 1013 38 10000 5.78 165 01:43 14.01.2022
4321 Clouds 20 1014 36 10000 6.25 172 23:36 13.01.2022
4322 Clouds 21 1014 35 10000 6.02 169 21:42 13.01.2022
4323 Clouds 21 1015 34 10000 5.57 169 21:23 13.01.2022
4324 Clouds 23 1015 33 10000 5.6 164 19:41 13.01.2022
4325 Clouds 23 1015 33 10000 5.32 165 19:22 13.01.2022
4326 Clouds 23 1015 31 10000 4.83 169 17:56 13.01.2022
4327 Clouds 25 1014 28 10000 4.82 150 16:22 13.01.2022
4328 Clouds 26 1014 28 10000 4.82 150 15:38 13.01.2022
4329 Clear 28 1013 25 10000 5.62 145 14:49 13.01.2022
4330 Clear 27 1013 21 10000 6.1 152 12:46 13.01.2022
4331 Clear 26 1016 22 10000 5.24 166 10:25 13.01.2022
4332 Clear 24 1017 24 10000 5.15 170 09:20 13.01.2022
4333 Clear 22 1018 26 10000 4.7 166 08:27 13.01.2022
4334 Clear 19 1019 30 10000 4.41 162 07:24 13.01.2022
4335 Clear 15 1019 31 10000 5.04 157 06:38 13.01.2022
4336 Clear 13 1019 38 10000 3.9 139 05:20 13.01.2022
4337 Clear 14 1018 37 10000 3.28 140 02:33 13.01.2022
4338 Clear 15 1018 35 10000 3.37 148 00:56 13.01.2022
4339 Clear 17 1018 35 10000 3.49 140 23:50 12.01.2022
4340 Clear 17 1018 34 10000 3.7 130 23:24 12.01.2022
4341 Clear 17 1018 35 10000 3.58 118 21:58 12.01.2022
4342 Clear 17 1019 34 10000 3.79 117 21:23 12.01.2022
4343 Clear 19 1019 34 10000 3.79 117 20:57 12.01.2022
4344 Clear 20 1019 33 10000 3.42 116 19:55 12.01.2022
4345 Clear 21 1018 32 10000 3.38 112 18:43 12.01.2022
4346 Clear 22 1018 31 10000 3.47 117 17:50 12.01.2022
4347 Clear 24 1018 30 10000 3.68 116 16:38 12.01.2022
4348 Clear 26 1017 28 10000 2.91 104 14:49 12.01.2022
4349 Clear 27 1016 26 10000 2.36 97 13:32 12.01.2022
4350 Clear 27 1016 26 10000 1.59 111 11:59 12.01.2022
4351 Clouds 20 1019 23 10000 1.07 157 08:45 12.01.2022
4352 Clouds 17 1020 25 10000 1.2 135 07:52 12.01.2022
4353 Clouds 17 1020 27 10000 1.72 157 07:32 12.01.2022
4354 Clear 16 1019 29 10000 2.3 145 23:53 11.01.2022
4355 Clear 16 1019 28 10000 2.68 131 22:57 11.01.2022
4356 Clear 16 1019 27 10000 2.43 144 22:23 11.01.2022
4357 Clear 16 1019 26 10000 2.27 157 21:25 11.01.2022
4358 Clear 19 1019 26 10000 2.29 159 20:21 11.01.2022
4359 Clouds 20 1019 28 10000 2.58 147 18:43 11.01.2022
4360 Clouds 21 1018 29 10000 3.01 134 17:35 11.01.2022
4361 Clouds 22 1018 31 10000 2.94 127 16:38 11.01.2022
4362 Clouds 24 1017 33 10000 1.78 133 15:56 11.01.2022
4363 Clouds 25 1016 33 10000 0.33 215 14:43 11.01.2022
4364 Clouds 25 1016 29 10000 1.42 264 13:56 11.01.2022
4365 Clouds 25 1016 29 10000 1.41 265 13:36 11.01.2022
4366 Clouds 25 1016 24 10000 1.9 189 12:51 11.01.2022
4367 Clouds 25 1017 24 10000 1.68 201 12:20 11.01.2022
4368 Clouds 21 1018 23 10000 1.7 176 09:58 11.01.2022
4369 Clouds 16 1020 25 10000 2.68 183 07:18 11.01.2022
4370 Clouds 16 1019 30 10000 4.47 157 00:43 11.01.2022
4371 Clouds 16 1019 31 10000 3.85 159 00:21 11.01.2022
4372 Clouds 17 1019 30 10000 4.11 157 23:28 10.01.2022
4373 Clouds 17 1019 31 10000 4.19 155 22:19 10.01.2022
4374 Clouds 17 1019 31 10000 4.19 155 21:54 10.01.2022
4375 Clouds 17 1019 31 10000 4.19 149 21:21 10.01.2022
4376 Clouds 17 1019 31 10000 4.19 149 20:57 10.01.2022
4377 Clouds 17 1019 30 10000 4.27 144 20:28 10.01.2022
4378 Clouds 18 1019 30 10000 4.27 144 19:44 10.01.2022
4379 Clouds 18 1018 29 10000 4.65 139 19:21 10.01.2022
4380 Clouds 19 1018 29 10000 4.63 137 18:50 10.01.2022
4381 Clouds 20 1018 28 10000 4.42 130 17:56 10.01.2022
4382 Clouds 21 1017 26 10000 4.35 130 16:42 10.01.2022
4383 Clouds 23 1016 25 10000 4.55 135 15:49 10.01.2022
4384 Clouds 24 1016 24 10000 5.21 138 14:34 10.01.2022
4385 Clear 25 1015 22 10000 5.93 156 12:22 10.01.2022
4386 Clear 24 1016 22 10000 5.6 153 11:25 10.01.2022
4387 Clear 20 1017 22 10000 5.75 154 09:53 10.01.2022
4388 Clear 18 1019 23 10000 5.36 157 08:22 10.01.2022
4389 Clear 10 1019 30 10000 3.45 148 05:50 10.01.2022
4390 Clear 12 1018 32 10000 3.74 150 01:33 10.01.2022
4391 Clear 13 1018 32 10000 3.88 148 00:33 10.01.2022
4392 Clear 13 1018 32 10000 3.66 144 23:43 09.01.2022
4393 Clear 14 1019 33 10000 3.98 146 22:42 09.01.2022
4394 Clear 15 1019 32 10000 4.07 144 21:47 09.01.2022
4395 Clear 15 1020 31 10000 3.91 141 21:24 09.01.2022
4396 Clear 15 1020 31 10000 3.91 142 20:54 09.01.2022
4397 Clear 15 1020 31 10000 3.91 142 20:36 09.01.2022
4398 Clear 15 1020 30 10000 3.95 134 20:18 09.01.2022
4399 Clear 16 1019 29 10000 3.76 123 19:36 09.01.2022
4400 Clear 16 1019 28 10000 3.71 120 19:18 09.01.2022
4401 Clear 17 1019 26 10000 3.68 116 18:37 09.01.2022
4402 Clear 18 1019 26 10000 3.68 116 17:48 09.01.2022
4403 Clear 18 1019 25 10000 3.69 114 17:25 09.01.2022
4404 Clear 19 1019 25 10000 3.69 114 16:34 09.01.2022
4405 Clear 21 1018 24 10000 3.53 115 15:37 09.01.2022
4406 Clear 23 1017 22 10000 3.41 124 14:41 09.01.2022
4407 Clear 23 1017 20 10000 3.42 132 13:56 09.01.2022
4408 Clear 23 1017 20 10000 3.42 132 13:36 09.01.2022
4409 Clear 22 1017 19 10000 3.23 143 11:56 09.01.2022
4410 Clear 22 1018 19 10000 3.3 149 11:19 09.01.2022
4411 Clear 19 1019 19 10000 3.43 149 09:51 09.01.2022
4412 Clear 16 1020 19 10000 3.38 152 08:54 09.01.2022
4413 Clouds 8 1021 27 10000 2.7 143 05:54 09.01.2022
4414 Clouds 10 1019 29 10000 2.46 141 01:25 09.01.2022
4415 Clouds 10 1019 29 10000 2.48 145 00:37 09.01.2022
4416 Clouds 10 1019 28 10000 3.46 143 23:27 08.01.2022
4417 Clouds 10 1019 28 10000 3.46 143 22:35 08.01.2022
4418 Clouds 11 1020 26 10000 3.16 142 21:26 08.01.2022
4419 Clouds 13 1020 26 10000 3.16 142 20:43 08.01.2022
4420 Clouds 13 1021 26 10000 2.7 136 20:21 08.01.2022
4421 Clear 15 1020 23 10000 3.43 129 18:45 08.01.2022
4422 Clear 16 1020 23 10000 3.2 111 17:24 08.01.2022
4423 Clear 18 1020 23 10000 3.2 111 16:40 08.01.2022
4424 Clear 21 1018 21 10000 2.96 106 14:50 08.01.2022
4425 Clear 21 1018 19 10000 2.54 103 13:41 08.01.2022
4426 Clouds 20 1018 19 10000 1.87 130 11:30 08.01.2022
4427 Clouds 19 1020 21 10000 1.67 153 10:31 08.01.2022
4428 Clouds 17 1020 21 10000 1.69 152 09:57 08.01.2022
4429 Clouds 17 1020 21 10000 1.69 152 09:30 08.01.2022
4430 Clouds 5 1021 31 10000 2.22 149 04:25 08.01.2022
4431 Clouds 7 1020 30 10000 1.92 150 00:58 08.01.2022
4432 Clouds 9 1020 28 10000 2.42 134 22:54 07.01.2022
4433 Clouds 9 1020 28 10000 2.38 117 21:46 07.01.2022
4434 Clouds 11 1021 27 10000 2.65 111 20:23 07.01.2022
4435 Clouds 10 1021 26 10000 2.81 96 19:26 07.01.2022
4436 Clouds 12 1021 26 10000 3.38 100 18:45 07.01.2022
4437 Clouds 11 1021 25 10000 3 97 17:58 07.01.2022
4438 Clouds 11 1020 24 10000 3.16 89 17:22 07.01.2022
4439 Clouds 19 1019 22 10000 2.09 75 14:50 07.01.2022
4440 Clouds 18 1019 20 10000 1.24 44 13:50 07.01.2022
4441 Clouds 18 1019 21 10000 1.53 71 12:50 07.01.2022
4442 Clouds 13 1021 28 10000 0.6 33 09:48 07.01.2022
4443 Clouds 6 1023 56 10000 2.25 324 02:58 07.01.2022
4444 Clouds 6 1022 56 10000 2.02 330 02:21 07.01.2022
4445 Clouds 8 1022 56 10000 2.03 330 01:45 07.01.2022
4446 Clouds 8 1022 55 10000 2.04 327 01:23 07.01.2022
4447 Clouds 8 1022 52 10000 2.51 331 00:28 07.01.2022
4448 Clouds 10 1022 49 10000 2.58 353 21:40 06.01.2022
4449 Clouds 10 1023 48 10000 3.02 357 20:36 06.01.2022
4450 Clouds 11 1023 46 10000 3.11 1 19:54 06.01.2022
4451 Clear 11 1023 43 10000 3.45 9 19:29 06.01.2022
4452 Clouds 14 1022 38 10000 3.62 18 17:51 06.01.2022
4453 Clouds 14 1022 38 10000 3.62 18 17:51 06.01.2022
4454 Clear 14 1022 34 10000 3.98 19 17:19 06.01.2022
4455 Clear 15 1021 31 10000 3.7 5 16:22 06.01.2022
4456 Clear 17 1021 31 10000 3.7 5 15:41 06.01.2022
4457 Clear 17 1020 28 10000 3.86 358 15:20 06.01.2022
4458 Clear 18 1020 25 10000 4.8 354 14:19 06.01.2022
4459 Clear 19 1020 25 10000 5.11 353 12:59 06.01.2022
4460 Clear 17 1020 26 10000 4.62 342 11:58 06.01.2022
4461 Clear 17 1021 29 10000 4.77 343 11:29 06.01.2022
4462 Clear 16 1023 38 10000 5.14 347 09:33 06.01.2022
4463 Clear 7 1024 61 10000 4.51 327 05:55 06.01.2022
4464 Clear 9 1022 52 10000 4.44 324 23:56 05.01.2022
4465 Clear 9 1023 49 10000 4.32 325 23:21 05.01.2022
4466 Clear 10 1023 50 10000 4.32 325 22:41 05.01.2022
4467 Clear 10 1023 46 10000 4.3 326 21:59 05.01.2022
4468 Clear 10 1024 43 10000 4.25 325 21:22 05.01.2022
4469 Clear 11 1024 43 10000 4.25 325 20:30 05.01.2022
4470 Clear 12 1023 37 10000 4.01 323 19:28 05.01.2022
4471 Clear 14 1022 32 10000 4.05 333 17:56 05.01.2022
4472 Clear 15 1022 30 10000 4.16 339 16:56 05.01.2022
4473 Clear 17 1021 27 10000 4.55 342 15:46 05.01.2022
4474 Clear 18 1020 23 10000 5.07 337 14:50 05.01.2022
4475 Clear 18 1020 20 10000 6.13 334 13:33 05.01.2022
4476 Clear 17 1020 18 10000 6.62 330 11:59 05.01.2022
4477 Clear 13 1024 22 10000 5.63 319 08:21 05.01.2022
4478 Clear 7 1024 30 10000 5 316 06:37 05.01.2022
4479 Clear 7 1022 53 10000 3.67 321 01:20 05.01.2022
4480 Clear 9 1022 55 10000 3.23 323 23:41 04.01.2022
4481 Clear 9 1022 55 10000 3.17 326 23:19 04.01.2022
4482 Clear 10 1022 55 10000 3.29 336 21:32 04.01.2022
4483 Clear 11 1023 51 10000 3.33 347 20:27 04.01.2022
4484 Clear 13 1022 47 10000 3.86 357 18:35 04.01.2022
4485 Clear 13 1021 41 10000 4.73 354 17:18 04.01.2022
4486 Clear 14 1021 41 10000 4.73 354 16:31 04.01.2022
4487 Clear 17 1019 37 10000 5.8 341 14:58 04.01.2022
4488 Clear 17 1019 37 10000 5.8 341 14:37 04.01.2022
4489 Clear 17 1019 35 10000 6.73 332 13:55 04.01.2022
4490 Clear 17 1018 35 10000 6.59 328 11:44 04.01.2022
4491 Clear 16 1020 38 10000 6.06 329 10:21 04.01.2022
4492 Clear 14 1021 40 10000 5.93 331 08:49 04.01.2022
4493 Clear 9 1021 57 10000 2.67 307 06:28 04.01.2022
4494 Clear 9 1019 60 10000 2.89 314 00:42 04.01.2022
4495 Clear 10 1019 61 10000 2.86 337 23:54 03.01.2022
4496 Clear 11 1019 59 10000 4.24 339 22:22 03.01.2022
4497 Clear 11 1019 59 10000 4.24 339 21:38 03.01.2022
4498 Clear 11 1019 57 10000 5.27 338 20:41 03.01.2022
4499 Clear 13 1018 49 10000 5.33 339 18:55 03.01.2022
4500 Clear 13 1018 49 10000 5.33 339 18:30 03.01.2022
4501 Clear 13 1017 44 10000 4.28 327 17:21 03.01.2022
4502 Clear 14 1017 44 10000 4.28 327 16:53 03.01.2022
4503 Clear 16 1014 39 10000 5.37 316 14:31 03.01.2022
4504 Clear 16 1013 33 10000 4.63 314 12:52 03.01.2022
4505 Clear 16 1013 35 10000 4.65 314 11:50 03.01.2022
4506 Clear 14 1013 39 10000 4.42 314 10:52 03.01.2022
4507 Clear 13 1015 50 10000 4.06 329 09:28 03.01.2022
4508 Clear 13 1015 50 10000 4.06 329 09:28 03.01.2022
4509 Clear 10 1016 57 10000 4.22 337 07:54 03.01.2022
4510 Clear 11 1013 48 10000 3.34 305 03:22 03.01.2022
4511 Clear 14 1012 43 10000 3.82 320 23:24 02.01.2022
4512 Clear 15 1012 43 10000 3.82 320 22:56 02.01.2022
4513 Clear 15 1012 38 10000 4.34 315 21:58 02.01.2022
4514 Clear 16 1012 33 10000 4.62 310 20:50 02.01.2022
4515 Clear 16 1012 33 10000 4.62 310 20:30 02.01.2022
4516 Clouds 17 1011 33 10000 4.84 307 19:31 02.01.2022
4517 Clouds 18 1011 33 10000 4.84 307 18:56 02.01.2022
4518 Clouds 19 1011 33 10000 6.69 304 17:57 02.01.2022
4519 Clouds 19 1011 33 10000 6.69 304 17:39 02.01.2022
4520 Clouds 19 1010 32 10000 7.87 290 17:20 02.01.2022
4521 Clouds 20 1009 37 10000 7.05 278 16:28 02.01.2022
4522 Clouds 21 1008 38 10000 9.86 280 14:44 02.01.2022
4523 Clouds 18 1008 40 10000 8.7 294 13:37 02.01.2022
4524 Clouds 23 1007 42 10000 5.57 280 12:32 02.01.2022
4525 Clear 23 1007 37 10000 6.97 248 11:49 02.01.2022
4526 Clear 23 1008 42 10000 7.3 253 10:54 02.01.2022
4527 Clear 20 1009 45 10000 8.07 250 09:57 02.01.2022
4528 Clear 18 1011 50 10000 9.43 235 07:34 02.01.2022
4529 Clouds 17 1011 93 10000 4.57 154 02:56 02.01.2022
4530 Clouds 16 1012 96 4079 5.17 144 23:42 01.01.2022
4531 Clouds 16 1013 95 10000 4.96 143 23:24 01.01.2022
4532 Clouds 16 1013 93 5960 5.27 134 22:25 01.01.2022
4533 Clouds 16 1013 93 5960 5.27 134 21:45 01.01.2022
4534 Clouds 16 1014 92 10000 4.87 122 21:21 01.01.2022
4535 Clouds 16 1015 91 10000 4.35 135 20:20 01.01.2022
4536 Clouds 16 1015 91 10000 4.35 135 19:34 01.01.2022
4537 Clouds 15 1016 89 10000 4.88 133 18:51 01.01.2022
4538 Clouds 15 1016 86 10000 5.39 121 17:38 01.01.2022
4539 Clouds 15 1016 86 10000 5.7 120 16:34 01.01.2022
4540 Clouds 15 1016 86 10000 5.7 120 16:34 01.01.2022
4541 Clouds 15 1016 86 10000 5.59 119 15:33 01.01.2022
4542 Clouds 15 1015 81 10000 5.65 119 14:22 01.01.2022
4543 Clouds 15 1015 81 10000 5.65 119 13:35 01.01.2022
4544 Clouds 15 1015 83 10000 5.59 127 12:18 01.01.2022
4545 Clouds 15 1016 82 10000 6.18 125 11:25 01.01.2022
4546 Clouds 14 1016 82 10000 6.18 125 10:52 01.01.2022
4547 Clouds 14 1017 84 10000 6.73 119 09:47 01.01.2022
4548 Clouds 14 1020 91 10000 5.61 117 08:27 01.01.2022
4549 Clouds 13 1020 91 10000 5.61 117 07:56 01.01.2022
4550 Clouds 13 1020 91 10000 5.61 117 07:37 01.01.2022
4551 Clouds 13 1020 87 10000 5.48 119 06:43 01.01.2022
4552 Clouds 13 1019 95 10000 3.37 123 04:39 01.01.2022
4553 Clouds 13 1019 93 10000 3.14 129 03:50 01.01.2022
4554 Clouds 13 1018 82 10000 4.13 117 23:53 31.12.2021
4555 Clouds 14 1019 81 10000 3.88 104 21:57 31.12.2021
4556 Clouds 14 1019 81 10000 3.88 104 21:39 31.12.2021
4557 Clear 14 1020 78 10000 4.61 99 19:43 31.12.2021
4558 Clouds 14 1019 69 10000 6.54 86 18:50 31.12.2021
4559 Clouds 15 1019 68 10000 6.41 81 17:49 31.12.2021
4560 Clouds 15 1018 64 10000 7.27 81 17:24 31.12.2021
4561 Clouds 15 1018 64 10000 7.27 81 16:52 31.12.2021
4562 Clouds 15 1018 62 10000 5.46 81 16:18 31.12.2021
4563 Clouds 15 1018 62 10000 5.46 81 15:45 31.12.2021
4564 Clouds 15 1017 56 10000 5.85 92 15:26 31.12.2021
4565 Clouds 15 1017 56 10000 5.84 93 14:38 31.12.2021
4566 Clouds 16 1016 53 10000 6.14 102 13:45 31.12.2021
4567 Clouds 16 1016 50 10000 5.16 117 12:50 31.12.2021
4568 Clouds 16 1016 54 10000 5.21 121 12:20 31.12.2021
4569 Clouds 16 1016 54 10000 5.21 121 11:41 31.12.2021
4570 Clouds 15 1017 56 10000 4.41 122 10:50 31.12.2021
4571 Clouds 15 1017 56 10000 5.48 111 10:28 31.12.2021
4572 Clouds 14 1017 56 10000 5.48 111 09:34 31.12.2021
4573 Clouds 14 1019 56 10000 4.19 98 08:50 31.12.2021
4574 Clouds 14 1019 60 10000 4.44 72 07:53 31.12.2021
4575 Clouds 11 1018 62 10000 3.52 29 04:54 31.12.2021
4576 Clouds 14 1016 61 10000 1.48 349 23:18 30.12.2021
4577 Clouds 14 1016 61 10000 1.48 349 22:31 30.12.2021
4578 Clouds 14 1016 63 10000 1.09 316 21:39 30.12.2021
4579 Clouds 14 1016 62 10000 2.01 255 21:18 30.12.2021
4580 Clouds 17 1016 62 10000 2.01 255 20:39 30.12.2021
4581 Clouds 17 1016 62 10000 2.4 186 19:55 30.12.2021
4582 Clouds 17 1015 59 10000 3.56 173 19:31 30.12.2021
4583 Clouds 17 1015 51 10000 2.81 232 18:26 30.12.2021
4584 Clouds 19 1015 53 10000 2.79 236 16:53 30.12.2021
4585 Clouds 20 1014 50 10000 3.68 258 15:53 30.12.2021
4586 Clouds 21 1013 44 10000 6.22 243 14:55 30.12.2021
4587 Clouds 21 1012 39 10000 4.5 226 14:36 30.12.2021
4588 Clouds 20 1012 38 10000 7.66 227 13:25 30.12.2021
4589 Clouds 20 1012 38 10000 7.66 227 13:25 30.12.2021
4590 Clouds 22 1012 40 10000 8.5 228 11:57 30.12.2021
4591 Clouds 21 1012 40 10000 9.52 233 10:35 30.12.2021
4592 Clear 19 1013 38 10000 9.31 230 09:47 30.12.2021
4593 Clouds 14 1016 57 10000 5.39 206 06:58 30.12.2021
4594 Clear 14 1016 77 10000 3.8 167 05:27 30.12.2021
4595 Clear 12 1015 69 10000 3.67 161 03:41 30.12.2021
4596 Clear 11 1015 61 10000 4.57 149 02:28 30.12.2021
4597 Clouds 12 1015 47 10000 4.58 145 23:37 29.12.2021
4598 Clouds 12 1015 45 10000 5.31 149 22:55 29.12.2021
4599 Clouds 13 1015 44 10000 5.84 146 21:56 29.12.2021
4600 Clouds 14 1016 44 10000 4.74 152 20:58 29.12.2021
4601 Clouds 14 1017 41 10000 5.34 150 20:29 29.12.2021
4602 Clouds 14 1017 35 10000 4.88 148 19:31 29.12.2021
4603 Clouds 14 1017 35 10000 4.88 148 18:42 29.12.2021
4604 Clouds 15 1017 35 10000 4.81 135 17:49 29.12.2021
4605 Clouds 15 1016 34 10000 4.95 125 17:26 29.12.2021
4606 Clouds 15 1016 36 10000 3.97 131 16:22 29.12.2021
4607 Clouds 16 1015 33 10000 4.04 132 15:21 29.12.2021
4608 Clouds 15 1015 31 10000 5.63 153 13:31 29.12.2021
4609 Clouds 15 1014 36 10000 5.48 159 12:35 29.12.2021
4610 Clouds 15 1016 47 10000 5.59 178 11:23 29.12.2021
4611 Clouds 17 1017 46 10000 5.37 169 09:35 29.12.2021
4612 Clouds 14 1020 45 10000 5.16 169 07:47 29.12.2021
4613 Clouds 12 1020 33 10000 5.26 152 06:36 29.12.2021
4614 Clouds 12 1019 34 10000 4.29 122 05:57 29.12.2021
4615 Clouds 12 1020 39 10000 3.04 50 05:27 29.12.2021
4616 Clouds 12 1018 34 10000 1.85 159 01:27 29.12.2021
4617 Clouds 14 1017 33 10000 2.97 160 23:59 28.12.2021
4618 Clouds 14 1017 34 10000 4.49 138 22:57 28.12.2021
4619 Clouds 14 1017 34 10000 4.49 138 22:57 28.12.2021
4620 Clouds 14 1017 34 10000 5.01 127 22:25 28.12.2021
4621 Clouds 14 1017 34 10000 5.02 127 21:55 28.12.2021
4622 Clouds 14 1017 34 10000 5.01 127 21:35 28.12.2021
4623 Clouds 15 1018 35 10000 5.01 123 20:32 28.12.2021
4624 Clouds 17 1018 34 10000 4.24 119 18:56 28.12.2021
4625 Clouds 17 1018 33 10000 4.12 117 18:28 28.12.2021
4626 Clouds 18 1018 33 10000 4.12 117 17:42 28.12.2021
4627 Clouds 19 1017 33 10000 3.91 118 16:25 28.12.2021
4628 Clouds 20 1017 33 10000 3.91 118 15:41 28.12.2021
4629 Clouds 20 1017 32 10000 3.89 131 14:57 28.12.2021
4630 Clouds 20 1017 32 10000 3.89 132 14:57 28.12.2021
4631 Clouds 20 1017 32 10000 3.89 132 14:38 28.12.2021
4632 Clouds 20 1017 30 10000 4.19 143 14:20 28.12.2021
4633 Clouds 21 1017 30 10000 4.19 143 13:38 28.12.2021
4634 Clouds 20 1016 30 10000 4.54 150 12:56 28.12.2021
4635 Clouds 20 1016 28 10000 5.02 149 12:29 28.12.2021
4636 Clouds 19 1017 28 10000 4.75 144 10:51 28.12.2021
4637 Clouds 13 1022 29 10000 4.06 130 07:39 28.12.2021
4638 Clouds 10 1021 35 10000 2.54 127 03:37 28.12.2021
4639 Clouds 11 1020 37 10000 3.03 123 23:42 27.12.2021
4640 Clouds 11 1021 38 10000 2.94 121 22:31 27.12.2021
4641 Clouds 11 1021 38 10000 2.65 108 21:32 27.12.2021
4642 Clouds 12 1021 38 10000 2.65 108 20:40 27.12.2021
4643 Clouds 12 1022 38 10000 2.85 90 19:55 27.12.2021
4644 Clouds 12 1022 38 10000 2.85 90 19:37 27.12.2021
4645 Clouds 14 1022 41 10000 3.27 79 17:55 27.12.2021
4646 Clouds 14 1022 41 10000 3.28 78 17:55 27.12.2021
4647 Clouds 14 1021 42 10000 3.27 82 17:29 27.12.2021
4648 Clouds 15 1020 42 10000 2.89 90 16:27 27.12.2021
4649 Clouds 15 1020 42 10000 2.89 90 15:49 27.12.2021
4650 Clouds 16 1019 38 10000 2.38 110 14:26 27.12.2021
4651 Clouds 16 1019 38 10000 2.38 110 13:31 27.12.2021
4652 Clouds 15 1019 39 10000 1.79 117 11:34 27.12.2021
4653 Clouds 14 1021 43 10000 1.79 81 10:27 27.12.2021
4654 Clouds 13 1021 43 10000 1.79 81 09:38 27.12.2021
4655 Clouds 11 1023 48 10000 2.31 54 07:35 27.12.2021
4656 Clouds 10 1024 52 10000 2.56 57 06:30 27.12.2021
4657 Clouds 10 1022 56 10000 1.39 37 01:59 27.12.2021
4658 Clear 9 1023 61 10000 1.89 64 23:50 26.12.2021
4659 Clear 9 1023 61 10000 1.89 64 23:32 26.12.2021
4660 Clear 9 1024 60 10000 1.75 41 21:48 26.12.2021
4661 Clear 10 1024 58 10000 2.26 45 20:31 26.12.2021
4662 Clouds 10 1025 56 10000 4.07 23 19:27 26.12.2021
4663 Clouds 10 1024 57 10000 4.45 36 18:23 26.12.2021
4664 Clouds 11 1022 52 10000 4.69 43 15:55 26.12.2021
4665 Clouds 13 1021 47 10000 4.6 38 13:52 26.12.2021
4666 Clouds 13 1021 46 10000 4.39 40 13:32 26.12.2021
4667 Clouds 13 1021 46 10000 4.39 40 12:38 26.12.2021
4668 Clouds 13 1021 43 10000 4.08 37 11:57 26.12.2021
4669 Clouds 13 1022 43 10000 4 46 09:52 26.12.2021
4670 Clouds 13 1023 42 10000 4.85 47 09:18 26.12.2021
4671 Clouds 11 1023 42 10000 4.85 47 08:39 26.12.2021
4672 Clouds 9 1024 45 10000 5.95 46 06:47 26.12.2021
4673 Clouds 12 1021 61 10000 5.02 51 00:58 26.12.2021
4674 Clouds 13 1020 58 10000 4.7 38 23:50 25.12.2021
4675 Clouds 13 1021 57 10000 4.52 34 23:26 25.12.2021
4676 Clouds 13 1021 56 10000 5.41 33 22:22 25.12.2021
4677 Clouds 13 1021 57 10000 4.97 30 20:48 25.12.2021
4678 Clouds 13 1022 59 10000 5.66 23 19:22 25.12.2021
4679 Clouds 13 1022 59 10000 5.66 23 18:54 25.12.2021
4680 Clouds 16 1020 46 10000 6.14 26 17:28 25.12.2021
4681 Clouds 16 1019 44 10000 7.58 20 16:18 25.12.2021
4682 Clouds 18 1018 41 10000 7.44 29 14:38 25.12.2021
4683 Clouds 19 1017 44 10000 6.68 36 12:48 25.12.2021
4684 Clouds 18 1017 42 10000 6.2 31 11:37 25.12.2021
4685 Clouds 16 1018 41 10000 5.45 27 09:49 25.12.2021
4686 Clouds 14 1018 37 10000 4.95 23 07:54 25.12.2021
4687 Clouds 16 1015 47 10000 0.9 11 02:18 25.12.2021
4688 Clouds 17 1014 45 10000 1.1 74 00:30 25.12.2021
4689 Clouds 17 1014 44 10000 1.34 94 23:38 24.12.2021
4690 Clouds 21 1014 38 10000 4.56 146 19:39 24.12.2021
4691 Clouds 21 1014 35 10000 5.38 148 19:20 24.12.2021
4692 Clouds 22 1013 30 10000 3.97 124 16:50 24.12.2021
4693 Clear 22 1012 29 10000 2.49 150 16:19 24.12.2021
4694 Clear 25 1012 29 10000 2.49 150 15:45 24.12.2021
4695 Clear 25 1012 27 10000 2.63 206 14:46 24.12.2021
4696 Clear 25 1011 24 10000 4.73 230 14:22 24.12.2021
4697 Clear 26 1011 24 10000 4.73 230 13:37 24.12.2021
4698 Clear 25 1011 23 10000 5.92 230 12:48 24.12.2021
4699 Clear 23 1011 22 10000 4.52 215 11:52 24.12.2021
4700 Clear 23 1012 23 10000 3.84 205 11:26 24.12.2021
4701 Clear 22 1012 23 10000 3.84 205 10:46 24.12.2021
4702 Clear 22 1014 23 10000 3.94 192 10:18 24.12.2021
4703 Clear 19 1017 23 10000 4.57 168 08:24 24.12.2021
4704 Clear 17 1017 23 10000 4.57 168 07:48 24.12.2021
4705 Clear 13 1015 31 10000 3.83 152 02:52 24.12.2021
4706 Clouds 14 1015 29 10000 5.05 145 23:56 23.12.2021
4707 Clouds 14 1015 28 10000 5.33 142 22:58 23.12.2021
4708 Clouds 14 1015 28 10000 5.33 142 22:37 23.12.2021
4709 Clouds 14 1015 28 10000 5.15 135 22:18 23.12.2021
4710 Clouds 16 1016 27 10000 5.5 135 20:56 23.12.2021
4711 Clouds 16 1016 26 10000 5.03 130 20:18 23.12.2021
4712 Clouds 16 1016 26 10000 5.03 130 20:18 23.12.2021
4713 Clouds 17 1016 25 10000 4.74 127 18:36 23.12.2021
4714 Clouds 18 1016 24 10000 4.36 122 17:57 23.12.2021
4715 Clouds 19 1016 23 10000 3.87 123 16:44 23.12.2021
4716 Clouds 19 1016 22 10000 3.88 118 16:24 23.12.2021
4717 Clear 20 1015 20 10000 3.83 116 15:31 23.12.2021
4718 Clear 21 1015 20 10000 3.82 116 14:52 23.12.2021
4719 Clear 21 1014 18 10000 4.14 119 14:30 23.12.2021
4720 Clouds 21 1014 17 10000 3.99 135 12:54 23.12.2021
4721 Clouds 18 1016 17 10000 3.97 162 10:44 23.12.2021
4722 Clouds 18 1017 18 10000 4.42 155 09:42 23.12.2021
4723 Clouds 17 1019 19 10000 3.5 143 08:59 23.12.2021
4724 Clouds 14 1020 22 10000 2.63 120 06:55 23.12.2021
4725 Clouds 13 1020 27 10000 2.15 120 04:30 23.12.2021
4726 Clouds 11 1019 22 10000 2.39 108 23:20 22.12.2021
4727 Clouds 12 1019 22 10000 2.39 108 22:42 22.12.2021
4728 Clouds 14 1020 22 10000 2.3 89 21:56 22.12.2021
4729 Clouds 14 1020 22 10000 2.53 74 21:29 22.12.2021
4730 Clouds 14 1020 22 10000 2.53 74 20:47 22.12.2021
4731 Clouds 14 1021 21 10000 2.51 62 20:26 22.12.2021
4732 Clear 15 1021 21 10000 2.81 49 19:21 22.12.2021
4733 Clear 16 1021 19 10000 3.56 35 17:42 22.12.2021
4734 Clear 17 1021 19 10000 3.5 36 16:39 22.12.2021
4735 Clouds 18 1020 18 10000 3.23 35 15:40 22.12.2021
4736 Clouds 19 1019 16 10000 4.24 18 13:33 22.12.2021
4737 Clouds 19 1019 17 10000 4.5 8 12:40 22.12.2021
4738 Clouds 17 1021 20 10000 3.63 7 10:19 22.12.2021
4739 Clouds 16 1021 20 10000 3.63 7 09:38 22.12.2021
4740 Clear 13 1024 28 10000 4.5 3 07:25 22.12.2021
4741 Clear 11 1024 31 10000 4.69 0 05:43 22.12.2021
4742 Clear 11 1023 33 10000 3.72 1 05:24 22.12.2021
4743 Clear 11 1023 33 10000 3.74 1 04:49 22.12.2021
4744 Clear 11 1023 33 10000 4.07 359 04:26 22.12.2021
4745 Clear 11 1023 33 10000 4.07 359 03:32 22.12.2021
4746 Clear 12 1021 36 10000 4.63 7 00:47 22.12.2021
4747 Clear 14 1021 37 10000 4.63 13 22:52 21.12.2021
4748 Clear 14 1021 37 10000 5.41 13 22:28 21.12.2021
4749 Clear 15 1021 37 10000 5.41 13 21:44 21.12.2021
4750 Clear 16 1021 35 10000 5.65 9 20:55 21.12.2021
4751 Clear 16 1021 33 10000 5.77 8 20:21 21.12.2021
4752 Clear 17 1021 33 10000 5.77 8 19:41 21.12.2021
4753 Clear 17 1021 30 10000 6.25 9 18:45 21.12.2021
4754 Clear 17 1021 29 10000 6.92 17 18:21 21.12.2021
4755 Clear 18 1021 29 10000 6.92 17 17:41 21.12.2021
4756 Clear 20 1019 32 10000 6.25 14 15:59 21.12.2021
4757 Clear 21 1017 33 10000 5.58 5 15:20 21.12.2021
4758 Clear 24 1016 34 10000 5.5 2 13:50 21.12.2021
4759 Clear 24 1016 34 10000 5.5 2 13:30 21.12.2021
4760 Clouds 24 1016 44 10000 5.2 348 11:36 21.12.2021
4761 Clouds 23 1017 49 10000 4.86 345 10:24 21.12.2021
4762 Clear 22 1018 51 10000 5.14 339 09:23 21.12.2021
4763 Clear 19 1019 50 10000 5.01 322 07:58 21.12.2021
4764 Clouds 19 1019 45 10000 4.88 301 07:27 21.12.2021
4765 Clouds 19 1019 46 10000 3.31 300 05:31 21.12.2021
4766 Clouds 18 1017 43 10000 2.74 289 02:40 21.12.2021
4767 Clouds 21 1015 40 10000 3.56 184 23:58 20.12.2021
4768 Clouds 21 1016 39 10000 4.23 180 23:27 20.12.2021
4769 Clouds 22 1016 39 10000 5.16 176 22:28 20.12.2021
4770 Clouds 22 1016 39 10000 5.16 176 22:28 20.12.2021
4771 Clouds 23 1016 39 10000 5.16 176 21:47 20.12.2021
4772 Clouds 23 1016 39 10000 5.69 172 21:23 20.12.2021
4773 Clouds 23 1016 39 10000 5.69 172 20:44 20.12.2021
4774 Clouds 23 1016 39 10000 5.3 174 19:52 20.12.2021
4775 Clouds 23 1016 39 10000 5.3 174 19:31 20.12.2021
4776 Clouds 23 1017 37 10000 5.1 179 18:54 20.12.2021
4777 Clouds 23 1017 33 10000 4.64 183 17:52 20.12.2021
4778 Clouds 23 1016 31 10000 5.76 169 17:25 20.12.2021
4779 Clouds 24 1016 31 10000 5.76 169 16:40 20.12.2021
4780 Clouds 25 1015 30 10000 6.95 154 15:50 20.12.2021
4781 Clouds 26 1014 29 10000 6.45 145 14:43 20.12.2021
4782 Clouds 26 1013 23 10000 5.76 158 12:51 20.12.2021
4783 Clouds 26 1014 25 10000 5.26 169 11:19 20.12.2021
4784 Clouds 24 1016 28 10000 4.86 174 09:47 20.12.2021
4785 Clouds 24 1018 32 10000 5.19 177 09:28 20.12.2021
4786 Clouds 22 1018 32 10000 5.19 177 08:41 20.12.2021
4787 Clouds 20 1019 36 10000 5.94 171 07:49 20.12.2021
4788 Clouds 20 1019 41 10000 5.85 167 07:25 20.12.2021
4789 Clouds 17 1017 47 10000 5.06 156 03:43 20.12.2021
4790 Clouds 19 1017 44 10000 4.84 152 23:51 19.12.2021
4791 Clouds 19 1017 42 10000 4.97 151 22:45 19.12.2021
4792 Clouds 20 1017 42 10000 5.07 153 21:50 19.12.2021
4793 Clouds 20 1017 40 10000 4.99 151 21:29 19.12.2021
4794 Clouds 20 1018 39 10000 4.51 150 20:30 19.12.2021
4795 Clouds 21 1018 39 10000 4.52 150 19:46 19.12.2021
4796 Clouds 21 1018 35 10000 4.42 149 18:58 19.12.2021
4797 Clouds 21 1017 34 10000 4.19 152 18:27 19.12.2021
4798 Clouds 23 1017 34 10000 4.19 152 17:49 19.12.2021
4799 Clouds 23 1017 32 10000 4.13 150 17:18 19.12.2021
4800 Clouds 24 1016 32 10000 4.67 140 16:25 19.12.2021
4801 Clouds 25 1015 28 10000 5.15 128 15:28 19.12.2021
4802 Clouds 27 1015 28 10000 5.15 128 14:57 19.12.2021
4803 Clouds 27 1015 28 10000 5.15 128 14:36 19.12.2021
4804 Clouds 27 1014 20 10000 2.35 160 13:22 19.12.2021
4805 Clouds 27 1014 20 10000 2.35 160 12:33 19.12.2021
4806 Clouds 26 1014 20 10000 2.65 188 11:42 19.12.2021
4807 Clouds 26 1015 21 10000 3.21 197 10:53 19.12.2021
4808 Clouds 26 1016 22 10000 3.62 194 10:23 19.12.2021
4809 Clouds 26 1016 22 10000 3.62 194 10:23 19.12.2021
4810 Clouds 25 1017 24 10000 3.81 191 09:26 19.12.2021
4811 Clouds 20 1018 28 10000 4.21 184 07:50 19.12.2021
4812 Clouds 16 1018 40 10000 3.66 176 04:44 19.12.2021
4813 Clouds 17 1016 38 10000 5.09 161 00:55 19.12.2021
4814 Clouds 17 1016 37 10000 5.27 161 23:52 18.12.2021
4815 Clouds 18 1016 35 10000 5.62 159 22:31 18.12.2021
4816 Clouds 18 1016 35 10000 5.63 159 21:54 18.12.2021
4817 Clouds 18 1016 35 10000 5.63 159 21:34 18.12.2021
4818 Clouds 18 1016 34 10000 5.19 158 20:44 18.12.2021
4819 Clouds 20 1017 34 10000 4.86 157 19:51 18.12.2021
4820 Clouds 20 1017 33 10000 4.59 160 19:19 18.12.2021
4821 Clouds 21 1016 29 10000 4.76 168 18:19 18.12.2021
4822 Clouds 22 1016 29 10000 4.76 168 17:47 18.12.2021
4823 Clouds 23 1015 29 10000 4.68 149 16:25 18.12.2021
4824 Clouds 25 1014 27 10000 5.32 140 15:26 18.12.2021
4825 Clouds 27 1013 22 10000 3.87 150 14:22 18.12.2021
4826 Clouds 27 1013 21 10000 2.96 180 12:39 18.12.2021
4827 Clouds 25 1014 23 10000 3.92 195 10:52 18.12.2021
4828 Clouds 23 1015 25 10000 4.65 188 09:33 18.12.2021
4829 Clouds 22 1016 28 10000 5.44 184 08:41 18.12.2021
4830 Clouds 22 1017 32 10000 5.87 183 08:18 18.12.2021
4831 Clouds 18 1016 41 10000 6.2 167 01:48 18.12.2021
4832 Clouds 18 1016 36 10000 7.35 166 00:27 18.12.2021
4833 Clouds 18 1016 36 10000 7.35 166 23:37 17.12.2021
4834 Clouds 18 1016 34 10000 6.17 164 21:55 17.12.2021
4835 Clouds 19 1017 34 10000 5.26 166 20:50 17.12.2021
4836 Clouds 19 1016 33 10000 6.03 160 20:28 17.12.2021
4837 Clouds 21 1016 33 10000 5.75 160 18:54 17.12.2021
4838 Clouds 21 1016 30 10000 5.32 162 18:21 17.12.2021
4839 Clouds 21 1015 28 10000 5.99 160 17:25 17.12.2021
4840 Clouds 22 1015 28 10000 5.66 158 16:29 17.12.2021
4841 Clouds 23 1015 28 10000 5.66 158 15:51 17.12.2021
4842 Clouds 23 1015 26 10000 6.25 155 15:18 17.12.2021
4843 Clouds 24 1014 22 10000 7.11 160 14:34 17.12.2021
4844 Clouds 25 1014 19 10000 6.18 174 12:38 17.12.2021
4845 Clouds 24 1015 21 10000 6.65 175 11:18 17.12.2021
4846 Clouds 22 1016 23 10000 7 176 09:52 17.12.2021
4847 Clouds 21 1017 27 10000 7.68 173 08:58 17.12.2021
4848 Clouds 21 1019 31 10000 7.81 173 08:19 17.12.2021
4849 Clouds 14 1019 45 10000 4.59 160 05:21 17.12.2021
4850 Clouds 15 1018 42 10000 4.48 169 02:51 17.12.2021
4851 Clouds 19 1018 39 10000 4.28 177 22:50 16.12.2021
4852 Clouds 19 1018 39 10000 4.82 175 22:22 16.12.2021
4853 Clouds 20 1018 39 10000 4.82 175 21:44 16.12.2021
4854 Clouds 19 1018 37 10000 4.46 170 20:48 16.12.2021
4855 Clouds 19 1018 35 10000 4.39 167 20:22 16.12.2021
4856 Clouds 18 1018 33 10000 4.56 163 19:31 16.12.2021
4857 Clouds 20 1018 32 10000 4.53 160 18:33 16.12.2021
4858 Clouds 21 1018 31 10000 4.19 169 17:47 16.12.2021
4859 Clouds 22 1017 26 10000 4.5 139 16:26 16.12.2021
4860 Clouds 24 1017 26 10000 4.5 139 15:50 16.12.2021
4861 Clouds 25 1015 12 10000 2.93 130 13:47 16.12.2021
4862 Clouds 24 1016 9 10000 2.66 177 12:30 16.12.2021
4863 Clouds 25 1016 9 10000 3.26 182 11:19 16.12.2021
4864 Clouds 24 1016 9 10000 3.26 182 10:41 16.12.2021
4865 Clouds 22 1017 9 10000 3.25 188 09:43 16.12.2021
4866 Clouds 17 1020 14 10000 3.11 171 07:18 16.12.2021
4867 Clouds 13 1020 17 10000 2.65 166 06:18 16.12.2021
4868 Clouds 16 1017 32 10000 3.13 174 23:59 15.12.2021
4869 Clouds 16 1017 31 10000 4.78 167 23:18 15.12.2021
4870 Clouds 17 1018 32 10000 4.56 166 22:21 15.12.2021
4871 Clouds 17 1018 32 10000 4.56 166 21:44 15.12.2021
4872 Clouds 17 1018 32 10000 4.37 162 21:24 15.12.2021
4873 Clouds 16 1018 31 10000 4.13 166 19:54 15.12.2021
4874 Clouds 16 1018 32 10000 4.13 157 19:18 15.12.2021
4875 Clouds 17 1018 30 10000 4.33 159 18:20 15.12.2021
4876 Clouds 18 1018 30 10000 4.33 159 17:45 15.12.2021
4877 Clouds 18 1018 30 10000 4.53 152 17:21 15.12.2021
4878 Clouds 21 1017 29 10000 4.45 140 15:49 15.12.2021
4879 Clouds 21 1017 29 10000 4.45 140 15:30 15.12.2021
4880 Clouds 21 1017 25 10000 4.92 134 14:48 15.12.2021
4881 Clouds 21 1016 21 10000 5.68 140 13:45 15.12.2021
4882 Clouds 22 1016 18 10000 5.65 154 11:52 15.12.2021
4883 Clouds 20 1018 19 10000 5.56 161 10:20 15.12.2021
4884 Clouds 18 1020 23 10000 5.19 158 08:26 15.12.2021
4885 Clouds 11 1020 29 10000 3.66 151 05:53 15.12.2021
4886 Clouds 12 1018 28 10000 3.48 156 00:37 15.12.2021
4887 Clouds 11 1018 25 10000 3.67 156 23:27 14.12.2021
4888 Clouds 12 1018 25 10000 3.67 156 22:44 14.12.2021
4889 Clouds 12 1018 22 10000 3.91 151 21:43 14.12.2021
4890 Clouds 13 1019 17 10000 3.56 139 20:22 14.12.2021
4891 Clouds 15 1019 17 10000 3.56 139 19:34 14.12.2021
4892 Clouds 15 1019 15 10000 3.66 132 18:38 14.12.2021
4893 Clouds 16 1019 14 10000 3.3 129 17:55 14.12.2021
4894 Clouds 18 1018 13 10000 3.25 131 16:44 14.12.2021
4895 Clouds 18 1018 12 10000 3.18 134 16:21 14.12.2021
4896 Clouds 23 1017 10 10000 3.34 133 13:59 14.12.2021
4897 Clouds 23 1016 9 10000 3.26 136 12:50 14.12.2021
4898 Clouds 21 1017 10 10000 2.93 146 11:25 14.12.2021
4899 Clouds 21 1017 10 10000 2.93 146 10:59 14.12.2021
4900 Clouds 19 1018 11 10000 2.85 148 09:54 14.12.2021
4901 Clouds 16 1020 12 10000 2.59 144 08:49 14.12.2021
4902 Clouds 16 1020 13 10000 2.58 146 08:21 14.12.2021
4903 Clouds 15 1021 15 10000 2.49 155 07:23 14.12.2021
4904 Clouds 9 1019 18 10000 1.58 96 23:52 13.12.2021
4905 Clouds 10 1021 18 10000 1.22 44 22:26 13.12.2021
4906 Clouds 10 1021 18 10000 1.21 44 21:39 13.12.2021
4907 Clouds 12 1021 17 10000 1.37 40 20:54 13.12.2021
4908 Clouds 12 1021 16 10000 2.19 43 20:22 13.12.2021
4909 Clouds 13 1021 16 10000 2.19 43 19:49 13.12.2021
4910 Clouds 13 1021 16 10000 2.19 43 19:49 13.12.2021
4911 Clouds 16 1021 12 10000 3.34 56 17:28 13.12.2021
4912 Clouds 17 1021 12 10000 3.34 57 16:43 13.12.2021
4913 Clouds 20 1020 11 10000 3.05 45 15:43 13.12.2021
4914 Clouds 22 1019 11 10000 2.56 32 14:42 13.12.2021
4915 Clouds 21 1019 10 10000 2.4 27 13:37 13.12.2021
4916 Clouds 22 1019 11 10000 2.49 17 12:40 13.12.2021
4917 Clouds 21 1019 12 10000 2.3 12 11:52 13.12.2021
4918 Clouds 21 1020 14 10000 1.92 358 11:29 13.12.2021
4919 Clouds 18 1020 14 10000 1.92 358 10:37 13.12.2021
4920 Clouds 15 1022 19 10000 1.53 339 08:44 13.12.2021
4921 Clear 14 1024 28 10000 0 0 06:55 13.12.2021
4922 Clouds 8 1023 32 10000 2.3 337 05:19 13.12.2021
4923 Clouds 10 1022 30 10000 2.69 342 00:27 13.12.2021
4924 Clouds 13 1022 28 10000 2.93 352 21:59 12.12.2021
4925 Clouds 13 1023 27 10000 2.98 358 21:24 12.12.2021
4926 Clouds 14 1023 25 10000 3.35 8 19:35 12.12.2021
4927 Clouds 16 1023 20 10000 3.77 24 18:22 12.12.2021
4928 Clouds 19 1021 21 10000 3.68 4 16:32 12.12.2021
4929 Clouds 20 1021 21 10000 3.68 4 15:55 12.12.2021
4930 Clouds 20 1021 21 10000 3.17 356 15:28 12.12.2021
4931 Clouds 21 1021 21 10000 3.17 356 14:46 12.12.2021
4932 Clouds 21 1020 20 10000 3.84 355 14:18 12.12.2021
4933 Clouds 23 1020 20 10000 3.67 356 12:48 12.12.2021
4934 Clear 21 1023 24 10000 4.12 350 11:45 12.12.2021
4935 Clear 21 1023 24 10000 4.12 350 11:27 12.12.2021
4936 Clear 20 1024 26 10000 0 0 10:44 12.12.2021
4937 Clear 19 1026 27 10000 4.12 350 09:58 12.12.2021
4938 Clear 17 1027 31 10000 2.06 360 08:46 12.12.2021
4939 Clear 17 1027 31 10000 2.57 350 07:25 12.12.2021
4940 Clear 12 1026 40 10000 0 0 05:29 12.12.2021
4941 Clouds 9 1024 43 10000 2.13 353 04:19 12.12.2021
4942 Clouds 10 1023 41 10000 1.72 354 00:54 12.12.2021
4943 Clouds 13 1023 40 10000 1.71 10 22:56 11.12.2021
4944 Clouds 13 1024 39 10000 2.08 27 22:20 11.12.2021
4945 Clouds 14 1024 38 10000 2.35 33 21:26 11.12.2021
4946 Clouds 13 1024 36 10000 2.6 49 20:18 11.12.2021
4947 Clouds 14 1024 35 10000 2.7 61 19:21 11.12.2021
4948 Clouds 15 1024 33 10000 2.82 60 18:42 11.12.2021
4949 Clouds 18 1023 32 10000 2.83 71 17:53 11.12.2021
4950 Clouds 20 1022 28 10000 1.66 50 15:59 11.12.2021
4951 Clouds 20 1022 28 10000 1.66 50 15:40 11.12.2021
4952 Clouds 22 1021 27 10000 1.47 54 14:35 11.12.2021
4953 Clear 21 1021 24 10000 1.17 69 12:29 11.12.2021
4954 Clear 16 1026 41 10000 0 0 10:49 11.12.2021
4955 Clear 15 1027 41 10000 0 0 09:40 11.12.2021
4956 Clouds 9 1024 43 10000 2.15 11 03:57 11.12.2021
4957 Clouds 11 1023 41 10000 2.19 11 00:47 11.12.2021
4958 Clouds 12 1023 39 10000 2.36 14 23:42 10.12.2021
4959 Clouds 11 1023 38 10000 2.24 40 22:39 10.12.2021
4960 Clouds 12 1023 37 10000 2.58 40 21:40 10.12.2021
4961 Clouds 13 1024 34 10000 3.2 37 20:26 10.12.2021
4962 Clouds 15 1024 33 10000 3.36 44 19:18 10.12.2021
4963 Clouds 17 1023 30 10000 4.09 48 17:46 10.12.2021
4964 Clouds 19 1022 27 10000 4.28 50 16:35 10.12.2021
4965 Clouds 20 1022 27 10000 4.28 50 15:43 10.12.2021
4966 Clouds 20 1022 25 10000 3.95 51 15:25 10.12.2021
4967 Clouds 22 1022 25 10000 3.95 51 14:35 10.12.2021
4968 Clouds 22 1021 22 10000 4.1 50 13:49 10.12.2021
4969 Clouds 22 1021 22 10000 3.65 50 12:56 10.12.2021
4970 Clouds 22 1021 22 10000 3.63 47 11:41 10.12.2021
4971 Clouds 20 1022 23 10000 3.59 43 10:57 10.12.2021
4972 Clouds 18 1023 24 10000 3.98 36 09:46 10.12.2021
4973 Clouds 15 1025 31 10000 4.82 4 07:28 10.12.2021
4974 Clouds 11 1024 46 10000 3.64 350 04:57 10.12.2021
4975 Clouds 13 1022 43 10000 3.54 350 02:42 10.12.2021
4976 Clouds 15 1021 31 10000 2.49 353 23:42 09.12.2021
4977 Clouds 16 1021 30 10000 1.83 1 22:41 09.12.2021
4978 Clouds 16 1021 30 10000 0.91 58 22:22 09.12.2021
4979 Clouds 17 1021 30 10000 0.91 58 21:40 09.12.2021
4980 Clouds 18 1021 29 10000 1.11 109 20:35 09.12.2021
4981 Clouds 18 1021 28 10000 1.65 127 19:43 09.12.2021
4982 Clouds 18 1021 27 10000 2.2 137 19:20 09.12.2021
4983 Clouds 20 1020 24 10000 2.86 143 18:19 09.12.2021
4984 Clouds 22 1020 24 10000 2.89 143 17:48 09.12.2021
4985 Clouds 22 1020 23 10000 3.26 144 17:24 09.12.2021
4986 Clouds 22 1020 23 10000 3.24 144 16:36 09.12.2021
4987 Clouds 25 1019 20 10000 3.06 125 15:18 09.12.2021
4988 Clouds 27 1018 17 10000 2.55 83 14:30 09.12.2021
4989 Clouds 29 1018 16 10000 2.06 53 12:48 09.12.2021
4990 Clear 26 1021 21 10000 0 0 11:51 09.12.2021
4991 Clouds 25 1019 19 10000 0.59 221 10:28 09.12.2021
4992 Clear 19 1023 27 10000 1.54 160 07:34 09.12.2021
4993 Clouds 13 1020 36 10000 3.24 161 03:56 09.12.2021
4994 Clouds 14 1020 31 10000 3.16 154 00:25 09.12.2021
4995 Clouds 15 1020 31 10000 3.16 154 23:37 08.12.2021
4996 Clouds 16 1020 30 10000 3.69 154 22:57 08.12.2021
4997 Clouds 16 1020 28 10000 3.92 152 22:25 08.12.2021
4998 Clouds 17 1020 28 10000 3.92 152 21:33 08.12.2021
4999 Clouds 17 1021 27 10000 4.06 151 20:50 08.12.2021
5000 Clouds 18 1021 27 10000 4.13 151 19:57 08.12.2021
5001 Clouds 18 1021 27 10000 3.45 145 19:20 08.12.2021
5002 Clouds 18 1020 28 10000 3.37 129 18:22 08.12.2021
5003 Clouds 21 1020 28 10000 3.34 120 16:55 08.12.2021
5004 Clouds 24 1019 27 10000 3.56 117 15:42 08.12.2021
5005 Clouds 24 1018 25 10000 3.54 113 15:22 08.12.2021
5006 Clouds 26 1018 21 10000 2.35 132 13:26 08.12.2021
5007 Clear 23 1021 18 10000 3.6 170 10:45 08.12.2021
5008 Clear 22 1022 20 10000 5.14 150 09:58 08.12.2021
5009 Clear 20 1023 22 10000 4.63 170 08:34 08.12.2021
5010 Clear 18 1023 27 10000 0 0 06:22 08.12.2021
5011 Clouds 11 1021 26 10000 1.18 125 01:20 08.12.2021
5012 Clouds 13 1021 25 10000 1.19 68 23:23 07.12.2021
5013 Clouds 14 1021 23 10000 1.93 39 21:26 07.12.2021
5014 Clouds 15 1022 22 10000 2.49 38 20:25 07.12.2021
5015 Clear 16 1021 22 10000 3.16 52 19:21 07.12.2021
5016 Clear 18 1021 23 10000 3.59 47 18:23 07.12.2021
5017 Clear 19 1020 24 10000 3.3 27 17:27 07.12.2021
5018 Clear 19 1020 24 10000 3.31 27 16:56 07.12.2021
5019 Clear 19 1020 24 10000 2.67 15 16:26 07.12.2021
5020 Clear 24 1019 24 10000 2.51 8 14:38 07.12.2021
5021 Clear 25 1019 22 10000 2.85 2 13:41 07.12.2021
5022 Clear 24 1021 19 10000 0 0 12:22 07.12.2021
5023 Clear 23 1021 18 10000 4.12 30 11:23 07.12.2021
5024 Clear 21 1023 21 10000 1.54 30 09:40 07.12.2021
5025 Clear 18 1024 25 10000 3.09 30 07:50 07.12.2021
5026 Clear 14 1023 33 10000 0 0 05:52 07.12.2021
5027 Clear 14 1023 33 10000 0 0 05:26 07.12.2021
5028 Clouds 16 1020 33 10000 3.89 358 23:38 06.12.2021
5029 Clouds 16 1020 33 10000 4.24 360 22:41 06.12.2021
5030 Clear 17 1020 32 10000 4.34 0 21:59 06.12.2021
5031 Clear 17 1020 32 10000 4.34 0 21:36 06.12.2021
5032 Clear 18 1020 31 10000 4.47 0 20:33 06.12.2021
5033 Clear 18 1020 31 10000 4.57 4 19:25 06.12.2021
5034 Clear 20 1020 31 10000 4.57 4 18:55 06.12.2021
5035 Clear 21 1019 31 10000 4.76 11 17:55 06.12.2021
5036 Clear 21 1019 31 10000 4.76 11 17:33 06.12.2021
5037 Clouds 25 1017 24 10000 3.68 352 15:52 06.12.2021
5038 Clouds 27 1016 21 10000 3.12 347 14:46 06.12.2021
5039 Clouds 28 1015 18 10000 3.23 301 13:35 06.12.2021
5040 Clouds 28 1015 18 10000 3.23 301 12:38 06.12.2021
5041 Clear 26 1020 19 10000 3.09 220 10:28 06.12.2021
5042 Clear 20 1020 26 10000 3.6 170 07:41 06.12.2021
5043 Clear 12 1018 33 10000 2.71 199 03:52 06.12.2021
5044 Clear 15 1018 33 10000 2.74 159 22:28 05.12.2021
5045 Clear 15 1018 33 10000 2.75 158 22:28 05.12.2021
5046 Clear 16 1018 32 10000 3.73 157 21:26 05.12.2021
5047 Clear 17 1018 32 10000 3.73 157 20:54 05.12.2021
5048 Clear 17 1018 31 10000 3.9 160 20:18 05.12.2021
5049 Clear 18 1018 30 10000 3.91 167 19:26 05.12.2021
5050 Clear 19 1018 28 10000 3.69 164 18:31 05.12.2021
5051 Clear 20 1018 28 10000 3.67 164 17:53 05.12.2021
5052 Clear 20 1018 28 10000 3.67 164 17:34 05.12.2021
5053 Clear 22 1017 27 10000 3.86 147 16:38 05.12.2021
5054 Clear 22 1017 26 10000 4.25 130 16:19 05.12.2021
5055 Clouds 26 1016 25 10000 4.41 122 14:48 05.12.2021
5056 Clouds 26 1016 25 10000 4.4 122 14:30 05.12.2021
5057 Clouds 26 1016 21 10000 4.08 133 13:36 05.12.2021
5058 Clear 25 1019 18 10000 3.09 170 12:47 05.12.2021
5059 Clear 25 1019 18 10000 3.09 170 12:27 05.12.2021
5060 Clear 25 1019 19 10000 3.09 210 11:46 05.12.2021
5061 Clear 24 1020 19 10000 2.57 190 10:43 05.12.2021
5062 Clear 22 1021 21 10000 2.57 150 09:47 05.12.2021
5063 Clear 17 1022 27 10000 0 0 06:31 05.12.2021
5064 Clear 11 1019 30 10000 1.82 160 01:38 05.12.2021
5065 Clear 13 1020 28 10000 1.79 153 23:22 04.12.2021
5066 Clear 14 1020 28 10000 1.68 131 21:52 04.12.2021
5067 Clear 15 1021 28 10000 1.88 87 20:47 04.12.2021
5068 Clear 16 1021 28 10000 2.36 68 19:54 04.12.2021
5069 Clear 16 1021 28 10000 2.36 68 19:30 04.12.2021
5070 Clear 19 1021 28 10000 2.48 67 17:58 04.12.2021
5071 Clear 19 1021 28 10000 2.48 67 17:36 04.12.2021
5072 Clear 20 1020 27 10000 2.28 63 16:47 04.12.2021
5073 Clear 20 1020 27 10000 2.31 62 16:47 04.12.2021
5074 Clear 20 1020 27 10000 2.12 57 16:28 04.12.2021
5075 Clear 22 1019 23 10000 2.03 16 13:39 04.12.2021
5076 Clear 22 1022 28 10000 0.51 290 11:44 04.12.2021
5077 Clear 22 1022 28 10000 0.51 290 11:20 04.12.2021
5078 Clear 21 1023 21 10000 1.03 360 10:24 04.12.2021
5079 Clear 19 1025 26 10000 1.54 10 08:42 04.12.2021
5080 Clear 10 1024 43 10000 1.54 320 05:47 04.12.2021
5081 Clouds 9 1024 38 10000 1.65 350 04:41 04.12.2021
5082 Clear 11 1022 41 10000 2.66 3 23:49 03.12.2021
5083 Clear 13 1022 41 10000 2.92 3 22:56 03.12.2021
5084 Clear 14 1023 42 10000 2.72 6 22:00 03.12.2021
5085 Clouds 13 1023 42 10000 3.01 16 21:25 03.12.2021
5086 Clouds 15 1023 42 10000 3.01 16 20:43 03.12.2021
5087 Clear 15 1023 42 10000 3.3 21 19:36 03.12.2021
5088 Clear 17 1022 39 10000 3.84 35 18:26 03.12.2021
5089 Clear 18 1022 39 10000 3.84 35 17:44 03.12.2021
5090 Clear 22 1019 30 10000 2.9 5 14:20 03.12.2021
5091 Clear 25 1022 22 10000 3.09 300 12:52 03.12.2021
5092 Clear 24 1022 22 10000 2.57 30 11:24 03.12.2021
5093 Clear 20 1024 28 10000 4.63 360 09:57 03.12.2021
5094 Clear 18 1024 29 10000 4.12 60 08:24 03.12.2021
5095 Clear 17 1024 29 10000 3.09 20 07:38 03.12.2021
5096 Clear 15 1019 56 10000 5.33 6 02:24 03.12.2021
5097 Clouds 16 1018 50 10000 5.79 4 00:47 03.12.2021
5098 Clouds 17 1018 39 10000 6.3 5 23:46 02.12.2021
5099 Clouds 17 1017 25 10000 4.76 8 21:42 02.12.2021
5100 Clouds 20 1016 25 10000 1.23 338 20:57 02.12.2021
5101 Clouds 20 1016 25 10000 1.23 338 20:38 02.12.2021
5102 Clouds 19 1016 23 10000 2.72 147 19:25 02.12.2021
5103 Clouds 22 1016 21 10000 3.66 143 17:43 02.12.2021
5104 Clouds 26 1015 18 10000 1.74 191 15:42 02.12.2021
5105 Clouds 27 1014 17 10000 2.04 227 14:59 02.12.2021
5106 Clouds 28 1013 14 10000 2.98 241 13:58 02.12.2021
5107 Clouds 27 1015 13 10000 4.63 230 12:52 02.12.2021
5108 Clouds 27 1015 13 10000 4.63 230 12:18 02.12.2021
5109 Clear 26 1020 22 10000 6.17 210 09:41 02.12.2021
5110 Clear 22 1019 24 10000 2.06 130 08:52 02.12.2021
5111 Clear 15 1017 36 10000 2.06 160 04:54 02.12.2021
5112 Clear 16 1015 31 10000 3.5 166 00:53 02.12.2021
5113 Clear 16 1015 30 10000 3.95 161 23:19 01.12.2021
5114 Clear 17 1015 29 10000 4.04 162 22:23 01.12.2021
5115 Clear 18 1016 28 10000 4.43 156 20:39 01.12.2021
5116 Clear 19 1016 27 10000 4.49 151 19:54 01.12.2021
5117 Clouds 19 1016 26 10000 4.02 162 19:28 01.12.2021
5118 Clouds 21 1015 24 10000 4.01 161 17:45 01.12.2021
5119 Clouds 23 1015 23 10000 3.99 150 16:46 01.12.2021
5120 Clouds 27 1014 20 10000 4.34 122 14:52 01.12.2021
5121 Clear 27 1014 17 10000 3.7 131 13:45 01.12.2021
5122 Clear 27 1016 14 10000 4.63 160 12:50 01.12.2021
5123 Clear 26 1018 17 10000 5.14 180 10:42 01.12.2021
5124 Clear 24 1020 19 10000 6.17 180 09:20 01.12.2021
5125 Clear 23 1020 20 10000 3.6 170 08:30 01.12.2021
5126 Clear 21 1021 23 10000 3.6 150 07:34 01.12.2021
5127 Clear 18 1020 27 10000 1.54 130 06:59 01.12.2021
5128 Clouds 11 1018 31 10000 2.09 153 03:46 01.12.2021
5129 Clear 13 1017 29 10000 1.73 129 00:59 01.12.2021
5130 Clear 13 1017 28 10000 1.44 124 23:54 30.11.2021
5131 Clear 13 1018 27 10000 0.99 114 23:25 30.11.2021
5132 Clear 16 1018 27 10000 0.54 65 21:39 30.11.2021
5133 Clear 18 1018 26 10000 0.97 37 20:44 30.11.2021
5134 Clear 20 1019 25 10000 1.86 39 19:53 30.11.2021
5135 Clear 20 1019 25 10000 1.86 39 19:34 30.11.2021
5136 Clear 20 1018 23 10000 3.07 51 18:37 30.11.2021
5137 Clear 24 1017 19 10000 2.97 18 16:50 30.11.2021
5138 Clear 26 1017 19 10000 3.14 17 15:38 30.11.2021
5139 Clear 27 1016 16 10000 3.38 6 14:20 30.11.2021
5140 Clear 29 1016 16 10000 2.99 359 13:26 30.11.2021
5141 Clear 27 1019 16 10000 3.09 360 12:45 30.11.2021
5142 Clear 27 1020 16 10000 2.57 0 11:50 30.11.2021
5143 Clear 27 1020 16 10000 2.57 0 11:23 30.11.2021
5144 Clear 26 1021 18 10000 1.54 260 10:33 30.11.2021
5145 Clear 24 1023 22 10000 1.03 330 08:53 30.11.2021
5146 Clear 24 1023 22 10000 1.03 330 08:26 30.11.2021
5147 Clear 22 1023 24 10000 1.54 0 07:47 30.11.2021
5148 Clear 14 1020 31 10000 3.17 320 02:41 30.11.2021
5149 Clear 14 1020 31 10000 3.2 320 01:42 30.11.2021
5150 Clear 15 1020 29 10000 2.95 333 00:24 30.11.2021
5151 Clear 15 1020 29 10000 2.86 340 23:24 29.11.2021
5152 Clear 17 1020 29 10000 2.86 340 22:56 29.11.2021
5153 Clear 17 1020 29 10000 2.86 340 22:33 29.11.2021
5154 Clear 17 1020 28 10000 2.75 343 21:30 29.11.2021
5155 Clear 17 1020 28 10000 2.92 356 20:59 29.11.2021
5156 Clear 17 1020 28 10000 2.93 356 20:32 29.11.2021
5157 Clear 18 1021 27 10000 3.01 2 19:56 29.11.2021
5158 Clear 18 1021 26 10000 3.19 357 19:36 29.11.2021
5159 Clear 19 1021 26 10000 3.2 357 18:51 29.11.2021
5160 Clear 20 1020 24 10000 3.32 9 17:49 29.11.2021
5161 Clear 21 1020 23 10000 3.51 11 17:18 29.11.2021
5162 Clear 21 1020 23 10000 3.51 11 17:18 29.11.2021
5163 Clear 22 1019 20 10000 3.66 5 16:29 29.11.2021
5164 Clear 22 1019 20 10000 3.66 5 16:29 29.11.2021
5165 Clear 22 1019 20 10000 3.66 5 15:52 29.11.2021
5166 Clear 23 1018 18 10000 3.9 359 14:43 29.11.2021
5167 Clear 25 1018 15 10000 5.04 358 13:34 29.11.2021
5168 Clear 25 1018 13 10000 5.01 346 12:37 29.11.2021
5169 Clear 25 1018 13 10000 5.01 346 11:40 29.11.2021
5170 Clear 25 1019 13 10000 5.12 341 10:51 29.11.2021
5171 Clear 23 1024 20 10000 2.57 320 09:36 29.11.2021
5172 Clear 19 1024 27 10000 2.06 290 06:21 29.11.2021
5173 Clear 15 1020 36 10000 2.87 324 02:28 29.11.2021
5174 Clear 15 1020 36 10000 3.07 327 00:42 29.11.2021
5175 Clear 16 1021 35 10000 3.26 337 23:44 28.11.2021
5176 Clear 16 1020 35 10000 3.2 347 23:24 28.11.2021
5177 Clear 16 1021 34 10000 3.52 355 21:52 28.11.2021
5178 Clear 16 1021 33 10000 3.39 1 21:23 28.11.2021
5179 Clear 18 1021 33 10000 3.39 1 20:34 28.11.2021
5180 Clear 19 1021 30 10000 3.93 10 19:25 28.11.2021
5181 Clear 20 1021 29 10000 4.03 16 18:35 28.11.2021
5182 Clear 22 1020 28 10000 4 20 17:55 28.11.2021
5183 Clear 22 1020 28 10000 4 20 17:31 28.11.2021
5184 Clear 23 1020 27 10000 4.09 13 16:40 28.11.2021
5185 Clear 23 1019 26 10000 3.93 5 16:18 28.11.2021
5186 Clear 24 1019 26 10000 3.93 5 15:31 28.11.2021
5187 Clear 25 1018 24 10000 3.61 356 14:46 28.11.2021
5188 Clear 26 1018 22 10000 3.46 346 13:22 28.11.2021
5189 Clear 25 1021 22 10000 3.6 20 12:48 28.11.2021
5190 Clear 24 1022 23 10000 3.6 40 11:18 28.11.2021
5191 Clear 23 1023 27 10000 4.63 30 10:21 28.11.2021
5192 Clear 22 1024 26 10000 3.6 340 09:37 28.11.2021
5193 Clear 20 1025 30 10000 3.6 360 07:49 28.11.2021
5194 Clear 18 1020 36 10000 2.88 7 23:58 27.11.2021
5195 Clear 20 1020 35 10000 3.49 22 20:57 27.11.2021
5196 Clouds 20 1020 34 10000 4.28 23 19:23 27.11.2021
5197 Clouds 23 1019 30 10000 6.7 21 17:27 27.11.2021
5198 Clear 26 1018 30 10000 6.76 17 15:57 27.11.2021
5199 Clear 28 1016 25 10000 6.25 360 13:48 27.11.2021
5200 Clear 28 1016 23 10000 5.21 353 12:57 27.11.2021
5201 Clear 28 1016 23 10000 3.59 319 10:52 27.11.2021
5202 Clear 26 1017 24 10000 3.32 302 09:53 27.11.2021
5203 Clear 25 1018 24 10000 3.26 292 08:43 27.11.2021
5204 Clear 18 1020 30 10000 3 305 06:34 27.11.2021
5205 Clear 17 1017 39 10000 1.17 219 01:57 27.11.2021
5206 Clear 20 1017 37 10000 1.89 191 23:38 26.11.2021
5207 Clear 20 1018 34 10000 2.57 168 22:25 26.11.2021
5208 Clear 20 1018 34 10000 2.57 168 21:38 26.11.2021
5209 Clear 20 1018 34 10000 2.65 172 21:18 26.11.2021
5210 Clear 21 1018 32 10000 2.97 178 20:29 26.11.2021
5211 Clear 22 1018 32 10000 2.97 178 19:49 26.11.2021
5212 Clear 23 1017 27 10000 3.52 174 18:41 26.11.2021
5213 Clear 24 1017 26 10000 3.53 150 17:23 26.11.2021
5214 Clear 28 1016 25 10000 2.94 133 15:59 26.11.2021
5215 Clear 29 1015 20 10000 2.24 217 13:36 26.11.2021
5216 Clear 30 1015 19 10000 2.54 218 12:51 26.11.2021
5217 Clear 28 1016 21 10000 3.36 192 10:39 26.11.2021
5218 Clear 27 1018 26 10000 4.69 178 09:29 26.11.2021
5219 Clear 25 1018 26 10000 4.69 178 08:47 26.11.2021
5220 Clear 25 1019 28 10000 4.7 173 08:19 26.11.2021
5221 Clear 19 1019 33 10000 4.24 159 06:29 26.11.2021
5222 Clear 15 1019 37 10000 3.45 152 04:52 26.11.2021
5223 Clear 16 1018 37 10000 3.66 147 03:28 26.11.2021
5224 Clear 17 1018 37 10000 3.73 142 23:29 25.11.2021
5225 Clear 20 1018 35 10000 4.03 145 21:58 25.11.2021
5226 Clear 20 1018 34 10000 4.47 149 20:41 25.11.2021
5227 Clear 22 1018 30 10000 4.4 141 18:50 25.11.2021
5228 Clear 22 1018 28 10000 4.41 125 18:19 25.11.2021
5229 Clear 23 1017 27 10000 3.85 130 17:27 25.11.2021
5230 Clear 25 1017 27 10000 3.85 130 16:41 25.11.2021
5231 Clear 25 1017 27 10000 3.85 130 16:41 25.11.2021
5232 Clear 26 1017 26 10000 4.03 137 15:58 25.11.2021
5233 Clear 27 1015 23 10000 5.64 137 14:24 25.11.2021
5234 Clear 27 1015 22 10000 5.34 142 12:55 25.11.2021
5235 Clear 27 1015 22 10000 5.15 145 11:55 25.11.2021
5236 Clear 26 1016 23 10000 4.86 151 10:31 25.11.2021
5237 Clear 18 1020 29 10000 4.98 151 06:36 25.11.2021
5238 Clear 14 1019 35 10000 2.51 144 02:56 25.11.2021
5239 Clear 15 1018 35 10000 1.68 111 23:40 24.11.2021
5240 Clear 15 1018 34 10000 1.96 99 22:29 24.11.2021
5241 Clear 16 1018 34 10000 1.96 99 21:48 24.11.2021
5242 Clear 16 1019 33 10000 2.28 83 21:19 24.11.2021
5243 Clear 18 1019 33 10000 2.7 75 20:26 24.11.2021
5244 Clear 19 1019 33 10000 3.16 70 19:20 24.11.2021
5245 Clear 20 1018 32 10000 4.04 74 18:18 24.11.2021
5246 Clear 22 1017 31 10000 3.8 81 16:20 24.11.2021
5247 Clear 24 1017 29 10000 3.02 79 14:57 24.11.2021
5248 Clear 24 1016 27 10000 2.85 80 14:21 24.11.2021
5249 Clear 24 1016 28 10000 2.49 88 12:51 24.11.2021
5250 Clear 23 1017 29 10000 2.56 80 11:24 24.11.2021
5251 Clear 22 1017 29 10000 2.56 80 10:52 24.11.2021
5252 Clear 22 1017 29 10000 2.56 80 10:52 24.11.2021
5253 Clear 22 1017 29 10000 2.56 80 10:34 24.11.2021
5254 Clear 20 1021 34 10000 3.62 50 08:35 24.11.2021
5255 Clear 18 1021 34 10000 3.61 50 07:31 24.11.2021
5256 Clear 15 1020 53 10000 3.41 26 05:23 24.11.2021
5257 Clear 16 1019 54 10000 3.27 29 02:44 24.11.2021
5258 Clear 18 1019 51 10000 3.2 25 23:33 23.11.2021
5259 Clear 18 1019 51 10000 3.53 28 22:37 23.11.2021
5260 Clear 19 1019 51 10000 3.89 32 21:45 23.11.2021
5261 Clear 20 1020 51 10000 5.57 28 20:22 23.11.2021
5262 Clear 20 1020 51 10000 6.46 28 19:29 23.11.2021
5263 Clear 21 1020 51 10000 6.46 28 18:33 23.11.2021
5264 Clouds 22 1019 49 10000 7.2 30 17:30 23.11.2021
5265 Clouds 23 1018 49 10000 6.95 35 16:35 23.11.2021
5266 Clear 24 1016 41 10000 5.39 41 15:26 23.11.2021
5267 Clear 25 1016 40 10000 5.16 41 14:44 23.11.2021
5268 Clear 26 1016 34 10000 3.48 41 12:53 23.11.2021
5269 Clear 24 1017 38 10000 4.11 44 10:28 23.11.2021
5270 Clear 23 1017 38 10000 4.11 44 09:45 23.11.2021
5271 Clear 19 1019 47 10000 5.14 31 07:51 23.11.2021
5272 Clouds 18 1019 58 10000 3.58 5 04:53 23.11.2021
5273 Clouds 18 1018 58 10000 3.95 359 03:29 23.11.2021
5274 Clouds 21 1017 40 10000 4.09 351 23:35 22.11.2021
5275 Clouds 22 1017 37 10000 3.81 350 22:57 22.11.2021
5276 Clouds 22 1017 37 10000 3.81 350 22:30 22.11.2021
5277 Clouds 22 1017 37 10000 3.81 350 22:30 22.11.2021
5278 Clouds 22 1017 37 10000 3.81 350 22:30 22.11.2021
5279 Clouds 22 1017 34 10000 3.52 349 21:44 22.11.2021
5280 Clouds 22 1017 32 10000 3.12 332 21:18 22.11.2021
5281 Clouds 24 1017 29 10000 3.04 289 20:23 22.11.2021
5282 Clear 24 1016 27 10000 3.41 192 19:20 22.11.2021
5283 Clear 27 1016 27 10000 3.41 192 18:40 22.11.2021
5284 Clear 28 1016 26 10000 4.96 171 17:46 22.11.2021
5285 Clear 30 1015 25 10000 5.26 162 16:30 22.11.2021
5286 Clear 32 1014 21 10000 3.32 192 14:41 22.11.2021
5287 Clear 32 1013 17 10000 6.58 203 12:48 22.11.2021
5288 Clear 32 1013 18 10000 7.71 192 11:27 22.11.2021
5289 Clear 29 1014 19 10000 8.05 187 09:56 22.11.2021
5290 Clear 28 1015 21 10000 8.37 182 08:42 22.11.2021
5291 Clouds 26 1017 27 10000 6.65 176 07:24 22.11.2021
5292 Clear 22 1014 35 10000 4.03 144 00:21 22.11.2021
5293 Clear 21 1014 34 10000 3.76 142 22:54 21.11.2021
5294 Clear 21 1014 32 10000 3.65 140 22:26 21.11.2021
5295 Clear 22 1014 30 10000 3.41 144 20:44 21.11.2021
5296 Clear 22 1014 28 10000 3.23 147 20:26 21.11.2021
5297 Clear 26 1014 26 10000 3.19 155 18:49 21.11.2021
5298 Clear 27 1014 26 10000 2.85 178 17:41 21.11.2021
5299 Clear 27 1013 26 10000 2.68 183 17:19 21.11.2021
5300 Clear 31 1011 22 10000 3.28 197 14:48 21.11.2021
5301 Clear 31 1010 19 10000 5.99 213 13:57 21.11.2021
5302 Clear 30 1010 19 10000 6.9 222 12:55 21.11.2021
5303 Clear 30 1009 19 10000 6.81 211 11:58 21.11.2021
5304 Clear 30 1009 19 10000 6.81 211 11:36 21.11.2021
5305 Clear 29 1011 21 10000 6.22 210 10:19 21.11.2021
5306 Clear 28 1012 23 10000 6.16 221 09:44 21.11.2021
5307 Clear 27 1013 24 10000 5.74 212 08:31 21.11.2021
5308 Clear 25 1014 27 10000 5.28 210 07:51 21.11.2021
5309 Clear 21 1014 34 10000 3.07 196 06:26 21.11.2021
5310 Clear 20 1014 34 10000 3.07 196 05:39 21.11.2021
5311 Clouds 19 1012 39 10000 1.94 184 03:21 21.11.2021
5312 Clouds 19 1012 39 10000 1.94 184 02:54 21.11.2021
5313 Clear 20 1010 38 10000 2.25 168 01:25 21.11.2021
5314 Clear 21 1010 38 10000 2.25 168 00:41 21.11.2021
5315 Clouds 24 1009 32 10000 3.72 190 21:55 20.11.2021
5316 Clouds 24 1009 30 10000 5.67 177 21:30 20.11.2021
5317 Clouds 25 1009 28 10000 6.97 172 19:46 20.11.2021
5318 Clouds 25 1009 29 10000 6.65 171 18:45 20.11.2021
5319 Clouds 25 1009 28 10000 7.14 167 18:19 20.11.2021
5320 Clear 25 1008 28 10000 5.76 159 17:22 20.11.2021
5321 Clear 29 1007 25 10000 4.46 218 14:55 20.11.2021
5322 Clear 29 1007 22 10000 7.59 223 14:28 20.11.2021
5323 Clear 29 1007 22 10000 7.59 223 13:46 20.11.2021
5324 Clear 28 1007 21 10000 8.8 191 11:26 20.11.2021
5325 Clear 26 1009 22 10000 9.05 185 09:56 20.11.2021
5326 Clear 25 1010 23 10000 8.83 179 08:35 20.11.2021
5327 Clouds 21 1012 30 10000 8.04 169 06:32 20.11.2021
5328 Clouds 18 1012 38 10000 5.6 167 05:18 20.11.2021
5329 Clouds 18 1012 38 10000 5.6 167 04:49 20.11.2021
5330 Clouds 20 1011 37 10000 6.3 159 00:43 20.11.2021
5331 Clouds 19 1011 38 10000 6.17 161 23:45 19.11.2021
5332 Clear 20 1011 38 10000 6.21 152 22:53 19.11.2021
5333 Clear 21 1011 36 10000 6.69 149 21:28 19.11.2021
5334 Clear 22 1011 36 10000 6.69 149 20:41 19.11.2021
5335 Clear 22 1012 35 10000 6.94 148 20:23 19.11.2021
5336 Clear 21 1012 35 10000 6.94 148 19:44 19.11.2021
5337 Clear 22 1012 34 10000 6.97 140 18:46 19.11.2021
5338 Clear 23 1012 32 10000 6.81 127 17:44 19.11.2021
5339 Clear 23 1012 32 10000 5.27 121 16:43 19.11.2021
5340 Clear 26 1011 29 10000 5.06 128 14:52 19.11.2021
5341 Clouds 25 1012 27 10000 5.45 153 11:32 19.11.2021
5342 Clouds 24 1014 29 10000 4.76 140 10:24 19.11.2021
5343 Clouds 22 1016 32 10000 4.68 140 08:35 19.11.2021
5344 Clear 14 1017 43 10000 1.63 117 05:36 19.11.2021
5345 Clear 14 1017 46 10000 1.71 100 04:19 19.11.2021
5346 Clear 17 1017 41 10000 2.15 69 23:54 18.11.2021
5347 Clear 17 1017 40 10000 2.19 80 23:18 18.11.2021
5348 Clear 17 1017 38 10000 2.6 59 21:18 18.11.2021
5349 Clear 17 1017 38 10000 2.6 59 20:44 18.11.2021
5350 Clear 17 1018 37 10000 2.9 48 20:23 18.11.2021
5351 Clear 19 1018 37 10000 2.89 49 19:36 18.11.2021
5352 Clear 21 1018 34 10000 3.42 48 18:38 18.11.2021
5353 Clear 22 1017 32 10000 4.04 42 17:52 18.11.2021
5354 Clear 22 1017 30 10000 3.8 32 17:22 18.11.2021
5355 Clear 23 1017 30 10000 3.8 32 16:42 18.11.2021
5356 Clear 26 1016 26 10000 3.14 11 14:57 18.11.2021
5357 Clear 25 1015 24 10000 2.98 349 12:55 18.11.2021
5358 Clear 26 1016 25 10000 2.77 342 11:44 18.11.2021
5359 Clear 26 1016 27 10000 2.46 344 11:26 18.11.2021
5360 Clear 25 1016 27 10000 2.46 344 10:35 18.11.2021
5361 Clear 21 1019 33 10000 1.95 8 08:44 18.11.2021
5362 Clear 17 1020 40 10000 2.21 19 06:49 18.11.2021
5363 Clear 15 1020 45 10000 2.47 9 05:46 18.11.2021
5364 Clear 15 1018 49 10000 2.53 5 01:27 18.11.2021
5365 Clear 17 1018 48 10000 2.56 12 23:46 17.11.2021
5366 Clear 17 1018 47 10000 2.91 24 22:40 17.11.2021
5367 Clear 17 1018 45 10000 3.25 25 22:19 17.11.2021
5368 Clear 17 1018 45 10000 3.25 25 22:19 17.11.2021
5369 Clear 17 1018 45 10000 3.25 25 21:35 17.11.2021
5370 Clear 18 1018 41 10000 3.75 29 20:18 17.11.2021
5371 Clear 22 1017 33 10000 5.2 31 17:36 17.11.2021
5372 Clear 23 1016 30 10000 4.76 29 16:28 17.11.2021
5373 Clear 26 1014 27 10000 3.61 10 13:41 17.11.2021
5374 Clear 26 1014 29 10000 2.79 3 12:38 17.11.2021
5375 Clear 25 1014 31 10000 3.03 6 10:54 17.11.2021
5376 Clouds 22 1015 34 10000 3.63 3 09:44 17.11.2021
5377 Clouds 21 1017 42 10000 4.2 360 08:30 17.11.2021
5378 Clouds 20 1017 42 10000 4.2 360 07:41 17.11.2021
5379 Clouds 18 1014 37 10000 3.93 354 02:56 17.11.2021
5380 Clouds 19 1013 37 10000 3.98 2 00:42 17.11.2021
5381 Clouds 21 1013 35 10000 3.89 11 22:37 16.11.2021
5382 Clouds 23 1012 31 10000 3.23 352 20:19 16.11.2021
5383 Clouds 25 1012 31 10000 3.23 352 19:55 16.11.2021
5384 Clouds 26 1012 30 10000 2.27 8 18:52 16.11.2021
5385 Clouds 26 1012 28 10000 1.86 7 18:29 16.11.2021
5386 Clouds 27 1012 28 10000 1.86 7 17:31 16.11.2021
5387 Clouds 28 1010 25 10000 1.25 308 16:31 16.11.2021
5388 Clouds 29 1010 24 10000 1.2 304 15:48 16.11.2021
5389 Clouds 30 1009 20 10000 4.17 236 13:49 16.11.2021
5390 Clouds 29 1010 19 10000 7.23 245 10:52 16.11.2021
5391 Clear 28 1011 19 10000 7.27 235 09:44 16.11.2021
5392 Clear 27 1013 22 10000 5.2 224 08:24 16.11.2021
5393 Clear 23 1013 22 10000 5.42 224 07:31 16.11.2021
5394 Clear 18 1013 29 10000 3.97 156 01:20 16.11.2021
5395 Clear 19 1013 28 10000 4.67 147 22:48 15.11.2021
5396 Clear 19 1014 27 10000 4.76 142 22:21 15.11.2021
5397 Clear 20 1014 27 10000 4.76 142 21:51 15.11.2021
5398 Clear 20 1014 27 10000 4.44 141 21:25 15.11.2021
5399 Clear 22 1014 27 10000 4.04 147 19:41 15.11.2021
5400 Clear 23 1015 27 10000 3.65 150 18:18 15.11.2021
5401 Clear 24 1014 25 10000 3.57 134 16:19 15.11.2021
5402 Clear 26 1014 25 10000 3.57 134 15:40 15.11.2021
5403 Clear 26 1014 23 10000 3.36 128 15:20 15.11.2021
5404 Clear 29 1013 20 10000 3.14 130 12:47 15.11.2021
5405 Clear 27 1014 21 10000 2.86 154 10:54 15.11.2021
5406 Clear 26 1017 21 10000 3.28 155 09:26 15.11.2021
5407 Clear 21 1018 22 10000 3.35 149 07:45 15.11.2021
5408 Clear 13 1019 28 10000 2.27 146 04:46 15.11.2021
5409 Clouds 16 1018 30 10000 1.16 139 23:37 14.11.2021
5410 Clouds 16 1019 28 10000 1.91 111 22:34 14.11.2021
5411 Clear 21 1019 27 10000 3.37 85 19:51 14.11.2021
5412 Clouds 21 1019 27 10000 3.94 76 19:18 14.11.2021
5413 Clouds 22 1019 26 10000 3.92 78 18:54 14.11.2021
5414 Clouds 22 1019 26 10000 3.92 78 18:36 14.11.2021
5415 Clouds 22 1019 27 10000 3.18 77 18:18 14.11.2021
5416 Clouds 23 1019 27 10000 3.2 77 17:54 14.11.2021
5417 Clouds 23 1019 27 10000 3.2 77 17:36 14.11.2021
5418 Clouds 23 1019 27 10000 1.91 104 17:18 14.11.2021
5419 Clouds 24 1019 27 10000 1.91 104 16:45 14.11.2021
5420 Clear 24 1018 26 10000 1.9 140 16:19 14.11.2021
5421 Clear 26 1017 24 10000 2.32 138 15:22 14.11.2021
5422 Clear 28 1017 24 10000 2.32 138 14:45 14.11.2021
5423 Clear 28 1016 22 10000 2.84 130 14:23 14.11.2021
5424 Clear 28 1016 22 10000 2.84 130 13:53 14.11.2021
5425 Clouds 28 1016 22 10000 2.77 127 13:32 14.11.2021
5426 Clouds 28 1017 23 10000 2.95 130 12:26 14.11.2021
5427 Clouds 27 1017 23 10000 2.93 131 11:34 14.11.2021
5428 Clouds 26 1017 25 10000 3.08 138 10:40 14.11.2021
5429 Clouds 26 1017 25 10000 3.08 138 10:40 14.11.2021
5430 Clouds 23 1019 27 10000 2.98 142 09:42 14.11.2021
5431 Clouds 22 1020 30 10000 2.32 127 08:52 14.11.2021
5432 Clouds 17 1021 35 10000 2.13 102 06:54 14.11.2021
5433 Clouds 17 1019 47 10000 1.78 93 23:28 13.11.2021
5434 Clear 19 1019 46 10000 2.64 90 22:22 13.11.2021
5435 Clear 19 1019 46 10000 2.64 90 21:50 13.11.2021
5436 Clear 19 1020 44 10000 3.09 85 21:18 13.11.2021
5437 Clear 21 1020 42 10000 3.8 78 19:37 13.11.2021
5438 Clouds 22 1019 36 10000 4.26 77 18:33 13.11.2021
5439 Clouds 23 1019 34 10000 4.85 71 17:46 13.11.2021
5440 Clouds 24 1019 30 10000 4.61 70 16:35 13.11.2021
5441 Clouds 26 1017 23 10000 3.65 93 14:57 13.11.2021
5442 Clear 26 1017 20 10000 3.67 107 14:19 13.11.2021
5443 Clouds 26 1017 19 10000 3.38 124 12:52 13.11.2021
5444 Clouds 25 1017 19 10000 3.22 125 11:58 13.11.2021
5445 Clouds 25 1017 20 10000 3.12 122 11:28 13.11.2021
5446 Clouds 24 1017 20 10000 3.13 122 10:44 13.11.2021
5447 Clouds 23 1018 21 10000 3.57 122 09:53 13.11.2021
5448 Clouds 23 1018 21 10000 3.57 122 09:33 13.11.2021
5449 Clouds 22 1019 22 10000 3.72 115 08:56 13.11.2021
5450 Clouds 22 1020 24 10000 3.41 103 08:20 13.11.2021
5451 Clear 15 1021 32 10000 2.56 56 04:43 13.11.2021
5452 Clear 15 1020 29 10000 2.86 63 04:23 13.11.2021
5453 Clouds 17 1018 24 10000 2.72 58 00:28 13.11.2021
5454 Clouds 20 1018 23 10000 2.96 53 22:43 12.11.2021
5455 Clouds 21 1018 21 10000 3.71 67 21:29 12.11.2021
5456 Clouds 22 1017 19 10000 4.7 72 19:43 12.11.2021
5457 Clouds 22 1017 18 10000 2.66 117 19:23 12.11.2021
5458 Clouds 24 1016 17 10000 3.08 122 18:20 12.11.2021
5459 Clouds 25 1015 16 10000 3.36 107 16:20 12.11.2021
5460 Clouds 31 1014 15 10000 3.05 109 14:53 12.11.2021
5461 Clouds 30 1013 13 10000 2.88 201 11:32 12.11.2021
5462 Clouds 29 1013 13 10000 3.69 210 10:50 12.11.2021
5463 Clouds 28 1015 14 10000 4.47 228 09:29 12.11.2021
5464 Clouds 20 1016 16 10000 3.5 257 08:38 12.11.2021
5465 Clear 17 1013 23 10000 3.16 155 02:22 12.11.2021
5466 Clear 20 1013 22 10000 3.59 170 23:33 11.11.2021
5467 Clear 23 1013 22 10000 3.98 174 22:30 11.11.2021
5468 Clear 24 1013 20 10000 4.96 178 21:27 11.11.2021
5469 Clear 25 1013 20 10000 4.96 178 20:38 11.11.2021
5470 Clear 26 1012 18 10000 4.63 177 18:55 11.11.2021
5471 Clear 28 1012 17 10000 4.73 182 17:42 11.11.2021
5472 Clear 29 1012 17 10000 4.7 191 16:40 11.11.2021
5473 Clear 31 1010 15 10000 4.47 201 14:45 11.11.2021
5474 Clear 31 1010 13 10000 5.97 222 14:26 11.11.2021
5475 Clear 31 1010 13 10000 5.97 222 13:37 11.11.2021
5476 Clear 30 1010 13 10000 7.34 225 12:48 11.11.2021
5477 Clear 29 1012 15 10000 8.79 221 10:35 11.11.2021
5478 Clear 27 1012 15 10000 8.78 221 09:33 11.11.2021
5479 Clear 24 1015 23 10000 5.49 209 07:36 11.11.2021
5480 Clear 20 1014 39 10000 4.86 161 02:36 11.11.2021
5481 Clear 21 1015 34 10000 4.85 147 22:59 10.11.2021
5482 Clear 22 1015 32 10000 4.97 146 21:58 10.11.2021
5483 Clear 22 1016 31 10000 5.1 146 21:18 10.11.2021
5484 Clear 22 1016 31 10000 5.11 146 20:36 10.11.2021
5485 Clear 23 1016 30 10000 5.21 146 19:46 10.11.2021
5486 Clear 24 1015 27 10000 4.48 141 17:40 10.11.2021
5487 Clear 25 1015 25 10000 4.46 130 16:25 10.11.2021
5488 Clear 28 1015 24 10000 4.09 124 14:40 10.11.2021
5489 Clear 29 1015 21 10000 3.98 116 13:40 10.11.2021
5490 Clouds 28 1015 21 10000 3.16 125 12:44 10.11.2021
5491 Clouds 27 1016 22 10000 2.86 153 10:39 10.11.2021
5492 Clouds 24 1019 26 10000 3.41 157 08:45 10.11.2021
5493 Clouds 21 1021 30 10000 2.44 129 07:25 10.11.2021
5494 Clear 19 1021 34 10000 2.7 98 06:25 10.11.2021
5495 Clear 16 1021 34 10000 2.7 98 05:44 10.11.2021
5496 Clear 18 1019 35 10000 2.96 101 22:54 09.11.2021
5497 Clear 20 1020 34 10000 2.93 100 21:47 09.11.2021
5498 Clear 20 1020 34 10000 2.92 100 21:47 09.11.2021
5499 Clear 21 1020 30 10000 3.36 88 20:26 09.11.2021
5500 Clear 21 1020 27 10000 3.3 82 19:21 09.11.2021
5501 Clear 24 1020 25 10000 3.11 75 17:31 09.11.2021
5502 Clear 27 1018 22 10000 1.36 74 15:45 09.11.2021
5503 Clear 28 1018 18 10000 0.65 94 14:24 09.11.2021
5504 Clear 28 1017 18 10000 0.79 119 12:53 09.11.2021
5505 Clear 27 1017 19 10000 1.25 106 11:38 09.11.2021
5506 Clear 27 1017 19 10000 1.25 106 11:38 09.11.2021
5507 Clear 26 1018 19 10000 1.61 112 10:44 09.11.2021
5508 Clear 24 1020 21 10000 1.79 99 09:24 09.11.2021
5509 Clear 24 1020 23 10000 2.5 64 08:19 09.11.2021
5510 Clear 16 1021 27 10000 2.74 34 05:47 09.11.2021
5511 Clear 17 1018 29 10000 2.82 23 02:22 09.11.2021
5512 Clear 17 1018 29 10000 2.82 23 01:43 09.11.2021
5513 Clear 17 1018 26 10000 2.51 17 23:36 08.11.2021
5514 Clear 18 1018 26 10000 2.42 25 22:49 08.11.2021
5515 Clear 19 1018 26 10000 2.92 34 21:46 08.11.2021
5516 Clear 19 1018 26 10000 2.92 34 21:46 08.11.2021
5517 Clear 20 1017 24 10000 3.96 34 20:48 08.11.2021
5518 Clear 21 1017 23 10000 4.11 30 19:49 08.11.2021
5519 Clear 23 1017 22 10000 4.48 36 18:25 08.11.2021
5520 Clear 26 1015 20 10000 2.49 11 16:21 08.11.2021
5521 Clear 28 1014 19 10000 1.45 12 14:58 08.11.2021
5522 Clear 28 1014 19 10000 1.42 9 14:37 08.11.2021
5523 Clear 29 1014 17 10000 0.17 257 13:24 08.11.2021
5524 Clear 29 1014 17 10000 0.23 191 11:56 08.11.2021
5525 Clear 27 1014 17 10000 0.74 80 10:50 08.11.2021
5526 Clear 25 1015 18 10000 1.56 70 09:37 08.11.2021
5527 Clear 26 1016 18 10000 1.87 51 08:53 08.11.2021
5528 Clouds 24 1017 21 10000 1.8 26 07:28 08.11.2021
5529 Clouds 17 1016 27 10000 3.39 5 03:48 08.11.2021
5530 Clouds 17 1015 28 10000 3.54 1 03:26 08.11.2021
5531 Clear 19 1014 31 10000 4.16 4 23:45 07.11.2021
5532 Clear 20 1013 30 10000 3.79 21 21:46 07.11.2021
5533 Clear 21 1013 29 10000 3.78 28 20:52 07.11.2021
5534 Clear 23 1013 26 10000 4.22 18 19:25 07.11.2021
5535 Clear 25 1013 24 10000 4.39 21 17:49 07.11.2021
5536 Clear 27 1012 23 10000 4.17 16 16:50 07.11.2021
5537 Clear 28 1011 21 10000 3.65 18 15:47 07.11.2021
5538 Clear 29 1010 18 10000 3.3 2 14:28 07.11.2021
5539 Clouds 29 1010 17 10000 2.78 4 12:58 07.11.2021
5540 Clouds 29 1010 17 10000 1.49 3 11:42 07.11.2021
5541 Clear 26 1012 19 10000 0.73 290 09:49 07.11.2021
5542 Clear 24 1014 23 10000 1.71 3 07:20 07.11.2021
5543 Clear 18 1013 30 10000 2.38 3 02:34 07.11.2021
5544 Clear 20 1013 29 10000 3.02 20 23:22 06.11.2021
5545 Clear 20 1013 29 10000 3.02 20 22:42 06.11.2021
5546 Clear 20 1013 30 10000 2.82 38 21:33 06.11.2021
5547 Clear 22 1013 30 10000 2.82 38 20:50 06.11.2021
5548 Clear 24 1013 27 10000 3.11 27 18:56 06.11.2021
5549 Clear 28 1012 23 10000 4.32 15 16:44 06.11.2021
5550 Clear 32 1010 14 10000 3.97 303 14:38 06.11.2021
5551 Clear 32 1010 14 10000 3.97 303 13:38 06.11.2021
5552 Clear 32 1010 14 10000 3.97 303 13:38 06.11.2021
5553 Clear 32 1011 13 10000 4.29 279 11:46 06.11.2021
5554 Clear 28 1014 19 10000 3.7 195 09:23 06.11.2021
5555 Clear 17 1016 36 10000 1.79 147 04:57 06.11.2021
5556 Clear 19 1015 38 10000 1.99 41 01:27 06.11.2021
5557 Clear 20 1014 38 10000 1.33 66 23:34 05.11.2021
5558 Clear 20 1015 37 10000 1.11 100 22:33 05.11.2021
5559 Clear 23 1015 35 10000 2.33 74 20:51 05.11.2021
5560 Clear 23 1015 32 10000 2.95 68 20:19 05.11.2021
5561 Clear 24 1015 32 10000 2.93 64 19:37 05.11.2021
5562 Clear 25 1015 30 10000 3.11 54 18:39 05.11.2021
5563 Clear 24 1014 24 10000 3.17 52 17:26 05.11.2021
5564 Clear 28 1013 21 10000 2.27 29 15:34 05.11.2021
5565 Clear 30 1012 17 10000 1.2 15 13:35 05.11.2021
5566 Clear 28 1013 18 10000 0.83 41 10:37 05.11.2021
5567 Clear 26 1016 19 10000 2.22 37 08:39 05.11.2021
5568 Clear 23 1017 20 10000 2.83 36 07:26 05.11.2021
5569 Clear 19 1016 24 10000 1.6 40 04:44 05.11.2021
5570 Clear 19 1014 26 10000 0.34 29 02:25 05.11.2021
5571 Clear 21 1014 25 10000 0.81 12 00:40 05.11.2021
5572 Clear 22 1015 24 10000 0.8 124 22:59 04.11.2021
5573 Clear 22 1015 22 10000 1.63 137 22:19 04.11.2021
5574 Clear 22 1015 22 10000 1.63 137 21:32 04.11.2021
5575 Clear 23 1015 21 10000 2.01 116 20:40 04.11.2021
5576 Clear 23 1015 20 10000 2.4 92 20:20 04.11.2021
5577 Clear 23 1015 20 10000 2.4 92 19:40 04.11.2021
5578 Clear 26 1015 18 10000 3.02 83 18:44 04.11.2021
5579 Clear 27 1015 17 10000 3.52 67 17:37 04.11.2021
5580 Clear 29 1014 16 10000 3.85 57 16:41 04.11.2021
5581 Clear 33 1012 12 10000 3 20 14:28 04.11.2021
5582 Clear 34 1012 12 10000 2.28 11 11:44 04.11.2021
5583 Clear 33 1015 15 10000 0.84 348 09:29 04.11.2021
5584 Clear 31 1015 15 10000 0.84 348 08:30 04.11.2021
5585 Clear 28 1016 18 10000 1.03 180 07:34 04.11.2021
5586 Clear 21 1015 24 10000 1.39 12 23:54 03.11.2021
5587 Clear 21 1015 23 10000 1.45 39 22:50 03.11.2021
5588 Clear 22 1015 22 10000 1.71 62 21:48 03.11.2021
5589 Clear 22 1016 21 10000 2 73 21:25 03.11.2021
5590 Clear 23 1015 20 10000 1.34 59 20:34 03.11.2021
5591 Clear 25 1015 19 10000 1.17 42 19:47 03.11.2021
5592 Clear 27 1015 18 10000 0.79 322 18:55 03.11.2021
5593 Clear 27 1015 18 10000 1.05 274 18:19 03.11.2021
5594 Clear 27 1015 18 10000 1.05 274 17:34 03.11.2021
5595 Clear 30 1014 17 10000 0.29 80 16:18 03.11.2021
5596 Clear 32 1014 17 10000 0.24 78 15:42 03.11.2021
5597 Clear 34 1013 13 10000 1.44 343 13:49 03.11.2021
5598 Clear 34 1013 13 10000 1.11 306 11:39 03.11.2021
5599 Clear 33 1014 13 10000 1.31 292 10:53 03.11.2021
5600 Clear 33 1015 14 10000 1.52 259 10:28 03.11.2021
5601 Clear 31 1016 14 10000 2.25 230 09:29 03.11.2021
5602 Clear 29 1017 14 10000 2.34 226 08:22 03.11.2021
5603 Clear 28 1017 15 10000 1.99 209 07:38 03.11.2021
5604 Clear 18 1017 25 10000 0.78 197 04:26 03.11.2021
5605 Clear 19 1015 25 10000 0.85 72 01:49 03.11.2021
5606 Clear 19 1015 25 10000 0.85 72 01:49 03.11.2021
5607 Clear 21 1016 22 10000 1.51 104 23:33 02.11.2021
5608 Clear 22 1016 22 10000 1.44 98 22:29 02.11.2021
5609 Clear 25 1016 21 10000 1.25 69 20:54 02.11.2021
5610 Clear 25 1016 21 10000 1.28 69 20:30 02.11.2021
5611 Clear 24 1016 20 10000 1.03 48 19:47 02.11.2021
5612 Clear 25 1016 18 10000 0.97 62 18:51 02.11.2021
5613 Clear 25 1016 18 10000 0.78 88 17:58 02.11.2021
5614 Clear 25 1016 18 10000 0.76 89 17:32 02.11.2021
5615 Clear 27 1015 17 10000 1.28 32 16:29 02.11.2021
5616 Clear 30 1014 15 10000 1.43 21 15:26 02.11.2021
5617 Clear 32 1014 13 10000 1.81 3 14:18 02.11.2021
5618 Clear 32 1014 12 10000 1.69 353 13:27 02.11.2021
5619 Clear 33 1014 12 10000 1.69 343 12:33 02.11.2021
5620 Clear 32 1015 12 10000 1.49 343 11:31 02.11.2021
5621 Clear 32 1015 12 10000 1.49 343 10:51 02.11.2021
5622 Clear 32 1016 13 10000 1.33 323 10:23 02.11.2021
5623 Clear 28 1017 14 10000 1.2 278 08:43 02.11.2021
5624 Clear 21 1018 18 10000 1.89 222 06:43 02.11.2021
5625 Clear 18 1018 29 10000 0.97 197 03:33 02.11.2021
5626 Clear 19 1017 26 10000 2.13 160 01:24 02.11.2021
5627 Clear 24 1017 22 10000 2.51 112 22:39 01.11.2021
5628 Clear 24 1017 20 10000 1.52 210 20:52 01.11.2021
5629 Clear 24 1017 20 10000 1.52 210 20:33 01.11.2021
5630 Clear 23 1018 19 10000 1.83 198 19:44 01.11.2021
5631 Clear 24 1017 20 10000 1.81 161 18:57 01.11.2021
5632 Clear 24 1017 19 10000 2.05 130 18:19 01.11.2021
5633 Clear 26 1017 18 10000 2.29 121 17:18 01.11.2021
5634 Clear 26 1017 18 10000 2.29 121 16:34 01.11.2021
5635 Clear 30 1017 17 10000 2.87 110 15:45 01.11.2021
5636 Clear 30 1016 16 10000 3.23 102 15:19 01.11.2021
5637 Clear 32 1016 16 10000 3.2 102 14:41 01.11.2021
5638 Clear 32 1016 14 10000 2.76 101 14:19 01.11.2021
5639 Clear 32 1016 14 10000 1.84 113 12:59 01.11.2021
5640 Clear 32 1016 14 10000 1.69 133 11:40 01.11.2021
5641 Clear 31 1018 16 10000 2.43 162 10:22 01.11.2021
5642 Clear 30 1019 17 10000 2.59 164 08:43 01.11.2021
5643 Clear 26 1020 19 10000 2.48 164 07:47 01.11.2021
5644 Clear 18 1021 29 10000 1.39 176 03:58 01.11.2021
5645 Clear 18 1021 29 10000 1.39 176 03:39 01.11.2021
5646 Clear 20 1020 26 10000 2.52 174 23:58 31.10.2021
5647 Clear 22 1021 24 10000 2.4 153 21:26 31.10.2021
5648 Clear 23 1021 23 10000 2.44 174 20:24 31.10.2021
5649 Clear 26 1020 20 10000 2.68 157 18:46 31.10.2021
5650 Clear 26 1020 19 10000 3.25 136 18:23 31.10.2021
5651 Clear 28 1020 18 10000 3.22 126 16:48 31.10.2021
5652 Clear 30 1019 19 10000 2.24 131 15:18 31.10.2021
5653 Clear 31 1018 19 10000 3.81 145 12:58 31.10.2021
5654 Clear 31 1018 19 10000 3.81 145 12:58 31.10.2021
5655 Clear 31 1019 20 10000 4.33 139 12:25 31.10.2021
5656 Clear 30 1019 22 10000 4.85 135 10:51 31.10.2021
5657 Clear 30 1021 23 10000 5.34 151 09:26 31.10.2021
5658 Clear 29 1021 23 10000 5.34 151 08:46 31.10.2021
5659 Clear 22 1022 37 10000 2.94 145 04:54 31.10.2021
5660 Clouds 23 1020 41 10000 2.6 122 00:36 31.10.2021
5661 Clouds 22 1021 37 10000 3.4 123 22:27 30.10.2021
5662 Clouds 25 1020 36 10000 3.72 110 21:29 30.10.2021
5663 Clouds 26 1020 34 10000 2.32 111 19:49 30.10.2021
5664 Clouds 29 1019 30 10000 3.42 126 17:49 30.10.2021
5665 Clouds 31 1018 26 10000 4.52 122 15:49 30.10.2021
5666 Clouds 32 1017 25 10000 3.77 143 13:59 30.10.2021
5667 Clouds 32 1017 24 10000 3.57 147 13:38 30.10.2021
5668 Clouds 32 1017 25 10000 4.77 141 13:20 30.10.2021
5669 Clouds 31 1018 25 10000 5.38 139 11:50 30.10.2021
5670 Clouds 30 1019 27 10000 5.32 147 10:57 30.10.2021
5671 Clouds 27 1021 32 10000 5.52 150 08:59 30.10.2021
5672 Clouds 24 1021 32 10000 5.13 147 07:57 30.10.2021
5673 Clouds 22 1021 36 10000 3.56 139 05:47 30.10.2021
5674 Clouds 21 1018 32 10000 3.84 138 02:59 30.10.2021
5675 Clouds 23 1018 27 10000 2.96 132 23:21 29.10.2021
5676 Clouds 23 1018 27 10000 2.96 132 22:35 29.10.2021
5677 Clouds 23 1018 27 10000 2.96 132 22:35 29.10.2021
5678 Clouds 24 1018 23 10000 3.47 120 21:19 29.10.2021
5679 Clouds 25 1018 23 10000 3.48 120 20:33 29.10.2021
5680 Clouds 27 1017 21 10000 3.3 111 19:30 29.10.2021
5681 Clouds 29 1016 20 10000 1.62 117 17:48 29.10.2021
5682 Clouds 32 1015 17 10000 2.22 169 15:50 29.10.2021
5683 Clouds 33 1015 14 10000 5.51 150 13:19 29.10.2021
5684 Clouds 31 1016 16 10000 6.44 159 10:49 29.10.2021
5685 Clouds 31 1016 16 10000 6.44 159 10:30 29.10.2021
5686 Clouds 23 1015 23 10000 4.21 149 02:47 29.10.2021
5687 Clouds 24 1015 18 10000 4.01 151 00:32 29.10.2021
5688 Clouds 28 1015 16 10000 3.15 177 22:32 28.10.2021
5689 Clouds 28 1015 15 10000 3.62 187 21:20 28.10.2021
5690 Clouds 28 1015 14 10000 3.77 191 20:19 28.10.2021
5691 Clouds 30 1014 14 10000 4.14 190 18:47 28.10.2021
5692 Clouds 31 1013 14 10000 4.7 170 17:42 28.10.2021
5693 Clouds 33 1013 13 10000 5.41 155 16:39 28.10.2021
5694 Clouds 35 1012 10 10000 6.05 168 14:43 28.10.2021
5695 Clouds 35 1011 9 10000 5.93 167 13:33 28.10.2021
5696 Clouds 35 1012 9 10000 6.23 172 12:50 28.10.2021
5697 Clouds 34 1012 10 10000 6.55 176 11:50 28.10.2021
5698 Clouds 32 1013 10 10000 6.77 183 10:38 28.10.2021
5699 Clouds 31 1014 11 10000 6.78 192 09:37 28.10.2021
5700 Clouds 30 1015 13 10000 7.03 196 08:36 28.10.2021
5701 Clouds 26 1015 16 10000 7.4 190 07:41 28.10.2021
5702 Clouds 24 1013 23 10000 5.22 169 02:33 28.10.2021
5703 Clouds 25 1014 24 10000 4.59 162 22:54 27.10.2021
5704 Clouds 26 1015 23 10000 4.37 159 21:57 27.10.2021
5705 Clouds 26 1015 22 10000 4.22 154 21:28 27.10.2021
5706 Clouds 27 1015 22 10000 4.24 154 20:43 27.10.2021
5707 Clouds 28 1014 19 10000 3.77 148 19:47 27.10.2021
5708 Clouds 30 1014 18 10000 3.51 168 18:56 27.10.2021
5709 Clouds 32 1013 17 10000 4.16 178 17:49 27.10.2021
5710 Clouds 33 1012 14 10000 6.32 142 16:25 27.10.2021
5711 Clear 34 1012 12 10000 7.1 143 15:25 27.10.2021
5712 Clear 35 1011 11 10000 6.25 145 14:24 27.10.2021
5713 Clear 33 1013 11 10000 4.55 161 11:18 27.10.2021
5714 Clear 32 1013 11 10000 4.55 161 10:37 27.10.2021
5715 Clear 30 1015 15 10000 5.49 171 09:28 27.10.2021
5716 Clear 25 1016 17 10000 5.69 169 07:46 27.10.2021
5717 Clear 22 1016 24 10000 3.95 172 05:49 27.10.2021
5718 Clear 25 1014 22 10000 4.39 163 01:26 27.10.2021
5719 Clear 24 1014 22 10000 4.39 163 00:54 27.10.2021
5720 Clear 26 1014 22 10000 4.67 165 23:55 26.10.2021
5721 Clear 26 1015 22 10000 4.9 166 22:47 26.10.2021
5722 Clear 26 1015 21 10000 4.76 159 22:25 26.10.2021
5723 Clear 26 1015 21 10000 4.76 159 21:41 26.10.2021
5724 Clear 28 1014 18 10000 5.2 148 19:59 26.10.2021
5725 Clear 28 1014 15 10000 4.74 153 19:22 26.10.2021
5726 Clear 29 1013 15 10000 4.82 149 18:23 26.10.2021
5727 Clear 33 1012 13 10000 4.8 125 15:51 26.10.2021
5728 Clear 32 1011 12 10000 4.89 147 13:21 26.10.2021
5729 Clear 30 1013 17 10000 4.67 165 11:18 26.10.2021
5730 Clear 28 1016 29 10000 6.03 153 09:26 26.10.2021
5731 Clear 23 1016 39 10000 5.44 141 07:22 26.10.2021
5732 Clear 24 1014 40 10000 3.58 117 00:29 26.10.2021
5733 Clear 25 1014 40 10000 3.58 117 23:37 25.10.2021
5734 Clear 26 1015 38 10000 4.02 122 22:34 25.10.2021
5735 Clear 27 1015 37 10000 3.89 130 21:45 25.10.2021
5736 Clear 27 1014 36 10000 3.99 104 20:38 25.10.2021
5737 Clear 28 1014 32 10000 5.21 86 19:44 25.10.2021
5738 Clear 28 1013 27 10000 6.21 82 19:23 25.10.2021
5739 Clear 30 1013 27 10000 6.21 82 18:40 25.10.2021
5740 Clear 32 1012 13 10000 3.66 61 17:35 25.10.2021
5741 Clear 35 1010 10 10000 2.72 335 15:18 25.10.2021
5742 Clear 34 1010 9 10000 2.37 278 12:33 25.10.2021
5743 Clear 31 1012 11 10000 2.37 258 10:54 25.10.2021
5744 Clear 26 1015 17 10000 1.21 273 08:59 25.10.2021
5745 Clear 23 1015 24 10000 1.65 54 07:19 25.10.2021
5746 Clear 19 1014 28 10000 2.37 108 05:21 25.10.2021
5747 Clear 24 1013 23 10000 3.1 339 00:52 25.10.2021
5748 Clear 24 1013 23 10000 3.1 339 00:33 25.10.2021
5749 Clear 25 1012 22 10000 4.15 336 23:41 24.10.2021
5750 Clear 25 1013 19 10000 4.82 321 22:39 24.10.2021
5751 Clear 25 1012 16 10000 3.45 314 22:19 24.10.2021
5752 Clear 28 1012 15 10000 2.98 276 21:18 24.10.2021
5753 Clear 30 1012 15 10000 2.98 276 20:36 24.10.2021
5754 Clear 32 1011 14 10000 4.08 210 19:40 24.10.2021
5755 Clear 33 1011 13 10000 3.87 202 18:29 24.10.2021
5756 Clear 34 1011 13 10000 3.87 202 17:44 24.10.2021
5757 Clear 36 1010 11 10000 3.08 219 15:56 24.10.2021
5758 Clear 36 1010 10 10000 4.09 245 14:42 24.10.2021
5759 Clear 35 1011 10 10000 5.73 246 13:19 24.10.2021
5760 Clear 34 1011 10 10000 7.18 243 11:56 24.10.2021
5761 Clear 34 1012 11 10000 8.88 245 11:26 24.10.2021
5762 Clear 33 1013 12 10000 10.12 247 10:28 24.10.2021
5763 Clear 26 1014 15 10000 7.94 231 07:59 24.10.2021
5764 Clear 26 1014 25 10000 4.52 177 01:25 24.10.2021
5765 Clear 26 1015 25 10000 4.56 168 23:51 23.10.2021
5766 Clear 26 1015 25 10000 4.51 158 22:32 23.10.2021
5767 Clear 27 1016 23 10000 4.1 138 20:37 23.10.2021
5768 Clear 30 1015 20 10000 4.37 155 18:59 23.10.2021
5769 Clear 30 1015 20 10000 4.37 155 18:30 23.10.2021
5770 Clear 31 1014 19 10000 4.63 145 17:43 23.10.2021
5771 Clear 32 1014 19 10000 4.45 135 16:38 23.10.2021
5772 Clear 34 1013 15 10000 4.67 110 14:35 23.10.2021
5773 Clear 29 1017 20 10000 1.94 182 09:45 23.10.2021
5774 Clear 22 1017 33 10000 1.15 102 00:25 23.10.2021
5775 Clear 24 1017 31 10000 2.92 111 23:23 22.10.2021
5776 Clear 26 1018 28 10000 3.47 86 20:55 22.10.2021
5777 Clear 29 1017 24 10000 4.46 75 18:57 22.10.2021
5778 Clear 30 1017 22 10000 3.73 75 17:44 22.10.2021
5779 Clear 32 1015 19 10000 1.34 90 15:50 22.10.2021
5780 Clear 33 1015 17 10000 0.84 58 14:30 22.10.2021
5781 Clear 32 1016 20 10000 1.04 117 12:38 22.10.2021
5782 Clear 29 1017 22 10000 1.39 105 10:48 22.10.2021
5783 Clear 27 1018 24 10000 1.79 89 09:56 22.10.2021
5784 Clear 27 1018 24 10000 1.8 89 09:56 22.10.2021
5785 Clear 27 1018 24 10000 1.79 89 09:32 22.10.2021
5786 Clear 24 1019 34 10000 2.23 62 07:26 22.10.2021
5787 Clear 20 1018 41 10000 1.81 57 04:59 22.10.2021
5788 Clear 23 1017 35 10000 2.58 63 00:24 22.10.2021
5789 Clear 24 1017 35 10000 2.58 63 23:40 21.10.2021
5790 Clear 25 1017 31 10000 3.25 70 22:21 21.10.2021
5791 Clear 27 1017 28 10000 4.44 68 20:55 21.10.2021
5792 Clear 27 1017 26 10000 4.78 64 20:20 21.10.2021
5793 Clear 28 1016 24 10000 4.89 62 19:30 21.10.2021
5794 Clear 28 1016 24 10000 4.89 62 19:30 21.10.2021
5795 Clear 30 1016 23 10000 5.07 57 18:52 21.10.2021
5796 Clear 30 1016 21 10000 5.22 53 18:22 21.10.2021
5797 Clear 31 1016 21 10000 5.22 53 17:42 21.10.2021
5798 Clear 33 1014 15 10000 3.91 51 16:20 21.10.2021
5799 Clear 33 1014 14 10000 3.12 52 15:21 21.10.2021
5800 Clear 33 1014 14 10000 3.12 52 14:49 21.10.2021
5801 Clear 33 1014 14 10000 2.08 72 13:26 21.10.2021
5802 Clear 32 1016 17 10000 2.31 84 11:27 21.10.2021
5803 Clear 29 1017 22 10000 2.88 94 09:23 21.10.2021
5804 Clear 25 1018 31 10000 2.89 101 07:31 21.10.2021
5805 Clear 20 1017 34 10000 2.31 103 05:33 21.10.2021
5806 Clear 25 1016 20 10000 2.82 9 23:45 20.10.2021
5807 Clear 27 1015 18 10000 4.63 3 22:21 20.10.2021
5808 Clear 28 1015 18 10000 4.63 3 21:43 20.10.2021
5809 Clear 29 1015 16 10000 4.62 1 20:56 20.10.2021
5810 Clear 29 1015 16 10000 4.63 1 20:35 20.10.2021
5811 Clear 31 1015 15 10000 4.77 357 19:59 20.10.2021
5812 Clear 33 1014 13 10000 4.08 336 18:56 20.10.2021
5813 Clear 34 1013 12 10000 3.52 315 17:51 20.10.2021
5814 Clear 39 1012 10 10000 2.81 297 15:44 20.10.2021
5815 Clear 37 1012 9 10000 5.07 281 11:42 20.10.2021
5816 Clear 34 1015 11 10000 6.98 260 09:19 20.10.2021
5817 Clear 22 1015 22 10000 3.49 213 05:23 20.10.2021
5818 Clouds 25 1014 23 10000 2.34 175 00:48 20.10.2021
5819 Clouds 25 1014 23 10000 2.34 175 00:48 20.10.2021
5820 Clear 25 1015 22 10000 3.15 166 00:22 20.10.2021
5821 Clear 27 1015 21 10000 3.29 130 21:45 19.10.2021
5822 Clear 28 1015 20 10000 3.22 108 20:56 19.10.2021
5823 Clear 28 1015 19 10000 3.13 98 20:25 19.10.2021
5824 Clear 29 1015 18 10000 3.78 97 19:44 19.10.2021
5825 Clear 29 1015 17 10000 3.79 86 19:20 19.10.2021
5826 Clear 32 1014 16 10000 3.72 81 17:59 19.10.2021
5827 Clear 35 1013 13 10000 1.68 85 15:48 19.10.2021
5828 Clear 35 1012 11 10000 1.72 77 15:20 19.10.2021
5829 Clear 35 1012 11 10000 2.06 81 14:27 19.10.2021
5830 Clear 35 1012 11 10000 2.05 81 13:35 19.10.2021
5831 Clear 33 1013 12 10000 2.21 86 11:37 19.10.2021
5832 Clear 31 1014 13 10000 3.91 160 10:36 19.10.2021
5833 Clear 29 1015 16 10000 4.29 160 08:58 19.10.2021
5834 Clear 26 1016 19 10000 2.92 150 07:20 19.10.2021
5835 Clear 23 1015 20 10000 1.74 68 00:26 19.10.2021
5836 Clear 25 1015 20 10000 1.74 68 23:50 18.10.2021
5837 Clear 25 1015 19 10000 2.26 57 23:20 18.10.2021
5838 Clear 26 1015 19 10000 2.26 57 22:53 18.10.2021
5839 Clear 27 1015 19 10000 3.09 55 21:44 18.10.2021
5840 Clear 28 1015 18 10000 3.94 50 20:42 18.10.2021
5841 Clear 28 1015 18 10000 4.38 49 20:18 18.10.2021
5842 Clear 29 1014 16 10000 4.81 56 19:30 18.10.2021
5843 Clear 31 1014 16 10000 4.81 56 18:57 18.10.2021
5844 Clear 35 1011 13 10000 5.56 51 15:45 18.10.2021
5845 Clear 35 1011 12 10000 5.01 56 14:26 18.10.2021
5846 Clear 32 1012 14 10000 4.09 83 10:43 18.10.2021
5847 Clear 31 1013 16 10000 4.28 91 09:31 18.10.2021
5848 Clear 23 1014 33 10000 1.48 60 05:32 18.10.2021
5849 Clear 26 1012 23 10000 2.8 44 23:37 17.10.2021
5850 Clear 29 1012 18 10000 4.22 45 21:55 17.10.2021
5851 Clear 29 1012 17 10000 4.44 33 21:18 17.10.2021
5852 Clear 30 1012 17 10000 4.44 33 20:38 17.10.2021
5853 Clear 31 1012 17 10000 4.66 34 19:42 17.10.2021
5854 Clear 31 1012 16 10000 4.89 39 19:23 17.10.2021
5855 Clear 34 1011 15 10000 4.9 40 17:34 17.10.2021
5856 Clear 37 1009 11 10000 6.24 35 15:46 17.10.2021
5857 Clear 38 1008 10 10000 6.96 29 14:26 17.10.2021
5858 Clear 38 1008 10 10000 6.96 29 13:56 17.10.2021
5859 Clear 38 1008 10 10000 6.16 26 11:58 17.10.2021
5860 Clear 37 1009 10 10000 5.5 21 10:43 17.10.2021
5861 Clear 36 1010 11 10000 3.88 12 09:41 17.10.2021
5862 Clear 29 1012 14 10000 1.97 342 07:39 17.10.2021
5863 Clear 27 1010 19 10000 1.76 360 00:55 17.10.2021
5864 Clear 27 1010 18 10000 1.98 10 00:23 17.10.2021
5865 Clear 28 1011 16 10000 2.57 347 21:52 16.10.2021
5866 Clear 30 1011 15 10000 3.53 17 20:32 16.10.2021
5867 Clear 31 1011 15 10000 3.53 17 19:46 16.10.2021
5868 Clear 31 1011 14 10000 3.93 25 19:23 16.10.2021
5869 Clear 33 1011 14 10000 3.93 25 18:56 16.10.2021
5870 Clear 33 1011 14 10000 3.93 25 18:38 16.10.2021
5871 Clear 33 1010 13 10000 4.24 37 18:18 16.10.2021
5872 Clear 35 1009 12 10000 4.6 39 17:27 16.10.2021
5873 Clear 38 1009 10 10000 5.51 34 15:33 16.10.2021
5874 Clear 38 1009 10 10000 6.87 33 12:26 16.10.2021
5875 Clear 36 1010 10 10000 5.75 30 10:47 16.10.2021
5876 Clear 32 1012 13 10000 3.17 13 08:32 16.10.2021
5877 Clear 24 1012 18 10000 3.13 342 01:26 16.10.2021
5878 Clear 26 1012 18 10000 2.75 338 23:57 15.10.2021
5879 Clear 26 1012 17 10000 2.79 350 23:24 15.10.2021
5880 Clear 27 1012 17 10000 3.2 1 22:19 15.10.2021
5881 Clear 28 1013 16 10000 3.73 15 21:29 15.10.2021
5882 Clear 28 1013 16 10000 3.73 15 21:29 15.10.2021
5883 Clear 29 1013 16 10000 3.41 15 20:49 15.10.2021
5884 Clear 31 1013 15 10000 4.16 29 19:38 15.10.2021
5885 Clear 33 1013 14 10000 4.54 33 18:41 15.10.2021
5886 Clear 36 1011 12 10000 5.21 35 16:43 15.10.2021
5887 Clear 37 1011 10 10000 7.09 36 15:36 15.10.2021
5888 Clear 37 1010 9 10000 7.19 34 13:31 15.10.2021
5889 Clear 37 1011 10 10000 5.62 41 11:40 15.10.2021
5890 Clear 35 1012 11 10000 4.86 52 10:58 15.10.2021
5891 Clear 33 1013 12 10000 4.16 54 09:59 15.10.2021
5892 Clear 20 1014 21 10000 1.53 3 05:44 15.10.2021
5893 Clear 24 1013 22 10000 1.79 341 01:48 15.10.2021
5894 Clear 26 1013 21 10000 1.94 6 00:22 15.10.2021
5895 Clear 27 1014 20 10000 2.24 23 22:52 14.10.2021
5896 Clear 29 1014 19 10000 2.92 39 21:45 14.10.2021
5897 Clear 30 1014 18 10000 3.69 51 20:50 14.10.2021
5898 Clear 30 1014 17 10000 4.37 59 20:19 14.10.2021
5899 Clear 31 1014 17 10000 4.37 59 19:38 14.10.2021
5900 Clear 34 1013 15 10000 4.75 55 17:37 14.10.2021
5901 Clear 36 1012 14 10000 5.03 53 16:51 14.10.2021
5902 Clear 36 1012 12 10000 5.29 53 16:21 14.10.2021
5903 Clear 37 1011 11 10000 5.04 48 14:43 14.10.2021
5904 Clear 37 1011 11 10000 4.38 55 14:21 14.10.2021
5905 Clear 36 1012 14 10000 1.91 77 11:44 14.10.2021
5906 Clear 33 1014 18 10000 1.97 122 09:55 14.10.2021
5907 Clear 29 1015 25 10000 1.49 137 07:32 14.10.2021
5908 Clear 25 1013 32 10000 1.31 54 01:29 14.10.2021
5909 Clear 26 1013 30 10000 1.65 57 00:28 14.10.2021
5910 Clear 28 1014 26 10000 2.19 63 21:58 13.10.2021
5911 Clear 28 1014 26 10000 2.19 63 21:32 13.10.2021
5912 Clear 28 1013 19 10000 3.62 71 20:21 13.10.2021
5913 Clear 31 1013 15 10000 4.25 67 18:57 13.10.2021
5914 Clear 31 1013 15 10000 4.25 67 18:35 13.10.2021
5915 Clear 36 1010 8 10000 4.72 65 15:32 13.10.2021
5916 Clear 37 1010 8 10000 5.08 67 14:45 13.10.2021
5917 Clear 37 1009 7 10000 4.79 69 14:21 13.10.2021
5918 Clear 35 1010 7 10000 3.56 77 12:22 13.10.2021
5919 Clear 35 1010 7 10000 3.56 77 11:34 13.10.2021
5920 Clear 30 1013 8 10000 2.07 92 08:41 13.10.2021
5921 Clear 22 1013 8 10000 1.79 132 06:51 13.10.2021
5922 Clear 22 1012 11 10000 0.84 93 02:28 13.10.2021
5923 Clear 22 1012 11 10000 0.84 93 01:43 13.10.2021
5924 Clear 24 1012 11 10000 1.44 66 23:30 12.10.2021
5925 Clear 26 1012 11 10000 2.42 57 22:46 12.10.2021
5926 Clear 28 1012 11 10000 2.96 53 21:50 12.10.2021
5927 Clear 29 1012 13 10000 4.4 61 20:34 12.10.2021
5928 Clear 29 1012 13 10000 4.37 61 20:34 12.10.2021
5929 Clear 30 1012 13 10000 4.4 61 19:57 12.10.2021
5930 Clear 32 1011 13 10000 4.66 55 18:36 12.10.2021
5931 Clear 34 1010 12 10000 4.89 53 17:51 12.10.2021
5932 Clear 35 1010 12 10000 5.14 49 16:39 12.10.2021
5933 Clear 36 1009 11 10000 5.76 42 15:58 12.10.2021
5934 Clear 36 1008 10 10000 5.93 35 14:39 12.10.2021
5935 Clear 36 1008 10 10000 5.06 33 13:43 12.10.2021
5936 Clear 36 1008 9 10000 3.94 24 12:35 12.10.2021
5937 Clear 34 1011 10 10000 2.08 18 09:46 12.10.2021
5938 Clear 31 1012 10 10000 2.62 23 08:43 12.10.2021
5939 Clear 26 1013 12 10000 2.18 13 07:25 12.10.2021
5940 Clear 19 1012 15 10000 1.35 358 05:29 12.10.2021
5941 Clear 20 1012 15 10000 1.35 358 04:32 12.10.2021
5942 Clear 24 1011 14 10000 1.38 22 00:28 12.10.2021
5943 Clear 25 1011 14 10000 1.37 23 23:40 11.10.2021
5944 Clear 26 1012 14 10000 2.05 24 22:57 11.10.2021
5945 Clear 28 1012 13 10000 2.67 33 21:46 11.10.2021
5946 Clear 29 1012 13 10000 3.16 48 20:39 11.10.2021
5947 Clear 29 1012 12 10000 3.94 48 19:44 11.10.2021
5948 Clear 31 1012 12 10000 4.38 44 18:37 11.10.2021
5949 Clear 33 1011 12 10000 4.73 38 17:46 11.10.2021
5950 Clear 35 1010 11 10000 5.15 35 16:31 11.10.2021
5951 Clear 36 1010 10 10000 6.32 25 15:47 11.10.2021
5952 Clear 37 1010 10 10000 7.11 13 14:54 11.10.2021
5953 Clear 37 1009 10 10000 6.44 5 14:22 11.10.2021
5954 Clear 36 1010 10 10000 6.01 0 13:36 11.10.2021
5955 Clear 36 1009 10 10000 6.44 5 13:36 11.10.2021
5956 Clear 37 1010 10 10000 5.56 355 11:37 11.10.2021
5957 Clear 35 1012 10 10000 4.52 355 10:30 11.10.2021
5958 Clear 32 1013 11 10000 3.19 349 08:42 11.10.2021
5959 Clear 24 1013 18 10000 1.5 336 03:49 11.10.2021
5960 Clear 25 1012 18 10000 0.92 331 01:36 11.10.2021
5961 Clear 25 1013 18 10000 1.33 351 00:44 11.10.2021
5962 Clear 27 1013 17 10000 1.89 7 23:57 10.10.2021
5963 Clear 29 1013 16 10000 2.95 23 21:51 10.10.2021
5964 Clear 29 1013 15 10000 3.49 28 21:29 10.10.2021
5965 Clear 30 1013 16 10000 3.68 36 20:42 10.10.2021
5966 Clear 30 1013 15 10000 4.12 37 20:20 10.10.2021
5967 Clear 31 1013 15 10000 4.11 37 19:53 10.10.2021
5968 Clear 31 1013 15 10000 4.11 37 19:34 10.10.2021
5969 Clear 32 1013 14 10000 4.54 39 18:32 10.10.2021
5970 Clear 37 1010 9 10000 5.24 36 15:59 10.10.2021
5971 Clear 37 1010 9 10000 5.24 36 15:40 10.10.2021
5972 Clear 38 1010 8 10000 4.08 20 13:42 10.10.2021
5973 Clear 38 1010 8 10000 3.24 10 12:48 10.10.2021
5974 Clear 38 1011 8 10000 2.63 4 12:30 10.10.2021
5975 Clear 36 1012 9 10000 2.15 7 10:42 10.10.2021
5976 Clear 34 1014 11 10000 1.89 12 09:29 10.10.2021
5977 Clear 32 1017 11 10000 1.54 290 08:52 10.10.2021
5978 Clear 28 1017 14 10000 1.54 280 06:36 10.10.2021
5979 Clear 23 1013 18 10000 1.46 339 02:29 10.10.2021
5980 Clear 25 1013 17 10000 1.57 335 00:55 10.10.2021
5981 Clear 27 1013 17 10000 1.74 356 23:52 09.10.2021
5982 Clear 27 1013 17 10000 1.74 356 23:52 09.10.2021
5983 Clear 27 1013 16 10000 2.39 26 22:39 09.10.2021
5984 Clear 27 1014 15 10000 4.32 44 21:31 09.10.2021
5985 Clear 29 1014 15 10000 4.3 44 20:59 09.10.2021
5986 Clear 31 1013 14 10000 4.88 58 19:43 09.10.2021
5987 Clear 33 1013 14 10000 5.24 61 18:57 09.10.2021
5988 Clear 33 1013 14 10000 5.24 61 18:32 09.10.2021
5989 Clear 36 1011 10 10000 5.36 54 16:28 09.10.2021
5990 Clear 36 1011 10 10000 5.36 54 16:28 09.10.2021
5991 Clear 38 1010 9 10000 5.54 56 14:57 09.10.2021
5992 Clear 38 1010 9 10000 4.11 70 13:41 09.10.2021
5993 Clear 37 1010 9 10000 4.11 70 12:38 09.10.2021
5994 Clear 36 1011 9 10000 3.9 68 11:43 09.10.2021
5995 Clear 35 1012 10 10000 3.9 59 10:38 09.10.2021
5996 Clear 33 1013 10 10000 4.02 47 09:35 09.10.2021
5997 Clear 32 1014 13 10000 3.24 27 08:28 09.10.2021
5998 Clear 28 1014 13 10000 3.24 27 07:37 09.10.2021
5999 Clear 23 1012 21 10000 2.18 356 05:28 09.10.2021
6000 Clear 24 1012 19 10000 2.74 3 02:49 09.10.2021
6001 Clear 26 1012 20 10000 2.87 12 00:58 09.10.2021
6002 Clear 26 1012 20 10000 2.99 24 23:36 08.10.2021
6003 Clear 27 1012 19 10000 3.38 42 22:53 08.10.2021
6004 Clear 28 1012 19 10000 3.74 52 21:48 08.10.2021
6005 Clear 30 1011 17 10000 4.93 58 20:31 08.10.2021
6006 Clear 33 1011 16 10000 5.52 60 18:50 08.10.2021
6007 Clear 35 1009 15 10000 5.36 63 17:26 08.10.2021
6008 Clear 36 1009 15 10000 5.38 63 16:45 08.10.2021
6009 Clear 36 1009 14 10000 6.19 65 16:22 08.10.2021
6010 Clear 37 1008 13 10000 6.08 73 13:49 08.10.2021
6011 Clear 36 1009 16 10000 5.29 77 11:57 08.10.2021
6012 Clear 35 1010 19 10000 4.87 75 10:50 08.10.2021
6013 Clear 35 1011 23 10000 3.94 67 10:25 08.10.2021
6014 Clear 25 1013 33 10000 1.13 52 06:51 08.10.2021
6015 Clear 30 1010 33 10000 2.32 94 23:29 07.10.2021
6016 Clear 29 1010 33 10000 2.32 94 22:56 07.10.2021
6017 Clear 31 1010 28 10000 3.81 89 21:30 07.10.2021
6018 Clear 32 1010 27 10000 3.82 93 20:43 07.10.2021
6019 Clear 32 1010 24 10000 4.76 85 19:39 07.10.2021
6020 Clear 33 1010 21 10000 5.38 74 18:59 07.10.2021
6021 Clear 35 1009 19 10000 5 76 17:35 07.10.2021
6022 Clear 37 1008 17 10000 4.57 80 16:42 07.10.2021
6023 Clear 38 1007 14 10000 4.84 86 14:57 07.10.2021
6024 Clear 38 1007 15 10000 4.67 94 13:44 07.10.2021
6025 Clear 38 1008 15 10000 4.29 99 13:20 07.10.2021
6026 Clear 35 1009 19 10000 3.97 111 11:26 07.10.2021
6027 Clear 35 1009 19 10000 3.98 111 10:47 07.10.2021
6028 Clear 34 1014 29 10000 3.6 170 09:47 07.10.2021
6029 Clear 32 1014 29 10000 2.06 140 08:54 07.10.2021
6030 Clear 32 1014 29 10000 2.06 140 08:19 07.10.2021
6031 Clear 31 1014 23 10000 2.57 140 07:39 07.10.2021
6032 Clear 29 1014 26 10000 0 0 06:47 07.10.2021
6033 Clear 26 1009 23 10000 1.97 132 00:55 07.10.2021
6034 Clouds 27 1009 20 10000 1.49 118 23:25 06.10.2021
6035 Clouds 28 1009 20 10000 1.49 118 22:33 06.10.2021
6036 Clouds 28 1009 19 10000 2.21 98 21:39 06.10.2021
6037 Clouds 31 1010 17 10000 4.08 86 20:29 06.10.2021
6038 Clear 31 1009 15 10000 4.9 89 19:23 06.10.2021
6039 Clear 35 1008 14 10000 4.82 88 17:41 06.10.2021
6040 Clear 37 1007 11 10000 2.88 89 15:44 06.10.2021
6041 Clear 38 1006 11 10000 2.19 104 14:53 06.10.2021
6042 Clear 38 1007 13 10000 2.36 136 13:25 06.10.2021
6043 Clear 37 1007 13 10000 2.36 136 12:47 06.10.2021
6044 Clear 37 1008 14 10000 2.78 130 12:26 06.10.2021
6045 Clear 36 1008 14 10000 2.78 130 11:35 06.10.2021
6046 Clear 36 1008 14 10000 2.78 130 11:35 06.10.2021
6047 Clear 34 1014 26 10000 2.57 130 09:40 06.10.2021
6048 Clear 31 1014 33 10000 3.6 140 08:59 06.10.2021
6049 Clear 31 1014 33 10000 3.6 140 08:30 06.10.2021
6050 Clouds 22 1011 26 10000 2.25 118 05:56 06.10.2021
6051 Clouds 25 1010 32 10000 1.56 100 02:19 06.10.2021
6052 Clouds 27 1010 27 10000 2.61 82 00:24 06.10.2021
6053 Clouds 29 1010 27 10000 2.61 82 23:51 05.10.2021
6054 Clouds 29 1010 27 10000 2.61 82 23:30 05.10.2021
6055 Clouds 30 1009 27 10000 2.29 102 22:31 05.10.2021
6056 Clear 31 1009 26 10000 2.85 112 21:57 05.10.2021
6057 Clear 31 1009 26 10000 2.85 112 21:57 05.10.2021
6058 Clear 31 1009 25 10000 3.39 104 21:20 05.10.2021
6059 Clouds 32 1009 22 10000 5.27 83 20:26 05.10.2021
6060 Clouds 33 1009 22 10000 5.27 83 19:50 05.10.2021
6061 Clouds 33 1009 20 10000 6.2 80 19:23 05.10.2021
6062 Clouds 34 1008 18 10000 6.33 76 18:20 05.10.2021
6063 Clouds 37 1006 13 10000 4.57 76 15:33 05.10.2021
6064 Clouds 38 1006 14 10000 3.85 87 13:49 05.10.2021
6065 Clear 38 1006 14 10000 3.82 98 13:22 05.10.2021
6066 Clear 37 1007 15 10000 4.18 100 12:33 05.10.2021
6067 Clear 36 1007 15 10000 4.15 100 11:41 05.10.2021
6068 Clear 35 1008 15 10000 4.51 98 10:34 05.10.2021
6069 Clear 32 1013 23 10000 2.06 160 07:38 05.10.2021
6070 Clouds 26 1008 37 10000 2.51 68 01:28 05.10.2021
6071 Clouds 30 1009 34 10000 3.1 70 22:53 04.10.2021
6072 Clouds 31 1009 31 10000 3.9 69 21:23 04.10.2021
6073 Clouds 34 1008 22 10000 4.48 76 18:48 04.10.2021
6074 Clouds 35 1007 17 10000 5.09 74 17:26 04.10.2021
6075 Clouds 37 1006 16 10000 6.39 66 15:32 04.10.2021
6076 Clouds 37 1005 14 10000 6.69 60 14:45 04.10.2021
6077 Clouds 38 1005 14 10000 6.28 58 13:59 04.10.2021
6078 Clouds 38 1006 13 10000 5.99 57 13:31 04.10.2021
6079 Clear 38 1011 10 10000 4.63 70 12:38 04.10.2021
6080 Clear 37 1012 12 10000 3.6 50 11:33 04.10.2021
6081 Clear 35 1012 12 10000 2.57 90 10:44 04.10.2021
6082 Clouds 34 1009 16 10000 5.32 53 09:35 04.10.2021
6083 Clear 30 1012 12 10000 2.06 90 07:53 04.10.2021
6084 Clear 28 1012 15 10000 0 0 06:42 04.10.2021
6085 Clouds 28 1009 15 10000 3.21 350 22:48 03.10.2021
6086 Clouds 30 1009 14 10000 3.48 3 21:54 03.10.2021
6087 Clear 30 1009 13 10000 3.61 13 21:29 03.10.2021
6088 Clear 31 1009 13 10000 3.61 13 20:44 03.10.2021
6089 Clouds 33 1008 12 10000 3.88 34 19:42 03.10.2021
6090 Clouds 34 1007 10 10000 3.1 21 18:29 03.10.2021
6091 Clouds 36 1007 10 10000 3.1 21 17:36 03.10.2021
6092 Clouds 40 1006 7 10000 2.22 6 14:50 03.10.2021
6093 Clouds 40 1006 7 10000 1.92 348 14:29 03.10.2021
6094 Clouds 39 1006 7 10000 1.92 348 13:35 03.10.2021
6095 Clear 39 1011 7 10000 2.57 310 12:44 03.10.2021
6096 Clear 38 1012 9 10000 2.57 30 10:58 03.10.2021
6097 Clear 37 1013 8 10000 3.09 20 09:42 03.10.2021
6098 Clouds 23 1009 15 10000 1.75 332 05:25 03.10.2021
6099 Clouds 29 1008 13 10000 1.56 327 22:52 02.10.2021
6100 Clouds 29 1009 13 10000 1.48 39 21:49 02.10.2021
6101 Clouds 31 1008 11 10000 2.9 53 20:18 02.10.2021
6102 Clouds 34 1008 11 10000 2.33 30 18:56 02.10.2021
6103 Clouds 34 1008 11 10000 2.33 30 18:56 02.10.2021
6104 Clouds 34 1008 11 10000 2.33 30 18:56 02.10.2021
6105 Clouds 34 1007 11 10000 0.96 318 18:20 02.10.2021
6106 Clouds 35 1007 11 10000 0.95 317 17:37 02.10.2021
6107 Clear 38 1006 9 10000 1.16 243 16:28 02.10.2021
6108 Clouds 25 1009 14 10000 1.53 108 06:47 02.10.2021
6109 Clear 37 1006 7 10000 3.58 120 15:37 30.09.2021
6110 Clear 37 1006 7 10000 3.19 116 13:54 30.09.2021
6111 Clear 36 1011 9 10000 3.09 80 11:53 30.09.2021
6112 Clear 37 1012 9 10000 1.03 0 10:52 30.09.2021
6113 Clear 37 1012 9 10000 1.03 0 10:20 30.09.2021
6114 Clear 35 1013 8 10000 0.51 0 08:30 30.09.2021
6115 Clouds 31 1012 11 8000 0.51 0 07:34 30.09.2021
6116 Clouds 24 1009 13 10000 0.72 44 05:23 30.09.2021
6117 Clouds 24 1008 12 10000 1.1 146 01:36 30.09.2021
6118 Clouds 24 1008 11 10000 1.94 138 00:28 30.09.2021
6119 Clear 26 1008 11 10000 1.92 127 22:38 29.09.2021
6120 Clear 27 1008 10 10000 2.26 118 21:27 29.09.2021
6121 Clear 27 1008 11 10000 1.93 142 20:28 29.09.2021
6122 Clear 30 1008 11 10000 1.93 142 19:54 29.09.2021
6123 Clear 32 1007 11 10000 2.28 164 18:50 29.09.2021
6124 Clouds 34 1006 10 10000 2.75 163 17:52 29.09.2021
6125 Clouds 35 1006 9 10000 2.93 157 16:51 29.09.2021
6126 Clear 36 1005 8 10000 3.17 141 15:58 29.09.2021
6127 Clear 36 1005 8 10000 3.48 138 14:39 29.09.2021
6128 Clear 36 1005 9 10000 3.85 146 13:58 29.09.2021
6129 Clear 36 1005 10 10000 4.12 148 13:18 29.09.2021
6130 Clear 36 1010 7 10000 1.54 100 12:19 29.09.2021
6131 Clear 34 1011 9 10000 4.12 130 10:49 29.09.2021
6132 Clear 33 1012 9 8000 3.6 130 09:51 29.09.2021
6133 Clear 33 1012 9 8000 3.6 130 09:24 29.09.2021
6134 Clear 31 1011 23 10000 0.51 0 07:32 29.09.2021
6135 Clear 23 1007 41 10000 2.5 31 03:58 29.09.2021
6136 Clear 26 1007 32 10000 2.93 35 23:27 28.09.2021
6137 Clear 26 1007 31 10000 2.68 63 22:23 28.09.2021
6138 Clear 28 1007 31 10000 2.68 63 21:44 28.09.2021
6139 Clear 29 1007 31 10000 3.12 75 20:38 28.09.2021
6140 Clear 30 1007 28 10000 4 66 19:46 28.09.2021
6141 Clear 31 1007 26 10000 5.13 65 18:46 28.09.2021
6142 Clear 32 1006 23 10000 6.18 73 17:59 28.09.2021
6143 Clear 33 1004 15 10000 7.78 61 16:23 28.09.2021
6144 Clear 35 1008 8 10000 6.69 10 13:49 28.09.2021
6145 Clear 35 1008 10 10000 8.23 20 12:48 28.09.2021
6146 Clouds 34 1005 7 10000 7.27 21 12:19 28.09.2021
6147 Clear 34 1009 9 10000 7.72 360 11:45 28.09.2021
6148 Clear 32 1010 7 10000 5.66 340 10:58 28.09.2021
6149 Clouds 31 1007 8 10000 6.3 7 09:53 28.09.2021
6150 Clouds 30 1008 9 10000 5.92 358 08:59 28.09.2021
6151 Clouds 30 1008 9 10000 5.92 358 08:38 28.09.2021
6152 Clouds 26 1009 11 10000 5.27 349 07:47 28.09.2021
6153 Clouds 21 1008 17 10000 3.66 336 05:28 28.09.2021
6154 Clouds 22 1008 15 10000 4.41 325 01:23 28.09.2021
6155 Clouds 23 1008 15 10000 4.51 324 00:25 28.09.2021
6156 Clouds 24 1008 15 10000 4.51 324 23:41 27.09.2021
6157 Clouds 25 1008 14 10000 4.39 326 22:56 27.09.2021
6158 Clouds 26 1009 13 10000 4.3 328 21:54 27.09.2021
6159 Clouds 28 1009 12 10000 4.16 333 20:44 27.09.2021
6160 Clouds 29 1009 10 10000 4.16 347 19:56 27.09.2021
6161 Clouds 29 1008 9 10000 4.64 353 19:28 27.09.2021
6162 Clouds 31 1008 9 10000 4.64 353 18:50 27.09.2021
6163 Clouds 33 1007 7 10000 5.8 351 17:29 27.09.2021
6164 Clouds 34 1007 7 10000 5.8 351 16:50 27.09.2021
6165 Clouds 35 1006 6 10000 7.53 349 15:45 27.09.2021
6166 Clouds 35 1006 6 10000 8.9 345 15:18 27.09.2021
6167 Clear 34 1010 10 10000 8.23 310 13:32 27.09.2021
6168 Clear 33 1012 11 10000 6.69 320 11:40 27.09.2021
6169 Clear 31 1013 11 10000 5.66 340 10:37 27.09.2021
6170 Clouds 30 1010 17 10000 7.04 326 08:59 27.09.2021
6171 Clear 26 1012 22 10000 4.12 330 05:22 27.09.2021
6172 Clouds 25 1010 30 10000 3.63 345 03:21 27.09.2021
6173 Clouds 29 1010 25 10000 4.85 5 22:38 26.09.2021
6174 Clouds 30 1010 24 10000 5.02 6 21:53 26.09.2021
6175 Clouds 30 1010 23 10000 5.35 8 21:25 26.09.2021
6176 Clear 31 1010 21 10000 5.64 11 20:22 26.09.2021
6177 Clear 32 1010 21 10000 5.64 11 19:52 26.09.2021
6178 Clear 34 1010 19 10000 5.37 13 18:46 26.09.2021
6179 Clear 35 1009 17 10000 5.09 6 17:57 26.09.2021
6180 Clear 35 1008 15 10000 5.06 4 17:23 26.09.2021
6181 Clear 36 1008 15 10000 5.06 4 16:54 26.09.2021
6182 Clear 37 1008 13 10000 5.33 6 15:59 26.09.2021
6183 Clear 37 1007 12 10000 4.99 9 14:59 26.09.2021
6184 Clear 37 1012 11 10000 2.06 20 13:57 26.09.2021
6185 Clear 37 1012 11 10000 2.06 20 13:20 26.09.2021
6186 Clear 37 1013 11 10000 2.57 0 12:25 26.09.2021
6187 Clear 36 1014 11 10000 3.6 40 11:42 26.09.2021
6188 Clear 36 1014 11 10000 4.12 30 10:30 26.09.2021
6189 Clear 35 1014 12 10000 7.2 40 09:20 26.09.2021
6190 Clear 30 1012 17 10000 5.41 41 07:39 26.09.2021
6191 Clear 28 1010 25 10000 3.16 31 00:23 26.09.2021
6192 Clear 30 1010 25 10000 3.16 31 23:30 25.09.2021
6193 Clear 30 1011 24 10000 3.54 31 22:38 25.09.2021
6194 Clear 32 1011 21 10000 4.31 32 21:55 25.09.2021
6195 Clear 32 1011 18 10000 4.96 25 21:32 25.09.2021
6196 Clear 33 1011 18 10000 4.97 25 20:50 25.09.2021
6197 Clear 33 1010 16 10000 4.79 28 19:31 25.09.2021
6198 Clear 35 1008 13 10000 5.22 35 18:25 25.09.2021
6199 Clouds 38 1007 10 10000 7.5 42 15:56 25.09.2021
6200 Clear 39 1006 9 10000 8.03 41 13:58 25.09.2021
6201 Clear 39 1006 9 10000 8.03 41 13:32 25.09.2021
6202 Clear 38 1008 9 10000 7.37 46 12:28 25.09.2021
6203 Clear 36 1008 10 10000 6.53 49 10:35 25.09.2021
6204 Clear 36 1010 10 10000 5.4 52 09:40 25.09.2021
6205 Clouds 33 1011 14 10000 3.15 96 08:29 25.09.2021
6206 Clouds 25 1010 14 10000 1.83 71 06:26 25.09.2021
6207 Clouds 30 1009 13 10000 2.86 70 23:55 24.09.2021
6208 Clouds 32 1009 12 10000 4.28 72 21:54 24.09.2021
6209 Clouds 33 1009 12 10000 5.03 70 20:49 24.09.2021
6210 Clear 34 1008 14 10000 5.53 64 19:58 24.09.2021
6211 Clear 36 1008 14 10000 5.43 60 18:35 24.09.2021
6212 Clear 37 1007 13 10000 5.61 59 17:55 24.09.2021
6213 Clear 37 1007 13 10000 5.61 59 17:37 24.09.2021
6214 Clear 37 1006 12 10000 5.01 59 17:18 24.09.2021
6215 Clear 40 1005 10 10000 4.02 64 14:34 24.09.2021
6216 Clouds 39 1005 10 10000 2.51 69 13:18 24.09.2021
6217 Clouds 39 1005 10 10000 2.51 69 12:40 24.09.2021
6218 Clouds 39 1006 10 10000 1.71 80 12:22 24.09.2021
6219 Clouds 38 1008 12 10000 3.37 148 10:27 24.09.2021
6220 Clouds 32 1008 13 10000 4.05 138 08:55 24.09.2021
6221 Clouds 30 1008 15 10000 4.82 136 07:38 24.09.2021
6222 Clouds 26 1008 17 10000 3.85 132 06:47 24.09.2021
6223 Clear 25 1008 21 10000 2.48 106 04:58 24.09.2021
6224 Clouds 30 1006 19 10000 3.36 120 00:35 24.09.2021
6225 Clouds 32 1006 17 10000 3.99 112 22:30 23.09.2021
6226 Clouds 32 1006 17 10000 3.99 112 21:56 23.09.2021
6227 Clouds 33 1006 13 10000 3.15 90 20:35 23.09.2021
6228 Clear 32 1006 14 10000 5.28 78 19:48 23.09.2021
6229 Clear 37 1004 12 10000 2.95 87 17:47 23.09.2021
6230 Clear 40 1003 9 10000 3.91 62 15:32 23.09.2021
6231 Clear 40 1003 9 10000 2.29 58 14:59 23.09.2021
6232 Clear 40 1003 9 10000 0.63 267 13:46 23.09.2021
6233 Clear 40 1004 9 10000 3.74 243 13:21 23.09.2021
6234 Clear 38 1004 9 10000 3.74 243 12:52 23.09.2021
6235 Clear 38 1005 9 10000 5.25 242 12:22 23.09.2021
6236 Clear 37 1005 9 10000 5.25 242 11:40 23.09.2021
6237 Clear 37 1007 10 10000 4.85 235 10:26 23.09.2021
6238 Clear 35 1007 10 10000 4.85 235 09:52 23.09.2021
6239 Clear 34 1008 12 10000 5.33 235 08:25 23.09.2021
6240 Clear 24 1007 20 10000 2.9 191 04:27 23.09.2021
6241 Clear 29 1007 19 10000 2.91 134 23:27 22.09.2021
6242 Clear 29 1007 19 10000 2.91 134 22:37 22.09.2021
6243 Clear 30 1007 18 10000 3.23 126 21:56 22.09.2021
6244 Clear 30 1007 18 10000 3.25 98 21:34 22.09.2021
6245 Clear 31 1007 18 10000 3.24 98 20:57 22.09.2021
6246 Clear 32 1007 17 10000 3.77 71 19:33 22.09.2021
6247 Clear 34 1006 16 10000 3.83 54 18:39 22.09.2021
6248 Clear 34 1006 16 10000 3.84 54 18:39 22.09.2021
6249 Clear 33 1006 14 10000 4.18 47 17:48 22.09.2021
6250 Clear 34 1005 13 10000 4.22 25 16:38 22.09.2021
6251 Clear 37 1005 11 10000 6.65 354 15:20 22.09.2021
6252 Clear 38 1005 11 10000 7.05 352 13:58 22.09.2021
6253 Clear 38 1007 11 10000 6.86 352 12:19 22.09.2021
6254 Clear 37 1008 11 10000 6.23 353 10:53 22.09.2021
6255 Clear 34 1010 13 10000 4.23 340 09:25 22.09.2021
6256 Clear 32 1010 13 10000 4.23 340 08:30 22.09.2021
6257 Clear 31 1012 14 10000 1.54 280 07:21 22.09.2021
6258 Clear 26 1011 18 10000 1.54 280 05:56 22.09.2021
6259 Clear 26 1011 18 10000 1.54 280 05:34 22.09.2021
6260 Clear 24 1009 19 10000 3.69 332 03:52 22.09.2021
6261 Clear 26 1009 15 10000 3.37 333 00:22 22.09.2021
6262 Clear 27 1009 15 10000 3.32 335 23:24 21.09.2021
6263 Clear 29 1009 15 10000 3.49 335 21:37 21.09.2021
6264 Clear 31 1010 13 10000 4.09 5 20:27 21.09.2021
6265 Clear 32 1008 12 10000 4.4 17 19:22 21.09.2021
6266 Clear 33 1008 10 10000 4.45 12 17:39 21.09.2021
6267 Clear 38 1007 9 10000 4.44 4 16:38 21.09.2021
6268 Clear 38 1006 7 10000 5.68 354 15:44 21.09.2021
6269 Clear 39 1006 7 10000 6.28 352 14:58 21.09.2021
6270 Clear 38 1011 8 10000 4.12 340 13:56 21.09.2021
6271 Clear 38 1011 8 10000 4.12 340 13:36 21.09.2021
6272 Clear 38 1012 8 10000 4.12 10 12:36 21.09.2021
6273 Clear 37 1013 9 10000 2.06 350 10:32 21.09.2021
6274 Clear 33 1011 13 10000 1.56 28 08:29 21.09.2021
6275 Clear 32 1013 13 10000 1.54 310 07:18 21.09.2021
6276 Clear 27 1010 17 10000 3.69 345 00:30 21.09.2021
6277 Clear 28 1010 17 10000 3.95 354 22:37 20.09.2021
6278 Clear 30 1010 17 10000 3.72 360 21:41 20.09.2021
6279 Clear 32 1010 16 10000 3.67 20 20:55 20.09.2021
6280 Clear 33 1010 16 10000 4.11 34 19:33 20.09.2021
6281 Clear 36 1009 14 10000 4.42 47 17:52 20.09.2021
6282 Clear 37 1008 12 10000 4.82 40 16:49 20.09.2021
6283 Clear 38 1007 11 10000 6.13 34 15:56 20.09.2021
6284 Clear 38 1007 11 10000 6.12 34 15:32 20.09.2021
6285 Clear 38 1007 10 10000 5.78 39 14:25 20.09.2021
6286 Clear 39 1012 10 10000 5.14 30 12:39 20.09.2021
6287 Clear 39 1012 10 10000 5.14 30 12:20 20.09.2021
6288 Clear 35 1009 12 10000 5.51 61 10:32 20.09.2021
6289 Clear 34 1010 13 10000 5.53 62 09:43 20.09.2021
6290 Clear 34 1011 15 10000 5.48 58 09:20 20.09.2021
6291 Clear 34 1014 14 10000 3.6 40 08:27 20.09.2021
6292 Clear 26 1008 21 10000 2.89 19 02:27 20.09.2021
6293 Clear 30 1008 20 10000 2.89 28 22:46 19.09.2021
6294 Clear 31 1009 20 10000 3.18 34 21:45 19.09.2021
6295 Clear 33 1009 19 10000 3.6 51 20:53 19.09.2021
6296 Clear 34 1009 16 10000 4.03 70 19:32 19.09.2021
6297 Clear 35 1008 16 10000 4.33 70 18:32 19.09.2021
6298 Clear 37 1007 11 10000 4.83 71 17:23 19.09.2021
6299 Clear 39 1006 9 10000 6.34 66 15:59 19.09.2021
6300 Clear 39 1006 9 10000 6.34 66 15:31 19.09.2021
6301 Clear 39 1006 8 10000 7.28 64 14:48 19.09.2021
6302 Clear 39 1006 8 10000 7.9 51 13:29 19.09.2021
6303 Clear 39 1006 8 10000 7.9 51 12:52 19.09.2021
6304 Clear 38 1007 9 10000 8.58 42 11:29 19.09.2021
6305 Clear 36 1007 9 10000 8.56 42 10:56 19.09.2021
6306 Clear 34 1008 10 10000 8.36 39 09:49 19.09.2021
6307 Clear 34 1012 16 10000 4.12 40 08:35 19.09.2021
6308 Clear 30 1011 14 10000 2.57 10 06:42 19.09.2021
6309 Clear 29 1007 18 10000 3.08 338 23:53 18.09.2021
6310 Clear 30 1007 18 10000 3.46 342 22:51 18.09.2021
6311 Clear 33 1008 16 10000 3.89 3 20:58 18.09.2021
6312 Clear 33 1008 16 10000 3.87 3 20:38 18.09.2021
6313 Clear 35 1007 15 10000 4.54 21 19:40 18.09.2021
6314 Clear 35 1007 14 10000 4.97 9 19:21 18.09.2021
6315 Clear 36 1007 14 10000 4.97 9 18:37 18.09.2021
6316 Clear 37 1006 13 10000 5.98 21 17:45 18.09.2021
6317 Clear 38 1004 10 10000 8.11 6 16:24 18.09.2021
6318 Clouds 40 1004 9 10000 9.68 3 13:49 18.09.2021
6319 Clouds 40 1004 8 10000 9.76 5 13:29 18.09.2021
6320 Clouds 40 1004 8 10000 9.76 5 12:49 18.09.2021
6321 Clouds 39 1005 8 10000 9.18 5 11:42 18.09.2021
6322 Clouds 37 1005 9 10000 7.36 3 10:33 18.09.2021
6323 Clouds 35 1006 10 10000 5.28 9 09:35 18.09.2021
6324 Clouds 35 1006 10 10000 5.27 9 09:35 18.09.2021
6325 Clouds 33 1007 13 10000 4.21 16 08:59 18.09.2021
6326 Clouds 28 1007 19 10000 2.6 352 05:51 18.09.2021
6327 Clouds 28 1006 18 10000 3.47 328 00:42 18.09.2021
6328 Clouds 29 1007 17 10000 3.23 322 23:50 17.09.2021
6329 Clouds 30 1007 17 10000 3.3 324 22:38 17.09.2021
6330 Clouds 30 1007 16 10000 3.7 322 22:19 17.09.2021
6331 Clouds 30 1007 15 10000 3.45 348 21:23 17.09.2021
6332 Clouds 32 1006 12 10000 4.74 22 19:23 17.09.2021
6333 Clouds 36 1004 10 10000 6.43 24 17:25 17.09.2021
6334 Clouds 37 1004 9 10000 7.13 21 16:27 17.09.2021
6335 Clouds 37 1004 8 10000 5.84 32 13:29 17.09.2021
6336 Clouds 36 1006 9 10000 4.9 37 10:53 17.09.2021
6337 Clouds 32 1008 13 10000 3.95 25 08:52 17.09.2021
6338 Clouds 29 1008 16 10000 4.28 359 07:19 17.09.2021
6339 Clouds 24 1007 17 10000 3.97 341 03:54 17.09.2021
6340 Clouds 29 1007 13 10000 3.4 7 23:25 16.09.2021
6341 Clouds 31 1007 12 10000 3.86 19 22:25 16.09.2021
6342 Clouds 30 1007 12 10000 3.85 19 21:43 16.09.2021
6343 Clouds 30 1007 11 10000 4.42 24 21:22 16.09.2021
6344 Clouds 31 1007 10 10000 4.88 29 20:18 16.09.2021
6345 Clouds 31 1007 10 10000 4.88 29 20:18 16.09.2021
6346 Clouds 34 1006 9 10000 4.92 16 18:20 16.09.2021
6347 Clouds 35 1005 8 10000 4.4 22 17:33 16.09.2021
6348 Clouds 37 1004 7 10000 4.93 15 14:56 16.09.2021
6349 Clouds 38 1004 7 10000 4.68 17 13:56 16.09.2021
6350 Clouds 37 1005 7 10000 4.58 17 12:49 16.09.2021
6351 Clouds 37 1006 8 10000 4.52 13 12:28 16.09.2021
6352 Clear 37 1007 8 10000 4.43 4 11:25 16.09.2021
6353 Clear 35 1011 9 10000 5.66 10 10:33 16.09.2021
6354 Clear 34 1012 11 10000 4.12 360 09:53 16.09.2021
6355 Clear 34 1012 11 10000 3.6 20 08:42 16.09.2021
6356 Clouds 31 1009 15 10000 4.47 19 07:22 16.09.2021
6357 Clouds 25 1009 15 10000 4.47 19 06:43 16.09.2021
6358 Clouds 24 1009 19 10000 3.94 10 04:55 16.09.2021
6359 Clouds 26 1008 18 10000 3.65 346 01:27 16.09.2021
6360 Clouds 27 1008 18 10000 3.68 349 23:37 15.09.2021
6361 Clouds 29 1008 18 10000 3.8 359 22:47 15.09.2021
6362 Clouds 30 1008 18 10000 3.98 8 21:44 15.09.2021
6363 Clouds 30 1008 18 10000 4.09 6 21:25 15.09.2021
6364 Clouds 33 1008 17 10000 4.25 4 19:52 15.09.2021
6365 Clouds 33 1007 15 10000 4.81 12 19:19 15.09.2021
6366 Clouds 36 1006 14 10000 5.22 10 17:49 15.09.2021
6367 Clouds 37 1006 12 10000 6.26 7 16:54 15.09.2021
6368 Clouds 37 1005 10 10000 8.08 3 15:33 15.09.2021
6369 Clouds 38 1005 10 10000 8.62 358 14:44 15.09.2021
6370 Clouds 38 1005 9 10000 8.29 0 13:51 15.09.2021
6371 Clouds 38 1006 9 10000 7.68 360 13:29 15.09.2021
6372 Clear 37 1011 11 10000 7.2 20 12:42 15.09.2021
6373 Clear 37 1011 12 10000 4.12 20 11:51 15.09.2021
6374 Clouds 37 1007 10 10000 6.91 5 11:19 15.09.2021
6375 Clear 37 1012 11 10000 5.66 30 10:50 15.09.2021
6376 Clear 36 1012 11 10000 5.14 20 09:26 15.09.2021
6377 Clear 31 1012 16 10000 4.63 20 07:37 15.09.2021
6378 Clouds 26 1008 21 10000 4.92 21 04:24 15.09.2021
6379 Clear 31 1007 17 10000 4.94 14 22:56 14.09.2021
6380 Clear 31 1008 16 10000 5.69 13 21:38 14.09.2021
6381 Clear 32 1008 16 10000 5.69 13 20:38 14.09.2021
6382 Clear 34 1008 16 10000 5.54 14 19:41 14.09.2021
6383 Clear 37 1006 14 10000 6.05 10 17:34 14.09.2021
6384 Clear 38 1006 12 10000 6.46 3 16:56 14.09.2021
6385 Clear 40 1005 11 10000 7.28 354 15:30 14.09.2021
6386 Clear 39 1005 11 10000 6.84 349 14:31 14.09.2021
6387 Clear 37 1006 13 10000 4.35 341 11:52 14.09.2021
6388 Clear 37 1007 14 10000 3.59 339 10:54 14.09.2021
6389 Clear 37 1008 14 10000 3.01 337 09:50 14.09.2021
6390 Clear 34 1008 15 10000 2.23 335 08:39 14.09.2021
6391 Clear 28 1008 19 10000 0.42 301 06:23 14.09.2021
6392 Clear 29 1006 22 10000 2.87 52 23:54 13.09.2021
6393 Clear 29 1006 21 10000 3.74 44 22:30 13.09.2021
6394 Clear 31 1007 21 10000 4.07 42 21:59 13.09.2021
6395 Clear 31 1007 21 10000 4.07 42 21:40 13.09.2021
6396 Clear 32 1007 19 10000 4.85 42 20:48 13.09.2021
6397 Clear 35 1006 15 10000 4.41 44 18:46 13.09.2021
6398 Clear 35 1006 15 10000 4.4 44 18:45 13.09.2021
6399 Clear 36 1005 13 10000 4.34 31 17:42 13.09.2021
6400 Clear 38 1004 11 10000 4.64 20 16:50 13.09.2021
6401 Clear 38 1004 10 10000 5.39 6 15:22 13.09.2021
6402 Clear 37 1005 11 10000 4.83 2 11:55 13.09.2021
6403 Clear 36 1006 12 10000 3.82 11 10:58 13.09.2021
6404 Clear 36 1010 12 10000 2.57 10 09:31 13.09.2021
6405 Clear 25 1007 21 10000 0.98 52 04:38 13.09.2021
6406 Clear 30 1006 17 10000 4.79 3 22:59 12.09.2021
6407 Clear 30 1007 16 10000 5.02 357 22:25 12.09.2021
6408 Clear 31 1007 16 10000 5.02 357 21:34 12.09.2021
6409 Clear 32 1006 14 10000 5.8 360 20:21 12.09.2021
6410 Clear 33 1006 10 10000 4.89 3 19:49 12.09.2021
6411 Clear 33 1006 8 10000 4.98 5 19:19 12.09.2021
6412 Clear 35 1005 7 10000 5.08 9 18:19 12.09.2021
6413 Clear 39 1004 5 10000 6.24 9 15:59 12.09.2021
6414 Clear 40 1003 5 10000 6.05 11 14:48 12.09.2021
6415 Clear 38 1008 8 10000 3.6 340 12:47 12.09.2021
6416 Clear 36 1010 10 10000 5.14 360 10:35 12.09.2021
6417 Clear 33 1010 13 10000 5.14 10 08:40 12.09.2021
6418 Clear 31 1010 14 10000 4.63 360 07:39 12.09.2021
6419 Clear 29 1006 18 10000 4.92 354 00:48 12.09.2021
6420 Clear 28 1006 14 10000 4.81 335 23:18 11.09.2021
6421 Clear 32 1007 13 10000 4.62 329 21:40 11.09.2021
6422 Clouds 33 1006 9 10000 4.56 1 19:55 11.09.2021
6423 Clouds 35 1005 8 10000 5.56 359 18:32 11.09.2021
6424 Clouds 36 1004 6 10000 6.65 357 17:29 11.09.2021
6425 Clouds 38 1003 5 10000 8.13 359 15:38 11.09.2021
6426 Clear 39 1008 8 10000 6.69 20 13:25 11.09.2021
6427 Clear 38 1009 8 10000 7.2 340 11:47 11.09.2021
6428 Clouds 37 1010 9 8000 8.75 350 10:51 11.09.2021
6429 Clear 36 1011 11 10000 7.2 350 09:28 11.09.2021
6430 Clear 30 1010 16 10000 4.12 320 07:44 11.09.2021
6431 Clear 26 1010 21 10000 2.57 300 06:31 11.09.2021
6432 Clouds 30 1007 11 10000 4.16 336 22:48 10.09.2021
6433 Clouds 30 1007 11 10000 4.2 338 22:22 10.09.2021
6434 Clouds 31 1007 11 10000 4.21 338 21:43 10.09.2021
6435 Clouds 34 1007 9 10000 4.47 342 19:33 10.09.2021
6436 Clouds 34 1006 8 10000 5.43 350 18:00 10.09.2021
6437 Clouds 39 1005 7 10000 6.84 347 16:34 10.09.2021
6438 Clouds 40 1009 9 8000 7.72 340 13:52 10.09.2021
6439 -273 0 0 0 0 0 11:38 10.09.2021
6440 Clear 34 1013 14 10000 4.63 10 08:27 10.09.2021
6441 Clear 33 1012 15 10000 5.14 10 07:44 10.09.2021
6442 Clouds 29 1007 17 10000 3.36 348 00:41 10.09.2021
6443 Clouds 33 1008 15 10000 3.12 11 21:56 09.09.2021
6444 Clouds 34 1008 14 10000 3.68 13 20:48 09.09.2021
6445 Clouds 34 1007 13 10000 3.89 17 20:28 09.09.2021
6446 Clouds 37 1007 12 10000 4.18 16 18:50 09.09.2021
6447 Clouds 38 1006 11 10000 4.78 16 17:51 09.09.2021
6448 Clouds 40 1005 10 10000 6.22 15 16:39 09.09.2021
6449 Clouds 40 1004 8 10000 8.64 17 15:26 09.09.2021
6450 Clear 41 1010 7 10000 6.69 10 12:33 09.09.2021
6451 Clear 41 1010 7 10000 8.23 360 11:23 09.09.2021
6452 Clear 38 1011 10 10000 10.29 10 09:39 09.09.2021
6453 Clear 33 1011 15 10000 6.69 350 07:56 09.09.2021
6454 Clouds 29 1011 14 9000 3.6 300 05:51 09.09.2021
6455 Clouds 31 1007 14 10000 3.83 323 00:43 09.09.2021
6456 Clear 35 1007 12 10000 3.46 20 21:49 08.09.2021
6457 Clear 36 1007 11 10000 4.17 33 20:54 08.09.2021
6458 Clouds 38 1006 10 10000 5.45 39 19:46 08.09.2021
6459 Clouds 39 1006 9 10000 5.17 34 18:47 08.09.2021
6460 Clouds 39 1005 8 10000 5.23 32 18:25 08.09.2021
6461 Clouds 40 1005 8 10000 5.23 32 17:40 08.09.2021
6462 Clouds 42 1004 6 10000 8.29 28 15:49 08.09.2021
6463 Clouds 43 1009 6 8000 6.69 20 13:45 08.09.2021
6464 Clouds 42 1009 7 8000 7.72 20 12:41 08.09.2021
6465 Clouds 42 1009 7 8000 7.72 20 12:23 08.09.2021
6466 Clouds 43 1009 6 8000 9.26 20 11:26 08.09.2021
6467 Clear 42 1010 7 10000 9.26 10 10:31 08.09.2021
6468 Clear 40 1011 9 10000 7.72 20 09:56 08.09.2021
6469 Clear 36 1010 9 10000 5.66 350 07:46 08.09.2021
6470 Clear 36 1010 9 10000 5.66 350 07:19 08.09.2021
6471 Clear 33 1006 14 10000 2.1 23 23:32 07.09.2021
6472 Clear 35 1006 12 10000 4.2 51 22:19 07.09.2021
6473 Clear 37 1006 10 10000 5.66 51 20:45 07.09.2021
6474 Clear 37 1005 9 10000 5.54 37 19:27 07.09.2021
6475 Clear 39 1005 9 10000 5.54 37 18:37 07.09.2021
6476 Clear 41 1005 8 10000 5.91 37 17:38 07.09.2021
6477 Clear 42 1003 7 10000 8.88 27 15:57 07.09.2021
6478 Clear 43 1003 6 10000 9.58 25 14:54 07.09.2021
6479 Clear 43 1008 7 7000 9.26 20 13:52 07.09.2021
6480 Clear 40 1009 7 10000 4.12 360 12:20 07.09.2021
6481 Clear 41 1010 7 10000 3.6 350 10:59 07.09.2021
6482 Clear 41 1010 7 10000 3.6 350 10:59 07.09.2021
6483 Clear 41 1010 7 10000 3.6 350 10:18 07.09.2021
6484 Clear 37 1011 9 10000 2.06 10 07:47 07.09.2021
6485 Clear 33 1010 12 10000 1.03 360 06:31 07.09.2021
6486 Clear 29 1006 14 10000 0.61 206 02:39 07.09.2021
6487 Clear 29 1006 13 10000 1.55 224 02:20 07.09.2021
6488 Clear 32 1006 14 10000 0.19 342 23:52 06.09.2021
6489 Clear 32 1006 14 10000 0.19 342 23:31 06.09.2021
6490 Clear 34 1007 12 10000 1.75 68 22:51 06.09.2021
6491 Clear 34 1007 12 10000 2.86 53 22:21 06.09.2021
6492 Clear 35 1007 11 10000 3.84 48 20:35 06.09.2021
6493 Clouds 37 1006 10 10000 4.21 59 19:19 06.09.2021
6494 Clouds 38 1005 9 10000 4.89 58 18:35 06.09.2021
6495 Clouds 40 1005 9 10000 4.89 58 17:52 06.09.2021
6496 Clouds 41 1004 7 10000 6.24 46 16:23 06.09.2021
6497 Clouds 42 1004 7 10000 4.53 53 14:59 06.09.2021
6498 Clear 42 1009 7 10000 4.12 150 12:59 06.09.2021
6499 Clear 42 1009 7 10000 4.12 150 12:41 06.09.2021
6500 Clear 42 1009 7 10000 4.12 150 12:41 06.09.2021
6501 Clear 40 1010 8 10000 4.12 130 10:36 06.09.2021
6502 Clear 38 1011 9 10000 0 0 07:39 06.09.2021
6503 Clear 29 1006 15 10000 0.42 343 04:27 06.09.2021
6504 Clear 33 1006 14 10000 2.68 61 23:23 05.09.2021
6505 Clear 34 1006 14 10000 2.68 61 22:32 05.09.2021
6506 Clear 35 1006 13 10000 3.67 55 21:56 05.09.2021
6507 Clear 35 1005 13 10000 4.34 61 21:20 05.09.2021
6508 Clear 37 1005 10 10000 4.64 49 19:45 05.09.2021
6509 Clear 40 1004 9 10000 4.91 37 17:52 05.09.2021
6510 Clouds 42 1003 7 10000 8.57 42 15:58 05.09.2021
6511 Clouds 42 1003 7 10000 8.22 43 15:19 05.09.2021
6512 Clouds 42 1003 7 10000 8.22 43 15:19 05.09.2021
6513 Clear 43 1008 6 10000 6.69 40 12:44 05.09.2021
6514 Clear 42 1008 7 10000 6.17 60 11:31 05.09.2021
6515 Clear 41 1009 10 10000 5.14 50 10:39 05.09.2021
6516 Clear 40 1010 11 10000 4.12 60 09:33 05.09.2021
6517 Clear 40 1010 14 10000 1.03 0 08:28 05.09.2021
6518 Clear 31 1005 21 10000 1.7 311 03:52 05.09.2021
6519 Clouds 34 1004 19 10000 2.01 50 00:39 05.09.2021
6520 Clouds 34 1005 18 10000 3.49 64 23:55 04.09.2021
6521 Clouds 34 1005 17 10000 4.38 71 23:22 04.09.2021
6522 Clouds 35 1005 17 10000 4.38 71 22:34 04.09.2021
6523 Clouds 35 1005 17 10000 4.38 71 22:34 04.09.2021
6524 Clouds 36 1004 12 10000 5.17 51 20:21 04.09.2021
6525 Clouds 37 1004 12 10000 5.18 51 19:33 04.09.2021
6526 Clouds 41 1002 9 10000 5.39 57 17:21 04.09.2021
6527 Clouds 43 1001 7 10000 6.51 49 14:29 04.09.2021
6528 Clear 41 1008 9 10000 2.57 330 11:26 04.09.2021
6529 Clouds 40 1009 10 10000 3.09 150 10:32 04.09.2021
6530 Clouds 34 1008 13 10000 3.09 50 07:32 04.09.2021
6531 Clear 32 1003 13 10000 1.44 193 00:49 04.09.2021
6532 Clear 32 1003 13 10000 1.44 193 00:49 04.09.2021
6533 Clear 33 1003 12 10000 2.67 153 23:39 03.09.2021
6534 Clear 33 1003 11 10000 3.21 131 23:19 03.09.2021
6535 Clear 34 1003 10 10000 4.14 141 21:41 03.09.2021
6536 Clear 36 1003 10 10000 4.7 133 20:54 03.09.2021
6537 Clear 36 1003 9 10000 4.68 117 20:24 03.09.2021
6538 Clear 37 1003 9 10000 4.93 104 19:33 03.09.2021
6539 Clear 37 1003 9 10000 4.93 104 19:33 03.09.2021
6540 Clear 39 1001 8 10000 4.74 74 18:20 03.09.2021
6541 Clear 42 1000 7 10000 5.05 55 16:47 03.09.2021
6542 Clear 44 1000 6 10000 5.19 23 15:38 03.09.2021
6543 Clear 43 1005 8 10000 0 0 13:24 03.09.2021
6544 Clear 39 1007 10 10000 4.12 300 10:45 03.09.2021
6545 Clear 37 1008 12 10000 1.03 360 09:21 03.09.2021
6546 Clear 31 1007 15 10000 2.06 200 07:54 03.09.2021
6547 Clear 30 1006 16 10000 1.54 220 06:26 03.09.2021
6548 Clear 31 1003 14 10000 0.41 261 23:56 02.09.2021
6549 Clear 34 1004 11 10000 3.05 77 21:49 02.09.2021
6550 Clear 37 1004 10 10000 2.64 34 20:25 02.09.2021
6551 Clouds 40 1002 8 10000 4.05 79 17:41 02.09.2021
6552 Clouds 42 1001 7 10000 5.29 63 16:20 02.09.2021
6553 Clouds 42 1001 7 10000 4.81 59 15:29 02.09.2021
6554 Clear 43 1007 7 10000 2.57 80 13:28 02.09.2021
6555 Clear 43 1008 7 10000 2.06 0 11:43 02.09.2021
6556 Clear 41 1009 7 10000 3.09 280 10:53 02.09.2021
6557 Clear 40 1010 9 10000 1.03 0 08:57 02.09.2021
6558 Clear 37 1010 9 10000 0 0 07:22 02.09.2021
6559 Clear 32 1008 12 9000 1.54 40 05:31 02.09.2021
6560 Clear 32 1008 12 9000 1.54 40 05:31 02.09.2021
6561 Clear 29 1005 13 10000 0.94 143 02:35 02.09.2021
6562 Clear 29 1005 14 10000 0.73 247 01:36 02.09.2021
6563 Clear 31 1005 13 10000 1.02 125 23:40 01.09.2021
6564 Clear 31 1005 12 10000 2.28 164 22:42 01.09.2021
6565 Clear 32 1006 11 10000 2.44 136 21:41 01.09.2021
6566 Clear 35 1006 10 10000 2.24 105 20:54 01.09.2021
6567 Clear 35 1005 7 10000 3.2 96 19:24 01.09.2021
6568 Clear 40 1004 7 10000 3.4 96 17:51 01.09.2021
6569 Clear 41 1004 6 10000 3.87 91 16:55 01.09.2021
6570 Clear 41 1004 6 10000 3.87 91 16:33 01.09.2021
6571 Clear 43 1008 5 10000 5.14 120 13:57 01.09.2021
6572 Clear 42 1010 8 10000 0 0 11:47 01.09.2021
6573 Clear 41 1011 8 10000 1.03 0 09:35 01.09.2021
6574 Clouds 36 1011 10 9000 1.54 50 07:57 01.09.2021
6575 Clear 34 1010 13 10000 2.57 60 06:42 01.09.2021
6576 Clouds 32 1005 12 10000 0.18 35 23:20 31.08.2021
6577 Clouds 32 1005 11 10000 0.49 138 21:41 31.08.2021
6578 Clouds 36 1005 10 10000 3.27 132 19:49 31.08.2021
6579 Clouds 39 1004 10 10000 3.85 124 18:45 31.08.2021
6580 Clouds 40 1004 9 10000 3.58 110 17:39 31.08.2021
6581 Clouds 40 1003 8 10000 3.97 105 17:21 31.08.2021
6582 Clouds 41 1003 6 10000 4.36 122 16:24 31.08.2021
6583 Clouds 42 1003 6 10000 4.22 144 14:28 31.08.2021
6584 Clear 42 1009 7 10000 3.6 140 11:36 31.08.2021
6585 Clear 41 1010 9 10000 2.57 140 10:56 31.08.2021
6586 Clear 39 1010 10 10000 4.63 150 09:45 31.08.2021
6587 Clear 38 1010 10 10000 3.09 160 08:41 31.08.2021
6588 Clear 37 1010 12 10000 2.57 150 07:38 31.08.2021
6589 Clear 33 1009 15 10000 2.57 180 05:55 31.08.2021
6590 Clouds 33 1004 17 10000 3.45 90 23:35 30.08.2021
6591 Clouds 35 1005 15 10000 4.96 83 21:53 30.08.2021
6592 Clouds 35 1005 15 10000 4.96 83 21:32 30.08.2021
6593 Clear 36 1005 15 10000 5.52 87 20:32 30.08.2021
6594 Clouds 37 1003 12 10000 6.25 87 19:29 30.08.2021
6595 Clouds 39 1003 12 10000 6.25 87 18:44 30.08.2021
6596 Clouds 40 1003 10 10000 5.73 83 17:47 30.08.2021
6597 Clouds 41 1001 7 10000 6.72 61 16:24 30.08.2021
6598 Clouds 42 1001 7 10000 6.72 61 15:39 30.08.2021
6599 Clear 43 1006 8 10000 1.54 0 13:45 30.08.2021
6600 Clear 43 1006 7 10000 4.12 0 12:29 30.08.2021
6601 Clear 41 1006 11 10000 3.09 130 10:34 30.08.2021
6602 Clear 34 1001 12 10000 2.73 142 23:29 29.08.2021
6603 Clear 35 1001 10 10000 3.6 125 21:33 29.08.2021
6604 Clear 36 1000 7 10000 3.63 95 20:27 29.08.2021
6605 Clear 36 999 6 10000 3.3 83 19:20 29.08.2021
6606 Clear 41 998 5 10000 3.25 36 17:53 29.08.2021
6607 Clear 43 997 4 10000 5.23 17 15:49 29.08.2021
6608 Clouds 43 997 4 10000 5.02 15 14:20 29.08.2021
6609 Clear 44 1002 5 10000 3.6 350 13:44 29.08.2021
6610 Clear 44 1003 5 10000 3.6 10 12:40 29.08.2021
6611 Clear 41 1004 6 10000 3.6 320 11:50 29.08.2021
6612 Clear 41 1004 6 10000 3.6 320 11:23 29.08.2021
6613 Clear 40 1005 7 10000 5.14 360 10:43 29.08.2021
6614 Clear 40 1005 7 10000 5.14 360 10:24 29.08.2021
6615 Clouds 38 1005 8 7000 5.14 360 08:24 29.08.2021
6616 Clouds 36 1001 10 10000 4.06 329 00:25 29.08.2021
6617 Clouds 38 1002 9 10000 4.21 345 21:54 28.08.2021
6618 Clear 39 1002 8 10000 4.2 7 20:28 28.08.2021
6619 Clear 40 1001 7 10000 4.74 27 18:43 28.08.2021
6620 Clear 40 1000 6 10000 5.32 26 18:19 28.08.2021
6621 Clear 42 1000 5 10000 6.68 17 17:18 28.08.2021
6622 Clear 43 999 4 10000 8.76 14 15:39 28.08.2021
6623 Clouds 44 999 4 10000 8.64 12 14:26 28.08.2021
6624 Clouds 43 999 4 10000 8.97 12 13:45 28.08.2021
6625 Clear 44 1006 7 10000 8.23 60 12:44 28.08.2021
6626 Clear 44 1006 7 10000 7.72 10 11:54 28.08.2021
6627 Clear 42 1007 7 10000 9.26 360 10:41 28.08.2021
6628 Clouds 39 1008 10 7000 7.72 10 08:40 28.08.2021
6629 Dust 36 1008 11 5000 5.66 350 07:24 28.08.2021
6630 Clear 37 1004 9 10000 5.76 355 22:29 27.08.2021
6631 Clear 38 1004 9 10000 5.73 353 20:59 27.08.2021
6632 Clear 38 1004 9 10000 5.73 353 20:30 27.08.2021
6633 Clear 40 1002 8 10000 4.59 21 18:58 27.08.2021
6634 Clear 40 1002 8 10000 4.59 21 18:37 27.08.2021
6635 Clear 43 1001 6 10000 5.79 23 16:56 27.08.2021
6636 Clear 44 1001 5 10000 7.32 22 15:46 27.08.2021
6637 Clear 43 1001 5 10000 7.4 24 14:43 27.08.2021
6638 Clear 43 1002 5 10000 7.08 19 12:30 27.08.2021
6639 Clear 43 1003 6 10000 7.72 11 11:25 27.08.2021
6640 Clear 41 1003 6 10000 7.72 11 10:43 27.08.2021
6641 Clear 40 1004 6 10000 7.4 1 09:31 27.08.2021
6642 Clear 39 1005 7 10000 7.46 2 08:44 27.08.2021
6643 Clear 31 1006 10 10000 5.96 353 06:37 27.08.2021
6644 Clear 30 1005 15 10000 4.34 343 03:48 27.08.2021
6645 Clear 31 1003 13 10000 2.06 11 00:33 27.08.2021
6646 Clear 34 1004 12 10000 3.19 31 22:41 26.08.2021
6647 Clear 34 1004 12 10000 3.82 25 22:18 26.08.2021
6648 Clear 37 1003 11 10000 3.9 42 20:31 26.08.2021
6649 Clear 40 1003 11 10000 4.75 61 18:50 26.08.2021
6650 Clear 41 1002 11 10000 5.05 51 17:44 26.08.2021
6651 Clear 42 1001 9 10000 5.63 57 16:33 26.08.2021
6652 Clear 42 1001 9 10000 5.65 57 15:54 26.08.2021
6653 Clear 43 1006 7 10000 4.12 330 13:44 26.08.2021
6654 Clear 43 1007 7 10000 4.12 320 12:50 26.08.2021
6655 Clear 43 1007 7 10000 4.12 320 12:24 26.08.2021
6656 Clear 40 1008 10 10000 4.12